<?xml version="1.0" encoding="UTF-8" standalone="no" ?>
<gpx xmlns="http://www.topografix.com/GPX/1/1" xmlns:xsi="http://www.w3.org/2001/XMLSchema-instance" xsi:schemaLocation="http://www.topografix.com/GPX/1/1 http://www.topografix.com/GPX/1/1/gpx.xsd" version="1.1" creator="VisuGPX - https://www.visugpx.com">
  <metadata>
    <name>CCFM 326</name>
    <desc><![CDATA[⛳️CS.Mons, Verlaine, Fize, Villers, Moha, Héron, Envoz, Lamalle, Bas-Oha, Wanze, [b]HUY[/b], Mont-Falise, Villers, Viemme, Bovenistier, Remicourt, Fexhe, Lexhy, Mons.]]></desc>
  </metadata>
  <trk>
    <name><![CDATA[CCFM 326_1]]></name>
    <desc><![CDATA[]]></desc>
    <extensions>
      <line xmlns="http://www.topografix.com/GPX/gpx_style/0/2">
        <color>0000FF</color>
        <width>4</width>
          <extensions>
            <sens>1</sens>
          </extensions>
      </line>
    </extensions>
    <trkseg>
      <trkpt lat="50.62209" lon="5.44828">
        <ele>189.2</ele>
      </trkpt>
      <trkpt lat="50.62322" lon="5.44826">
        <ele>190.7</ele>
      </trkpt>
      <trkpt lat="50.62349" lon="5.44637">
        <ele>192</ele>
      </trkpt>
      <trkpt lat="50.62353" lon="5.44583">
        <ele>192.3</ele>
      </trkpt>
      <trkpt lat="50.62351" lon="5.44473">
        <ele>191.6</ele>
      </trkpt>
      <trkpt lat="50.62346" lon="5.44416">
        <ele>190.4</ele>
      </trkpt>
      <trkpt lat="50.62335" lon="5.44335">
        <ele>189.1</ele>
      </trkpt>
      <trkpt lat="50.6232" lon="5.4426">
        <ele>188.8</ele>
      </trkpt>
      <trkpt lat="50.62307" lon="5.44209">
        <ele>187.6</ele>
      </trkpt>
      <trkpt lat="50.62302" lon="5.44165">
        <ele>187</ele>
      </trkpt>
      <trkpt lat="50.62303" lon="5.44148">
        <ele>186.9</ele>
      </trkpt>
      <trkpt lat="50.62312" lon="5.44116">
        <ele>186.4</ele>
      </trkpt>
      <trkpt lat="50.62373" lon="5.44003">
        <ele>186.4</ele>
      </trkpt>
      <trkpt lat="50.62352" lon="5.43882">
        <ele>184.7</ele>
      </trkpt>
      <trkpt lat="50.62343" lon="5.43836">
        <ele>184.3</ele>
      </trkpt>
      <trkpt lat="50.62332" lon="5.43791">
        <ele>182.9</ele>
      </trkpt>
      <trkpt lat="50.62306" lon="5.43713">
        <ele>184.7</ele>
      </trkpt>
      <trkpt lat="50.62258" lon="5.4359">
        <ele>188.3</ele>
      </trkpt>
      <trkpt lat="50.62237" lon="5.43532">
        <ele>190.5</ele>
      </trkpt>
      <trkpt lat="50.62226" lon="5.43508">
        <ele>190.8</ele>
      </trkpt>
      <trkpt lat="50.6223" lon="5.435">
        <ele>191</ele>
      </trkpt>
      <trkpt lat="50.62231" lon="5.43491">
        <ele>191.5</ele>
      </trkpt>
      <trkpt lat="50.62228" lon="5.43481">
        <ele>192</ele>
      </trkpt>
      <trkpt lat="50.62212" lon="5.43471">
        <ele>191.6</ele>
      </trkpt>
      <trkpt lat="50.62151" lon="5.43309">
        <ele>194.3</ele>
      </trkpt>
      <trkpt lat="50.62065" lon="5.43222">
        <ele>192.3</ele>
      </trkpt>
      <trkpt lat="50.61961" lon="5.43126">
        <ele>192.9</ele>
      </trkpt>
      <trkpt lat="50.61856" lon="5.42983">
        <ele>193.4</ele>
      </trkpt>
      <trkpt lat="50.61762" lon="5.42882">
        <ele>189.3</ele>
      </trkpt>
      <trkpt lat="50.61781" lon="5.42811">
        <ele>187.6</ele>
      </trkpt>
      <trkpt lat="50.61821" lon="5.42657">
        <ele>188</ele>
      </trkpt>
      <trkpt lat="50.61806" lon="5.42556">
        <ele>191.1</ele>
      </trkpt>
      <trkpt lat="50.61831" lon="5.42436">
        <ele>193</ele>
      </trkpt>
      <trkpt lat="50.61903" lon="5.42284">
        <ele>190</ele>
      </trkpt>
      <trkpt lat="50.61887" lon="5.41927">
        <ele>188</ele>
      </trkpt>
      <trkpt lat="50.61907" lon="5.41723">
        <ele>187</ele>
      </trkpt>
      <trkpt lat="50.62021" lon="5.41548">
        <ele>186</ele>
      </trkpt>
      <trkpt lat="50.61917" lon="5.41246">
        <ele>183</ele>
      </trkpt>
      <trkpt lat="50.61942" lon="5.41204">
        <ele>182.3</ele>
      </trkpt>
      <trkpt lat="50.62082" lon="5.41125">
        <ele>181</ele>
      </trkpt>
      <trkpt lat="50.62224" lon="5.41099">
        <ele>178</ele>
      </trkpt>
      <trkpt lat="50.62301" lon="5.41195">
        <ele>177.2</ele>
      </trkpt>
      <trkpt lat="50.62322" lon="5.41165">
        <ele>176.4</ele>
      </trkpt>
      <trkpt lat="50.62314" lon="5.41176">
        <ele>176.7</ele>
        <extensions>
          <visugpx:TrkExtension xmlns:visugpx="https://www.visugpx.com/editgpx/">
            <visugpx:node>1</visugpx:node>
            </visugpx:TrkExtension>
        </extensions>
      </trkpt>
      <trkpt lat="50.62671" lon="5.40713">
        <ele>163.5</ele>
      </trkpt>
      <trkpt lat="50.62766" lon="5.40589">
        <ele>158.5</ele>
      </trkpt>
      <trkpt lat="50.63518" lon="5.39636">
        <ele>165</ele>
      </trkpt>
      <trkpt lat="50.6333" lon="5.37223">
        <ele>178</ele>
      </trkpt>
      <trkpt lat="50.63328" lon="5.37195">
        <ele>179</ele>
        <time>2021-08-01T07:17:22.000Z</time>
      </trkpt>
      <trkpt lat="50.63326" lon="5.3717">
        <ele>179.9</ele>
        <time>2021-08-01T07:17:25.000Z</time>
      </trkpt>
      <trkpt lat="50.63324" lon="5.37118">
        <ele>174</ele>
        <time>2021-08-01T07:17:31.000Z</time>
      </trkpt>
      <trkpt lat="50.63323" lon="5.37101">
        <ele>174.19999694824</ele>
        <time>2021-08-01T07:17:33.000Z</time>
      </trkpt>
      <trkpt lat="50.63316" lon="5.37016">
        <ele>176.19999694824</ele>
        <time>2021-08-01T07:17:42.000Z</time>
      </trkpt>
      <trkpt lat="50.63316" lon="5.37006">
        <ele>176</ele>
        <time>2021-08-01T07:17:43.000Z</time>
      </trkpt>
      <trkpt lat="50.63308" lon="5.36917">
        <ele>176.39999389648</ele>
        <time>2021-08-01T07:17:52.000Z</time>
      </trkpt>
      <trkpt lat="50.63306" lon="5.36888">
        <ele>176.19999694824</ele>
        <time>2021-08-01T07:17:55.000Z</time>
      </trkpt>
      <trkpt lat="50.633" lon="5.36813">
        <ele>175.60000610352</ele>
        <time>2021-08-01T07:18:03.000Z</time>
      </trkpt>
      <trkpt lat="50.63298" lon="5.36783">
        <ele>175.39999389648</ele>
        <time>2021-08-01T07:18:06.000Z</time>
      </trkpt>
      <trkpt lat="50.63297" lon="5.36742">
        <ele>175.39999389648</ele>
        <time>2021-08-01T07:18:10.000Z</time>
      </trkpt>
      <trkpt lat="50.63297" lon="5.36648">
        <ele>175.19999694824</ele>
        <time>2021-08-01T07:18:19.000Z</time>
      </trkpt>
      <trkpt lat="50.63297" lon="5.36627">
        <ele>175.19999694824</ele>
        <time>2021-08-01T07:18:21.000Z</time>
      </trkpt>
      <trkpt lat="50.63297" lon="5.36548">
        <ele>175.60000610352</ele>
        <time>2021-08-01T07:18:29.000Z</time>
      </trkpt>
      <trkpt lat="50.63297" lon="5.36499">
        <ele>176</ele>
        <time>2021-08-01T07:18:34.000Z</time>
      </trkpt>
      <trkpt lat="50.63298" lon="5.36442">
        <ele>176.39999389648</ele>
        <time>2021-08-01T07:18:40.000Z</time>
      </trkpt>
      <trkpt lat="50.63298" lon="5.36425">
        <ele>176.60000610352</ele>
        <time>2021-08-01T07:18:42.000Z</time>
      </trkpt>
      <trkpt lat="50.63298" lon="5.36383">
        <ele>177</ele>
        <time>2021-08-01T07:18:48.000Z</time>
      </trkpt>
      <trkpt lat="50.63298" lon="5.36356">
        <ele>177.80000305176</ele>
        <time>2021-08-01T07:18:54.000Z</time>
      </trkpt>
      <trkpt lat="50.63298" lon="5.36332">
        <ele>177.80000305176</ele>
        <time>2021-08-01T07:18:59.000Z</time>
      </trkpt>
      <trkpt lat="50.63292" lon="5.36284">
        <ele>177.80000305176</ele>
        <time>2021-08-01T07:19:05.000Z</time>
      </trkpt>
      <trkpt lat="50.63286" lon="5.36237">
        <ele>177.60000610352</ele>
        <time>2021-08-01T07:19:10.000Z</time>
      </trkpt>
      <trkpt lat="50.63282" lon="5.362">
        <ele>177.19999694824</ele>
        <time>2021-08-01T07:19:14.000Z</time>
      </trkpt>
      <trkpt lat="50.63273" lon="5.36123">
        <ele>177</ele>
        <time>2021-08-01T07:19:22.000Z</time>
      </trkpt>
      <trkpt lat="50.63271" lon="5.36113">
        <ele>177</ele>
        <time>2021-08-01T07:19:23.000Z</time>
      </trkpt>
      <trkpt lat="50.63267" lon="5.36043">
        <ele>176.80000305176</ele>
        <time>2021-08-01T07:19:30.000Z</time>
      </trkpt>
      <trkpt lat="50.63274" lon="5.35974">
        <ele>176.39999389648</ele>
        <time>2021-08-01T07:19:37.000Z</time>
      </trkpt>
      <trkpt lat="50.63279" lon="5.35913">
        <ele>175.80000305176</ele>
        <time>2021-08-01T07:19:44.000Z</time>
      </trkpt>
      <trkpt lat="50.63287" lon="5.3585">
        <ele>175.39999389648</ele>
        <time>2021-08-01T07:19:50.000Z</time>
      </trkpt>
      <trkpt lat="50.6329" lon="5.35816">
        <ele>175</ele>
        <time>2021-08-01T07:19:53.000Z</time>
      </trkpt>
      <trkpt lat="50.63298" lon="5.35737">
        <ele>174.39999389648</ele>
        <time>2021-08-01T07:20:00.000Z</time>
      </trkpt>
      <trkpt lat="50.63302" lon="5.35703">
        <ele>174.19999694824</ele>
        <time>2021-08-01T07:20:03.000Z</time>
      </trkpt>
      <trkpt lat="50.6331" lon="5.35617">
        <ele>173</ele>
        <time>2021-08-01T07:20:11.000Z</time>
      </trkpt>
      <trkpt lat="50.63312" lon="5.35605">
        <ele>172.80000305176</ele>
        <time>2021-08-01T07:20:12.000Z</time>
      </trkpt>
      <trkpt lat="50.63314" lon="5.35583">
        <ele>172.80000305176</ele>
        <time>2021-08-01T07:20:14.000Z</time>
      </trkpt>
      <trkpt lat="50.63323" lon="5.35496">
        <ele>171.80000305176</ele>
        <time>2021-08-01T07:20:22.000Z</time>
      </trkpt>
      <trkpt lat="50.63325" lon="5.35474">
        <ele>171.80000305176</ele>
        <time>2021-08-01T07:20:24.000Z</time>
      </trkpt>
      <trkpt lat="50.63328" lon="5.35387">
        <ele>170.80000305176</ele>
        <time>2021-08-01T07:20:32.000Z</time>
      </trkpt>
      <trkpt lat="50.63329" lon="5.35364">
        <ele>170.80000305176</ele>
        <time>2021-08-01T07:20:34.000Z</time>
      </trkpt>
      <trkpt lat="50.6333" lon="5.35283">
        <ele>170.19999694824</ele>
        <time>2021-08-01T07:20:41.000Z</time>
      </trkpt>
      <trkpt lat="50.6333" lon="5.35272">
        <ele>170.19999694824</ele>
        <time>2021-08-01T07:20:42.000Z</time>
      </trkpt>
      <trkpt lat="50.63332" lon="5.35201">
        <ele>170.19999694824</ele>
        <time>2021-08-01T07:20:49.000Z</time>
      </trkpt>
      <trkpt lat="50.63333" lon="5.35172">
        <ele>170.19999694824</ele>
        <time>2021-08-01T07:20:52.000Z</time>
      </trkpt>
      <trkpt lat="50.63338" lon="5.35095">
        <ele>171.19999694824</ele>
        <time>2021-08-01T07:21:00.000Z</time>
      </trkpt>
      <trkpt lat="50.63339" lon="5.35075">
        <ele>171.19999694824</ele>
        <time>2021-08-01T07:21:02.000Z</time>
      </trkpt>
      <trkpt lat="50.63345" lon="5.34997">
        <ele>172.19999694824</ele>
        <time>2021-08-01T07:21:10.000Z</time>
      </trkpt>
      <trkpt lat="50.63346" lon="5.34987">
        <ele>172.19999694824</ele>
        <time>2021-08-01T07:21:11.000Z</time>
      </trkpt>
      <trkpt lat="50.63352" lon="5.34903">
        <ele>173.39999389648</ele>
        <time>2021-08-01T07:21:20.000Z</time>
      </trkpt>
      <trkpt lat="50.63352" lon="5.34893">
        <ele>173.39999389648</ele>
        <time>2021-08-01T07:21:21.000Z</time>
      </trkpt>
      <trkpt lat="50.63363" lon="5.34808">
        <ele>174.60000610352</ele>
        <time>2021-08-01T07:21:30.000Z</time>
      </trkpt>
      <trkpt lat="50.6338" lon="5.34719">
        <ele>174.80000305176</ele>
        <time>2021-08-01T07:21:39.000Z</time>
      </trkpt>
      <trkpt lat="50.63387" lon="5.34679">
        <ele>174.60000610352</ele>
        <time>2021-08-01T07:21:43.000Z</time>
      </trkpt>
      <trkpt lat="50.63402" lon="5.34596">
        <ele>173.60000610352</ele>
        <time>2021-08-01T07:21:51.000Z</time>
      </trkpt>
      <trkpt lat="50.63405" lon="5.34575">
        <ele>173.60000610352</ele>
        <time>2021-08-01T07:21:53.000Z</time>
      </trkpt>
      <trkpt lat="50.63407" lon="5.34564">
        <ele>173.60000610352</ele>
        <time>2021-08-01T07:21:54.000Z</time>
      </trkpt>
      <trkpt lat="50.63423" lon="5.34479">
        <ele>172.60000610352</ele>
        <time>2021-08-01T07:22:02.000Z</time>
      </trkpt>
      <trkpt lat="50.63426" lon="5.34459">
        <ele>172.39999389648</ele>
        <time>2021-08-01T07:22:04.000Z</time>
      </trkpt>
      <trkpt lat="50.63436" lon="5.34407">
        <ele>171.80000305176</ele>
        <time>2021-08-01T07:22:09.000Z</time>
      </trkpt>
      <trkpt lat="50.63448" lon="5.34333">
        <ele>171.60000610352</ele>
        <time>2021-08-01T07:22:16.000Z</time>
      </trkpt>
      <trkpt lat="50.6345" lon="5.34323">
        <ele>171.80000305176</ele>
        <time>2021-08-01T07:22:17.000Z</time>
      </trkpt>
      <trkpt lat="50.63464" lon="5.34246">
        <ele>171.80000305176</ele>
        <time>2021-08-01T07:22:25.000Z</time>
      </trkpt>
      <trkpt lat="50.63466" lon="5.34236">
        <ele>172</ele>
        <time>2021-08-01T07:22:26.000Z</time>
      </trkpt>
      <trkpt lat="50.6348" lon="5.34148">
        <ele>173.19999694824</ele>
        <time>2021-08-01T07:22:35.000Z</time>
      </trkpt>
      <trkpt lat="50.63481" lon="5.34138">
        <ele>173.19999694824</ele>
        <time>2021-08-01T07:22:36.000Z</time>
      </trkpt>
      <trkpt lat="50.63483" lon="5.34107">
        <ele>173.80000305176</ele>
        <time>2021-08-01T07:22:39.000Z</time>
      </trkpt>
      <trkpt lat="50.63484" lon="5.34057">
        <ele>173.80000305176</ele>
        <time>2021-08-01T07:22:44.000Z</time>
      </trkpt>
      <trkpt lat="50.63484" lon="5.34036">
        <ele>173.80000305176</ele>
        <time>2021-08-01T07:22:46.000Z</time>
      </trkpt>
      <trkpt lat="50.63485" lon="5.33941">
        <ele>173.60000610352</ele>
        <time>2021-08-01T07:22:55.000Z</time>
      </trkpt>
      <trkpt lat="50.63485" lon="5.3393">
        <ele>173.39999389648</ele>
        <time>2021-08-01T07:22:56.000Z</time>
      </trkpt>
      <trkpt lat="50.63486" lon="5.33844">
        <ele>172.60000610352</ele>
        <time>2021-08-01T07:23:04.000Z</time>
      </trkpt>
      <trkpt lat="50.63486" lon="5.33834">
        <ele>172.39999389648</ele>
        <time>2021-08-01T07:23:05.000Z</time>
      </trkpt>
      <trkpt lat="50.63486" lon="5.33813">
        <ele>172.39999389648</ele>
        <time>2021-08-01T07:23:07.000Z</time>
      </trkpt>
      <trkpt lat="50.63487" lon="5.33723">
        <ele>171.19999694824</ele>
        <time>2021-08-01T07:23:16.000Z</time>
      </trkpt>
      <trkpt lat="50.63487" lon="5.33713">
        <ele>171</ele>
        <time>2021-08-01T07:23:17.000Z</time>
      </trkpt>
      <trkpt lat="50.63488" lon="5.33694">
        <ele>171</ele>
        <time>2021-08-01T07:23:19.000Z</time>
      </trkpt>
      <trkpt lat="50.63493" lon="5.33633">
        <ele>170</ele>
        <time>2021-08-01T07:23:26.000Z</time>
      </trkpt>
      <trkpt lat="50.63494" lon="5.33625">
        <ele>170</ele>
        <time>2021-08-01T07:23:27.000Z</time>
      </trkpt>
      <trkpt lat="50.63493" lon="5.33609">
        <ele>170</ele>
        <time>2021-08-01T07:23:29.000Z</time>
      </trkpt>
      <trkpt lat="50.63491" lon="5.33602">
        <ele>169.80000305176</ele>
        <time>2021-08-01T07:23:30.000Z</time>
      </trkpt>
      <trkpt lat="50.63486" lon="5.33598">
        <ele>170</ele>
        <time>2021-08-01T07:23:31.000Z</time>
      </trkpt>
      <trkpt lat="50.63475" lon="5.33594">
        <ele>169.60000610352</ele>
        <time>2021-08-01T07:23:33.000Z</time>
      </trkpt>
      <trkpt lat="50.63424" lon="5.33582">
        <ele>169.19999694824</ele>
        <time>2021-08-01T07:23:41.000Z</time>
      </trkpt>
      <trkpt lat="50.63403" lon="5.33578">
        <ele>169.19999694824</ele>
        <time>2021-08-01T07:23:44.000Z</time>
      </trkpt>
      <trkpt lat="50.63359" lon="5.33569">
        <ele>168.80000305176</ele>
        <time>2021-08-01T07:23:51.000Z</time>
      </trkpt>
      <trkpt lat="50.63352" lon="5.33567">
        <ele>168.80000305176</ele>
        <time>2021-08-01T07:23:52.000Z</time>
      </trkpt>
      <trkpt lat="50.63334" lon="5.33564">
        <ele>168.39999389648</ele>
        <time>2021-08-01T07:23:55.000Z</time>
      </trkpt>
      <trkpt lat="50.63291" lon="5.33554">
        <ele>168.60000610352</ele>
        <time>2021-08-01T07:24:02.000Z</time>
      </trkpt>
      <trkpt lat="50.63285" lon="5.33553">
        <ele>168.60000610352</ele>
        <time>2021-08-01T07:24:03.000Z</time>
      </trkpt>
      <trkpt lat="50.63279" lon="5.33551">
        <ele>168.80000305176</ele>
        <time>2021-08-01T07:24:04.000Z</time>
      </trkpt>
      <trkpt lat="50.63224" lon="5.33535">
        <ele>169.80000305176</ele>
        <time>2021-08-01T07:24:13.000Z</time>
      </trkpt>
      <trkpt lat="50.63206" lon="5.3353">
        <ele>169.80000305176</ele>
        <time>2021-08-01T07:24:16.000Z</time>
      </trkpt>
      <trkpt lat="50.63148" lon="5.3351">
        <ele>170.19999694824</ele>
        <time>2021-08-01T07:24:26.000Z</time>
      </trkpt>
      <trkpt lat="50.63131" lon="5.33499">
        <ele>170.19999694824</ele>
        <time>2021-08-01T07:24:29.000Z</time>
      </trkpt>
      <trkpt lat="50.6312" lon="5.33488">
        <ele>170</ele>
        <time>2021-08-01T07:24:31.000Z</time>
      </trkpt>
      <trkpt lat="50.6311" lon="5.33474">
        <ele>170</ele>
        <time>2021-08-01T07:24:33.000Z</time>
      </trkpt>
      <trkpt lat="50.63097" lon="5.33449">
        <ele>169.80000305176</ele>
        <time>2021-08-01T07:24:36.000Z</time>
      </trkpt>
      <trkpt lat="50.6309" lon="5.3343">
        <ele>169.60000610352</ele>
        <time>2021-08-01T07:24:38.000Z</time>
      </trkpt>
      <trkpt lat="50.63087" lon="5.33419">
        <ele>169.60000610352</ele>
        <time>2021-08-01T07:24:39.000Z</time>
      </trkpt>
      <trkpt lat="50.63083" lon="5.33397">
        <ele>169.39999389648</ele>
        <time>2021-08-01T07:24:41.000Z</time>
      </trkpt>
      <trkpt lat="50.63076" lon="5.33362">
        <ele>168.39999389648</ele>
        <time>2021-08-01T07:24:44.000Z</time>
      </trkpt>
      <trkpt lat="50.63065" lon="5.33318">
        <ele>167.39999389648</ele>
        <time>2021-08-01T07:24:48.000Z</time>
      </trkpt>
      <trkpt lat="50.63063" lon="5.33307">
        <ele>167</ele>
        <time>2021-08-01T07:24:49.000Z</time>
      </trkpt>
      <trkpt lat="50.63057" lon="5.33272">
        <ele>166.60000610352</ele>
        <time>2021-08-01T07:24:52.000Z</time>
      </trkpt>
      <trkpt lat="50.63052" lon="5.33235">
        <ele>165.80000305176</ele>
        <time>2021-08-01T07:24:55.000Z</time>
      </trkpt>
      <trkpt lat="50.63048" lon="5.33199">
        <ele>164.80000305176</ele>
        <time>2021-08-01T07:24:58.000Z</time>
      </trkpt>
      <trkpt lat="50.63045" lon="5.33174">
        <ele>164.39999389648</ele>
        <time>2021-08-01T07:25:00.000Z</time>
      </trkpt>
      <trkpt lat="50.6304" lon="5.33135">
        <ele>163</ele>
        <time>2021-08-01T07:25:03.000Z</time>
      </trkpt>
      <trkpt lat="50.63039" lon="5.33121">
        <ele>162.60000610352</ele>
        <time>2021-08-01T07:25:04.000Z</time>
      </trkpt>
      <trkpt lat="50.63034" lon="5.33055">
        <ele>159.80000305176</ele>
        <time>2021-08-01T07:25:09.000Z</time>
      </trkpt>
      <trkpt lat="50.6303" lon="5.33002">
        <ele>157.19999694824</ele>
        <time>2021-08-01T07:25:13.000Z</time>
      </trkpt>
      <trkpt lat="50.63025" lon="5.32976">
        <ele>156.19999694824</ele>
        <time>2021-08-01T07:25:15.000Z</time>
      </trkpt>
      <trkpt lat="50.63016" lon="5.32955">
        <ele>156</ele>
        <time>2021-08-01T07:25:17.000Z</time>
      </trkpt>
      <trkpt lat="50.63011" lon="5.32946">
        <ele>155.80000305176</ele>
        <time>2021-08-01T07:25:18.000Z</time>
      </trkpt>
      <trkpt lat="50.63007" lon="5.32938">
        <ele>155.80000305176</ele>
        <time>2021-08-01T07:25:19.000Z</time>
      </trkpt>
      <trkpt lat="50.62995" lon="5.32919">
        <ele>155</ele>
        <time>2021-08-01T07:25:22.000Z</time>
      </trkpt>
      <trkpt lat="50.62986" lon="5.32916">
        <ele>154</ele>
        <time>2021-08-01T07:25:24.000Z</time>
      </trkpt>
      <trkpt lat="50.62981" lon="5.32919">
        <ele>153.60000610352</ele>
        <time>2021-08-01T07:25:25.000Z</time>
      </trkpt>
      <trkpt lat="50.62976" lon="5.32923">
        <ele>153.19999694824</ele>
        <time>2021-08-01T07:25:26.000Z</time>
      </trkpt>
      <trkpt lat="50.62972" lon="5.32929">
        <ele>152.60000610352</ele>
        <time>2021-08-01T07:25:27.000Z</time>
      </trkpt>
      <trkpt lat="50.62929" lon="5.32972">
        <ele>152</ele>
        <time>2021-08-01T07:25:35.000Z</time>
      </trkpt>
      <trkpt lat="50.62897" lon="5.32992">
        <ele>152</ele>
        <time>2021-08-01T07:25:40.000Z</time>
      </trkpt>
      <trkpt lat="50.62884" lon="5.32998">
        <ele>152</ele>
        <time>2021-08-01T07:25:42.000Z</time>
      </trkpt>
      <trkpt lat="50.62841" lon="5.33013">
        <ele>153</ele>
        <time>2021-08-01T07:25:49.000Z</time>
      </trkpt>
      <trkpt lat="50.62786" lon="5.33029">
        <ele>153.60000610352</ele>
        <time>2021-08-01T07:25:58.000Z</time>
      </trkpt>
      <trkpt lat="50.6278" lon="5.3303">
        <ele>153.60000610352</ele>
        <time>2021-08-01T07:25:59.000Z</time>
      </trkpt>
      <trkpt lat="50.62775" lon="5.33031">
        <ele>153.80000305176</ele>
        <time>2021-08-01T07:26:00.000Z</time>
      </trkpt>
      <trkpt lat="50.62757" lon="5.33031">
        <ele>154</ele>
        <time>2021-08-01T07:26:03.000Z</time>
      </trkpt>
      <trkpt lat="50.62745" lon="5.33025">
        <ele>154.19999694824</ele>
        <time>2021-08-01T07:26:05.000Z</time>
      </trkpt>
      <trkpt lat="50.62735" lon="5.33014">
        <ele>154.19999694824</ele>
        <time>2021-08-01T07:26:07.000Z</time>
      </trkpt>
      <trkpt lat="50.62727" lon="5.32999">
        <ele>154.39999389648</ele>
        <time>2021-08-01T07:26:09.000Z</time>
      </trkpt>
      <trkpt lat="50.62713" lon="5.32963">
        <ele>154.39999389648</ele>
        <time>2021-08-01T07:26:13.000Z</time>
      </trkpt>
      <trkpt lat="50.62706" lon="5.32942">
        <ele>154.39999389648</ele>
        <time>2021-08-01T07:26:15.000Z</time>
      </trkpt>
      <trkpt lat="50.62702" lon="5.32932">
        <ele>154.60000610352</ele>
        <time>2021-08-01T07:26:16.000Z</time>
      </trkpt>
      <trkpt lat="50.62691" lon="5.32901">
        <ele>154.19999694824</ele>
        <time>2021-08-01T07:26:19.000Z</time>
      </trkpt>
      <trkpt lat="50.62687" lon="5.3289">
        <ele>154.19999694824</ele>
        <time>2021-08-01T07:26:20.000Z</time>
      </trkpt>
      <trkpt lat="50.62675" lon="5.32857">
        <ele>153.19999694824</ele>
        <time>2021-08-01T07:26:23.000Z</time>
      </trkpt>
      <trkpt lat="50.62671" lon="5.32845">
        <ele>153</ele>
        <time>2021-08-01T07:26:24.000Z</time>
      </trkpt>
      <trkpt lat="50.62645" lon="5.32774">
        <ele>150.19999694824</ele>
        <time>2021-08-01T07:26:30.000Z</time>
      </trkpt>
      <trkpt lat="50.62637" lon="5.32751">
        <ele>149.39999389648</ele>
        <time>2021-08-01T07:26:32.000Z</time>
      </trkpt>
      <trkpt lat="50.62619" lon="5.327">
        <ele>148.60000610352</ele>
        <time>2021-08-01T07:26:37.000Z</time>
      </trkpt>
      <trkpt lat="50.62612" lon="5.32681">
        <ele>148.39999389648</ele>
        <time>2021-08-01T07:26:39.000Z</time>
      </trkpt>
      <trkpt lat="50.62606" lon="5.32665">
        <ele>148.60000610352</ele>
        <time>2021-08-01T07:26:41.000Z</time>
      </trkpt>
      <trkpt lat="50.62589" lon="5.32619">
        <ele>148.60000610352</ele>
        <time>2021-08-01T07:26:47.000Z</time>
      </trkpt>
      <trkpt lat="50.62576" lon="5.32581">
        <ele>150</ele>
        <time>2021-08-01T07:26:52.000Z</time>
      </trkpt>
      <trkpt lat="50.62565" lon="5.32551">
        <ele>151.19999694824</ele>
        <time>2021-08-01T07:26:56.000Z</time>
      </trkpt>
      <trkpt lat="50.62559" lon="5.32535">
        <ele>151.60000610352</ele>
        <time>2021-08-01T07:26:58.000Z</time>
      </trkpt>
      <trkpt lat="50.62554" lon="5.32519">
        <ele>151.80000305176</ele>
        <time>2021-08-01T07:27:00.000Z</time>
      </trkpt>
      <trkpt lat="50.62541" lon="5.32484">
        <ele>153.39999389648</ele>
        <time>2021-08-01T07:27:05.000Z</time>
      </trkpt>
      <trkpt lat="50.62539" lon="5.32478">
        <ele>153.60000610352</ele>
        <time>2021-08-01T07:27:06.000Z</time>
      </trkpt>
      <trkpt lat="50.62531" lon="5.32472">
        <ele>154</ele>
        <time>2021-08-01T07:27:08.000Z</time>
      </trkpt>
      <trkpt lat="50.62523" lon="5.32476">
        <ele>154.60000610352</ele>
        <time>2021-08-01T07:27:10.000Z</time>
      </trkpt>
      <trkpt lat="50.62519" lon="5.3248">
        <ele>155</ele>
        <time>2021-08-01T07:27:11.000Z</time>
      </trkpt>
      <trkpt lat="50.62505" lon="5.32499">
        <ele>155.19999694824</ele>
        <time>2021-08-01T07:27:14.000Z</time>
      </trkpt>
      <trkpt lat="50.62495" lon="5.32513">
        <ele>155.19999694824</ele>
        <time>2021-08-01T07:27:16.000Z</time>
      </trkpt>
      <trkpt lat="50.6249" lon="5.32521">
        <ele>155.19999694824</ele>
        <time>2021-08-01T07:27:17.000Z</time>
      </trkpt>
      <trkpt lat="50.62479" lon="5.32536">
        <ele>155.19999694824</ele>
        <time>2021-08-01T07:27:19.000Z</time>
      </trkpt>
      <trkpt lat="50.62455" lon="5.32568">
        <ele>154.80000305176</ele>
        <time>2021-08-01T07:27:23.000Z</time>
      </trkpt>
      <trkpt lat="50.62449" lon="5.32577">
        <ele>154.80000305176</ele>
        <time>2021-08-01T07:27:24.000Z</time>
      </trkpt>
      <trkpt lat="50.62437" lon="5.32594">
        <ele>153.80000305176</ele>
        <time>2021-08-01T07:27:26.000Z</time>
      </trkpt>
      <trkpt lat="50.62406" lon="5.32637">
        <ele>151.39999389648</ele>
        <time>2021-08-01T07:27:31.000Z</time>
      </trkpt>
      <trkpt lat="50.62393" lon="5.32651">
        <ele>150.80000305176</ele>
        <time>2021-08-01T07:27:33.000Z</time>
      </trkpt>
      <trkpt lat="50.62379" lon="5.32662">
        <ele>150</ele>
        <time>2021-08-01T07:27:35.000Z</time>
      </trkpt>
      <trkpt lat="50.62345" lon="5.32682">
        <ele>149.39999389648</ele>
        <time>2021-08-01T07:27:40.000Z</time>
      </trkpt>
      <trkpt lat="50.62339" lon="5.32685">
        <ele>149.39999389648</ele>
        <time>2021-08-01T07:27:41.000Z</time>
      </trkpt>
      <trkpt lat="50.62317" lon="5.32698">
        <ele>149.39999389648</ele>
        <time>2021-08-01T07:27:45.000Z</time>
      </trkpt>
      <trkpt lat="50.62301" lon="5.32707">
        <ele>149.39999389648</ele>
        <time>2021-08-01T07:27:48.000Z</time>
      </trkpt>
      <trkpt lat="50.62291" lon="5.32712">
        <ele>149.60000610352</ele>
        <time>2021-08-01T07:27:50.000Z</time>
      </trkpt>
      <trkpt lat="50.62269" lon="5.32723">
        <ele>151</ele>
        <time>2021-08-01T07:27:54.000Z</time>
      </trkpt>
      <trkpt lat="50.62248" lon="5.32734">
        <ele>152.80000305176</ele>
        <time>2021-08-01T07:27:58.000Z</time>
      </trkpt>
      <trkpt lat="50.62217" lon="5.32751">
        <ele>154.80000305176</ele>
        <time>2021-08-01T07:28:04.000Z</time>
      </trkpt>
      <trkpt lat="50.62196" lon="5.32763">
        <ele>155.39999389648</ele>
        <time>2021-08-01T07:28:08.000Z</time>
      </trkpt>
      <trkpt lat="50.62175" lon="5.32774">
        <ele>155.80000305176</ele>
        <time>2021-08-01T07:28:12.000Z</time>
      </trkpt>
      <trkpt lat="50.62164" lon="5.32775">
        <ele>156</ele>
        <time>2021-08-01T07:28:14.000Z</time>
      </trkpt>
      <trkpt lat="50.62152" lon="5.32773">
        <ele>156.19999694824</ele>
        <time>2021-08-01T07:28:16.000Z</time>
      </trkpt>
      <trkpt lat="50.62124" lon="5.32765">
        <ele>156.60000610352</ele>
        <time>2021-08-01T07:28:21.000Z</time>
      </trkpt>
      <trkpt lat="50.62107" lon="5.32761">
        <ele>156.80000305176</ele>
        <time>2021-08-01T07:28:24.000Z</time>
      </trkpt>
      <trkpt lat="50.62075" lon="5.32752">
        <ele>157.80000305176</ele>
        <time>2021-08-01T07:28:30.000Z</time>
      </trkpt>
      <trkpt lat="50.62022" lon="5.32739">
        <ele>159.60000610352</ele>
        <time>2021-08-01T07:28:40.000Z</time>
      </trkpt>
      <trkpt lat="50.62001" lon="5.32734">
        <ele>160</ele>
        <time>2021-08-01T07:28:44.000Z</time>
      </trkpt>
      <trkpt lat="50.61969" lon="5.32724">
        <ele>160.80000305176</ele>
        <time>2021-08-01T07:28:50.000Z</time>
      </trkpt>
      <trkpt lat="50.61953" lon="5.32718">
        <ele>161.19999694824</ele>
        <time>2021-08-01T07:28:53.000Z</time>
      </trkpt>
      <trkpt lat="50.61903" lon="5.32702">
        <ele>162.60000610352</ele>
        <time>2021-08-01T07:29:02.000Z</time>
      </trkpt>
      <trkpt lat="50.61897" lon="5.327">
        <ele>162.60000610352</ele>
        <time>2021-08-01T07:29:03.000Z</time>
      </trkpt>
      <trkpt lat="50.61841" lon="5.32678">
        <ele>163.60000610352</ele>
        <time>2021-08-01T07:29:13.000Z</time>
      </trkpt>
      <trkpt lat="50.61836" lon="5.32676">
        <ele>163.60000610352</ele>
        <time>2021-08-01T07:29:14.000Z</time>
      </trkpt>
      <trkpt lat="50.61779" lon="5.32654">
        <ele>164.39999389648</ele>
        <time>2021-08-01T07:29:24.000Z</time>
      </trkpt>
      <trkpt lat="50.61773" lon="5.32652">
        <ele>164.60000610352</ele>
        <time>2021-08-01T07:29:25.000Z</time>
      </trkpt>
      <trkpt lat="50.61715" lon="5.32628">
        <ele>165.19999694824</ele>
        <time>2021-08-01T07:29:35.000Z</time>
      </trkpt>
      <trkpt lat="50.61681" lon="5.32605">
        <ele>165.19999694824</ele>
        <time>2021-08-01T07:29:41.000Z</time>
      </trkpt>
      <trkpt lat="50.61659" lon="5.3257">
        <ele>165</ele>
        <time>2021-08-01T07:29:46.000Z</time>
      </trkpt>
      <trkpt lat="50.61627" lon="5.32522">
        <ele>165.19999694824</ele>
        <time>2021-08-01T07:29:53.000Z</time>
      </trkpt>
      <trkpt lat="50.61587" lon="5.32475">
        <ele>165.39999389648</ele>
        <time>2021-08-01T07:30:01.000Z</time>
      </trkpt>
      <trkpt lat="50.61582" lon="5.3247">
        <ele>165.60000610352</ele>
        <time>2021-08-01T07:30:02.000Z</time>
      </trkpt>
      <trkpt lat="50.6157" lon="5.32465">
        <ele>165.39999389648</ele>
        <time>2021-08-01T07:30:04.000Z</time>
      </trkpt>
      <trkpt lat="50.61558" lon="5.32463">
        <ele>165.39999389648</ele>
        <time>2021-08-01T07:30:06.000Z</time>
      </trkpt>
      <trkpt lat="50.61553" lon="5.32462">
        <ele>165.39999389648</ele>
        <time>2021-08-01T07:30:07.000Z</time>
      </trkpt>
      <trkpt lat="50.61534" lon="5.32457">
        <ele>165.39999389648</ele>
        <time>2021-08-01T07:30:10.000Z</time>
      </trkpt>
      <trkpt lat="50.61516" lon="5.32452">
        <ele>165.80000305176</ele>
        <time>2021-08-01T07:30:13.000Z</time>
      </trkpt>
      <trkpt lat="50.6146" lon="5.32439">
        <ele>169</ele>
        <time>2021-08-01T07:30:22.000Z</time>
      </trkpt>
      <trkpt lat="50.61447" lon="5.32438">
        <ele>167</ele>
        <time>2021-08-01T07:30:24.000Z</time>
      </trkpt>
      <trkpt lat="50.61398" lon="5.32425">
        <ele>167.19999694824</ele>
        <time>2021-08-01T07:30:32.000Z</time>
      </trkpt>
      <trkpt lat="50.61391" lon="5.32422">
        <ele>167.19999694824</ele>
        <time>2021-08-01T07:30:33.000Z</time>
      </trkpt>
      <trkpt lat="50.61348" lon="5.32405">
        <ele>167.60000610352</ele>
        <time>2021-08-01T07:30:40.000Z</time>
      </trkpt>
      <trkpt lat="50.61342" lon="5.32403">
        <ele>167.39999389648</ele>
        <time>2021-08-01T07:30:41.000Z</time>
      </trkpt>
      <trkpt lat="50.61295" lon="5.32386">
        <ele>167.60000610352</ele>
        <time>2021-08-01T07:30:49.000Z</time>
      </trkpt>
      <trkpt lat="50.61264" lon="5.32375">
        <ele>167.60000610352</ele>
        <time>2021-08-01T07:30:54.000Z</time>
      </trkpt>
      <trkpt lat="50.6124" lon="5.32366">
        <ele>167.60000610352</ele>
        <time>2021-08-01T07:30:58.000Z</time>
      </trkpt>
      <trkpt lat="50.61184" lon="5.32346">
        <ele>167.60000610352</ele>
        <time>2021-08-01T07:31:07.000Z</time>
      </trkpt>
      <trkpt lat="50.61178" lon="5.32344">
        <ele>167.80000305176</ele>
        <time>2021-08-01T07:31:08.000Z</time>
      </trkpt>
      <trkpt lat="50.6116" lon="5.32339">
        <ele>168</ele>
        <time>2021-08-01T07:31:11.000Z</time>
      </trkpt>
      <trkpt lat="50.61128" lon="5.32331">
        <ele>168.39999389648</ele>
        <time>2021-08-01T07:31:16.000Z</time>
      </trkpt>
      <trkpt lat="50.61122" lon="5.3233">
        <ele>168.39999389648</ele>
        <time>2021-08-01T07:31:17.000Z</time>
      </trkpt>
      <trkpt lat="50.61077" lon="5.32323">
        <ele>169.19999694824</ele>
        <time>2021-08-01T07:31:24.000Z</time>
      </trkpt>
      <trkpt lat="50.61071" lon="5.32322">
        <ele>169.60000610352</ele>
        <time>2021-08-01T07:31:25.000Z</time>
      </trkpt>
      <trkpt lat="50.61016" lon="5.32317">
        <ele>171.39999389648</ele>
        <time>2021-08-01T07:31:34.000Z</time>
      </trkpt>
      <trkpt lat="50.60982" lon="5.32316">
        <ele>171.39999389648</ele>
        <time>2021-08-01T07:31:41.000Z</time>
      </trkpt>
      <trkpt lat="50.60968" lon="5.32316">
        <ele>171.39999389648</ele>
        <time>2021-08-01T07:31:44.000Z</time>
      </trkpt>
      <trkpt lat="50.60957" lon="5.32314">
        <ele>171.39999389648</ele>
        <time>2021-08-01T07:31:47.000Z</time>
      </trkpt>
      <trkpt lat="50.60951" lon="5.32313">
        <ele>171</ele>
        <time>2021-08-01T07:31:49.000Z</time>
      </trkpt>
      <trkpt lat="50.60944" lon="5.32318">
        <ele>170.80000305176</ele>
        <time>2021-08-01T07:31:51.000Z</time>
      </trkpt>
      <trkpt lat="50.60939" lon="5.3233">
        <ele>170.39999389648</ele>
        <time>2021-08-01T07:31:53.000Z</time>
      </trkpt>
      <trkpt lat="50.60937" lon="5.32336">
        <ele>170.39999389648</ele>
        <time>2021-08-01T07:31:54.000Z</time>
      </trkpt>
      <trkpt lat="50.60931" lon="5.32343">
        <ele>170</ele>
        <time>2021-08-01T07:31:56.000Z</time>
      </trkpt>
      <trkpt lat="50.60927" lon="5.32343">
        <ele>170</ele>
        <time>2021-08-01T07:31:57.000Z</time>
      </trkpt>
      <trkpt lat="50.60911" lon="5.32338">
        <ele>169.80000305176</ele>
        <time>2021-08-01T07:32:00.000Z</time>
      </trkpt>
      <trkpt lat="50.609" lon="5.32334">
        <ele>169.80000305176</ele>
        <time>2021-08-01T07:32:02.000Z</time>
      </trkpt>
      <trkpt lat="50.60871" lon="5.32327">
        <ele>169.80000305176</ele>
        <time>2021-08-01T07:32:07.000Z</time>
      </trkpt>
      <trkpt lat="50.60858" lon="5.32325">
        <ele>170</ele>
        <time>2021-08-01T07:32:09.000Z</time>
      </trkpt>
      <trkpt lat="50.60821" lon="5.32326">
        <ele>170.80000305176</ele>
        <time>2021-08-01T07:32:15.000Z</time>
      </trkpt>
      <trkpt lat="50.60815" lon="5.32326">
        <ele>171</ele>
        <time>2021-08-01T07:32:16.000Z</time>
      </trkpt>
      <trkpt lat="50.60792" lon="5.32328">
        <ele>171.39999389648</ele>
        <time>2021-08-01T07:32:20.000Z</time>
      </trkpt>
      <trkpt lat="50.60786" lon="5.32328">
        <ele>171.60000610352</ele>
        <time>2021-08-01T07:32:21.000Z</time>
      </trkpt>
      <trkpt lat="50.60764" lon="5.32332">
        <ele>171.80000305176</ele>
        <time>2021-08-01T07:32:25.000Z</time>
      </trkpt>
      <trkpt lat="50.60717" lon="5.32348">
        <ele>172.60000610352</ele>
        <time>2021-08-01T07:32:33.000Z</time>
      </trkpt>
      <trkpt lat="50.60663" lon="5.32368">
        <ele>173.19999694824</ele>
        <time>2021-08-01T07:32:42.000Z</time>
      </trkpt>
      <trkpt lat="50.60646" lon="5.32375">
        <ele>173.39999389648</ele>
        <time>2021-08-01T07:32:45.000Z</time>
      </trkpt>
      <trkpt lat="50.60624" lon="5.32388">
        <ele>173.39999389648</ele>
        <time>2021-08-01T07:32:49.000Z</time>
      </trkpt>
      <trkpt lat="50.60618" lon="5.32391">
        <ele>173.39999389648</ele>
        <time>2021-08-01T07:32:50.000Z</time>
      </trkpt>
      <trkpt lat="50.60607" lon="5.32397">
        <ele>173.60000610352</ele>
        <time>2021-08-01T07:32:52.000Z</time>
      </trkpt>
      <trkpt lat="50.60589" lon="5.32403">
        <ele>174.60000610352</ele>
        <time>2021-08-01T07:32:55.000Z</time>
      </trkpt>
      <trkpt lat="50.60566" lon="5.32409">
        <ele>175.39999389648</ele>
        <time>2021-08-01T07:32:59.000Z</time>
      </trkpt>
      <trkpt lat="50.60531" lon="5.32418">
        <ele>176.19999694824</ele>
        <time>2021-08-01T07:33:05.000Z</time>
      </trkpt>
      <trkpt lat="50.60514" lon="5.32423">
        <ele>176.60000610352</ele>
        <time>2021-08-01T07:33:08.000Z</time>
      </trkpt>
      <trkpt lat="50.60497" lon="5.32428">
        <ele>176.60000610352</ele>
        <time>2021-08-01T07:33:11.000Z</time>
      </trkpt>
      <trkpt lat="50.60486" lon="5.32431">
        <ele>176.60000610352</ele>
        <time>2021-08-01T07:33:13.000Z</time>
      </trkpt>
      <trkpt lat="50.60481" lon="5.32432">
        <ele>176.60000610352</ele>
        <time>2021-08-01T07:33:14.000Z</time>
      </trkpt>
      <trkpt lat="50.60455" lon="5.3244">
        <ele>176.39999389648</ele>
        <time>2021-08-01T07:33:19.000Z</time>
      </trkpt>
      <trkpt lat="50.6045" lon="5.32439">
        <ele>176.39999389648</ele>
        <time>2021-08-01T07:33:20.000Z</time>
      </trkpt>
      <trkpt lat="50.60445" lon="5.32434">
        <ele>176.39999389648</ele>
        <time>2021-08-01T07:33:21.000Z</time>
      </trkpt>
      <trkpt lat="50.60431" lon="5.32415">
        <ele>176</ele>
        <time>2021-08-01T07:33:24.000Z</time>
      </trkpt>
      <trkpt lat="50.60415" lon="5.32394">
        <ele>175.60000610352</ele>
        <time>2021-08-01T07:33:27.000Z</time>
      </trkpt>
      <trkpt lat="50.604" lon="5.32369">
        <ele>175</ele>
        <time>2021-08-01T07:33:30.000Z</time>
      </trkpt>
      <trkpt lat="50.60385" lon="5.32345">
        <ele>174.60000610352</ele>
        <time>2021-08-01T07:33:33.000Z</time>
      </trkpt>
      <trkpt lat="50.60372" lon="5.32321">
        <ele>174.19999694824</ele>
        <time>2021-08-01T07:33:36.000Z</time>
      </trkpt>
      <trkpt lat="50.60359" lon="5.32298">
        <ele>173.80000305176</ele>
        <time>2021-08-01T07:33:39.000Z</time>
      </trkpt>
      <trkpt lat="50.60323" lon="5.32233">
        <ele>173.39999389648</ele>
        <time>2021-08-01T07:33:47.000Z</time>
      </trkpt>
      <trkpt lat="50.60319" lon="5.32225">
        <ele>173.19999694824</ele>
        <time>2021-08-01T07:33:48.000Z</time>
      </trkpt>
      <trkpt lat="50.6031" lon="5.32209">
        <ele>173.19999694824</ele>
        <time>2021-08-01T07:33:50.000Z</time>
      </trkpt>
      <trkpt lat="50.60281" lon="5.32164">
        <ele>173</ele>
        <time>2021-08-01T07:33:56.000Z</time>
      </trkpt>
      <trkpt lat="50.60257" lon="5.32127">
        <ele>172.80000305176</ele>
        <time>2021-08-01T07:34:01.000Z</time>
      </trkpt>
      <trkpt lat="50.60248" lon="5.32113">
        <ele>172.80000305176</ele>
        <time>2021-08-01T07:34:03.000Z</time>
      </trkpt>
      <trkpt lat="50.60228" lon="5.32082">
        <ele>172.60000610352</ele>
        <time>2021-08-01T07:34:07.000Z</time>
      </trkpt>
      <trkpt lat="50.60186" lon="5.32025">
        <ele>172.19999694824</ele>
        <time>2021-08-01T07:34:15.000Z</time>
      </trkpt>
      <trkpt lat="50.60181" lon="5.32019">
        <ele>172</ele>
        <time>2021-08-01T07:34:16.000Z</time>
      </trkpt>
      <trkpt lat="50.60139" lon="5.31981">
        <ele>171.60000610352</ele>
        <time>2021-08-01T07:34:23.000Z</time>
      </trkpt>
      <trkpt lat="50.60087" lon="5.31937">
        <ele>171.39999389648</ele>
        <time>2021-08-01T07:34:32.000Z</time>
      </trkpt>
      <trkpt lat="50.60061" lon="5.31905">
        <ele>171.19999694824</ele>
        <time>2021-08-01T07:34:38.000Z</time>
      </trkpt>
      <trkpt lat="50.60037" lon="5.31869">
        <ele>171.39999389648</ele>
        <time>2021-08-01T07:34:43.000Z</time>
      </trkpt>
      <trkpt lat="50.60033" lon="5.31861">
        <ele>171.39999389648</ele>
        <time>2021-08-01T07:34:44.000Z</time>
      </trkpt>
      <trkpt lat="50.59998" lon="5.31793">
        <ele>172.19999694824</ele>
        <time>2021-08-01T07:34:53.000Z</time>
      </trkpt>
      <trkpt lat="50.59994" lon="5.31787">
        <ele>172.39999389648</ele>
        <time>2021-08-01T07:34:54.000Z</time>
      </trkpt>
      <trkpt lat="50.59971" lon="5.31747">
        <ele>173</ele>
        <time>2021-08-01T07:35:00.000Z</time>
      </trkpt>
      <trkpt lat="50.59961" lon="5.31726">
        <ele>173.60000610352</ele>
        <time>2021-08-01T07:35:03.000Z</time>
      </trkpt>
      <trkpt lat="50.59936" lon="5.31676">
        <ele>174.39999389648</ele>
        <time>2021-08-01T07:35:10.000Z</time>
      </trkpt>
      <trkpt lat="50.59933" lon="5.31669">
        <ele>174.60000610352</ele>
        <time>2021-08-01T07:35:11.000Z</time>
      </trkpt>
      <trkpt lat="50.59922" lon="5.31649">
        <ele>175</ele>
        <time>2021-08-01T07:35:14.000Z</time>
      </trkpt>
      <trkpt lat="50.59904" lon="5.31611">
        <ele>176.19999694824</ele>
        <time>2021-08-01T07:35:20.000Z</time>
      </trkpt>
      <trkpt lat="50.599" lon="5.31605">
        <ele>176.19999694824</ele>
        <time>2021-08-01T07:35:21.000Z</time>
      </trkpt>
      <trkpt lat="50.59883" lon="5.31587">
        <ele>177.19999694824</ele>
        <time>2021-08-01T07:35:25.000Z</time>
      </trkpt>
      <trkpt lat="50.59878" lon="5.31583">
        <ele>177.19999694824</ele>
        <time>2021-08-01T07:35:26.000Z</time>
      </trkpt>
      <trkpt lat="50.59842" lon="5.31561">
        <ele>178.80000305176</ele>
        <time>2021-08-01T07:35:33.000Z</time>
      </trkpt>
      <trkpt lat="50.59836" lon="5.31558">
        <ele>179.19999694824</ele>
        <time>2021-08-01T07:35:34.000Z</time>
      </trkpt>
      <trkpt lat="50.59796" lon="5.31534">
        <ele>180.19999694824</ele>
        <time>2021-08-01T07:35:41.000Z</time>
      </trkpt>
      <trkpt lat="50.59779" lon="5.31525">
        <ele>180.60000610352</ele>
        <time>2021-08-01T07:35:44.000Z</time>
      </trkpt>
      <trkpt lat="50.59751" lon="5.31508">
        <ele>180.80000305176</ele>
        <time>2021-08-01T07:35:49.000Z</time>
      </trkpt>
      <trkpt lat="50.59745" lon="5.31503">
        <ele>180.80000305176</ele>
        <time>2021-08-01T07:35:50.000Z</time>
      </trkpt>
      <trkpt lat="50.5972" lon="5.31482">
        <ele>180.80000305176</ele>
        <time>2021-08-01T07:35:54.000Z</time>
      </trkpt>
      <trkpt lat="50.59714" lon="5.31476">
        <ele>181</ele>
        <time>2021-08-01T07:35:55.000Z</time>
      </trkpt>
      <trkpt lat="50.59708" lon="5.31468">
        <ele>181</ele>
        <time>2021-08-01T07:35:56.000Z</time>
      </trkpt>
      <trkpt lat="50.59698" lon="5.31452">
        <ele>180.80000305176</ele>
        <time>2021-08-01T07:35:58.000Z</time>
      </trkpt>
      <trkpt lat="50.59693" lon="5.31443">
        <ele>180.39999389648</ele>
        <time>2021-08-01T07:35:59.000Z</time>
      </trkpt>
      <trkpt lat="50.59669" lon="5.31388">
        <ele>178.80000305176</ele>
        <time>2021-08-01T07:36:05.000Z</time>
      </trkpt>
      <trkpt lat="50.59657" lon="5.31363">
        <ele>178.60000610352</ele>
        <time>2021-08-01T07:36:08.000Z</time>
      </trkpt>
      <trkpt lat="50.59649" lon="5.31348">
        <ele>178.80000305176</ele>
        <time>2021-08-01T07:36:10.000Z</time>
      </trkpt>
      <trkpt lat="50.5963" lon="5.31323">
        <ele>178.80000305176</ele>
        <time>2021-08-01T07:36:14.000Z</time>
      </trkpt>
      <trkpt lat="50.59605" lon="5.31302">
        <ele>179.80000305176</ele>
        <time>2021-08-01T07:36:19.000Z</time>
      </trkpt>
      <trkpt lat="50.596" lon="5.31299">
        <ele>180</ele>
        <time>2021-08-01T07:36:20.000Z</time>
      </trkpt>
      <trkpt lat="50.59595" lon="5.31296">
        <ele>180</ele>
        <time>2021-08-01T07:36:21.000Z</time>
      </trkpt>
      <trkpt lat="50.59575" lon="5.31286">
        <ele>181.19999694824</ele>
        <time>2021-08-01T07:36:25.000Z</time>
      </trkpt>
      <trkpt lat="50.59553" lon="5.31276">
        <ele>182.19999694824</ele>
        <time>2021-08-01T07:36:29.000Z</time>
      </trkpt>
      <trkpt lat="50.59522" lon="5.31264">
        <ele>184.19999694824</ele>
        <time>2021-08-01T07:36:35.000Z</time>
      </trkpt>
      <trkpt lat="50.59512" lon="5.3126">
        <ele>184.80000305176</ele>
        <time>2021-08-01T07:36:37.000Z</time>
      </trkpt>
      <trkpt lat="50.59502" lon="5.31255">
        <ele>185.60000610352</ele>
        <time>2021-08-01T07:36:39.000Z</time>
      </trkpt>
      <trkpt lat="50.59481" lon="5.31247">
        <ele>186.60000610352</ele>
        <time>2021-08-01T07:36:43.000Z</time>
      </trkpt>
      <trkpt lat="50.59471" lon="5.31243">
        <ele>187.19999694824</ele>
        <time>2021-08-01T07:36:45.000Z</time>
      </trkpt>
      <trkpt lat="50.59431" lon="5.31225">
        <ele>189</ele>
        <time>2021-08-01T07:36:52.000Z</time>
      </trkpt>
      <trkpt lat="50.59426" lon="5.31223">
        <ele>189.19999694824</ele>
        <time>2021-08-01T07:36:53.000Z</time>
      </trkpt>
      <trkpt lat="50.59378" lon="5.31202">
        <ele>189.80000305176</ele>
        <time>2021-08-01T07:37:01.000Z</time>
      </trkpt>
      <trkpt lat="50.59372" lon="5.31199">
        <ele>189.80000305176</ele>
        <time>2021-08-01T07:37:02.000Z</time>
      </trkpt>
      <trkpt lat="50.59346" lon="5.31189">
        <ele>189.80000305176</ele>
        <time>2021-08-01T07:37:06.000Z</time>
      </trkpt>
      <trkpt lat="50.59332" lon="5.31182">
        <ele>189.80000305176</ele>
        <time>2021-08-01T07:37:08.000Z</time>
      </trkpt>
      <trkpt lat="50.59318" lon="5.31176">
        <ele>189.39999389648</ele>
        <time>2021-08-01T07:37:10.000Z</time>
      </trkpt>
      <trkpt lat="50.59262" lon="5.31155">
        <ele>187</ele>
        <time>2021-08-01T07:37:18.000Z</time>
      </trkpt>
      <trkpt lat="50.59255" lon="5.31153">
        <ele>187</ele>
        <time>2021-08-01T07:37:19.000Z</time>
      </trkpt>
      <trkpt lat="50.59196" lon="5.31135">
        <ele>186.39999389648</ele>
        <time>2021-08-01T07:37:28.000Z</time>
      </trkpt>
      <trkpt lat="50.59184" lon="5.31131">
        <ele>186.60000610352</ele>
        <time>2021-08-01T07:37:30.000Z</time>
      </trkpt>
      <trkpt lat="50.59171" lon="5.31127">
        <ele>186.80000305176</ele>
        <time>2021-08-01T07:37:32.000Z</time>
      </trkpt>
      <trkpt lat="50.59127" lon="5.31114">
        <ele>187.19999694824</ele>
        <time>2021-08-01T07:37:39.000Z</time>
      </trkpt>
      <trkpt lat="50.59121" lon="5.31112">
        <ele>187.19999694824</ele>
        <time>2021-08-01T07:37:40.000Z</time>
      </trkpt>
      <trkpt lat="50.59109" lon="5.31107">
        <ele>187.60000610352</ele>
        <time>2021-08-01T07:37:42.000Z</time>
      </trkpt>
      <trkpt lat="50.59098" lon="5.31099">
        <ele>187.60000610352</ele>
        <time>2021-08-01T07:37:44.000Z</time>
      </trkpt>
      <trkpt lat="50.59093" lon="5.31093">
        <ele>187.80000305176</ele>
        <time>2021-08-01T07:37:45.000Z</time>
      </trkpt>
      <trkpt lat="50.59044" lon="5.31047">
        <ele>188.80000305176</ele>
        <time>2021-08-01T07:37:54.000Z</time>
      </trkpt>
      <trkpt lat="50.59038" lon="5.31042">
        <ele>189</ele>
        <time>2021-08-01T07:37:55.000Z</time>
      </trkpt>
      <trkpt lat="50.58988" lon="5.30997">
        <ele>189.60000610352</ele>
        <time>2021-08-01T07:38:04.000Z</time>
      </trkpt>
      <trkpt lat="50.58983" lon="5.30992">
        <ele>189.80000305176</ele>
        <time>2021-08-01T07:38:05.000Z</time>
      </trkpt>
      <trkpt lat="50.58932" lon="5.30946">
        <ele>190.19999694824</ele>
        <time>2021-08-01T07:38:14.000Z</time>
      </trkpt>
      <trkpt lat="50.58911" lon="5.30924">
        <ele>190.19999694824</ele>
        <time>2021-08-01T07:38:18.000Z</time>
      </trkpt>
      <trkpt lat="50.58902" lon="5.30912">
        <ele>190.19999694824</ele>
        <time>2021-08-01T07:38:20.000Z</time>
      </trkpt>
      <trkpt lat="50.58889" lon="5.30893">
        <ele>190</ele>
        <time>2021-08-01T07:38:23.000Z</time>
      </trkpt>
      <trkpt lat="50.58883" lon="5.30875">
        <ele>189.60000610352</ele>
        <time>2021-08-01T07:38:25.000Z</time>
      </trkpt>
      <trkpt lat="50.58872" lon="5.30844">
        <ele>188.60000610352</ele>
        <time>2021-08-01T07:38:28.000Z</time>
      </trkpt>
      <trkpt lat="50.58862" lon="5.30824">
        <ele>188.39999389648</ele>
        <time>2021-08-01T07:38:30.000Z</time>
      </trkpt>
      <trkpt lat="50.58835" lon="5.30767">
        <ele>187.60000610352</ele>
        <time>2021-08-01T07:38:36.000Z</time>
      </trkpt>
      <trkpt lat="50.58818" lon="5.3073">
        <ele>186.60000610352</ele>
        <time>2021-08-01T07:38:40.000Z</time>
      </trkpt>
      <trkpt lat="50.58786" lon="5.30656">
        <ele>186</ele>
        <time>2021-08-01T07:38:48.000Z</time>
      </trkpt>
      <trkpt lat="50.58779" lon="5.30636">
        <ele>186</ele>
        <time>2021-08-01T07:38:50.000Z</time>
      </trkpt>
      <trkpt lat="50.58767" lon="5.30595">
        <ele>185.60000610352</ele>
        <time>2021-08-01T07:38:54.000Z</time>
      </trkpt>
      <trkpt lat="50.58762" lon="5.30574">
        <ele>185.80000305176</ele>
        <time>2021-08-01T07:38:56.000Z</time>
      </trkpt>
      <trkpt lat="50.58744" lon="5.3049">
        <ele>185</ele>
        <time>2021-08-01T07:39:04.000Z</time>
      </trkpt>
      <trkpt lat="50.58724" lon="5.30401">
        <ele>184.60000610352</ele>
        <time>2021-08-01T07:39:12.000Z</time>
      </trkpt>
      <trkpt lat="50.58722" lon="5.3039">
        <ele>184.60000610352</ele>
        <time>2021-08-01T07:39:13.000Z</time>
      </trkpt>
      <trkpt lat="50.58717" lon="5.30369">
        <ele>184.39999389648</ele>
        <time>2021-08-01T07:39:15.000Z</time>
      </trkpt>
      <trkpt lat="50.58709" lon="5.30324">
        <ele>184.19999694824</ele>
        <time>2021-08-01T07:39:19.000Z</time>
      </trkpt>
      <trkpt lat="50.58705" lon="5.303">
        <ele>184</ele>
        <time>2021-08-01T07:39:21.000Z</time>
      </trkpt>
      <trkpt lat="50.58691" lon="5.30217">
        <ele>183.19999694824</ele>
        <time>2021-08-01T07:39:28.000Z</time>
      </trkpt>
      <trkpt lat="50.58683" lon="5.30171">
        <ele>183</ele>
        <time>2021-08-01T07:39:32.000Z</time>
      </trkpt>
      <trkpt lat="50.58676" lon="5.30092">
        <ele>182.60000610352</ele>
        <time>2021-08-01T07:39:39.000Z</time>
      </trkpt>
      <trkpt lat="50.58679" lon="5.30016">
        <ele>182.60000610352</ele>
        <time>2021-08-01T07:39:46.000Z</time>
      </trkpt>
      <trkpt lat="50.5868" lon="5.29995">
        <ele>182.60000610352</ele>
        <time>2021-08-01T07:39:48.000Z</time>
      </trkpt>
      <trkpt lat="50.58679" lon="5.2992">
        <ele>183.19999694824</ele>
        <time>2021-08-01T07:39:55.000Z</time>
      </trkpt>
      <trkpt lat="50.58679" lon="5.2991">
        <ele>183.19999694824</ele>
        <time>2021-08-01T07:39:56.000Z</time>
      </trkpt>
      <trkpt lat="50.58678" lon="5.29817">
        <ele>184.39999389648</ele>
        <time>2021-08-01T07:40:05.000Z</time>
      </trkpt>
      <trkpt lat="50.58678" lon="5.29807">
        <ele>184.60000610352</ele>
        <time>2021-08-01T07:40:06.000Z</time>
      </trkpt>
      <trkpt lat="50.58673" lon="5.29727">
        <ele>185</ele>
        <time>2021-08-01T07:40:14.000Z</time>
      </trkpt>
      <trkpt lat="50.58672" lon="5.29717">
        <ele>185.19999694824</ele>
        <time>2021-08-01T07:40:15.000Z</time>
      </trkpt>
      <trkpt lat="50.58661" lon="5.29628">
        <ele>185.60000610352</ele>
        <time>2021-08-01T07:40:24.000Z</time>
      </trkpt>
      <trkpt lat="50.5866" lon="5.29618">
        <ele>185.80000305176</ele>
        <time>2021-08-01T07:40:25.000Z</time>
      </trkpt>
      <trkpt lat="50.58653" lon="5.29558">
        <ele>185.60000610352</ele>
        <time>2021-08-01T07:40:31.000Z</time>
      </trkpt>
      <trkpt lat="50.58648" lon="5.29497">
        <ele>185.60000610352</ele>
        <time>2021-08-01T07:40:37.000Z</time>
      </trkpt>
      <trkpt lat="50.58651" lon="5.29476">
        <ele>185.60000610352</ele>
        <time>2021-08-01T07:40:39.000Z</time>
      </trkpt>
      <trkpt lat="50.58654" lon="5.29466">
        <ele>185.39999389648</ele>
        <time>2021-08-01T07:40:40.000Z</time>
      </trkpt>
      <trkpt lat="50.58657" lon="5.29457">
        <ele>185.39999389648</ele>
        <time>2021-08-01T07:40:41.000Z</time>
      </trkpt>
      <trkpt lat="50.58667" lon="5.29442">
        <ele>185.19999694824</ele>
        <time>2021-08-01T07:40:43.000Z</time>
      </trkpt>
      <trkpt lat="50.58712" lon="5.2939">
        <ele>184.80000305176</ele>
        <time>2021-08-01T07:40:51.000Z</time>
      </trkpt>
      <trkpt lat="50.58718" lon="5.29383">
        <ele>184.60000610352</ele>
        <time>2021-08-01T07:40:52.000Z</time>
      </trkpt>
      <trkpt lat="50.58736" lon="5.29361">
        <ele>184.60000610352</ele>
        <time>2021-08-01T07:40:55.000Z</time>
      </trkpt>
      <trkpt lat="50.58755" lon="5.29338">
        <ele>184.60000610352</ele>
        <time>2021-08-01T07:40:58.000Z</time>
      </trkpt>
      <trkpt lat="50.58762" lon="5.2933">
        <ele>184.60000610352</ele>
        <time>2021-08-01T07:40:59.000Z</time>
      </trkpt>
      <trkpt lat="50.58782" lon="5.29305">
        <ele>183.60000610352</ele>
        <time>2021-08-01T07:41:02.000Z</time>
      </trkpt>
      <trkpt lat="50.58806" lon="5.29273">
        <ele>182</ele>
        <time>2021-08-01T07:41:06.000Z</time>
      </trkpt>
      <trkpt lat="50.58812" lon="5.29264">
        <ele>181.60000610352</ele>
        <time>2021-08-01T07:41:07.000Z</time>
      </trkpt>
      <trkpt lat="50.5884" lon="5.29218">
        <ele>179.80000305176</ele>
        <time>2021-08-01T07:41:12.000Z</time>
      </trkpt>
      <trkpt lat="50.58852" lon="5.292">
        <ele>179.60000610352</ele>
        <time>2021-08-01T07:41:14.000Z</time>
      </trkpt>
      <trkpt lat="50.58881" lon="5.29153">
        <ele>178.60000610352</ele>
        <time>2021-08-01T07:41:20.000Z</time>
      </trkpt>
      <trkpt lat="50.58913" lon="5.291">
        <ele>177</ele>
        <time>2021-08-01T07:41:28.000Z</time>
      </trkpt>
      <trkpt lat="50.58933" lon="5.29071">
        <ele>176.80000305176</ele>
        <time>2021-08-01T07:41:34.000Z</time>
      </trkpt>
      <trkpt lat="50.5894" lon="5.29062">
        <ele>176.60000610352</ele>
        <time>2021-08-01T07:41:37.000Z</time>
      </trkpt>
      <trkpt lat="50.5894" lon="5.29057">
        <ele>176.60000610352</ele>
        <time>2021-08-01T07:41:38.000Z</time>
      </trkpt>
      <trkpt lat="50.58938" lon="5.29053">
        <ele>176.60000610352</ele>
        <time>2021-08-01T07:41:39.000Z</time>
      </trkpt>
      <trkpt lat="50.58932" lon="5.29045">
        <ele>176.19999694824</ele>
        <time>2021-08-01T07:41:41.000Z</time>
      </trkpt>
      <trkpt lat="50.58929" lon="5.2904">
        <ele>176.19999694824</ele>
        <time>2021-08-01T07:41:42.000Z</time>
      </trkpt>
      <trkpt lat="50.5892" lon="5.29019">
        <ele>176.19999694824</ele>
        <time>2021-08-01T07:41:45.000Z</time>
      </trkpt>
      <trkpt lat="50.58902" lon="5.28976">
        <ele>175.80000305176</ele>
        <time>2021-08-01T07:41:50.000Z</time>
      </trkpt>
      <trkpt lat="50.58871" lon="5.289">
        <ele>175</ele>
        <time>2021-08-01T07:41:58.000Z</time>
      </trkpt>
      <trkpt lat="50.58839" lon="5.2882">
        <ele>174.19999694824</ele>
        <time>2021-08-01T07:42:06.000Z</time>
      </trkpt>
      <trkpt lat="50.58835" lon="5.2881">
        <ele>174.19999694824</ele>
        <time>2021-08-01T07:42:07.000Z</time>
      </trkpt>
      <trkpt lat="50.58831" lon="5.28801">
        <ele>174</ele>
        <time>2021-08-01T07:42:08.000Z</time>
      </trkpt>
      <trkpt lat="50.58798" lon="5.28724">
        <ele>173.60000610352</ele>
        <time>2021-08-01T07:42:16.000Z</time>
      </trkpt>
      <trkpt lat="50.58765" lon="5.28665">
        <ele>173.60000610352</ele>
        <time>2021-08-01T07:42:23.000Z</time>
      </trkpt>
      <trkpt lat="50.58742" lon="5.28628">
        <ele>173.19999694824</ele>
        <time>2021-08-01T07:42:28.000Z</time>
      </trkpt>
      <trkpt lat="50.58724" lon="5.28599">
        <ele>173.60000610352</ele>
        <time>2021-08-01T07:42:32.000Z</time>
      </trkpt>
      <trkpt lat="50.58705" lon="5.28571">
        <ele>173.39999389648</ele>
        <time>2021-08-01T07:42:36.000Z</time>
      </trkpt>
      <trkpt lat="50.58699" lon="5.28566">
        <ele>173.39999389648</ele>
        <time>2021-08-01T07:42:37.000Z</time>
      </trkpt>
      <trkpt lat="50.58693" lon="5.28561">
        <ele>173.39999389648</ele>
        <time>2021-08-01T07:42:38.000Z</time>
      </trkpt>
      <trkpt lat="50.58663" lon="5.28534">
        <ele>173.19999694824</ele>
        <time>2021-08-01T07:42:43.000Z</time>
      </trkpt>
      <trkpt lat="50.5865" lon="5.28521">
        <ele>173</ele>
        <time>2021-08-01T07:42:45.000Z</time>
      </trkpt>
      <trkpt lat="50.58619" lon="5.28487">
        <ele>172.39999389648</ele>
        <time>2021-08-01T07:42:50.000Z</time>
      </trkpt>
      <trkpt lat="50.58602" lon="5.28465">
        <ele>171.60000610352</ele>
        <time>2021-08-01T07:42:53.000Z</time>
      </trkpt>
      <trkpt lat="50.58592" lon="5.28448">
        <ele>171.19999694824</ele>
        <time>2021-08-01T07:42:55.000Z</time>
      </trkpt>
      <trkpt lat="50.58568" lon="5.28406">
        <ele>170.39999389648</ele>
        <time>2021-08-01T07:43:00.000Z</time>
      </trkpt>
      <trkpt lat="50.58543" lon="5.28349">
        <ele>169.60000610352</ele>
        <time>2021-08-01T07:43:06.000Z</time>
      </trkpt>
      <trkpt lat="50.58538" lon="5.2834">
        <ele>169.39999389648</ele>
        <time>2021-08-01T07:43:07.000Z</time>
      </trkpt>
      <trkpt lat="50.58517" lon="5.28307">
        <ele>168.80000305176</ele>
        <time>2021-08-01T07:43:11.000Z</time>
      </trkpt>
      <trkpt lat="50.58504" lon="5.28293">
        <ele>168.60000610352</ele>
        <time>2021-08-01T07:43:13.000Z</time>
      </trkpt>
      <trkpt lat="50.58476" lon="5.28256">
        <ele>167.80000305176</ele>
        <time>2021-08-01T07:43:18.000Z</time>
      </trkpt>
      <trkpt lat="50.58454" lon="5.28211">
        <ele>167.39999389648</ele>
        <time>2021-08-01T07:43:23.000Z</time>
      </trkpt>
      <trkpt lat="50.58447" lon="5.28193">
        <ele>167.39999389648</ele>
        <time>2021-08-01T07:43:25.000Z</time>
      </trkpt>
      <trkpt lat="50.58437" lon="5.28168">
        <ele>167.39999389648</ele>
        <time>2021-08-01T07:43:28.000Z</time>
      </trkpt>
      <trkpt lat="50.58427" lon="5.28145">
        <ele>167.39999389648</ele>
        <time>2021-08-01T07:43:31.000Z</time>
      </trkpt>
      <trkpt lat="50.58412" lon="5.28109">
        <ele>168.60000610352</ele>
        <time>2021-08-01T07:43:36.000Z</time>
      </trkpt>
      <trkpt lat="50.58406" lon="5.28096">
        <ele>168.80000305176</ele>
        <time>2021-08-01T07:43:38.000Z</time>
      </trkpt>
      <trkpt lat="50.58403" lon="5.2809">
        <ele>169</ele>
        <time>2021-08-01T07:43:39.000Z</time>
      </trkpt>
      <trkpt lat="50.58393" lon="5.28065">
        <ele>169.60000610352</ele>
        <time>2021-08-01T07:43:43.000Z</time>
      </trkpt>
      <trkpt lat="50.58388" lon="5.28053">
        <ele>170.39999389648</ele>
        <time>2021-08-01T07:43:45.000Z</time>
      </trkpt>
      <trkpt lat="50.58385" lon="5.28047">
        <ele>170.80000305176</ele>
        <time>2021-08-01T07:43:46.000Z</time>
      </trkpt>
      <trkpt lat="50.58376" lon="5.28029">
        <ele>171.80000305176</ele>
        <time>2021-08-01T07:43:49.000Z</time>
      </trkpt>
      <trkpt lat="50.5837" lon="5.28018">
        <ele>172.19999694824</ele>
        <time>2021-08-01T07:43:51.000Z</time>
      </trkpt>
      <trkpt lat="50.58363" lon="5.28007">
        <ele>173.19999694824</ele>
        <time>2021-08-01T07:43:53.000Z</time>
      </trkpt>
      <trkpt lat="50.5836" lon="5.28001">
        <ele>173.60000610352</ele>
        <time>2021-08-01T07:43:54.000Z</time>
      </trkpt>
      <trkpt lat="50.5833" lon="5.2795">
        <ele>175.39999389648</ele>
        <time>2021-08-01T07:44:02.000Z</time>
      </trkpt>
      <trkpt lat="50.58327" lon="5.27943">
        <ele>175.80000305176</ele>
        <time>2021-08-01T07:44:03.000Z</time>
      </trkpt>
      <trkpt lat="50.58315" lon="5.27914">
        <ele>176.19999694824</ele>
        <time>2021-08-01T07:44:07.000Z</time>
      </trkpt>
      <trkpt lat="50.5831" lon="5.27899">
        <ele>176.60000610352</ele>
        <time>2021-08-01T07:44:09.000Z</time>
      </trkpt>
      <trkpt lat="50.58296" lon="5.27845">
        <ele>178.19999694824</ele>
        <time>2021-08-01T07:44:16.000Z</time>
      </trkpt>
      <trkpt lat="50.58294" lon="5.27837">
        <ele>178.39999389648</ele>
        <time>2021-08-01T07:44:17.000Z</time>
      </trkpt>
      <trkpt lat="50.58292" lon="5.2782">
        <ele>178.60000610352</ele>
        <time>2021-08-01T07:44:19.000Z</time>
      </trkpt>
      <trkpt lat="50.58289" lon="5.2776">
        <ele>179.60000610352</ele>
        <time>2021-08-01T07:44:26.000Z</time>
      </trkpt>
      <trkpt lat="50.58288" lon="5.27751">
        <ele>179.80000305176</ele>
        <time>2021-08-01T07:44:27.000Z</time>
      </trkpt>
      <trkpt lat="50.58285" lon="5.277">
        <ele>180.39999389648</ele>
        <time>2021-08-01T07:44:33.000Z</time>
      </trkpt>
      <trkpt lat="50.5828" lon="5.27667">
        <ele>181.19999694824</ele>
        <time>2021-08-01T07:44:37.000Z</time>
      </trkpt>
      <trkpt lat="50.58278" lon="5.27659">
        <ele>181.39999389648</ele>
        <time>2021-08-01T07:44:38.000Z</time>
      </trkpt>
      <trkpt lat="50.58266" lon="5.27617">
        <ele>182</ele>
        <time>2021-08-01T07:44:43.000Z</time>
      </trkpt>
      <trkpt lat="50.58241" lon="5.27552">
        <ele>183</ele>
        <time>2021-08-01T07:44:51.000Z</time>
      </trkpt>
      <trkpt lat="50.58218" lon="5.2748">
        <ele>183.60000610352</ele>
        <time>2021-08-01T07:45:00.000Z</time>
      </trkpt>
      <trkpt lat="50.58215" lon="5.27472">
        <ele>183.60000610352</ele>
        <time>2021-08-01T07:45:01.000Z</time>
      </trkpt>
      <trkpt lat="50.58195" lon="5.27399">
        <ele>184</ele>
        <time>2021-08-01T07:45:10.000Z</time>
      </trkpt>
      <trkpt lat="50.58193" lon="5.2739">
        <ele>184.19999694824</ele>
        <time>2021-08-01T07:45:11.000Z</time>
      </trkpt>
      <trkpt lat="50.58171" lon="5.27307">
        <ele>185.60000610352</ele>
        <time>2021-08-01T07:45:21.000Z</time>
      </trkpt>
      <trkpt lat="50.58166" lon="5.2729">
        <ele>185.80000305176</ele>
        <time>2021-08-01T07:45:23.000Z</time>
      </trkpt>
      <trkpt lat="50.58162" lon="5.27273">
        <ele>186</ele>
        <time>2021-08-01T07:45:25.000Z</time>
      </trkpt>
      <trkpt lat="50.58143" lon="5.272">
        <ele>187.60000610352</ele>
        <time>2021-08-01T07:45:34.000Z</time>
      </trkpt>
      <trkpt lat="50.58133" lon="5.27166">
        <ele>188</ele>
        <time>2021-08-01T07:45:38.000Z</time>
      </trkpt>
      <trkpt lat="50.58128" lon="5.27149">
        <ele>188</ele>
        <time>2021-08-01T07:45:40.000Z</time>
      </trkpt>
      <trkpt lat="50.5812" lon="5.27125">
        <ele>188.39999389648</ele>
        <time>2021-08-01T07:45:43.000Z</time>
      </trkpt>
      <trkpt lat="50.58107" lon="5.27085">
        <ele>188.39999389648</ele>
        <time>2021-08-01T07:45:49.000Z</time>
      </trkpt>
      <trkpt lat="50.581" lon="5.27062">
        <ele>189.60000610352</ele>
        <time>2021-08-01T07:45:54.000Z</time>
      </trkpt>
      <trkpt lat="50.58095" lon="5.27049">
        <ele>189.80000305176</ele>
        <time>2021-08-01T07:45:56.000Z</time>
      </trkpt>
      <trkpt lat="50.58088" lon="5.27036">
        <ele>189.80000305176</ele>
        <time>2021-08-01T07:45:58.000Z</time>
      </trkpt>
      <trkpt lat="50.58061" lon="5.27008">
        <ele>190</ele>
        <time>2021-08-01T07:46:03.000Z</time>
      </trkpt>
      <trkpt lat="50.5803" lon="5.26959">
        <ele>190.19999694824</ele>
        <time>2021-08-01T07:46:10.000Z</time>
      </trkpt>
      <trkpt lat="50.58021" lon="5.26945">
        <ele>190.19999694824</ele>
        <time>2021-08-01T07:46:12.000Z</time>
      </trkpt>
      <trkpt lat="50.57997" lon="5.26901">
        <ele>190.19999694824</ele>
        <time>2021-08-01T07:46:18.000Z</time>
      </trkpt>
      <trkpt lat="50.57965" lon="5.26831">
        <ele>190.80000305176</ele>
        <time>2021-08-01T07:46:27.000Z</time>
      </trkpt>
      <trkpt lat="50.57961" lon="5.26823">
        <ele>190.80000305176</ele>
        <time>2021-08-01T07:46:28.000Z</time>
      </trkpt>
      <trkpt lat="50.57951" lon="5.26798">
        <ele>190.80000305176</ele>
        <time>2021-08-01T07:46:31.000Z</time>
      </trkpt>
      <trkpt lat="50.5793" lon="5.26746">
        <ele>191.39999389648</ele>
        <time>2021-08-01T07:46:37.000Z</time>
      </trkpt>
      <trkpt lat="50.57923" lon="5.26729">
        <ele>191.60000610352</ele>
        <time>2021-08-01T07:46:39.000Z</time>
      </trkpt>
      <trkpt lat="50.57914" lon="5.26705">
        <ele>191.60000610352</ele>
        <time>2021-08-01T07:46:42.000Z</time>
      </trkpt>
      <trkpt lat="50.57904" lon="5.26681">
        <ele>191.80000305176</ele>
        <time>2021-08-01T07:46:45.000Z</time>
      </trkpt>
      <trkpt lat="50.57874" lon="5.26603">
        <ele>192.19999694824</ele>
        <time>2021-08-01T07:46:54.000Z</time>
      </trkpt>
      <trkpt lat="50.57865" lon="5.26576">
        <ele>192.19999694824</ele>
        <time>2021-08-01T07:46:57.000Z</time>
      </trkpt>
      <trkpt lat="50.57861" lon="5.26567">
        <ele>192.19999694824</ele>
        <time>2021-08-01T07:46:58.000Z</time>
      </trkpt>
      <trkpt lat="50.57843" lon="5.26512">
        <ele>192.19999694824</ele>
        <time>2021-08-01T07:47:04.000Z</time>
      </trkpt>
      <trkpt lat="50.57815" lon="5.26428">
        <ele>192.60000610352</ele>
        <time>2021-08-01T07:47:13.000Z</time>
      </trkpt>
      <trkpt lat="50.57786" lon="5.26353">
        <ele>192.80000305176</ele>
        <time>2021-08-01T07:47:21.000Z</time>
      </trkpt>
      <trkpt lat="50.57782" lon="5.26344">
        <ele>192.80000305176</ele>
        <time>2021-08-01T07:47:22.000Z</time>
      </trkpt>
      <trkpt lat="50.5775" lon="5.26275">
        <ele>192.60000610352</ele>
        <time>2021-08-01T07:47:30.000Z</time>
      </trkpt>
      <trkpt lat="50.57733" lon="5.26242">
        <ele>192.39999389648</ele>
        <time>2021-08-01T07:47:34.000Z</time>
      </trkpt>
      <trkpt lat="50.57725" lon="5.26226">
        <ele>192.39999389648</ele>
        <time>2021-08-01T07:47:36.000Z</time>
      </trkpt>
      <trkpt lat="50.57717" lon="5.2621">
        <ele>192.39999389648</ele>
        <time>2021-08-01T07:47:38.000Z</time>
      </trkpt>
      <trkpt lat="50.57713" lon="5.26202">
        <ele>192.19999694824</ele>
        <time>2021-08-01T07:47:39.000Z</time>
      </trkpt>
      <trkpt lat="50.57709" lon="5.26195">
        <ele>192.19999694824</ele>
        <time>2021-08-01T07:47:40.000Z</time>
      </trkpt>
      <trkpt lat="50.57682" lon="5.26141">
        <ele>192.39999389648</ele>
        <time>2021-08-01T07:47:47.000Z</time>
      </trkpt>
      <trkpt lat="50.57655" lon="5.26083">
        <ele>192.39999389648</ele>
        <time>2021-08-01T07:47:55.000Z</time>
      </trkpt>
      <trkpt lat="50.57641" lon="5.26047">
        <ele>192.39999389648</ele>
        <time>2021-08-01T07:48:01.000Z</time>
      </trkpt>
      <trkpt lat="50.57628" lon="5.26022">
        <ele>192</ele>
        <time>2021-08-01T07:48:06.000Z</time>
      </trkpt>
      <trkpt lat="50.57607" lon="5.25989">
        <ele>192</ele>
        <time>2021-08-01T07:48:11.000Z</time>
      </trkpt>
      <trkpt lat="50.57602" lon="5.25981">
        <ele>192</ele>
        <time>2021-08-01T07:48:12.000Z</time>
      </trkpt>
      <trkpt lat="50.57579" lon="5.25928">
        <ele>192</ele>
        <time>2021-08-01T07:48:18.000Z</time>
      </trkpt>
      <trkpt lat="50.57571" lon="5.25911">
        <ele>192</ele>
        <time>2021-08-01T07:48:20.000Z</time>
      </trkpt>
      <trkpt lat="50.57568" lon="5.25902">
        <ele>192</ele>
        <time>2021-08-01T07:48:21.000Z</time>
      </trkpt>
      <trkpt lat="50.5756" lon="5.25885">
        <ele>191.80000305176</ele>
        <time>2021-08-01T07:48:23.000Z</time>
      </trkpt>
      <trkpt lat="50.5753" lon="5.25817">
        <ele>192.60000610352</ele>
        <time>2021-08-01T07:48:31.000Z</time>
      </trkpt>
      <trkpt lat="50.57497" lon="5.25742">
        <ele>192.80000305176</ele>
        <time>2021-08-01T07:48:40.000Z</time>
      </trkpt>
      <trkpt lat="50.5749" lon="5.25725">
        <ele>193</ele>
        <time>2021-08-01T07:48:42.000Z</time>
      </trkpt>
      <trkpt lat="50.57456" lon="5.25649">
        <ele>193.39999389648</ele>
        <time>2021-08-01T07:48:51.000Z</time>
      </trkpt>
      <trkpt lat="50.57452" lon="5.25641">
        <ele>193.39999389648</ele>
        <time>2021-08-01T07:48:52.000Z</time>
      </trkpt>
      <trkpt lat="50.57419" lon="5.25566">
        <ele>193.80000305176</ele>
        <time>2021-08-01T07:49:01.000Z</time>
      </trkpt>
      <trkpt lat="50.574" lon="5.25523">
        <ele>194</ele>
        <time>2021-08-01T07:49:06.000Z</time>
      </trkpt>
      <trkpt lat="50.57396" lon="5.25514">
        <ele>194</ele>
        <time>2021-08-01T07:49:07.000Z</time>
      </trkpt>
      <trkpt lat="50.57388" lon="5.25496">
        <ele>194.19999694824</ele>
        <time>2021-08-01T07:49:09.000Z</time>
      </trkpt>
      <trkpt lat="50.5738" lon="5.25477">
        <ele>194.19999694824</ele>
        <time>2021-08-01T07:49:11.000Z</time>
      </trkpt>
      <trkpt lat="50.57357" lon="5.25425">
        <ele>194.39999389648</ele>
        <time>2021-08-01T07:49:17.000Z</time>
      </trkpt>
      <trkpt lat="50.57338" lon="5.25383">
        <ele>194.80000305176</ele>
        <time>2021-08-01T07:49:22.000Z</time>
      </trkpt>
      <trkpt lat="50.57331" lon="5.25366">
        <ele>195</ele>
        <time>2021-08-01T07:49:24.000Z</time>
      </trkpt>
      <trkpt lat="50.5731" lon="5.25319">
        <ele>196</ele>
        <time>2021-08-01T07:49:30.000Z</time>
      </trkpt>
      <trkpt lat="50.57276" lon="5.25242">
        <ele>197.60000610352</ele>
        <time>2021-08-01T07:49:39.000Z</time>
      </trkpt>
      <trkpt lat="50.57272" lon="5.25233">
        <ele>197.39999389648</ele>
        <time>2021-08-01T07:49:40.000Z</time>
      </trkpt>
      <trkpt lat="50.5724" lon="5.2516">
        <ele>197.60000610352</ele>
        <time>2021-08-01T07:49:48.000Z</time>
      </trkpt>
      <trkpt lat="50.57236" lon="5.25151">
        <ele>197.39999389648</ele>
        <time>2021-08-01T07:49:49.000Z</time>
      </trkpt>
      <trkpt lat="50.57232" lon="5.25142">
        <ele>197.19999694824</ele>
        <time>2021-08-01T07:49:50.000Z</time>
      </trkpt>
      <trkpt lat="50.572" lon="5.25069">
        <ele>196</ele>
        <time>2021-08-01T07:49:58.000Z</time>
      </trkpt>
      <trkpt lat="50.57196" lon="5.2506">
        <ele>195.80000305176</ele>
        <time>2021-08-01T07:49:59.000Z</time>
      </trkpt>
      <trkpt lat="50.57192" lon="5.25051">
        <ele>195.80000305176</ele>
        <time>2021-08-01T07:50:00.000Z</time>
      </trkpt>
      <trkpt lat="50.57159" lon="5.24978">
        <ele>195</ele>
        <time>2021-08-01T07:50:08.000Z</time>
      </trkpt>
      <trkpt lat="50.57151" lon="5.2496">
        <ele>194.60000610352</ele>
        <time>2021-08-01T07:50:10.000Z</time>
      </trkpt>
      <trkpt lat="50.57121" lon="5.24886">
        <ele>194.19999694824</ele>
        <time>2021-08-01T07:50:18.000Z</time>
      </trkpt>
      <trkpt lat="50.57117" lon="5.24876">
        <ele>193.80000305176</ele>
        <time>2021-08-01T07:50:19.000Z</time>
      </trkpt>
      <trkpt lat="50.57093" lon="5.24795">
        <ele>193.39999389648</ele>
        <time>2021-08-01T07:50:27.000Z</time>
      </trkpt>
      <trkpt lat="50.5709" lon="5.24785">
        <ele>193.39999389648</ele>
        <time>2021-08-01T07:50:28.000Z</time>
      </trkpt>
      <trkpt lat="50.57066" lon="5.24704">
        <ele>193</ele>
        <time>2021-08-01T07:50:36.000Z</time>
      </trkpt>
      <trkpt lat="50.57063" lon="5.24695">
        <ele>193</ele>
        <time>2021-08-01T07:50:37.000Z</time>
      </trkpt>
      <trkpt lat="50.57041" lon="5.24617">
        <ele>192.80000305176</ele>
        <time>2021-08-01T07:50:45.000Z</time>
      </trkpt>
      <trkpt lat="50.57038" lon="5.24607">
        <ele>192.80000305176</ele>
        <time>2021-08-01T07:50:46.000Z</time>
      </trkpt>
      <trkpt lat="50.57032" lon="5.24588">
        <ele>192.80000305176</ele>
        <time>2021-08-01T07:50:48.000Z</time>
      </trkpt>
      <trkpt lat="50.57012" lon="5.24509">
        <ele>193.60000610352</ele>
        <time>2021-08-01T07:50:56.000Z</time>
      </trkpt>
      <trkpt lat="50.57005" lon="5.24479">
        <ele>194</ele>
        <time>2021-08-01T07:50:59.000Z</time>
      </trkpt>
      <trkpt lat="50.57" lon="5.24459">
        <ele>194</ele>
        <time>2021-08-01T07:51:01.000Z</time>
      </trkpt>
      <trkpt lat="50.56982" lon="5.2438">
        <ele>194.39999389648</ele>
        <time>2021-08-01T07:51:09.000Z</time>
      </trkpt>
      <trkpt lat="50.5696" lon="5.24292">
        <ele>195</ele>
        <time>2021-08-01T07:51:18.000Z</time>
      </trkpt>
      <trkpt lat="50.56955" lon="5.24272">
        <ele>195.19999694824</ele>
        <time>2021-08-01T07:51:20.000Z</time>
      </trkpt>
      <trkpt lat="50.56932" lon="5.24193">
        <ele>195.80000305176</ele>
        <time>2021-08-01T07:51:28.000Z</time>
      </trkpt>
      <trkpt lat="50.56928" lon="5.24183">
        <ele>195.60000610352</ele>
        <time>2021-08-01T07:51:29.000Z</time>
      </trkpt>
      <trkpt lat="50.56912" lon="5.24132">
        <ele>195.60000610352</ele>
        <time>2021-08-01T07:51:34.000Z</time>
      </trkpt>
      <trkpt lat="50.56902" lon="5.241">
        <ele>195.60000610352</ele>
        <time>2021-08-01T07:51:37.000Z</time>
      </trkpt>
      <trkpt lat="50.56885" lon="5.24047">
        <ele>195.19999694824</ele>
        <time>2021-08-01T07:51:42.000Z</time>
      </trkpt>
      <trkpt lat="50.56869" lon="5.23997">
        <ele>194.19999694824</ele>
        <time>2021-08-01T07:51:47.000Z</time>
      </trkpt>
      <trkpt lat="50.56857" lon="5.23958">
        <ele>193.60000610352</ele>
        <time>2021-08-01T07:51:51.000Z</time>
      </trkpt>
      <trkpt lat="50.56851" lon="5.2394">
        <ele>193.39999389648</ele>
        <time>2021-08-01T07:51:53.000Z</time>
      </trkpt>
      <trkpt lat="50.56845" lon="5.23921">
        <ele>193</ele>
        <time>2021-08-01T07:51:55.000Z</time>
      </trkpt>
      <trkpt lat="50.56836" lon="5.23894">
        <ele>192.80000305176</ele>
        <time>2021-08-01T07:51:58.000Z</time>
      </trkpt>
      <trkpt lat="50.56813" lon="5.2382">
        <ele>193</ele>
        <time>2021-08-01T07:52:06.000Z</time>
      </trkpt>
      <trkpt lat="50.56787" lon="5.23736">
        <ele>194.19999694824</ele>
        <time>2021-08-01T07:52:15.000Z</time>
      </trkpt>
      <trkpt lat="50.56784" lon="5.23727">
        <ele>194.39999389648</ele>
        <time>2021-08-01T07:52:16.000Z</time>
      </trkpt>
      <trkpt lat="50.56775" lon="5.237">
        <ele>194.80000305176</ele>
        <time>2021-08-01T07:52:19.000Z</time>
      </trkpt>
      <trkpt lat="50.56749" lon="5.23616">
        <ele>195</ele>
        <time>2021-08-01T07:52:28.000Z</time>
      </trkpt>
      <trkpt lat="50.56743" lon="5.23597">
        <ele>195</ele>
        <time>2021-08-01T07:52:30.000Z</time>
      </trkpt>
      <trkpt lat="50.56739" lon="5.23587">
        <ele>195</ele>
        <time>2021-08-01T07:52:31.000Z</time>
      </trkpt>
      <trkpt lat="50.56714" lon="5.23506">
        <ele>194.60000610352</ele>
        <time>2021-08-01T07:52:39.000Z</time>
      </trkpt>
      <trkpt lat="50.56712" lon="5.23496">
        <ele>194.39999389648</ele>
        <time>2021-08-01T07:52:40.000Z</time>
      </trkpt>
      <trkpt lat="50.56699" lon="5.23425">
        <ele>194.19999694824</ele>
        <time>2021-08-01T07:52:47.000Z</time>
      </trkpt>
      <trkpt lat="50.56688" lon="5.23338">
        <ele>194</ele>
        <time>2021-08-01T07:52:56.000Z</time>
      </trkpt>
      <trkpt lat="50.56677" lon="5.23248">
        <ele>194.39999389648</ele>
        <time>2021-08-01T07:53:05.000Z</time>
      </trkpt>
      <trkpt lat="50.56675" lon="5.23238">
        <ele>194.39999389648</ele>
        <time>2021-08-01T07:53:06.000Z</time>
      </trkpt>
      <trkpt lat="50.56672" lon="5.2321">
        <ele>194.39999389648</ele>
        <time>2021-08-01T07:53:09.000Z</time>
      </trkpt>
      <trkpt lat="50.56667" lon="5.23175">
        <ele>194.60000610352</ele>
        <time>2021-08-01T07:53:13.000Z</time>
      </trkpt>
      <trkpt lat="50.56666" lon="5.23168">
        <ele>194.80000305176</ele>
        <time>2021-08-01T07:53:14.000Z</time>
      </trkpt>
      <trkpt lat="50.56659" lon="5.23141">
        <ele>195.39999389648</ele>
        <time>2021-08-01T07:53:19.000Z</time>
      </trkpt>
      <trkpt lat="50.56659" lon="5.23116">
        <ele>196.60000610352</ele>
        <time>2021-08-01T07:53:24.000Z</time>
      </trkpt>
      <trkpt lat="50.56664" lon="5.23104">
        <ele>196.80000305176</ele>
        <time>2021-08-01T07:53:26.000Z</time>
      </trkpt>
      <trkpt lat="50.56668" lon="5.23098">
        <ele>197</ele>
        <time>2021-08-01T07:53:27.000Z</time>
      </trkpt>
      <trkpt lat="50.56696" lon="5.23059">
        <ele>197</ele>
        <time>2021-08-01T07:53:33.000Z</time>
      </trkpt>
      <trkpt lat="50.56737" lon="5.23005">
        <ele>196.80000305176</ele>
        <time>2021-08-01T07:53:41.000Z</time>
      </trkpt>
      <trkpt lat="50.56765" lon="5.22965">
        <ele>196.60000610352</ele>
        <time>2021-08-01T07:53:48.000Z</time>
      </trkpt>
      <trkpt lat="50.56776" lon="5.2295">
        <ele>196.60000610352</ele>
        <time>2021-08-01T07:53:52.000Z</time>
      </trkpt>
      <trkpt lat="50.56778" lon="5.22944">
        <ele>196.39999389648</ele>
        <time>2021-08-01T07:53:53.000Z</time>
      </trkpt>
      <trkpt lat="50.56778" lon="5.22937">
        <ele>196.60000610352</ele>
        <time>2021-08-01T07:53:54.000Z</time>
      </trkpt>
      <trkpt lat="50.56774" lon="5.22923">
        <ele>196.60000610352</ele>
        <time>2021-08-01T07:53:56.000Z</time>
      </trkpt>
      <trkpt lat="50.56756" lon="5.22874">
        <ele>196.60000610352</ele>
        <time>2021-08-01T07:54:02.000Z</time>
      </trkpt>
      <trkpt lat="50.56744" lon="5.2284">
        <ele>196</ele>
        <time>2021-08-01T07:54:06.000Z</time>
      </trkpt>
      <trkpt lat="50.56742" lon="5.2282">
        <ele>195.80000305176</ele>
        <time>2021-08-01T07:54:08.000Z</time>
      </trkpt>
      <trkpt lat="50.56745" lon="5.228">
        <ele>195.60000610352</ele>
        <time>2021-08-01T07:54:10.000Z</time>
      </trkpt>
      <trkpt lat="50.5675" lon="5.22781">
        <ele>195.60000610352</ele>
        <time>2021-08-01T07:54:12.000Z</time>
      </trkpt>
      <trkpt lat="50.56768" lon="5.22715">
        <ele>195.19999694824</ele>
        <time>2021-08-01T07:54:19.000Z</time>
      </trkpt>
      <trkpt lat="50.56769" lon="5.22704">
        <ele>195.39999389648</ele>
        <time>2021-08-01T07:54:20.000Z</time>
      </trkpt>
      <trkpt lat="50.56769" lon="5.22694">
        <ele>195.19999694824</ele>
        <time>2021-08-01T07:54:21.000Z</time>
      </trkpt>
      <trkpt lat="50.56765" lon="5.22663">
        <ele>195.19999694824</ele>
        <time>2021-08-01T07:54:24.000Z</time>
      </trkpt>
      <trkpt lat="50.56752" lon="5.22579">
        <ele>195.60000610352</ele>
        <time>2021-08-01T07:54:32.000Z</time>
      </trkpt>
      <trkpt lat="50.5675" lon="5.22568">
        <ele>195.39999389648</ele>
        <time>2021-08-01T07:54:33.000Z</time>
      </trkpt>
      <trkpt lat="50.56735" lon="5.22508">
        <ele>195.80000305176</ele>
        <time>2021-08-01T07:54:39.000Z</time>
      </trkpt>
      <trkpt lat="50.5672" lon="5.22445">
        <ele>195.39999389648</ele>
        <time>2021-08-01T07:54:45.000Z</time>
      </trkpt>
      <trkpt lat="50.56708" lon="5.22393">
        <ele>194.60000610352</ele>
        <time>2021-08-01T07:54:50.000Z</time>
      </trkpt>
      <trkpt lat="50.56697" lon="5.22353">
        <ele>194</ele>
        <time>2021-08-01T07:54:54.000Z</time>
      </trkpt>
      <trkpt lat="50.56674" lon="5.2227">
        <ele>193.39999389648</ele>
        <time>2021-08-01T07:55:03.000Z</time>
      </trkpt>
      <trkpt lat="50.56649" lon="5.22195">
        <ele>193.19999694824</ele>
        <time>2021-08-01T07:55:11.000Z</time>
      </trkpt>
      <trkpt lat="50.56638" lon="5.22173">
        <ele>193.19999694824</ele>
        <time>2021-08-01T07:55:14.000Z</time>
      </trkpt>
      <trkpt lat="50.56631" lon="5.22161">
        <ele>193.19999694824</ele>
        <time>2021-08-01T07:55:16.000Z</time>
      </trkpt>
      <trkpt lat="50.56627" lon="5.22154">
        <ele>193.19999694824</ele>
        <time>2021-08-01T07:55:17.000Z</time>
      </trkpt>
      <trkpt lat="50.56612" lon="5.22123">
        <ele>193.19999694824</ele>
        <time>2021-08-01T07:55:21.000Z</time>
      </trkpt>
      <trkpt lat="50.56582" lon="5.22076">
        <ele>193</ele>
        <time>2021-08-01T07:55:27.000Z</time>
      </trkpt>
      <trkpt lat="50.56545" lon="5.22027">
        <ele>193.19999694824</ele>
        <time>2021-08-01T07:55:34.000Z</time>
      </trkpt>
      <trkpt lat="50.5653" lon="5.22006">
        <ele>193.39999389648</ele>
        <time>2021-08-01T07:55:37.000Z</time>
      </trkpt>
      <trkpt lat="50.56507" lon="5.21963">
        <ele>193.60000610352</ele>
        <time>2021-08-01T07:55:42.000Z</time>
      </trkpt>
      <trkpt lat="50.56503" lon="5.21954">
        <ele>193.60000610352</ele>
        <time>2021-08-01T07:55:43.000Z</time>
      </trkpt>
      <trkpt lat="50.56467" lon="5.21878">
        <ele>193.80000305176</ele>
        <time>2021-08-01T07:55:52.000Z</time>
      </trkpt>
      <trkpt lat="50.5644" lon="5.21834">
        <ele>193.39999389648</ele>
        <time>2021-08-01T07:55:58.000Z</time>
      </trkpt>
      <trkpt lat="50.56409" lon="5.21791">
        <ele>193.39999389648</ele>
        <time>2021-08-01T07:56:04.000Z</time>
      </trkpt>
      <trkpt lat="50.56387" lon="5.21734">
        <ele>192.80000305176</ele>
        <time>2021-08-01T07:56:10.000Z</time>
      </trkpt>
      <trkpt lat="50.56364" lon="5.2166">
        <ele>192.39999389648</ele>
        <time>2021-08-01T07:56:18.000Z</time>
      </trkpt>
      <trkpt lat="50.56362" lon="5.21651">
        <ele>192.39999389648</ele>
        <time>2021-08-01T07:56:19.000Z</time>
      </trkpt>
      <trkpt lat="50.5636" lon="5.2163">
        <ele>192.19999694824</ele>
        <time>2021-08-01T07:56:21.000Z</time>
      </trkpt>
      <trkpt lat="50.56357" lon="5.21595">
        <ele>192.19999694824</ele>
        <time>2021-08-01T07:56:24.000Z</time>
      </trkpt>
      <trkpt lat="50.56349" lon="5.21538">
        <ele>191</ele>
        <time>2021-08-01T07:56:29.000Z</time>
      </trkpt>
      <trkpt lat="50.56343" lon="5.21505">
        <ele>190.80000305176</ele>
        <time>2021-08-01T07:56:32.000Z</time>
      </trkpt>
      <trkpt lat="50.56333" lon="5.21454">
        <ele>190.60000610352</ele>
        <time>2021-08-01T07:56:37.000Z</time>
      </trkpt>
      <trkpt lat="50.56315" lon="5.21374">
        <ele>191</ele>
        <time>2021-08-01T07:56:45.000Z</time>
      </trkpt>
      <trkpt lat="50.56309" lon="5.21346">
        <ele>191.19999694824</ele>
        <time>2021-08-01T07:56:48.000Z</time>
      </trkpt>
      <trkpt lat="50.56292" lon="5.2126">
        <ele>192.19999694824</ele>
        <time>2021-08-01T07:56:57.000Z</time>
      </trkpt>
      <trkpt lat="50.56277" lon="5.21182">
        <ele>192.39999389648</ele>
        <time>2021-08-01T07:57:05.000Z</time>
      </trkpt>
      <trkpt lat="50.56265" lon="5.21122">
        <ele>192.39999389648</ele>
        <time>2021-08-01T07:57:12.000Z</time>
      </trkpt>
      <trkpt lat="50.56264" lon="5.21112">
        <ele>192.39999389648</ele>
        <time>2021-08-01T07:57:13.000Z</time>
      </trkpt>
      <trkpt lat="50.56267" lon="5.21093">
        <ele>192.19999694824</ele>
        <time>2021-08-01T07:57:15.000Z</time>
      </trkpt>
      <trkpt lat="50.5627" lon="5.21084">
        <ele>192</ele>
        <time>2021-08-01T07:57:16.000Z</time>
      </trkpt>
      <trkpt lat="50.56274" lon="5.21078">
        <ele>192</ele>
        <time>2021-08-01T07:57:17.000Z</time>
      </trkpt>
      <trkpt lat="50.56278" lon="5.21071">
        <ele>192</ele>
        <time>2021-08-01T07:57:18.000Z</time>
      </trkpt>
      <trkpt lat="50.56281" lon="5.21064">
        <ele>192</ele>
        <time>2021-08-01T07:57:19.000Z</time>
      </trkpt>
      <trkpt lat="50.56281" lon="5.21048">
        <ele>191.80000305176</ele>
        <time>2021-08-01T07:57:21.000Z</time>
      </trkpt>
      <trkpt lat="50.5627" lon="5.20992">
        <ele>191.80000305176</ele>
        <time>2021-08-01T07:57:27.000Z</time>
      </trkpt>
      <trkpt lat="50.5626" lon="5.20954">
        <ele>191.60000610352</ele>
        <time>2021-08-01T07:57:31.000Z</time>
      </trkpt>
      <trkpt lat="50.56256" lon="5.20944">
        <ele>191.60000610352</ele>
        <time>2021-08-01T07:57:32.000Z</time>
      </trkpt>
      <trkpt lat="50.56243" lon="5.20916">
        <ele>191.39999389648</ele>
        <time>2021-08-01T07:57:35.000Z</time>
      </trkpt>
      <trkpt lat="50.56225" lon="5.20877">
        <ele>191</ele>
        <time>2021-08-01T07:57:39.000Z</time>
      </trkpt>
      <trkpt lat="50.56191" lon="5.20803">
        <ele>189.19999694824</ele>
        <time>2021-08-01T07:57:47.000Z</time>
      </trkpt>
      <trkpt lat="50.56183" lon="5.20784">
        <ele>189</ele>
        <time>2021-08-01T07:57:49.000Z</time>
      </trkpt>
      <trkpt lat="50.56154" lon="5.20707">
        <ele>188.19999694824</ele>
        <time>2021-08-01T07:57:57.000Z</time>
      </trkpt>
      <trkpt lat="50.5615" lon="5.20661">
        <ele>188.19999694824</ele>
        <time>2021-08-01T07:58:01.000Z</time>
      </trkpt>
      <trkpt lat="50.56144" lon="5.20592">
        <ele>187.80000305176</ele>
        <time>2021-08-01T07:58:07.000Z</time>
      </trkpt>
      <trkpt lat="50.56141" lon="5.2057">
        <ele>187.80000305176</ele>
        <time>2021-08-01T07:58:09.000Z</time>
      </trkpt>
      <trkpt lat="50.56127" lon="5.20506">
        <ele>187.39999389648</ele>
        <time>2021-08-01T07:58:15.000Z</time>
      </trkpt>
      <trkpt lat="50.56122" lon="5.20487">
        <ele>187</ele>
        <time>2021-08-01T07:58:17.000Z</time>
      </trkpt>
      <trkpt lat="50.56098" lon="5.20408">
        <ele>186.19999694824</ele>
        <time>2021-08-01T07:58:25.000Z</time>
      </trkpt>
      <trkpt lat="50.56085" lon="5.20367">
        <ele>185.60000610352</ele>
        <time>2021-08-01T07:58:29.000Z</time>
      </trkpt>
      <trkpt lat="50.56071" lon="5.20314">
        <ele>185.60000610352</ele>
        <time>2021-08-01T07:58:34.000Z</time>
      </trkpt>
      <trkpt lat="50.56068" lon="5.20304">
        <ele>185.39999389648</ele>
        <time>2021-08-01T07:58:35.000Z</time>
      </trkpt>
      <trkpt lat="50.56056" lon="5.20264">
        <ele>184.80000305176</ele>
        <time>2021-08-01T07:58:39.000Z</time>
      </trkpt>
      <trkpt lat="50.5605" lon="5.20244">
        <ele>184.60000610352</ele>
        <time>2021-08-01T07:58:41.000Z</time>
      </trkpt>
      <trkpt lat="50.56046" lon="5.20224">
        <ele>184</ele>
        <time>2021-08-01T07:58:43.000Z</time>
      </trkpt>
      <trkpt lat="50.56043" lon="5.20192">
        <ele>183.39999389648</ele>
        <time>2021-08-01T07:58:46.000Z</time>
      </trkpt>
      <trkpt lat="50.56039" lon="5.20144">
        <ele>182.39999389648</ele>
        <time>2021-08-01T07:58:50.000Z</time>
      </trkpt>
      <trkpt lat="50.56036" lon="5.20106">
        <ele>182</ele>
        <time>2021-08-01T07:58:53.000Z</time>
      </trkpt>
      <trkpt lat="50.56035" lon="5.20094">
        <ele>182</ele>
        <time>2021-08-01T07:58:54.000Z</time>
      </trkpt>
      <trkpt lat="50.56031" lon="5.20068">
        <ele>181.60000610352</ele>
        <time>2021-08-01T07:58:56.000Z</time>
      </trkpt>
      <trkpt lat="50.56026" lon="5.20029">
        <ele>181.19999694824</ele>
        <time>2021-08-01T07:58:59.000Z</time>
      </trkpt>
      <trkpt lat="50.56019" lon="5.1999">
        <ele>180.19999694824</ele>
        <time>2021-08-01T07:59:02.000Z</time>
      </trkpt>
      <trkpt lat="50.56013" lon="5.19964">
        <ele>179.19999694824</ele>
        <time>2021-08-01T07:59:04.000Z</time>
      </trkpt>
      <trkpt lat="50.56002" lon="5.19913">
        <ele>177.60000610352</ele>
        <time>2021-08-01T07:59:08.000Z</time>
      </trkpt>
      <trkpt lat="50.56" lon="5.19901">
        <ele>177.19999694824</ele>
        <time>2021-08-01T07:59:09.000Z</time>
      </trkpt>
      <trkpt lat="50.55987" lon="5.1983">
        <ele>175.39999389648</ele>
        <time>2021-08-01T07:59:15.000Z</time>
      </trkpt>
      <trkpt lat="50.55982" lon="5.19807">
        <ele>174.80000305176</ele>
        <time>2021-08-01T07:59:17.000Z</time>
      </trkpt>
      <trkpt lat="50.55979" lon="5.19796">
        <ele>174.60000610352</ele>
        <time>2021-08-01T07:59:18.000Z</time>
      </trkpt>
      <trkpt lat="50.55972" lon="5.19774">
        <ele>174.19999694824</ele>
        <time>2021-08-01T07:59:20.000Z</time>
      </trkpt>
      <trkpt lat="50.5596" lon="5.19741">
        <ele>173.80000305176</ele>
        <time>2021-08-01T07:59:23.000Z</time>
      </trkpt>
      <trkpt lat="50.55943" lon="5.1971">
        <ele>172.60000610352</ele>
        <time>2021-08-01T07:59:26.000Z</time>
      </trkpt>
      <trkpt lat="50.5592" lon="5.19668">
        <ele>170.39999389648</ele>
        <time>2021-08-01T07:59:30.000Z</time>
      </trkpt>
      <trkpt lat="50.55896" lon="5.19617">
        <ele>167.39999389648</ele>
        <time>2021-08-01T07:59:35.000Z</time>
      </trkpt>
      <trkpt lat="50.55892" lon="5.19606">
        <ele>167.19999694824</ele>
        <time>2021-08-01T07:59:36.000Z</time>
      </trkpt>
      <trkpt lat="50.55886" lon="5.19586">
        <ele>166.39999389648</ele>
        <time>2021-08-01T07:59:38.000Z</time>
      </trkpt>
      <trkpt lat="50.5588" lon="5.19578">
        <ele>166</ele>
        <time>2021-08-01T07:59:39.000Z</time>
      </trkpt>
      <trkpt lat="50.55873" lon="5.19575">
        <ele>165.80000305176</ele>
        <time>2021-08-01T07:59:40.000Z</time>
      </trkpt>
      <trkpt lat="50.55865" lon="5.19575">
        <ele>165.60000610352</ele>
        <time>2021-08-01T07:59:41.000Z</time>
      </trkpt>
      <trkpt lat="50.55858" lon="5.19577">
        <ele>165.19999694824</ele>
        <time>2021-08-01T07:59:42.000Z</time>
      </trkpt>
      <trkpt lat="50.5585" lon="5.19581">
        <ele>165</ele>
        <time>2021-08-01T07:59:43.000Z</time>
      </trkpt>
      <trkpt lat="50.55835" lon="5.19589">
        <ele>164.80000305176</ele>
        <time>2021-08-01T07:59:45.000Z</time>
      </trkpt>
      <trkpt lat="50.55813" lon="5.19599">
        <ele>163.80000305176</ele>
        <time>2021-08-01T07:59:48.000Z</time>
      </trkpt>
      <trkpt lat="50.55797" lon="5.19601">
        <ele>163.19999694824</ele>
        <time>2021-08-01T07:59:50.000Z</time>
      </trkpt>
      <trkpt lat="50.55789" lon="5.19602">
        <ele>162.80000305176</ele>
        <time>2021-08-01T07:59:51.000Z</time>
      </trkpt>
      <trkpt lat="50.55781" lon="5.19603">
        <ele>162.19999694824</ele>
        <time>2021-08-01T07:59:52.000Z</time>
      </trkpt>
      <trkpt lat="50.55765" lon="5.19606">
        <ele>161.60000610352</ele>
        <time>2021-08-01T07:59:54.000Z</time>
      </trkpt>
      <trkpt lat="50.55757" lon="5.19608">
        <ele>161.60000610352</ele>
        <time>2021-08-01T07:59:55.000Z</time>
      </trkpt>
      <trkpt lat="50.5575" lon="5.19611">
        <ele>161.60000610352</ele>
        <time>2021-08-01T07:59:56.000Z</time>
      </trkpt>
      <trkpt lat="50.55743" lon="5.19615">
        <ele>161.19999694824</ele>
        <time>2021-08-01T07:59:57.000Z</time>
      </trkpt>
      <trkpt lat="50.55729" lon="5.19621">
        <ele>161</ele>
        <time>2021-08-01T07:59:59.000Z</time>
      </trkpt>
      <trkpt lat="50.55723" lon="5.1962">
        <ele>160.60000610352</ele>
        <time>2021-08-01T08:00:00.000Z</time>
      </trkpt>
      <trkpt lat="50.55717" lon="5.19615">
        <ele>159.60000610352</ele>
        <time>2021-08-01T08:00:01.000Z</time>
      </trkpt>
      <trkpt lat="50.55712" lon="5.19607">
        <ele>159.19999694824</ele>
        <time>2021-08-01T08:00:02.000Z</time>
      </trkpt>
      <trkpt lat="50.55707" lon="5.19597">
        <ele>158.39999389648</ele>
        <time>2021-08-01T08:00:03.000Z</time>
      </trkpt>
      <trkpt lat="50.55693" lon="5.19566">
        <ele>157.80000305176</ele>
        <time>2021-08-01T08:00:06.000Z</time>
      </trkpt>
      <trkpt lat="50.55689" lon="5.19555">
        <ele>157.60000610352</ele>
        <time>2021-08-01T08:00:07.000Z</time>
      </trkpt>
      <trkpt lat="50.55675" lon="5.19521">
        <ele>155.60000610352</ele>
        <time>2021-08-01T08:00:10.000Z</time>
      </trkpt>
      <trkpt lat="50.55666" lon="5.19499">
        <ele>154</ele>
        <time>2021-08-01T08:00:12.000Z</time>
      </trkpt>
      <trkpt lat="50.55661" lon="5.19489">
        <ele>153.39999389648</ele>
        <time>2021-08-01T08:00:13.000Z</time>
      </trkpt>
      <trkpt lat="50.55655" lon="5.1948">
        <ele>153</ele>
        <time>2021-08-01T08:00:14.000Z</time>
      </trkpt>
      <trkpt lat="50.55648" lon="5.19472">
        <ele>152.39999389648</ele>
        <time>2021-08-01T08:00:15.000Z</time>
      </trkpt>
      <trkpt lat="50.55633" lon="5.1946">
        <ele>150.39999389648</ele>
        <time>2021-08-01T08:00:17.000Z</time>
      </trkpt>
      <trkpt lat="50.55625" lon="5.19457">
        <ele>149.80000305176</ele>
        <time>2021-08-01T08:00:18.000Z</time>
      </trkpt>
      <trkpt lat="50.55616" lon="5.19454">
        <ele>149.19999694824</ele>
        <time>2021-08-01T08:00:19.000Z</time>
      </trkpt>
      <trkpt lat="50.55599" lon="5.19451">
        <ele>147.80000305176</ele>
        <time>2021-08-01T08:00:21.000Z</time>
      </trkpt>
      <trkpt lat="50.55582" lon="5.19448">
        <ele>146.19999694824</ele>
        <time>2021-08-01T08:00:23.000Z</time>
      </trkpt>
      <trkpt lat="50.55574" lon="5.19446">
        <ele>145</ele>
        <time>2021-08-01T08:00:24.000Z</time>
      </trkpt>
      <trkpt lat="50.55557" lon="5.1944">
        <ele>144</ele>
        <time>2021-08-01T08:00:26.000Z</time>
      </trkpt>
      <trkpt lat="50.55548" lon="5.19437">
        <ele>143.19999694824</ele>
        <time>2021-08-01T08:00:27.000Z</time>
      </trkpt>
      <trkpt lat="50.5553" lon="5.1943">
        <ele>141.39999389648</ele>
        <time>2021-08-01T08:00:29.000Z</time>
      </trkpt>
      <trkpt lat="50.55521" lon="5.19426">
        <ele>140.60000610352</ele>
        <time>2021-08-01T08:00:30.000Z</time>
      </trkpt>
      <trkpt lat="50.55511" lon="5.19422">
        <ele>140</ele>
        <time>2021-08-01T08:00:31.000Z</time>
      </trkpt>
      <trkpt lat="50.55502" lon="5.19418">
        <ele>139.19999694824</ele>
        <time>2021-08-01T08:00:32.000Z</time>
      </trkpt>
      <trkpt lat="50.55491" lon="5.19415">
        <ele>137.80000305176</ele>
        <time>2021-08-01T08:00:33.000Z</time>
      </trkpt>
      <trkpt lat="50.55471" lon="5.19409">
        <ele>136.80000305176</ele>
        <time>2021-08-01T08:00:35.000Z</time>
      </trkpt>
      <trkpt lat="50.5546" lon="5.19406">
        <ele>135.60000610352</ele>
        <time>2021-08-01T08:00:36.000Z</time>
      </trkpt>
      <trkpt lat="50.5544" lon="5.19399">
        <ele>134</ele>
        <time>2021-08-01T08:00:38.000Z</time>
      </trkpt>
      <trkpt lat="50.5543" lon="5.19394">
        <ele>132.80000305176</ele>
        <time>2021-08-01T08:00:39.000Z</time>
      </trkpt>
      <trkpt lat="50.55421" lon="5.19387">
        <ele>131.60000610352</ele>
        <time>2021-08-01T08:00:40.000Z</time>
      </trkpt>
      <trkpt lat="50.55411" lon="5.19379">
        <ele>130.19999694824</ele>
        <time>2021-08-01T08:00:41.000Z</time>
      </trkpt>
      <trkpt lat="50.55393" lon="5.19361">
        <ele>128</ele>
        <time>2021-08-01T08:00:43.000Z</time>
      </trkpt>
      <trkpt lat="50.55374" lon="5.19343">
        <ele>124.80000305176</ele>
        <time>2021-08-01T08:00:45.000Z</time>
      </trkpt>
      <trkpt lat="50.55364" lon="5.19335">
        <ele>123.59999847412</ele>
        <time>2021-08-01T08:00:46.000Z</time>
      </trkpt>
      <trkpt lat="50.55354" lon="5.19329">
        <ele>123</ele>
        <time>2021-08-01T08:00:47.000Z</time>
      </trkpt>
      <trkpt lat="50.55343" lon="5.19326">
        <ele>121.59999847412</ele>
        <time>2021-08-01T08:00:48.000Z</time>
      </trkpt>
      <trkpt lat="50.55333" lon="5.19327">
        <ele>120.19999694824</ele>
        <time>2021-08-01T08:00:49.000Z</time>
      </trkpt>
      <trkpt lat="50.55322" lon="5.19331">
        <ele>118.80000305176</ele>
        <time>2021-08-01T08:00:50.000Z</time>
      </trkpt>
      <trkpt lat="50.55311" lon="5.19335">
        <ele>118</ele>
        <time>2021-08-01T08:00:51.000Z</time>
      </trkpt>
      <trkpt lat="50.55268" lon="5.19352">
        <ele>115.19999694824</ele>
        <time>2021-08-01T08:00:55.000Z</time>
      </trkpt>
      <trkpt lat="50.55236" lon="5.19363">
        <ele>112.40000152588</ele>
        <time>2021-08-01T08:00:58.000Z</time>
      </trkpt>
      <trkpt lat="50.55226" lon="5.19367">
        <ele>111.59999847412</ele>
        <time>2021-08-01T08:00:59.000Z</time>
      </trkpt>
      <trkpt lat="50.55196" lon="5.19378">
        <ele>110</ele>
        <time>2021-08-01T08:01:02.000Z</time>
      </trkpt>
      <trkpt lat="50.55178" lon="5.19385">
        <ele>108.80000305176</ele>
        <time>2021-08-01T08:01:04.000Z</time>
      </trkpt>
      <trkpt lat="50.55159" lon="5.1939">
        <ele>107.80000305176</ele>
        <time>2021-08-01T08:01:06.000Z</time>
      </trkpt>
      <trkpt lat="50.55141" lon="5.19382">
        <ele>107</ele>
        <time>2021-08-01T08:01:08.000Z</time>
      </trkpt>
      <trkpt lat="50.55133" lon="5.19374">
        <ele>106.40000152588</ele>
        <time>2021-08-01T08:01:09.000Z</time>
      </trkpt>
      <trkpt lat="50.55118" lon="5.19355">
        <ele>105.59999847412</ele>
        <time>2021-08-01T08:01:11.000Z</time>
      </trkpt>
      <trkpt lat="50.55111" lon="5.19345">
        <ele>105</ele>
        <time>2021-08-01T08:01:12.000Z</time>
      </trkpt>
      <trkpt lat="50.55103" lon="5.19336">
        <ele>104.59999847412</ele>
        <time>2021-08-01T08:01:13.000Z</time>
      </trkpt>
      <trkpt lat="50.55073" lon="5.19298">
        <ele>102.80000305176</ele>
        <time>2021-08-01T08:01:17.000Z</time>
      </trkpt>
      <trkpt lat="50.5504" lon="5.19262">
        <ele>99.599998474121</ele>
        <time>2021-08-01T08:01:21.000Z</time>
      </trkpt>
      <trkpt lat="50.55031" lon="5.19255">
        <ele>99</ele>
        <time>2021-08-01T08:01:22.000Z</time>
      </trkpt>
      <trkpt lat="50.55012" lon="5.1924">
        <ele>98.599998474121</ele>
        <time>2021-08-01T08:01:24.000Z</time>
      </trkpt>
      <trkpt lat="50.55003" lon="5.19232">
        <ele>98</ele>
        <time>2021-08-01T08:01:25.000Z</time>
      </trkpt>
      <trkpt lat="50.54995" lon="5.19221">
        <ele>97.199996948242</ele>
        <time>2021-08-01T08:01:26.000Z</time>
      </trkpt>
      <trkpt lat="50.54988" lon="5.1921">
        <ele>96.599998474121</ele>
        <time>2021-08-01T08:01:27.000Z</time>
      </trkpt>
      <trkpt lat="50.5498" lon="5.1918">
        <ele>96</ele>
        <time>2021-08-01T08:01:29.000Z</time>
      </trkpt>
      <trkpt lat="50.54979" lon="5.19163">
        <ele>95.199996948242</ele>
        <time>2021-08-01T08:01:30.000Z</time>
      </trkpt>
      <trkpt lat="50.54977" lon="5.19127">
        <ele>93.400001525879</ele>
        <time>2021-08-01T08:01:32.000Z</time>
      </trkpt>
      <trkpt lat="50.54976" lon="5.19109">
        <ele>92.199996948242</ele>
        <time>2021-08-01T08:01:33.000Z</time>
      </trkpt>
      <trkpt lat="50.54977" lon="5.19092">
        <ele>91.599998474121</ele>
        <time>2021-08-01T08:01:34.000Z</time>
      </trkpt>
      <trkpt lat="50.5498" lon="5.19074">
        <ele>90.800003051758</ele>
        <time>2021-08-01T08:01:35.000Z</time>
      </trkpt>
      <trkpt lat="50.54984" lon="5.19057">
        <ele>90</ele>
        <time>2021-08-01T08:01:36.000Z</time>
      </trkpt>
      <trkpt lat="50.54988" lon="5.1904">
        <ele>89.400001525879</ele>
        <time>2021-08-01T08:01:37.000Z</time>
      </trkpt>
      <trkpt lat="50.54993" lon="5.19023">
        <ele>89</ele>
        <time>2021-08-01T08:01:38.000Z</time>
      </trkpt>
      <trkpt lat="50.5501" lon="5.18957">
        <ele>85.599998474121</ele>
        <time>2021-08-01T08:01:42.000Z</time>
      </trkpt>
      <trkpt lat="50.55014" lon="5.18942">
        <ele>84.599998474121</ele>
        <time>2021-08-01T08:01:43.000Z</time>
      </trkpt>
      <trkpt lat="50.55025" lon="5.18917">
        <ele>82.800003051758</ele>
        <time>2021-08-01T08:01:45.000Z</time>
      </trkpt>
      <trkpt lat="50.55031" lon="5.18906">
        <ele>81.800003051758</ele>
        <time>2021-08-01T08:01:46.000Z</time>
      </trkpt>
      <trkpt lat="50.55036" lon="5.18894">
        <ele>80.400001525879</ele>
        <time>2021-08-01T08:01:47.000Z</time>
      </trkpt>
      <trkpt lat="50.5504" lon="5.18882">
        <ele>80</ele>
        <time>2021-08-01T08:01:48.000Z</time>
      </trkpt>
      <trkpt lat="50.55042" lon="5.18868">
        <ele>79.800003051758</ele>
        <time>2021-08-01T08:01:49.000Z</time>
      </trkpt>
      <trkpt lat="50.55044" lon="5.18854">
        <ele>79.400001525879</ele>
        <time>2021-08-01T08:01:50.000Z</time>
      </trkpt>
      <trkpt lat="50.55047" lon="5.1884">
        <ele>79.400001525879</ele>
        <time>2021-08-01T08:01:51.000Z</time>
      </trkpt>
      <trkpt lat="50.55056" lon="5.18811">
        <ele>79</ele>
        <time>2021-08-01T08:01:53.000Z</time>
      </trkpt>
      <trkpt lat="50.55067" lon="5.18783">
        <ele>79</ele>
        <time>2021-08-01T08:01:55.000Z</time>
      </trkpt>
      <trkpt lat="50.55083" lon="5.18738">
        <ele>78.400001525879</ele>
        <time>2021-08-01T08:01:58.000Z</time>
      </trkpt>
      <trkpt lat="50.55087" lon="5.18722">
        <ele>78.400001525879</ele>
        <time>2021-08-01T08:01:59.000Z</time>
      </trkpt>
      <trkpt lat="50.5509" lon="5.18705">
        <ele>78</ele>
        <time>2021-08-01T08:02:00.000Z</time>
      </trkpt>
      <trkpt lat="50.55101" lon="5.18639">
        <ele>77.400001525879</ele>
        <time>2021-08-01T08:02:04.000Z</time>
      </trkpt>
      <trkpt lat="50.55113" lon="5.18568">
        <ele>77</ele>
        <time>2021-08-01T08:02:09.000Z</time>
      </trkpt>
      <trkpt lat="50.55114" lon="5.18556">
        <ele>77</ele>
        <time>2021-08-01T08:02:10.000Z</time>
      </trkpt>
      <trkpt lat="50.55118" lon="5.18513">
        <ele>77</ele>
        <time>2021-08-01T08:02:14.000Z</time>
      </trkpt>
      <trkpt lat="50.55123" lon="5.18474">
        <ele>78.199996948242</ele>
        <time>2021-08-01T08:02:19.000Z</time>
      </trkpt>
      <trkpt lat="50.55126" lon="5.18456">
        <ele>78.800003051758</ele>
        <time>2021-08-01T08:02:22.000Z</time>
      </trkpt>
      <trkpt lat="50.55128" lon="5.18441">
        <ele>79</ele>
        <time>2021-08-01T08:02:25.000Z</time>
      </trkpt>
      <trkpt lat="50.55126" lon="5.18433">
        <ele>79.199996948242</ele>
        <time>2021-08-01T08:02:27.000Z</time>
      </trkpt>
      <trkpt lat="50.55124" lon="5.18427">
        <ele>79.400001525879</ele>
        <time>2021-08-01T08:02:29.000Z</time>
      </trkpt>
      <trkpt lat="50.55122" lon="5.18423">
        <ele>79.599998474121</ele>
        <time>2021-08-01T08:02:31.000Z</time>
      </trkpt>
      <trkpt lat="50.55111" lon="5.18421">
        <ele>81.400001525879</ele>
        <time>2021-08-01T08:05:34.000Z</time>
      </trkpt>
      <trkpt lat="50.55106" lon="5.18415">
        <ele>81.199996948242</ele>
        <time>2021-08-01T08:05:37.000Z</time>
      </trkpt>
      <trkpt lat="50.55092" lon="5.18395">
        <ele>81</ele>
        <time>2021-08-01T08:05:43.000Z</time>
      </trkpt>
      <trkpt lat="50.55085" lon="5.18385">
        <ele>81</ele>
        <time>2021-08-01T08:05:45.000Z</time>
      </trkpt>
      <trkpt lat="50.55066" lon="5.18356">
        <ele>80.800003051758</ele>
        <time>2021-08-01T08:05:50.000Z</time>
      </trkpt>
      <trkpt lat="50.5506" lon="5.18342">
        <ele>80.800003051758</ele>
        <time>2021-08-01T08:05:52.000Z</time>
      </trkpt>
      <trkpt lat="50.55057" lon="5.18326">
        <ele>80</ele>
        <time>2021-08-01T08:05:54.000Z</time>
      </trkpt>
      <trkpt lat="50.55043" lon="5.18248">
        <ele>79.400001525879</ele>
        <time>2021-08-01T08:06:03.000Z</time>
      </trkpt>
      <trkpt lat="50.55042" lon="5.18239">
        <ele>79.199996948242</ele>
        <time>2021-08-01T08:06:04.000Z</time>
      </trkpt>
      <trkpt lat="50.55035" lon="5.18216">
        <ele>79.199996948242</ele>
        <time>2021-08-01T08:06:07.000Z</time>
      </trkpt>
      <trkpt lat="50.55034" lon="5.18208">
        <ele>79.599998474121</ele>
        <time>2021-08-01T08:06:08.000Z</time>
      </trkpt>
      <trkpt lat="50.55035" lon="5.18192">
        <ele>79.400001525879</ele>
        <time>2021-08-01T08:06:10.000Z</time>
      </trkpt>
      <trkpt lat="50.55036" lon="5.18175">
        <ele>80</ele>
        <time>2021-08-01T08:06:12.000Z</time>
      </trkpt>
      <trkpt lat="50.5503" lon="5.18141">
        <ele>81.400001525879</ele>
        <time>2021-08-01T08:06:16.000Z</time>
      </trkpt>
      <trkpt lat="50.55012" lon="5.18075">
        <ele>83</ele>
        <time>2021-08-01T08:06:24.000Z</time>
      </trkpt>
      <trkpt lat="50.55002" lon="5.18041">
        <ele>83.800003051758</ele>
        <time>2021-08-01T08:06:28.000Z</time>
      </trkpt>
      <trkpt lat="50.54994" lon="5.18014">
        <ele>84</ele>
        <time>2021-08-01T08:06:31.000Z</time>
      </trkpt>
      <trkpt lat="50.54977" lon="5.17972">
        <ele>85.599998474121</ele>
        <time>2021-08-01T08:06:36.000Z</time>
      </trkpt>
      <trkpt lat="50.54974" lon="5.17964">
        <ele>86</ele>
        <time>2021-08-01T08:06:37.000Z</time>
      </trkpt>
      <trkpt lat="50.54963" lon="5.17933">
        <ele>86.800003051758</ele>
        <time>2021-08-01T08:06:41.000Z</time>
      </trkpt>
      <trkpt lat="50.54949" lon="5.17897">
        <ele>87.400001525879</ele>
        <time>2021-08-01T08:06:46.000Z</time>
      </trkpt>
      <trkpt lat="50.54947" lon="5.1789">
        <ele>87.599998474121</ele>
        <time>2021-08-01T08:06:47.000Z</time>
      </trkpt>
      <trkpt lat="50.54938" lon="5.17866">
        <ele>88.599998474121</ele>
        <time>2021-08-01T08:06:51.000Z</time>
      </trkpt>
      <trkpt lat="50.54932" lon="5.17847">
        <ele>89.199996948242</ele>
        <time>2021-08-01T08:06:54.000Z</time>
      </trkpt>
      <trkpt lat="50.54926" lon="5.17828">
        <ele>90</ele>
        <time>2021-08-01T08:06:57.000Z</time>
      </trkpt>
      <trkpt lat="50.54914" lon="5.17786">
        <ele>91.400001525879</ele>
        <time>2021-08-01T08:07:03.000Z</time>
      </trkpt>
      <trkpt lat="50.54909" lon="5.17773">
        <ele>91.800003051758</ele>
        <time>2021-08-01T08:07:05.000Z</time>
      </trkpt>
      <trkpt lat="50.54907" lon="5.17767">
        <ele>92</ele>
        <time>2021-08-01T08:07:06.000Z</time>
      </trkpt>
      <trkpt lat="50.54894" lon="5.17736">
        <ele>92.800003051758</ele>
        <time>2021-08-01T08:07:11.000Z</time>
      </trkpt>
      <trkpt lat="50.54879" lon="5.17688">
        <ele>93.599998474121</ele>
        <time>2021-08-01T08:07:18.000Z</time>
      </trkpt>
      <trkpt lat="50.54874" lon="5.17675">
        <ele>94.199996948242</ele>
        <time>2021-08-01T08:07:20.000Z</time>
      </trkpt>
      <trkpt lat="50.54866" lon="5.17642">
        <ele>94.800003051758</ele>
        <time>2021-08-01T08:07:25.000Z</time>
      </trkpt>
      <trkpt lat="50.54863" lon="5.17629">
        <ele>95.400001525879</ele>
        <time>2021-08-01T08:07:27.000Z</time>
      </trkpt>
      <trkpt lat="50.54854" lon="5.1759">
        <ele>96</ele>
        <time>2021-08-01T08:07:33.000Z</time>
      </trkpt>
      <trkpt lat="50.5485" lon="5.17566">
        <ele>96.800003051758</ele>
        <time>2021-08-01T08:07:37.000Z</time>
      </trkpt>
      <trkpt lat="50.54849" lon="5.17559">
        <ele>97</ele>
        <time>2021-08-01T08:07:38.000Z</time>
      </trkpt>
      <trkpt lat="50.54846" lon="5.17535">
        <ele>98</ele>
        <time>2021-08-01T08:07:42.000Z</time>
      </trkpt>
      <trkpt lat="50.54842" lon="5.17502">
        <ele>99.199996948242</ele>
        <time>2021-08-01T08:07:47.000Z</time>
      </trkpt>
      <trkpt lat="50.54842" lon="5.17495">
        <ele>99.599998474121</ele>
        <time>2021-08-01T08:07:48.000Z</time>
      </trkpt>
      <trkpt lat="50.54837" lon="5.17471">
        <ele>100.40000152588</ele>
        <time>2021-08-01T08:07:52.000Z</time>
      </trkpt>
      <trkpt lat="50.54833" lon="5.1746">
        <ele>101</ele>
        <time>2021-08-01T08:07:54.000Z</time>
      </trkpt>
      <trkpt lat="50.54831" lon="5.17455">
        <ele>101.19999694824</ele>
        <time>2021-08-01T08:07:55.000Z</time>
      </trkpt>
      <trkpt lat="50.54816" lon="5.17422">
        <ele>102.80000305176</ele>
        <time>2021-08-01T08:08:01.000Z</time>
      </trkpt>
      <trkpt lat="50.54813" lon="5.17416">
        <ele>103.40000152588</ele>
        <time>2021-08-01T08:08:02.000Z</time>
      </trkpt>
      <trkpt lat="50.54802" lon="5.17395">
        <ele>104.19999694824</ele>
        <time>2021-08-01T08:08:06.000Z</time>
      </trkpt>
      <trkpt lat="50.5479" lon="5.17373">
        <ele>105</ele>
        <time>2021-08-01T08:08:10.000Z</time>
      </trkpt>
      <trkpt lat="50.54787" lon="5.17367">
        <ele>105.19999694824</ele>
        <time>2021-08-01T08:08:11.000Z</time>
      </trkpt>
      <trkpt lat="50.54755" lon="5.17301">
        <ele>107.59999847412</ele>
        <time>2021-08-01T08:08:22.000Z</time>
      </trkpt>
      <trkpt lat="50.54752" lon="5.17295">
        <ele>107.59999847412</ele>
        <time>2021-08-01T08:08:23.000Z</time>
      </trkpt>
      <trkpt lat="50.54725" lon="5.1724">
        <ele>108.59999847412</ele>
        <time>2021-08-01T08:08:32.000Z</time>
      </trkpt>
      <trkpt lat="50.54704" lon="5.17196">
        <ele>109</ele>
        <time>2021-08-01T08:08:39.000Z</time>
      </trkpt>
      <trkpt lat="50.54698" lon="5.17184">
        <ele>109.19999694824</ele>
        <time>2021-08-01T08:08:41.000Z</time>
      </trkpt>
      <trkpt lat="50.54677" lon="5.17141">
        <ele>110</ele>
        <time>2021-08-01T08:08:48.000Z</time>
      </trkpt>
      <trkpt lat="50.54674" lon="5.17134">
        <ele>110</ele>
        <time>2021-08-01T08:08:49.000Z</time>
      </trkpt>
      <trkpt lat="50.5465" lon="5.17084">
        <ele>111</ele>
        <time>2021-08-01T08:08:57.000Z</time>
      </trkpt>
      <trkpt lat="50.54644" lon="5.17072">
        <ele>111.40000152588</ele>
        <time>2021-08-01T08:08:59.000Z</time>
      </trkpt>
      <trkpt lat="50.54628" lon="5.1704">
        <ele>112.19999694824</ele>
        <time>2021-08-01T08:09:04.000Z</time>
      </trkpt>
      <trkpt lat="50.54609" lon="5.16999">
        <ele>112.80000305176</ele>
        <time>2021-08-01T08:09:10.000Z</time>
      </trkpt>
      <trkpt lat="50.54599" lon="5.16977">
        <ele>113.40000152588</ele>
        <time>2021-08-01T08:09:13.000Z</time>
      </trkpt>
      <trkpt lat="50.54576" lon="5.16932">
        <ele>114.19999694824</ele>
        <time>2021-08-01T08:09:20.000Z</time>
      </trkpt>
      <trkpt lat="50.54572" lon="5.16926">
        <ele>114.19999694824</ele>
        <time>2021-08-01T08:09:21.000Z</time>
      </trkpt>
      <trkpt lat="50.54557" lon="5.16897">
        <ele>114.80000305176</ele>
        <time>2021-08-01T08:09:26.000Z</time>
      </trkpt>
      <trkpt lat="50.54542" lon="5.16866">
        <ele>115.80000305176</ele>
        <time>2021-08-01T08:09:31.000Z</time>
      </trkpt>
      <trkpt lat="50.54529" lon="5.16839">
        <ele>116.40000152588</ele>
        <time>2021-08-01T08:09:35.000Z</time>
      </trkpt>
      <trkpt lat="50.54512" lon="5.16804">
        <ele>116.80000305176</ele>
        <time>2021-08-01T08:09:40.000Z</time>
      </trkpt>
      <trkpt lat="50.54487" lon="5.16749">
        <ele>118</ele>
        <time>2021-08-01T08:09:48.000Z</time>
      </trkpt>
      <trkpt lat="50.54482" lon="5.16733">
        <ele>118.19999694824</ele>
        <time>2021-08-01T08:09:50.000Z</time>
      </trkpt>
      <trkpt lat="50.54463" lon="5.16669">
        <ele>118.59999847412</ele>
        <time>2021-08-01T08:09:58.000Z</time>
      </trkpt>
      <trkpt lat="50.54438" lon="5.16611">
        <ele>119.40000152588</ele>
        <time>2021-08-01T08:10:06.000Z</time>
      </trkpt>
      <trkpt lat="50.54431" lon="5.16598">
        <ele>119.40000152588</ele>
        <time>2021-08-01T08:10:08.000Z</time>
      </trkpt>
      <trkpt lat="50.544" lon="5.16538">
        <ele>120</ele>
        <time>2021-08-01T08:10:17.000Z</time>
      </trkpt>
      <trkpt lat="50.54365" lon="5.1647">
        <ele>120.80000305176</ele>
        <time>2021-08-01T08:10:27.000Z</time>
      </trkpt>
      <trkpt lat="50.54358" lon="5.16457">
        <ele>120.80000305176</ele>
        <time>2021-08-01T08:10:29.000Z</time>
      </trkpt>
      <trkpt lat="50.54327" lon="5.16397">
        <ele>121.59999847412</ele>
        <time>2021-08-01T08:10:38.000Z</time>
      </trkpt>
      <trkpt lat="50.54324" lon="5.1639">
        <ele>121.59999847412</ele>
        <time>2021-08-01T08:10:39.000Z</time>
      </trkpt>
      <trkpt lat="50.54288" lon="5.16321">
        <ele>122.59999847412</ele>
        <time>2021-08-01T08:10:49.000Z</time>
      </trkpt>
      <trkpt lat="50.54281" lon="5.16308">
        <ele>123</ele>
        <time>2021-08-01T08:10:51.000Z</time>
      </trkpt>
      <trkpt lat="50.5425" lon="5.16255">
        <ele>123.80000305176</ele>
        <time>2021-08-01T08:10:59.000Z</time>
      </trkpt>
      <trkpt lat="50.54246" lon="5.16249">
        <ele>123.80000305176</ele>
        <time>2021-08-01T08:11:00.000Z</time>
      </trkpt>
      <trkpt lat="50.54215" lon="5.16201">
        <ele>124.59999847412</ele>
        <time>2021-08-01T08:11:08.000Z</time>
      </trkpt>
      <trkpt lat="50.54199" lon="5.16179">
        <ele>124.80000305176</ele>
        <time>2021-08-01T08:11:12.000Z</time>
      </trkpt>
      <trkpt lat="50.5418" lon="5.16154">
        <ele>125.59999847412</ele>
        <time>2021-08-01T08:11:17.000Z</time>
      </trkpt>
      <trkpt lat="50.54161" lon="5.16131">
        <ele>126.19999694824</ele>
        <time>2021-08-01T08:11:22.000Z</time>
      </trkpt>
      <trkpt lat="50.54141" lon="5.16108">
        <ele>127.19999694824</ele>
        <time>2021-08-01T08:11:27.000Z</time>
      </trkpt>
      <trkpt lat="50.54137" lon="5.16103">
        <ele>127.19999694824</ele>
        <time>2021-08-01T08:11:28.000Z</time>
      </trkpt>
      <trkpt lat="50.54116" lon="5.16079">
        <ele>128.80000305176</ele>
        <time>2021-08-01T08:11:33.000Z</time>
      </trkpt>
      <trkpt lat="50.54095" lon="5.16055">
        <ele>129.80000305176</ele>
        <time>2021-08-01T08:11:38.000Z</time>
      </trkpt>
      <trkpt lat="50.54091" lon="5.1605">
        <ele>130.19999694824</ele>
        <time>2021-08-01T08:11:39.000Z</time>
      </trkpt>
      <trkpt lat="50.54063" lon="5.16017">
        <ele>132.19999694824</ele>
        <time>2021-08-01T08:11:47.000Z</time>
      </trkpt>
      <trkpt lat="50.54053" lon="5.16006">
        <ele>132.80000305176</ele>
        <time>2021-08-01T08:11:53.000Z</time>
      </trkpt>
      <trkpt lat="50.54045" lon="5.15994">
        <ele>132.80000305176</ele>
        <time>2021-08-01T08:11:58.000Z</time>
      </trkpt>
      <trkpt lat="50.54044" lon="5.15988">
        <ele>132.80000305176</ele>
        <time>2021-08-01T08:11:59.000Z</time>
      </trkpt>
      <trkpt lat="50.54046" lon="5.15973">
        <ele>133</ele>
        <time>2021-08-01T08:12:01.000Z</time>
      </trkpt>
      <trkpt lat="50.5405" lon="5.15937">
        <ele>133</ele>
        <time>2021-08-01T08:12:05.000Z</time>
      </trkpt>
      <trkpt lat="50.54055" lon="5.15898">
        <ele>133.19999694824</ele>
        <time>2021-08-01T08:12:09.000Z</time>
      </trkpt>
      <trkpt lat="50.54063" lon="5.1582">
        <ele>133.39999389648</ele>
        <time>2021-08-01T08:12:17.000Z</time>
      </trkpt>
      <trkpt lat="50.54067" lon="5.15791">
        <ele>133.60000610352</ele>
        <time>2021-08-01T08:12:20.000Z</time>
      </trkpt>
      <trkpt lat="50.54075" lon="5.15711">
        <ele>133.19999694824</ele>
        <time>2021-08-01T08:12:28.000Z</time>
      </trkpt>
      <trkpt lat="50.54078" lon="5.1569">
        <ele>133</ele>
        <time>2021-08-01T08:12:30.000Z</time>
      </trkpt>
      <trkpt lat="50.54085" lon="5.15625">
        <ele>132.39999389648</ele>
        <time>2021-08-01T08:12:36.000Z</time>
      </trkpt>
      <trkpt lat="50.54091" lon="5.15569">
        <ele>131.39999389648</ele>
        <time>2021-08-01T08:12:41.000Z</time>
      </trkpt>
      <trkpt lat="50.54099" lon="5.155">
        <ele>130.80000305176</ele>
        <time>2021-08-01T08:12:47.000Z</time>
      </trkpt>
      <trkpt lat="50.54102" lon="5.15455">
        <ele>130.39999389648</ele>
        <time>2021-08-01T08:12:51.000Z</time>
      </trkpt>
      <trkpt lat="50.54105" lon="5.15432">
        <ele>130.19999694824</ele>
        <time>2021-08-01T08:12:53.000Z</time>
      </trkpt>
      <trkpt lat="50.54113" lon="5.15357">
        <ele>128.80000305176</ele>
        <time>2021-08-01T08:13:00.000Z</time>
      </trkpt>
      <trkpt lat="50.54118" lon="5.15302">
        <ele>127.80000305176</ele>
        <time>2021-08-01T08:13:05.000Z</time>
      </trkpt>
      <trkpt lat="50.54122" lon="5.1527">
        <ele>127.40000152588</ele>
        <time>2021-08-01T08:13:08.000Z</time>
      </trkpt>
      <trkpt lat="50.54125" lon="5.15241">
        <ele>126.40000152588</ele>
        <time>2021-08-01T08:13:11.000Z</time>
      </trkpt>
      <trkpt lat="50.54123" lon="5.15223">
        <ele>126</ele>
        <time>2021-08-01T08:13:13.000Z</time>
      </trkpt>
      <trkpt lat="50.54115" lon="5.15209">
        <ele>125.59999847412</ele>
        <time>2021-08-01T08:13:15.000Z</time>
      </trkpt>
      <trkpt lat="50.5411" lon="5.15203">
        <ele>125.59999847412</ele>
        <time>2021-08-01T08:13:16.000Z</time>
      </trkpt>
      <trkpt lat="50.54076" lon="5.15167">
        <ele>125.40000152588</ele>
        <time>2021-08-01T08:13:22.000Z</time>
      </trkpt>
      <trkpt lat="50.54051" lon="5.1514">
        <ele>125.40000152588</ele>
        <time>2021-08-01T08:13:27.000Z</time>
      </trkpt>
      <trkpt lat="50.54042" lon="5.15129">
        <ele>125.40000152588</ele>
        <time>2021-08-01T08:13:29.000Z</time>
      </trkpt>
      <trkpt lat="50.54024" lon="5.1511">
        <ele>126</ele>
        <time>2021-08-01T08:13:33.000Z</time>
      </trkpt>
      <trkpt lat="50.54003" lon="5.15087">
        <ele>127.40000152588</ele>
        <time>2021-08-01T08:13:38.000Z</time>
      </trkpt>
      <trkpt lat="50.53995" lon="5.15078">
        <ele>128</ele>
        <time>2021-08-01T08:13:40.000Z</time>
      </trkpt>
      <trkpt lat="50.53958" lon="5.15038">
        <ele>129.80000305176</ele>
        <time>2021-08-01T08:13:49.000Z</time>
      </trkpt>
      <trkpt lat="50.53954" lon="5.15033">
        <ele>130</ele>
        <time>2021-08-01T08:13:50.000Z</time>
      </trkpt>
      <trkpt lat="50.53935" lon="5.15011">
        <ele>130.60000610352</ele>
        <time>2021-08-01T08:13:55.000Z</time>
      </trkpt>
      <trkpt lat="50.53923" lon="5.14998">
        <ele>131</ele>
        <time>2021-08-01T08:13:58.000Z</time>
      </trkpt>
      <trkpt lat="50.53908" lon="5.14982">
        <ele>131.60000610352</ele>
        <time>2021-08-01T08:14:02.000Z</time>
      </trkpt>
      <trkpt lat="50.53893" lon="5.14965">
        <ele>132.39999389648</ele>
        <time>2021-08-01T08:14:06.000Z</time>
      </trkpt>
      <trkpt lat="50.53885" lon="5.14956">
        <ele>132.60000610352</ele>
        <time>2021-08-01T08:14:08.000Z</time>
      </trkpt>
      <trkpt lat="50.5387" lon="5.14939">
        <ele>133.19999694824</ele>
        <time>2021-08-01T08:14:12.000Z</time>
      </trkpt>
      <trkpt lat="50.53855" lon="5.14923">
        <ele>133.60000610352</ele>
        <time>2021-08-01T08:14:16.000Z</time>
      </trkpt>
      <trkpt lat="50.53851" lon="5.14919">
        <ele>133.80000305176</ele>
        <time>2021-08-01T08:14:17.000Z</time>
      </trkpt>
      <trkpt lat="50.53831" lon="5.14895">
        <ele>134.60000610352</ele>
        <time>2021-08-01T08:14:23.000Z</time>
      </trkpt>
      <trkpt lat="50.53817" lon="5.14879">
        <ele>137</ele>
        <time>2021-08-01T08:14:27.000Z</time>
      </trkpt>
      <trkpt lat="50.53806" lon="5.14868">
        <ele>137.80000305176</ele>
        <time>2021-08-01T08:14:30.000Z</time>
      </trkpt>
      <trkpt lat="50.53785" lon="5.14844">
        <ele>139.19999694824</ele>
        <time>2021-08-01T08:14:36.000Z</time>
      </trkpt>
      <trkpt lat="50.53781" lon="5.1484">
        <ele>139.19999694824</ele>
        <time>2021-08-01T08:14:37.000Z</time>
      </trkpt>
      <trkpt lat="50.53753" lon="5.14808">
        <ele>141.19999694824</ele>
        <time>2021-08-01T08:14:45.000Z</time>
      </trkpt>
      <trkpt lat="50.53742" lon="5.14797">
        <ele>141.60000610352</ele>
        <time>2021-08-01T08:14:48.000Z</time>
      </trkpt>
      <trkpt lat="50.53739" lon="5.14793">
        <ele>141.60000610352</ele>
        <time>2021-08-01T08:14:49.000Z</time>
      </trkpt>
      <trkpt lat="50.53712" lon="5.14764">
        <ele>143.19999694824</ele>
        <time>2021-08-01T08:14:56.000Z</time>
      </trkpt>
      <trkpt lat="50.53701" lon="5.14752">
        <ele>143.80000305176</ele>
        <time>2021-08-01T08:14:59.000Z</time>
      </trkpt>
      <trkpt lat="50.53678" lon="5.14728">
        <ele>144.19999694824</ele>
        <time>2021-08-01T08:15:05.000Z</time>
      </trkpt>
      <trkpt lat="50.53667" lon="5.14716">
        <ele>144.80000305176</ele>
        <time>2021-08-01T08:15:08.000Z</time>
      </trkpt>
      <trkpt lat="50.53642" lon="5.14689">
        <ele>146.19999694824</ele>
        <time>2021-08-01T08:15:15.000Z</time>
      </trkpt>
      <trkpt lat="50.53632" lon="5.14678">
        <ele>146.19999694824</ele>
        <time>2021-08-01T08:15:18.000Z</time>
      </trkpt>
      <trkpt lat="50.53625" lon="5.14671">
        <ele>146.60000610352</ele>
        <time>2021-08-01T08:15:20.000Z</time>
      </trkpt>
      <trkpt lat="50.53615" lon="5.1466">
        <ele>147</ele>
        <time>2021-08-01T08:15:23.000Z</time>
      </trkpt>
      <trkpt lat="50.536" lon="5.14643">
        <ele>148</ele>
        <time>2021-08-01T08:15:28.000Z</time>
      </trkpt>
      <trkpt lat="50.53592" lon="5.14632">
        <ele>148.80000305176</ele>
        <time>2021-08-01T08:15:31.000Z</time>
      </trkpt>
      <trkpt lat="50.5358" lon="5.14617">
        <ele>150.19999694824</ele>
        <time>2021-08-01T08:15:35.000Z</time>
      </trkpt>
      <trkpt lat="50.53571" lon="5.14606">
        <ele>150.80000305176</ele>
        <time>2021-08-01T08:15:38.000Z</time>
      </trkpt>
      <trkpt lat="50.53562" lon="5.14595">
        <ele>152.39999389648</ele>
        <time>2021-08-01T08:15:41.000Z</time>
      </trkpt>
      <trkpt lat="50.53547" lon="5.14585">
        <ele>153.60000610352</ele>
        <time>2021-08-01T08:15:45.000Z</time>
      </trkpt>
      <trkpt lat="50.53543" lon="5.14583">
        <ele>153.80000305176</ele>
        <time>2021-08-01T08:15:46.000Z</time>
      </trkpt>
      <trkpt lat="50.53526" lon="5.14579">
        <ele>154.60000610352</ele>
        <time>2021-08-01T08:15:50.000Z</time>
      </trkpt>
      <trkpt lat="50.53513" lon="5.14579">
        <ele>154.80000305176</ele>
        <time>2021-08-01T08:15:53.000Z</time>
      </trkpt>
      <trkpt lat="50.53504" lon="5.14581">
        <ele>155</ele>
        <time>2021-08-01T08:15:55.000Z</time>
      </trkpt>
      <trkpt lat="50.53492" lon="5.14584">
        <ele>155.39999389648</ele>
        <time>2021-08-01T08:15:58.000Z</time>
      </trkpt>
      <trkpt lat="50.53483" lon="5.14584">
        <ele>156.19999694824</ele>
        <time>2021-08-01T08:16:00.000Z</time>
      </trkpt>
      <trkpt lat="50.53478" lon="5.14585">
        <ele>156.60000610352</ele>
        <time>2021-08-01T08:16:01.000Z</time>
      </trkpt>
      <trkpt lat="50.5347" lon="5.14586">
        <ele>156.80000305176</ele>
        <time>2021-08-01T08:16:03.000Z</time>
      </trkpt>
      <trkpt lat="50.53449" lon="5.1459">
        <ele>158</ele>
        <time>2021-08-01T08:16:08.000Z</time>
      </trkpt>
      <trkpt lat="50.53423" lon="5.14593">
        <ele>160</ele>
        <time>2021-08-01T08:16:14.000Z</time>
      </trkpt>
      <trkpt lat="50.53419" lon="5.14592">
        <ele>160.19999694824</ele>
        <time>2021-08-01T08:16:15.000Z</time>
      </trkpt>
      <trkpt lat="50.53414" lon="5.14589">
        <ele>160.19999694824</ele>
        <time>2021-08-01T08:16:16.000Z</time>
      </trkpt>
      <trkpt lat="50.53388" lon="5.14565">
        <ele>161</ele>
        <time>2021-08-01T08:16:22.000Z</time>
      </trkpt>
      <trkpt lat="50.5338" lon="5.14556">
        <ele>161.39999389648</ele>
        <time>2021-08-01T08:16:24.000Z</time>
      </trkpt>
      <trkpt lat="50.53354" lon="5.14529">
        <ele>162.19999694824</ele>
        <time>2021-08-01T08:16:30.000Z</time>
      </trkpt>
      <trkpt lat="50.53345" lon="5.1452">
        <ele>162.39999389648</ele>
        <time>2021-08-01T08:16:32.000Z</time>
      </trkpt>
      <trkpt lat="50.53335" lon="5.14512">
        <ele>163</ele>
        <time>2021-08-01T08:16:34.000Z</time>
      </trkpt>
      <trkpt lat="50.53325" lon="5.14507">
        <ele>163.39999389648</ele>
        <time>2021-08-01T08:16:36.000Z</time>
      </trkpt>
      <trkpt lat="50.53319" lon="5.14507">
        <ele>163.39999389648</ele>
        <time>2021-08-01T08:16:37.000Z</time>
      </trkpt>
      <trkpt lat="50.53314" lon="5.14509">
        <ele>163.60000610352</ele>
        <time>2021-08-01T08:16:38.000Z</time>
      </trkpt>
      <trkpt lat="50.53308" lon="5.14513">
        <ele>163.80000305176</ele>
        <time>2021-08-01T08:16:39.000Z</time>
      </trkpt>
      <trkpt lat="50.53304" lon="5.14517">
        <ele>164</ele>
        <time>2021-08-01T08:16:40.000Z</time>
      </trkpt>
      <trkpt lat="50.53284" lon="5.14549">
        <ele>164.39999389648</ele>
        <time>2021-08-01T08:16:45.000Z</time>
      </trkpt>
      <trkpt lat="50.53278" lon="5.14562">
        <ele>164.39999389648</ele>
        <time>2021-08-01T08:16:47.000Z</time>
      </trkpt>
      <trkpt lat="50.53267" lon="5.14591">
        <ele>165.19999694824</ele>
        <time>2021-08-01T08:16:51.000Z</time>
      </trkpt>
      <trkpt lat="50.53265" lon="5.14598">
        <ele>165.60000610352</ele>
        <time>2021-08-01T08:16:52.000Z</time>
      </trkpt>
      <trkpt lat="50.53252" lon="5.14632">
        <ele>166.19999694824</ele>
        <time>2021-08-01T08:16:57.000Z</time>
      </trkpt>
      <trkpt lat="50.53244" lon="5.14653">
        <ele>167.19999694824</ele>
        <time>2021-08-01T08:17:00.000Z</time>
      </trkpt>
      <trkpt lat="50.53223" lon="5.14705">
        <ele>168.19999694824</ele>
        <time>2021-08-01T08:17:07.000Z</time>
      </trkpt>
      <trkpt lat="50.53193" lon="5.14767">
        <ele>168.39999389648</ele>
        <time>2021-08-01T08:17:15.000Z</time>
      </trkpt>
      <trkpt lat="50.53166" lon="5.14821">
        <ele>168</ele>
        <time>2021-08-01T08:17:22.000Z</time>
      </trkpt>
      <trkpt lat="50.53155" lon="5.14843">
        <ele>167.80000305176</ele>
        <time>2021-08-01T08:17:25.000Z</time>
      </trkpt>
      <trkpt lat="50.53135" lon="5.14883">
        <ele>167.19999694824</ele>
        <time>2021-08-01T08:17:30.000Z</time>
      </trkpt>
      <trkpt lat="50.53126" lon="5.149">
        <ele>167</ele>
        <time>2021-08-01T08:17:32.000Z</time>
      </trkpt>
      <trkpt lat="50.53114" lon="5.14925">
        <ele>166</ele>
        <time>2021-08-01T08:17:35.000Z</time>
      </trkpt>
      <trkpt lat="50.53095" lon="5.14961">
        <ele>165.19999694824</ele>
        <time>2021-08-01T08:17:39.000Z</time>
      </trkpt>
      <trkpt lat="50.53081" lon="5.14988">
        <ele>164.39999389648</ele>
        <time>2021-08-01T08:17:42.000Z</time>
      </trkpt>
      <trkpt lat="50.53061" lon="5.15025">
        <ele>163.39999389648</ele>
        <time>2021-08-01T08:17:46.000Z</time>
      </trkpt>
      <trkpt lat="50.53043" lon="5.15049">
        <ele>162.80000305176</ele>
        <time>2021-08-01T08:17:49.000Z</time>
      </trkpt>
      <trkpt lat="50.53021" lon="5.15078">
        <ele>162</ele>
        <time>2021-08-01T08:17:53.000Z</time>
      </trkpt>
      <trkpt lat="50.5301" lon="5.15092">
        <ele>162</ele>
        <time>2021-08-01T08:17:55.000Z</time>
      </trkpt>
      <trkpt lat="50.52969" lon="5.15138">
        <ele>161.80000305176</ele>
        <time>2021-08-01T08:18:02.000Z</time>
      </trkpt>
      <trkpt lat="50.5292" lon="5.15188">
        <ele>162.19999694824</ele>
        <time>2021-08-01T08:18:10.000Z</time>
      </trkpt>
      <trkpt lat="50.52888" lon="5.15203">
        <ele>162.39999389648</ele>
        <time>2021-08-01T08:18:15.000Z</time>
      </trkpt>
      <trkpt lat="50.52834" lon="5.15227">
        <ele>162.39999389648</ele>
        <time>2021-08-01T08:18:23.000Z</time>
      </trkpt>
      <trkpt lat="50.5279" lon="5.1525">
        <ele>162.39999389648</ele>
        <time>2021-08-01T08:18:30.000Z</time>
      </trkpt>
      <trkpt lat="50.52784" lon="5.15256">
        <ele>162.39999389648</ele>
        <time>2021-08-01T08:18:31.000Z</time>
      </trkpt>
      <trkpt lat="50.52754" lon="5.15301">
        <ele>162</ele>
        <time>2021-08-01T08:18:37.000Z</time>
      </trkpt>
      <trkpt lat="50.52731" lon="5.15334">
        <ele>161.80000305176</ele>
        <time>2021-08-01T08:18:42.000Z</time>
      </trkpt>
      <trkpt lat="50.52727" lon="5.15342">
        <ele>161.80000305176</ele>
        <time>2021-08-01T08:18:43.000Z</time>
      </trkpt>
      <trkpt lat="50.52725" lon="5.15352">
        <ele>161.80000305176</ele>
        <time>2021-08-01T08:18:44.000Z</time>
      </trkpt>
      <trkpt lat="50.52722" lon="5.15374">
        <ele>161.60000610352</ele>
        <time>2021-08-01T08:18:46.000Z</time>
      </trkpt>
      <trkpt lat="50.52718" lon="5.15457">
        <ele>161.39999389648</ele>
        <time>2021-08-01T08:18:53.000Z</time>
      </trkpt>
      <trkpt lat="50.52715" lon="5.15496">
        <ele>161.39999389648</ele>
        <time>2021-08-01T08:18:56.000Z</time>
      </trkpt>
      <trkpt lat="50.52714" lon="5.15523">
        <ele>161.19999694824</ele>
        <time>2021-08-01T08:18:58.000Z</time>
      </trkpt>
      <trkpt lat="50.52711" lon="5.15565">
        <ele>161.19999694824</ele>
        <time>2021-08-01T08:19:01.000Z</time>
      </trkpt>
      <trkpt lat="50.52707" lon="5.15622">
        <ele>159.60000610352</ele>
        <time>2021-08-01T08:19:05.000Z</time>
      </trkpt>
      <trkpt lat="50.52701" lon="5.15706">
        <ele>156.80000305176</ele>
        <time>2021-08-01T08:19:11.000Z</time>
      </trkpt>
      <trkpt lat="50.527" lon="5.1572">
        <ele>156.60000610352</ele>
        <time>2021-08-01T08:19:12.000Z</time>
      </trkpt>
      <trkpt lat="50.52696" lon="5.15787">
        <ele>155.39999389648</ele>
        <time>2021-08-01T08:19:17.000Z</time>
      </trkpt>
      <trkpt lat="50.52691" lon="5.15856">
        <ele>155.19999694824</ele>
        <time>2021-08-01T08:19:22.000Z</time>
      </trkpt>
      <trkpt lat="50.52689" lon="5.15885">
        <ele>155</ele>
        <time>2021-08-01T08:19:24.000Z</time>
      </trkpt>
      <trkpt lat="50.52683" lon="5.15971">
        <ele>153.80000305176</ele>
        <time>2021-08-01T08:19:30.000Z</time>
      </trkpt>
      <trkpt lat="50.52682" lon="5.15985">
        <ele>153.39999389648</ele>
        <time>2021-08-01T08:19:31.000Z</time>
      </trkpt>
      <trkpt lat="50.52677" lon="5.16053">
        <ele>152.19999694824</ele>
        <time>2021-08-01T08:19:36.000Z</time>
      </trkpt>
      <trkpt lat="50.52674" lon="5.16095">
        <ele>151.39999389648</ele>
        <time>2021-08-01T08:19:39.000Z</time>
      </trkpt>
      <trkpt lat="50.52673" lon="5.16108">
        <ele>151.19999694824</ele>
        <time>2021-08-01T08:19:40.000Z</time>
      </trkpt>
      <trkpt lat="50.5267" lon="5.16149">
        <ele>150.80000305176</ele>
        <time>2021-08-01T08:19:43.000Z</time>
      </trkpt>
      <trkpt lat="50.52667" lon="5.16202">
        <ele>150.60000610352</ele>
        <time>2021-08-01T08:19:47.000Z</time>
      </trkpt>
      <trkpt lat="50.52665" lon="5.16228">
        <ele>150.19999694824</ele>
        <time>2021-08-01T08:19:49.000Z</time>
      </trkpt>
      <trkpt lat="50.52658" lon="5.16321">
        <ele>149.80000305176</ele>
        <time>2021-08-01T08:19:56.000Z</time>
      </trkpt>
      <trkpt lat="50.52658" lon="5.16335">
        <ele>149.60000610352</ele>
        <time>2021-08-01T08:19:57.000Z</time>
      </trkpt>
      <trkpt lat="50.52653" lon="5.16391">
        <ele>148.60000610352</ele>
        <time>2021-08-01T08:20:01.000Z</time>
      </trkpt>
      <trkpt lat="50.52649" lon="5.16458">
        <ele>147.60000610352</ele>
        <time>2021-08-01T08:20:06.000Z</time>
      </trkpt>
      <trkpt lat="50.52645" lon="5.16509">
        <ele>146.39999389648</ele>
        <time>2021-08-01T08:20:10.000Z</time>
      </trkpt>
      <trkpt lat="50.52642" lon="5.16549">
        <ele>146</ele>
        <time>2021-08-01T08:20:13.000Z</time>
      </trkpt>
      <trkpt lat="50.52636" lon="5.16639">
        <ele>145</ele>
        <time>2021-08-01T08:20:20.000Z</time>
      </trkpt>
      <trkpt lat="50.52634" lon="5.16665">
        <ele>144.80000305176</ele>
        <time>2021-08-01T08:20:22.000Z</time>
      </trkpt>
      <trkpt lat="50.52633" lon="5.16678">
        <ele>144.80000305176</ele>
        <time>2021-08-01T08:20:23.000Z</time>
      </trkpt>
      <trkpt lat="50.52632" lon="5.16704">
        <ele>144.19999694824</ele>
        <time>2021-08-01T08:20:25.000Z</time>
      </trkpt>
      <trkpt lat="50.52625" lon="5.16793">
        <ele>142.60000610352</ele>
        <time>2021-08-01T08:20:32.000Z</time>
      </trkpt>
      <trkpt lat="50.52623" lon="5.16833">
        <ele>142.39999389648</ele>
        <time>2021-08-01T08:20:35.000Z</time>
      </trkpt>
      <trkpt lat="50.52617" lon="5.16925">
        <ele>142</ele>
        <time>2021-08-01T08:20:42.000Z</time>
      </trkpt>
      <trkpt lat="50.52616" lon="5.16937">
        <ele>142</ele>
        <time>2021-08-01T08:20:43.000Z</time>
      </trkpt>
      <trkpt lat="50.52613" lon="5.16975">
        <ele>142</ele>
        <time>2021-08-01T08:20:46.000Z</time>
      </trkpt>
      <trkpt lat="50.5261" lon="5.16985">
        <ele>142</ele>
        <time>2021-08-01T08:20:47.000Z</time>
      </trkpt>
      <trkpt lat="50.52605" lon="5.16994">
        <ele>142</ele>
        <time>2021-08-01T08:20:48.000Z</time>
      </trkpt>
      <trkpt lat="50.52586" lon="5.17013">
        <ele>141.60000610352</ele>
        <time>2021-08-01T08:20:51.000Z</time>
      </trkpt>
      <trkpt lat="50.52532" lon="5.1706">
        <ele>140.39999389648</ele>
        <time>2021-08-01T08:20:59.000Z</time>
      </trkpt>
      <trkpt lat="50.52519" lon="5.17073">
        <ele>140.19999694824</ele>
        <time>2021-08-01T08:21:01.000Z</time>
      </trkpt>
      <trkpt lat="50.52511" lon="5.17079">
        <ele>140.19999694824</ele>
        <time>2021-08-01T08:21:02.000Z</time>
      </trkpt>
      <trkpt lat="50.52473" lon="5.17103">
        <ele>139.80000305176</ele>
        <time>2021-08-01T08:21:07.000Z</time>
      </trkpt>
      <trkpt lat="50.52451" lon="5.17116">
        <ele>139.19999694824</ele>
        <time>2021-08-01T08:21:10.000Z</time>
      </trkpt>
      <trkpt lat="50.52424" lon="5.17136">
        <ele>139</ele>
        <time>2021-08-01T08:21:14.000Z</time>
      </trkpt>
      <trkpt lat="50.52418" lon="5.17142">
        <ele>138.60000610352</ele>
        <time>2021-08-01T08:21:15.000Z</time>
      </trkpt>
      <trkpt lat="50.52411" lon="5.17158">
        <ele>138.19999694824</ele>
        <time>2021-08-01T08:21:17.000Z</time>
      </trkpt>
      <trkpt lat="50.52413" lon="5.17177">
        <ele>137.80000305176</ele>
        <time>2021-08-01T08:21:19.000Z</time>
      </trkpt>
      <trkpt lat="50.52417" lon="5.17187">
        <ele>137.39999389648</ele>
        <time>2021-08-01T08:21:20.000Z</time>
      </trkpt>
      <trkpt lat="50.52444" lon="5.17266">
        <ele>137.19999694824</ele>
        <time>2021-08-01T08:21:28.000Z</time>
      </trkpt>
      <trkpt lat="50.52455" lon="5.17302">
        <ele>137.39999389648</ele>
        <time>2021-08-01T08:21:32.000Z</time>
      </trkpt>
      <trkpt lat="50.52464" lon="5.17337">
        <ele>137.60000610352</ele>
        <time>2021-08-01T08:21:36.000Z</time>
      </trkpt>
      <trkpt lat="50.52469" lon="5.17376">
        <ele>138.39999389648</ele>
        <time>2021-08-01T08:21:40.000Z</time>
      </trkpt>
      <trkpt lat="50.52473" lon="5.17397">
        <ele>138.39999389648</ele>
        <time>2021-08-01T08:21:42.000Z</time>
      </trkpt>
      <trkpt lat="50.52485" lon="5.17442">
        <ele>138.39999389648</ele>
        <time>2021-08-01T08:21:46.000Z</time>
      </trkpt>
      <trkpt lat="50.52489" lon="5.17453">
        <ele>138.60000610352</ele>
        <time>2021-08-01T08:21:47.000Z</time>
      </trkpt>
      <trkpt lat="50.52498" lon="5.17473">
        <ele>138.19999694824</ele>
        <time>2021-08-01T08:21:49.000Z</time>
      </trkpt>
      <trkpt lat="50.52513" lon="5.17499">
        <ele>136.60000610352</ele>
        <time>2021-08-01T08:21:52.000Z</time>
      </trkpt>
      <trkpt lat="50.52524" lon="5.17521">
        <ele>135.80000305176</ele>
        <time>2021-08-01T08:21:55.000Z</time>
      </trkpt>
      <trkpt lat="50.52526" lon="5.1753">
        <ele>135.60000610352</ele>
        <time>2021-08-01T08:21:56.000Z</time>
      </trkpt>
      <trkpt lat="50.52525" lon="5.17539">
        <ele>135.39999389648</ele>
        <time>2021-08-01T08:21:57.000Z</time>
      </trkpt>
      <trkpt lat="50.52521" lon="5.1756">
        <ele>134.60000610352</ele>
        <time>2021-08-01T08:21:59.000Z</time>
      </trkpt>
      <trkpt lat="50.52517" lon="5.17583">
        <ele>134.19999694824</ele>
        <time>2021-08-01T08:22:01.000Z</time>
      </trkpt>
      <trkpt lat="50.5251" lon="5.1762">
        <ele>133.60000610352</ele>
        <time>2021-08-01T08:22:04.000Z</time>
      </trkpt>
      <trkpt lat="50.52507" lon="5.17632">
        <ele>133.19999694824</ele>
        <time>2021-08-01T08:22:05.000Z</time>
      </trkpt>
      <trkpt lat="50.52505" lon="5.17645">
        <ele>132.60000610352</ele>
        <time>2021-08-01T08:22:06.000Z</time>
      </trkpt>
      <trkpt lat="50.5249" lon="5.17712">
        <ele>130.80000305176</ele>
        <time>2021-08-01T08:22:11.000Z</time>
      </trkpt>
      <trkpt lat="50.52484" lon="5.1774">
        <ele>130.39999389648</ele>
        <time>2021-08-01T08:22:13.000Z</time>
      </trkpt>
      <trkpt lat="50.52479" lon="5.17768">
        <ele>129</ele>
        <time>2021-08-01T08:22:15.000Z</time>
      </trkpt>
      <trkpt lat="50.52473" lon="5.17798">
        <ele>127.80000305176</ele>
        <time>2021-08-01T08:22:17.000Z</time>
      </trkpt>
      <trkpt lat="50.52467" lon="5.17829">
        <ele>127.19999694824</ele>
        <time>2021-08-01T08:22:19.000Z</time>
      </trkpt>
      <trkpt lat="50.52464" lon="5.17844">
        <ele>127</ele>
        <time>2021-08-01T08:22:20.000Z</time>
      </trkpt>
      <trkpt lat="50.52458" lon="5.17876">
        <ele>126.40000152588</ele>
        <time>2021-08-01T08:22:22.000Z</time>
      </trkpt>
      <trkpt lat="50.52448" lon="5.17925">
        <ele>124.80000305176</ele>
        <time>2021-08-01T08:22:25.000Z</time>
      </trkpt>
      <trkpt lat="50.52439" lon="5.17973">
        <ele>123.19999694824</ele>
        <time>2021-08-01T08:22:28.000Z</time>
      </trkpt>
      <trkpt lat="50.52436" lon="5.17988">
        <ele>122.80000305176</ele>
        <time>2021-08-01T08:22:29.000Z</time>
      </trkpt>
      <trkpt lat="50.52425" lon="5.18034">
        <ele>120.80000305176</ele>
        <time>2021-08-01T08:22:32.000Z</time>
      </trkpt>
      <trkpt lat="50.5241" lon="5.18108">
        <ele>118.59999847412</ele>
        <time>2021-08-01T08:22:37.000Z</time>
      </trkpt>
      <trkpt lat="50.52399" lon="5.18166">
        <ele>117.19999694824</ele>
        <time>2021-08-01T08:22:41.000Z</time>
      </trkpt>
      <trkpt lat="50.52384" lon="5.18235">
        <ele>116.40000152588</ele>
        <time>2021-08-01T08:22:46.000Z</time>
      </trkpt>
      <trkpt lat="50.52375" lon="5.18281">
        <ele>115.59999847412</ele>
        <time>2021-08-01T08:22:50.000Z</time>
      </trkpt>
      <trkpt lat="50.52373" lon="5.1829">
        <ele>115.40000152588</ele>
        <time>2021-08-01T08:22:51.000Z</time>
      </trkpt>
      <trkpt lat="50.52371" lon="5.18297">
        <ele>115.40000152588</ele>
        <time>2021-08-01T08:22:52.000Z</time>
      </trkpt>
      <trkpt lat="50.52365" lon="5.18311">
        <ele>115.40000152588</ele>
        <time>2021-08-01T08:22:54.000Z</time>
      </trkpt>
      <trkpt lat="50.52363" lon="5.18338">
        <ele>115.59999847412</ele>
        <time>2021-08-01T08:22:57.000Z</time>
      </trkpt>
      <trkpt lat="50.52357" lon="5.18368">
        <ele>115.40000152588</ele>
        <time>2021-08-01T08:23:00.000Z</time>
      </trkpt>
      <trkpt lat="50.52355" lon="5.18379">
        <ele>115.40000152588</ele>
        <time>2021-08-01T08:23:01.000Z</time>
      </trkpt>
      <trkpt lat="50.52351" lon="5.184">
        <ele>115.40000152588</ele>
        <time>2021-08-01T08:23:03.000Z</time>
      </trkpt>
      <trkpt lat="50.52336" lon="5.18474">
        <ele>115.40000152588</ele>
        <time>2021-08-01T08:23:10.000Z</time>
      </trkpt>
      <trkpt lat="50.52322" lon="5.18541">
        <ele>115.80000305176</ele>
        <time>2021-08-01T08:23:17.000Z</time>
      </trkpt>
      <trkpt lat="50.5232" lon="5.18551">
        <ele>115.59999847412</ele>
        <time>2021-08-01T08:23:18.000Z</time>
      </trkpt>
      <trkpt lat="50.52311" lon="5.18594">
        <ele>115.80000305176</ele>
        <time>2021-08-01T08:23:22.000Z</time>
      </trkpt>
      <trkpt lat="50.52307" lon="5.18617">
        <ele>115.59999847412</ele>
        <time>2021-08-01T08:23:24.000Z</time>
      </trkpt>
      <trkpt lat="50.52305" lon="5.18629">
        <ele>115.59999847412</ele>
        <time>2021-08-01T08:23:25.000Z</time>
      </trkpt>
      <trkpt lat="50.523" lon="5.18654">
        <ele>115</ele>
        <time>2021-08-01T08:23:27.000Z</time>
      </trkpt>
      <trkpt lat="50.52297" lon="5.18666">
        <ele>114.59999847412</ele>
        <time>2021-08-01T08:23:28.000Z</time>
      </trkpt>
      <trkpt lat="50.52292" lon="5.18689">
        <ele>114</ele>
        <time>2021-08-01T08:23:30.000Z</time>
      </trkpt>
      <trkpt lat="50.52283" lon="5.18706">
        <ele>113.40000152588</ele>
        <time>2021-08-01T08:23:32.000Z</time>
      </trkpt>
      <trkpt lat="50.52276" lon="5.18711">
        <ele>112.80000305176</ele>
        <time>2021-08-01T08:23:33.000Z</time>
      </trkpt>
      <trkpt lat="50.52261" lon="5.1872">
        <ele>111.80000305176</ele>
        <time>2021-08-01T08:23:35.000Z</time>
      </trkpt>
      <trkpt lat="50.52253" lon="5.18724">
        <ele>111.19999694824</ele>
        <time>2021-08-01T08:23:36.000Z</time>
      </trkpt>
      <trkpt lat="50.52236" lon="5.18733">
        <ele>109.80000305176</ele>
        <time>2021-08-01T08:23:38.000Z</time>
      </trkpt>
      <trkpt lat="50.52218" lon="5.18742">
        <ele>108.40000152588</ele>
        <time>2021-08-01T08:23:40.000Z</time>
      </trkpt>
      <trkpt lat="50.52209" lon="5.18747">
        <ele>106.80000305176</ele>
        <time>2021-08-01T08:23:41.000Z</time>
      </trkpt>
      <trkpt lat="50.522" lon="5.18752">
        <ele>106.19999694824</ele>
        <time>2021-08-01T08:23:42.000Z</time>
      </trkpt>
      <trkpt lat="50.52185" lon="5.18758">
        <ele>104.59999847412</ele>
        <time>2021-08-01T08:23:44.000Z</time>
      </trkpt>
      <trkpt lat="50.5217" lon="5.18754">
        <ele>102.40000152588</ele>
        <time>2021-08-01T08:23:46.000Z</time>
      </trkpt>
      <trkpt lat="50.52164" lon="5.1875">
        <ele>101.40000152588</ele>
        <time>2021-08-01T08:23:47.000Z</time>
      </trkpt>
      <trkpt lat="50.52158" lon="5.18747">
        <ele>100.80000305176</ele>
        <time>2021-08-01T08:23:48.000Z</time>
      </trkpt>
      <trkpt lat="50.52148" lon="5.18752">
        <ele>99</ele>
        <time>2021-08-01T08:23:50.000Z</time>
      </trkpt>
      <trkpt lat="50.52147" lon="5.1876">
        <ele>97.800003051758</ele>
        <time>2021-08-01T08:23:51.000Z</time>
      </trkpt>
      <trkpt lat="50.52148" lon="5.18769">
        <ele>97</ele>
        <time>2021-08-01T08:23:52.000Z</time>
      </trkpt>
      <trkpt lat="50.52152" lon="5.18778">
        <ele>96.800003051758</ele>
        <time>2021-08-01T08:23:53.000Z</time>
      </trkpt>
      <trkpt lat="50.52157" lon="5.18786">
        <ele>96.400001525879</ele>
        <time>2021-08-01T08:23:54.000Z</time>
      </trkpt>
      <trkpt lat="50.52167" lon="5.18806">
        <ele>96.199996948242</ele>
        <time>2021-08-01T08:23:56.000Z</time>
      </trkpt>
      <trkpt lat="50.52173" lon="5.18817">
        <ele>96</ele>
        <time>2021-08-01T08:23:57.000Z</time>
      </trkpt>
      <trkpt lat="50.52185" lon="5.18839">
        <ele>95.800003051758</ele>
        <time>2021-08-01T08:23:59.000Z</time>
      </trkpt>
      <trkpt lat="50.52198" lon="5.18863">
        <ele>95.199996948242</ele>
        <time>2021-08-01T08:24:01.000Z</time>
      </trkpt>
      <trkpt lat="50.52204" lon="5.18876">
        <ele>94.599998474121</ele>
        <time>2021-08-01T08:24:02.000Z</time>
      </trkpt>
      <trkpt lat="50.52211" lon="5.18888">
        <ele>93.800003051758</ele>
        <time>2021-08-01T08:24:03.000Z</time>
      </trkpt>
      <trkpt lat="50.52224" lon="5.18914">
        <ele>91.800003051758</ele>
        <time>2021-08-01T08:24:05.000Z</time>
      </trkpt>
      <trkpt lat="50.52231" lon="5.18927">
        <ele>90.599998474121</ele>
        <time>2021-08-01T08:24:06.000Z</time>
      </trkpt>
      <trkpt lat="50.52237" lon="5.18939">
        <ele>89.400001525879</ele>
        <time>2021-08-01T08:24:07.000Z</time>
      </trkpt>
      <trkpt lat="50.5225" lon="5.1896">
        <ele>88</ele>
        <time>2021-08-01T08:24:09.000Z</time>
      </trkpt>
      <trkpt lat="50.5227" lon="5.18978">
        <ele>84.800003051758</ele>
        <time>2021-08-01T08:24:12.000Z</time>
      </trkpt>
      <trkpt lat="50.52276" lon="5.18982">
        <ele>84</ele>
        <time>2021-08-01T08:24:13.000Z</time>
      </trkpt>
      <trkpt lat="50.52284" lon="5.18993">
        <ele>82.400001525879</ele>
        <time>2021-08-01T08:24:15.000Z</time>
      </trkpt>
      <trkpt lat="50.52284" lon="5.19002">
        <ele>81.400001525879</ele>
        <time>2021-08-01T08:24:16.000Z</time>
      </trkpt>
      <trkpt lat="50.52281" lon="5.19012">
        <ele>80.800003051758</ele>
        <time>2021-08-01T08:24:17.000Z</time>
      </trkpt>
      <trkpt lat="50.52274" lon="5.19034">
        <ele>79</ele>
        <time>2021-08-01T08:24:19.000Z</time>
      </trkpt>
      <trkpt lat="50.52268" lon="5.19058">
        <ele>78.199996948242</ele>
        <time>2021-08-01T08:24:21.000Z</time>
      </trkpt>
      <trkpt lat="50.5227" lon="5.19081">
        <ele>77.400001525879</ele>
        <time>2021-08-01T08:24:23.000Z</time>
      </trkpt>
      <trkpt lat="50.52286" lon="5.1911">
        <ele>75.400001525879</ele>
        <time>2021-08-01T08:24:26.000Z</time>
      </trkpt>
      <trkpt lat="50.5231" lon="5.19148">
        <ele>73</ele>
        <time>2021-08-01T08:24:30.000Z</time>
      </trkpt>
      <trkpt lat="50.52329" lon="5.19176">
        <ele>72.400001525879</ele>
        <time>2021-08-01T08:24:33.000Z</time>
      </trkpt>
      <trkpt lat="50.52335" lon="5.19185">
        <ele>72.400001525879</ele>
        <time>2021-08-01T08:24:34.000Z</time>
      </trkpt>
      <trkpt lat="50.52341" lon="5.19194">
        <ele>72.400001525879</ele>
        <time>2021-08-01T08:24:35.000Z</time>
      </trkpt>
      <trkpt lat="50.52346" lon="5.19202">
        <ele>72.400001525879</ele>
        <time>2021-08-01T08:24:36.000Z</time>
      </trkpt>
      <trkpt lat="50.52349" lon="5.19211">
        <ele>72.400001525879</ele>
        <time>2021-08-01T08:24:37.000Z</time>
      </trkpt>
      <trkpt lat="50.5235" lon="5.19221">
        <ele>72.400001525879</ele>
        <time>2021-08-01T08:24:38.000Z</time>
      </trkpt>
      <trkpt lat="50.52345" lon="5.19238">
        <ele>72.400001525879</ele>
        <time>2021-08-01T08:24:40.000Z</time>
      </trkpt>
      <trkpt lat="50.5233" lon="5.19253">
        <ele>73.199996948242</ele>
        <time>2021-08-01T08:24:43.000Z</time>
      </trkpt>
      <trkpt lat="50.52324" lon="5.19256">
        <ele>74.199996948242</ele>
        <time>2021-08-01T08:24:44.000Z</time>
      </trkpt>
      <trkpt lat="50.52318" lon="5.19257">
        <ele>74.800003051758</ele>
        <time>2021-08-01T08:24:45.000Z</time>
      </trkpt>
      <trkpt lat="50.52312" lon="5.19256">
        <ele>75.199996948242</ele>
        <time>2021-08-01T08:24:46.000Z</time>
      </trkpt>
      <trkpt lat="50.52305" lon="5.19252">
        <ele>75.199996948242</ele>
        <time>2021-08-01T08:24:47.000Z</time>
      </trkpt>
      <trkpt lat="50.52299" lon="5.19246">
        <ele>75.400001525879</ele>
        <time>2021-08-01T08:24:48.000Z</time>
      </trkpt>
      <trkpt lat="50.52279" lon="5.19224">
        <ele>75.599998474121</ele>
        <time>2021-08-01T08:24:51.000Z</time>
      </trkpt>
      <trkpt lat="50.52265" lon="5.19208">
        <ele>75.599998474121</ele>
        <time>2021-08-01T08:24:53.000Z</time>
      </trkpt>
      <trkpt lat="50.52245" lon="5.19186">
        <ele>75.199996948242</ele>
        <time>2021-08-01T08:24:56.000Z</time>
      </trkpt>
      <trkpt lat="50.52238" lon="5.1918">
        <ele>74.400001525879</ele>
        <time>2021-08-01T08:24:57.000Z</time>
      </trkpt>
      <trkpt lat="50.5223" lon="5.19179">
        <ele>73.800003051758</ele>
        <time>2021-08-01T08:24:58.000Z</time>
      </trkpt>
      <trkpt lat="50.52223" lon="5.19183">
        <ele>73</ele>
        <time>2021-08-01T08:24:59.000Z</time>
      </trkpt>
      <trkpt lat="50.52218" lon="5.1919">
        <ele>72.599998474121</ele>
        <time>2021-08-01T08:25:00.000Z</time>
      </trkpt>
      <trkpt lat="50.52209" lon="5.19209">
        <ele>71</ele>
        <time>2021-08-01T08:25:02.000Z</time>
      </trkpt>
      <trkpt lat="50.52194" lon="5.19235">
        <ele>69.400001525879</ele>
        <time>2021-08-01T08:25:05.000Z</time>
      </trkpt>
      <trkpt lat="50.52191" lon="5.19244">
        <ele>69</ele>
        <time>2021-08-01T08:25:06.000Z</time>
      </trkpt>
      <trkpt lat="50.52191" lon="5.19253">
        <ele>68.599998474121</ele>
        <time>2021-08-01T08:25:07.000Z</time>
      </trkpt>
      <trkpt lat="50.52193" lon="5.19261">
        <ele>68.400001525879</ele>
        <time>2021-08-01T08:25:08.000Z</time>
      </trkpt>
      <trkpt lat="50.52197" lon="5.19269">
        <ele>68.400001525879</ele>
        <time>2021-08-01T08:25:09.000Z</time>
      </trkpt>
      <trkpt lat="50.52206" lon="5.19284">
        <ele>68.199996948242</ele>
        <time>2021-08-01T08:25:11.000Z</time>
      </trkpt>
      <trkpt lat="50.52212" lon="5.19291">
        <ele>68</ele>
        <time>2021-08-01T08:25:12.000Z</time>
      </trkpt>
      <trkpt lat="50.52235" lon="5.19322">
        <ele>67.800003051758</ele>
        <time>2021-08-01T08:25:16.000Z</time>
      </trkpt>
      <trkpt lat="50.52246" lon="5.19339">
        <ele>67.599998474121</ele>
        <time>2021-08-01T08:25:18.000Z</time>
      </trkpt>
      <trkpt lat="50.52276" lon="5.1938">
        <ele>67</ele>
        <time>2021-08-01T08:25:23.000Z</time>
      </trkpt>
      <trkpt lat="50.52289" lon="5.19396">
        <ele>67</ele>
        <time>2021-08-01T08:25:25.000Z</time>
      </trkpt>
      <trkpt lat="50.5233" lon="5.1945">
        <ele>66.800003051758</ele>
        <time>2021-08-01T08:25:32.000Z</time>
      </trkpt>
      <trkpt lat="50.52373" lon="5.19503">
        <ele>67</ele>
        <time>2021-08-01T08:25:39.000Z</time>
      </trkpt>
      <trkpt lat="50.52418" lon="5.19546">
        <ele>67.199996948242</ele>
        <time>2021-08-01T08:25:46.000Z</time>
      </trkpt>
      <trkpt lat="50.52456" lon="5.19584">
        <ele>67.199996948242</ele>
        <time>2021-08-01T08:25:53.000Z</time>
      </trkpt>
      <trkpt lat="50.52494" lon="5.1963">
        <ele>67.400001525879</ele>
        <time>2021-08-01T08:26:00.000Z</time>
      </trkpt>
      <trkpt lat="50.52534" lon="5.19681">
        <ele>67.400001525879</ele>
        <time>2021-08-01T08:26:07.000Z</time>
      </trkpt>
      <trkpt lat="50.52579" lon="5.19735">
        <ele>67.599998474121</ele>
        <time>2021-08-01T08:26:15.000Z</time>
      </trkpt>
      <trkpt lat="50.52621" lon="5.19795">
        <ele>68</ele>
        <time>2021-08-01T08:26:23.000Z</time>
      </trkpt>
      <trkpt lat="50.5263" lon="5.19813">
        <ele>68</ele>
        <time>2021-08-01T08:26:25.000Z</time>
      </trkpt>
      <trkpt lat="50.52646" lon="5.19848">
        <ele>68.400001525879</ele>
        <time>2021-08-01T08:26:29.000Z</time>
      </trkpt>
      <trkpt lat="50.5265" lon="5.19856">
        <ele>68.400001525879</ele>
        <time>2021-08-01T08:26:30.000Z</time>
      </trkpt>
      <trkpt lat="50.52653" lon="5.19864">
        <ele>68.599998474121</ele>
        <time>2021-08-01T08:26:31.000Z</time>
      </trkpt>
      <trkpt lat="50.52657" lon="5.19871">
        <ele>68.599998474121</ele>
        <time>2021-08-01T08:26:32.000Z</time>
      </trkpt>
      <trkpt lat="50.52666" lon="5.19891">
        <ele>69</ele>
        <time>2021-08-01T08:26:35.000Z</time>
      </trkpt>
      <trkpt lat="50.52669" lon="5.19897">
        <ele>69.199996948242</ele>
        <time>2021-08-01T08:26:36.000Z</time>
      </trkpt>
      <trkpt lat="50.52672" lon="5.19903">
        <ele>69.400001525879</ele>
        <time>2021-08-01T08:26:37.000Z</time>
      </trkpt>
      <trkpt lat="50.52678" lon="5.19913">
        <ele>70.400001525879</ele>
        <time>2021-08-01T08:26:39.000Z</time>
      </trkpt>
      <trkpt lat="50.52685" lon="5.19923">
        <ele>72.400001525879</ele>
        <time>2021-08-01T08:26:41.000Z</time>
      </trkpt>
      <trkpt lat="50.52696" lon="5.19937">
        <ele>73.800003051758</ele>
        <time>2021-08-01T08:26:44.000Z</time>
      </trkpt>
      <trkpt lat="50.52728" lon="5.19972">
        <ele>76.199996948242</ele>
        <time>2021-08-01T08:26:51.000Z</time>
      </trkpt>
      <trkpt lat="50.52734" lon="5.19978">
        <ele>76.199996948242</ele>
        <time>2021-08-01T08:26:52.000Z</time>
      </trkpt>
      <trkpt lat="50.52739" lon="5.19985">
        <ele>76.400001525879</ele>
        <time>2021-08-01T08:26:53.000Z</time>
      </trkpt>
      <trkpt lat="50.52752" lon="5.19998">
        <ele>76.400001525879</ele>
        <time>2021-08-01T08:26:55.000Z</time>
      </trkpt>
      <trkpt lat="50.52758" lon="5.20005">
        <ele>76.400001525879</ele>
        <time>2021-08-01T08:26:56.000Z</time>
      </trkpt>
      <trkpt lat="50.52772" lon="5.20019">
        <ele>76.199996948242</ele>
        <time>2021-08-01T08:26:58.000Z</time>
      </trkpt>
      <trkpt lat="50.5278" lon="5.20026">
        <ele>76</ele>
        <time>2021-08-01T08:26:59.000Z</time>
      </trkpt>
      <trkpt lat="50.52789" lon="5.20033">
        <ele>76</ele>
        <time>2021-08-01T08:27:00.000Z</time>
      </trkpt>
      <trkpt lat="50.52798" lon="5.20041">
        <ele>75.599998474121</ele>
        <time>2021-08-01T08:27:01.000Z</time>
      </trkpt>
      <trkpt lat="50.52838" lon="5.20083">
        <ele>71.599998474121</ele>
        <time>2021-08-01T08:27:06.000Z</time>
      </trkpt>
      <trkpt lat="50.52845" lon="5.20091">
        <ele>70.800003051758</ele>
        <time>2021-08-01T08:27:07.000Z</time>
      </trkpt>
      <trkpt lat="50.52861" lon="5.20115">
        <ele>68</ele>
        <time>2021-08-01T08:27:10.000Z</time>
      </trkpt>
      <trkpt lat="50.52863" lon="5.20126">
        <ele>67.599998474121</ele>
        <time>2021-08-01T08:27:11.000Z</time>
      </trkpt>
      <trkpt lat="50.52864" lon="5.20137">
        <ele>67.400001525879</ele>
        <time>2021-08-01T08:27:12.000Z</time>
      </trkpt>
      <trkpt lat="50.52865" lon="5.20149">
        <ele>67.199996948242</ele>
        <time>2021-08-01T08:27:13.000Z</time>
      </trkpt>
      <trkpt lat="50.52866" lon="5.20161">
        <ele>67.199996948242</ele>
        <time>2021-08-01T08:27:14.000Z</time>
      </trkpt>
      <trkpt lat="50.52875" lon="5.20208">
        <ele>67</ele>
        <time>2021-08-01T08:27:18.000Z</time>
      </trkpt>
      <trkpt lat="50.52892" lon="5.20297">
        <ele>66.800003051758</ele>
        <time>2021-08-01T08:27:26.000Z</time>
      </trkpt>
      <trkpt lat="50.52894" lon="5.20319">
        <ele>66.800003051758</ele>
        <time>2021-08-01T08:27:28.000Z</time>
      </trkpt>
      <trkpt lat="50.52893" lon="5.20341">
        <ele>66.800003051758</ele>
        <time>2021-08-01T08:27:30.000Z</time>
      </trkpt>
      <trkpt lat="50.52891" lon="5.20351">
        <ele>66.800003051758</ele>
        <time>2021-08-01T08:27:31.000Z</time>
      </trkpt>
      <trkpt lat="50.52882" lon="5.2039">
        <ele>66.800003051758</ele>
        <time>2021-08-01T08:27:35.000Z</time>
      </trkpt>
      <trkpt lat="50.52881" lon="5.2041">
        <ele>67</ele>
        <time>2021-08-01T08:27:37.000Z</time>
      </trkpt>
      <trkpt lat="50.52883" lon="5.2043">
        <ele>67.199996948242</ele>
        <time>2021-08-01T08:27:39.000Z</time>
      </trkpt>
      <trkpt lat="50.52895" lon="5.20495">
        <ele>68.199996948242</ele>
        <time>2021-08-01T08:27:45.000Z</time>
      </trkpt>
      <trkpt lat="50.52907" lon="5.2056">
        <ele>68.800003051758</ele>
        <time>2021-08-01T08:27:51.000Z</time>
      </trkpt>
      <trkpt lat="50.52918" lon="5.20625">
        <ele>68.800003051758</ele>
        <time>2021-08-01T08:27:57.000Z</time>
      </trkpt>
      <trkpt lat="50.52931" lon="5.20716">
        <ele>68.599998474121</ele>
        <time>2021-08-01T08:28:05.000Z</time>
      </trkpt>
      <trkpt lat="50.52932" lon="5.20727">
        <ele>68.400001525879</ele>
        <time>2021-08-01T08:28:06.000Z</time>
      </trkpt>
      <trkpt lat="50.52943" lon="5.20812">
        <ele>68.400001525879</ele>
        <time>2021-08-01T08:28:14.000Z</time>
      </trkpt>
      <trkpt lat="50.5295" lon="5.20884">
        <ele>69</ele>
        <time>2021-08-01T08:28:21.000Z</time>
      </trkpt>
      <trkpt lat="50.52952" lon="5.20904">
        <ele>69</ele>
        <time>2021-08-01T08:28:23.000Z</time>
      </trkpt>
      <trkpt lat="50.52957" lon="5.2098">
        <ele>69.199996948242</ele>
        <time>2021-08-01T08:28:30.000Z</time>
      </trkpt>
      <trkpt lat="50.52961" lon="5.21058">
        <ele>69.199996948242</ele>
        <time>2021-08-01T08:28:37.000Z</time>
      </trkpt>
      <trkpt lat="50.52962" lon="5.21091">
        <ele>69.199996948242</ele>
        <time>2021-08-01T08:28:40.000Z</time>
      </trkpt>
      <trkpt lat="50.52963" lon="5.21179">
        <ele>68.199996948242</ele>
        <time>2021-08-01T08:28:48.000Z</time>
      </trkpt>
      <trkpt lat="50.52963" lon="5.21191">
        <ele>68.199996948242</ele>
        <time>2021-08-01T08:28:49.000Z</time>
      </trkpt>
      <trkpt lat="50.5296" lon="5.21284">
        <ele>67.400001525879</ele>
        <time>2021-08-01T08:28:57.000Z</time>
      </trkpt>
      <trkpt lat="50.52961" lon="5.2134">
        <ele>67.400001525879</ele>
        <time>2021-08-01T08:29:02.000Z</time>
      </trkpt>
      <trkpt lat="50.52961" lon="5.21351">
        <ele>67.400001525879</ele>
        <time>2021-08-01T08:29:03.000Z</time>
      </trkpt>
      <trkpt lat="50.52962" lon="5.21372">
        <ele>67.400001525879</ele>
        <time>2021-08-01T08:29:05.000Z</time>
      </trkpt>
      <trkpt lat="50.52963" lon="5.214">
        <ele>67.400001525879</ele>
        <time>2021-08-01T08:29:08.000Z</time>
      </trkpt>
      <trkpt lat="50.52961" lon="5.21418">
        <ele>67.400001525879</ele>
        <time>2021-08-01T08:29:10.000Z</time>
      </trkpt>
      <trkpt lat="50.52957" lon="5.21436">
        <ele>67.800003051758</ele>
        <time>2021-08-01T08:29:12.000Z</time>
      </trkpt>
      <trkpt lat="50.52953" lon="5.21456">
        <ele>68.199996948242</ele>
        <time>2021-08-01T08:29:14.000Z</time>
      </trkpt>
      <trkpt lat="50.52954" lon="5.21476">
        <ele>68.199996948242</ele>
        <time>2021-08-01T08:29:16.000Z</time>
      </trkpt>
      <trkpt lat="50.52964" lon="5.21526">
        <ele>68.400001525879</ele>
        <time>2021-08-01T08:29:21.000Z</time>
      </trkpt>
      <trkpt lat="50.52983" lon="5.21608">
        <ele>67.800003051758</ele>
        <time>2021-08-01T08:29:29.000Z</time>
      </trkpt>
      <trkpt lat="50.52986" lon="5.21619">
        <ele>67.599998474121</ele>
        <time>2021-08-01T08:29:30.000Z</time>
      </trkpt>
      <trkpt lat="50.53003" lon="5.21694">
        <ele>67.400001525879</ele>
        <time>2021-08-01T08:29:37.000Z</time>
      </trkpt>
      <trkpt lat="50.53021" lon="5.21759">
        <ele>67</ele>
        <time>2021-08-01T08:29:43.000Z</time>
      </trkpt>
      <trkpt lat="50.53042" lon="5.21833">
        <ele>67</ele>
        <time>2021-08-01T08:29:50.000Z</time>
      </trkpt>
      <trkpt lat="50.53056" lon="5.21884">
        <ele>67.400001525879</ele>
        <time>2021-08-01T08:29:56.000Z</time>
      </trkpt>
      <trkpt lat="50.53067" lon="5.21923">
        <ele>67.800003051758</ele>
        <time>2021-08-01T08:30:02.000Z</time>
      </trkpt>
      <trkpt lat="50.53073" lon="5.21948">
        <ele>68</ele>
        <time>2021-08-01T08:30:08.000Z</time>
      </trkpt>
      <trkpt lat="50.53063" lon="5.21961">
        <ele>68</ele>
        <time>2021-08-01T08:30:11.000Z</time>
      </trkpt>
      <trkpt lat="50.53036" lon="5.21986">
        <ele>67.800003051758</ele>
        <time>2021-08-01T08:30:16.000Z</time>
      </trkpt>
      <trkpt lat="50.52991" lon="5.22026">
        <ele>67.400001525879</ele>
        <time>2021-08-01T08:30:23.000Z</time>
      </trkpt>
      <trkpt lat="50.52965" lon="5.22061">
        <ele>67.199996948242</ele>
        <time>2021-08-01T08:30:28.000Z</time>
      </trkpt>
      <trkpt lat="50.52926" lon="5.22116">
        <ele>67.199996948242</ele>
        <time>2021-08-01T08:30:36.000Z</time>
      </trkpt>
      <trkpt lat="50.52918" lon="5.22129">
        <ele>67.400001525879</ele>
        <time>2021-08-01T08:30:38.000Z</time>
      </trkpt>
      <trkpt lat="50.52899" lon="5.22159">
        <ele>67.800003051758</ele>
        <time>2021-08-01T08:30:43.000Z</time>
      </trkpt>
      <trkpt lat="50.52883" lon="5.22187">
        <ele>68</ele>
        <time>2021-08-01T08:30:49.000Z</time>
      </trkpt>
      <trkpt lat="50.52876" lon="5.22196">
        <ele>68.400001525879</ele>
        <time>2021-08-01T08:30:52.000Z</time>
      </trkpt>
      <trkpt lat="50.5287" lon="5.22205">
        <ele>68.800003051758</ele>
        <time>2021-08-01T08:30:56.000Z</time>
      </trkpt>
      <trkpt lat="50.52865" lon="5.22212">
        <ele>69.199996948242</ele>
        <time>2021-08-01T08:31:01.000Z</time>
      </trkpt>
      <trkpt lat="50.52859" lon="5.22219">
        <ele>69.599998474121</ele>
        <time>2021-08-01T08:31:08.000Z</time>
      </trkpt>
      <trkpt lat="50.52846" lon="5.22233">
        <ele>69.800003051758</ele>
        <time>2021-08-01T08:31:13.000Z</time>
      </trkpt>
      <trkpt lat="50.52823" lon="5.22259">
        <ele>69.800003051758</ele>
        <time>2021-08-01T08:31:18.000Z</time>
      </trkpt>
      <trkpt lat="50.52787" lon="5.22294">
        <ele>69.400001525879</ele>
        <time>2021-08-01T08:31:24.000Z</time>
      </trkpt>
      <trkpt lat="50.52762" lon="5.22322">
        <ele>69</ele>
        <time>2021-08-01T08:31:28.000Z</time>
      </trkpt>
      <trkpt lat="50.52739" lon="5.22348">
        <ele>68.599998474121</ele>
        <time>2021-08-01T08:31:32.000Z</time>
      </trkpt>
      <trkpt lat="50.52727" lon="5.22356">
        <ele>68.199996948242</ele>
        <time>2021-08-01T08:31:35.000Z</time>
      </trkpt>
      <trkpt lat="50.52717" lon="5.22338">
        <ele>68</ele>
        <time>2021-08-01T08:31:38.000Z</time>
      </trkpt>
      <trkpt lat="50.52711" lon="5.22321">
        <ele>67.800003051758</ele>
        <time>2021-08-01T08:31:40.000Z</time>
      </trkpt>
      <trkpt lat="50.52707" lon="5.22313">
        <ele>67.800003051758</ele>
        <time>2021-08-01T08:31:41.000Z</time>
      </trkpt>
      <trkpt lat="50.52699" lon="5.22294">
        <ele>67.599998474121</ele>
        <time>2021-08-01T08:31:43.000Z</time>
      </trkpt>
      <trkpt lat="50.52695" lon="5.22284">
        <ele>67.400001525879</ele>
        <time>2021-08-01T08:31:44.000Z</time>
      </trkpt>
      <trkpt lat="50.52678" lon="5.22255">
        <ele>66.800003051758</ele>
        <time>2021-08-01T08:31:48.000Z</time>
      </trkpt>
      <trkpt lat="50.52671" lon="5.22255">
        <ele>66.800003051758</ele>
        <time>2021-08-01T08:31:49.000Z</time>
      </trkpt>
      <trkpt lat="50.52664" lon="5.22256">
        <ele>66.599998474121</ele>
        <time>2021-08-01T08:31:50.000Z</time>
      </trkpt>
      <trkpt lat="50.52657" lon="5.22269">
        <ele>66</ele>
        <time>2021-08-01T08:31:52.000Z</time>
      </trkpt>
      <trkpt lat="50.52631" lon="5.22316">
        <ele>65.199996948242</ele>
        <time>2021-08-01T08:31:58.000Z</time>
      </trkpt>
      <trkpt lat="50.52628" lon="5.22323">
        <ele>65</ele>
        <time>2021-08-01T08:31:59.000Z</time>
      </trkpt>
      <trkpt lat="50.52625" lon="5.22329">
        <ele>65</ele>
        <time>2021-08-01T08:32:00.000Z</time>
      </trkpt>
      <trkpt lat="50.52616" lon="5.22343">
        <ele>65</ele>
        <time>2021-08-01T08:32:03.000Z</time>
      </trkpt>
      <trkpt lat="50.52613" lon="5.22346">
        <ele>65</ele>
        <time>2021-08-01T08:32:04.000Z</time>
      </trkpt>
      <trkpt lat="50.52609" lon="5.22347">
        <ele>65.199996948242</ele>
        <time>2021-08-01T08:32:05.000Z</time>
      </trkpt>
      <trkpt lat="50.526" lon="5.22347">
        <ele>65.599998474121</ele>
        <time>2021-08-01T08:32:07.000Z</time>
      </trkpt>
      <trkpt lat="50.5259" lon="5.22355">
        <ele>66.400001525879</ele>
        <time>2021-08-01T08:32:09.000Z</time>
      </trkpt>
      <trkpt lat="50.5258" lon="5.22368">
        <ele>66.800003051758</ele>
        <time>2021-08-01T08:32:11.000Z</time>
      </trkpt>
      <trkpt lat="50.52551" lon="5.22419">
        <ele>67</ele>
        <time>2021-08-01T08:32:17.000Z</time>
      </trkpt>
      <trkpt lat="50.52511" lon="5.22476">
        <ele>66.800003051758</ele>
        <time>2021-08-01T08:32:24.000Z</time>
      </trkpt>
      <trkpt lat="50.52505" lon="5.22484">
        <ele>66.800003051758</ele>
        <time>2021-08-01T08:32:25.000Z</time>
      </trkpt>
      <trkpt lat="50.52464" lon="5.22537">
        <ele>66.800003051758</ele>
        <time>2021-08-01T08:32:32.000Z</time>
      </trkpt>
      <trkpt lat="50.52445" lon="5.22557">
        <ele>67</ele>
        <time>2021-08-01T08:32:35.000Z</time>
      </trkpt>
      <trkpt lat="50.52397" lon="5.22594">
        <ele>67.199996948242</ele>
        <time>2021-08-01T08:32:42.000Z</time>
      </trkpt>
      <trkpt lat="50.52354" lon="5.22611">
        <ele>67.400001525879</ele>
        <time>2021-08-01T08:32:48.000Z</time>
      </trkpt>
      <trkpt lat="50.52303" lon="5.22616">
        <ele>68.199996948242</ele>
        <time>2021-08-01T08:32:55.000Z</time>
      </trkpt>
      <trkpt lat="50.52267" lon="5.22609">
        <ele>68.400001525879</ele>
        <time>2021-08-01T08:33:00.000Z</time>
      </trkpt>
      <trkpt lat="50.52254" lon="5.22604">
        <ele>68.400001525879</ele>
        <time>2021-08-01T08:33:02.000Z</time>
      </trkpt>
      <trkpt lat="50.52201" lon="5.22581">
        <ele>69.599998474121</ele>
        <time>2021-08-01T08:33:10.000Z</time>
      </trkpt>
      <trkpt lat="50.52188" lon="5.22576">
        <ele>70</ele>
        <time>2021-08-01T08:33:12.000Z</time>
      </trkpt>
      <trkpt lat="50.52142" lon="5.22558">
        <ele>70.400001525879</ele>
        <time>2021-08-01T08:33:19.000Z</time>
      </trkpt>
      <trkpt lat="50.52128" lon="5.22555">
        <ele>70.599998474121</ele>
        <time>2021-08-01T08:33:21.000Z</time>
      </trkpt>
      <trkpt lat="50.52079" lon="5.22551">
        <ele>70.800003051758</ele>
        <time>2021-08-01T08:33:28.000Z</time>
      </trkpt>
      <trkpt lat="50.52053" lon="5.2255">
        <ele>70.800003051758</ele>
        <time>2021-08-01T08:33:33.000Z</time>
      </trkpt>
      <trkpt lat="50.52032" lon="5.22549">
        <ele>71</ele>
        <time>2021-08-01T08:33:37.000Z</time>
      </trkpt>
      <trkpt lat="50.52024" lon="5.22548">
        <ele>71.199996948242</ele>
        <time>2021-08-01T08:33:38.000Z</time>
      </trkpt>
      <trkpt lat="50.52017" lon="5.22547">
        <ele>71.199996948242</ele>
        <time>2021-08-01T08:33:39.000Z</time>
      </trkpt>
      <trkpt lat="50.51988" lon="5.22547">
        <ele>71</ele>
        <time>2021-08-01T08:33:43.000Z</time>
      </trkpt>
      <trkpt lat="50.51974" lon="5.22547">
        <ele>69.599998474121</ele>
        <time>2021-08-01T08:33:47.000Z</time>
      </trkpt>
      <trkpt lat="50.51962" lon="5.22548">
        <ele>68.400001525879</ele>
        <time>2021-08-01T08:33:54.000Z</time>
      </trkpt>
      <trkpt lat="50.51961" lon="5.22548">
        <ele>68.400001525879</ele>
        <time>2021-08-01T08:33:56.000Z</time>
      </trkpt>
      <trkpt lat="50.51958" lon="5.22548">
        <ele>68.199996948242</ele>
        <time>2021-08-01T08:35:24.000Z</time>
      </trkpt>
      <trkpt lat="50.51954" lon="5.22549">
        <ele>68.199996948242</ele>
        <time>2021-08-01T08:35:26.000Z</time>
      </trkpt>
      <trkpt lat="50.5194" lon="5.22551">
        <ele>68.199996948242</ele>
        <time>2021-08-01T08:35:30.000Z</time>
      </trkpt>
      <trkpt lat="50.51936" lon="5.22553">
        <ele>68.199996948242</ele>
        <time>2021-08-01T08:35:31.000Z</time>
      </trkpt>
      <trkpt lat="50.51928" lon="5.22556">
        <ele>68.400001525879</ele>
        <time>2021-08-01T08:35:33.000Z</time>
      </trkpt>
      <trkpt lat="50.5192" lon="5.22564">
        <ele>68.400001525879</ele>
        <time>2021-08-01T08:35:35.000Z</time>
      </trkpt>
      <trkpt lat="50.51917" lon="5.2257">
        <ele>68.199996948242</ele>
        <time>2021-08-01T08:35:36.000Z</time>
      </trkpt>
      <trkpt lat="50.51914" lon="5.22579">
        <ele>68.199996948242</ele>
        <time>2021-08-01T08:35:37.000Z</time>
      </trkpt>
      <trkpt lat="50.51913" lon="5.22588">
        <ele>68.400001525879</ele>
        <time>2021-08-01T08:35:38.000Z</time>
      </trkpt>
      <trkpt lat="50.51912" lon="5.22598">
        <ele>68.199996948242</ele>
        <time>2021-08-01T08:35:39.000Z</time>
      </trkpt>
      <trkpt lat="50.51913" lon="5.22618">
        <ele>68.400001525879</ele>
        <time>2021-08-01T08:35:41.000Z</time>
      </trkpt>
      <trkpt lat="50.51918" lon="5.22657">
        <ele>68.199996948242</ele>
        <time>2021-08-01T08:35:45.000Z</time>
      </trkpt>
      <trkpt lat="50.5192" lon="5.22675">
        <ele>68.199996948242</ele>
        <time>2021-08-01T08:35:47.000Z</time>
      </trkpt>
      <trkpt lat="50.51919" lon="5.22683">
        <ele>68.199996948242</ele>
        <time>2021-08-01T08:35:48.000Z</time>
      </trkpt>
      <trkpt lat="50.51916" lon="5.22708">
        <ele>68.199996948242</ele>
        <time>2021-08-01T08:35:51.000Z</time>
      </trkpt>
      <trkpt lat="50.51905" lon="5.22778">
        <ele>71</ele>
        <time>2021-08-01T08:35:59.000Z</time>
      </trkpt>
      <trkpt lat="50.51902" lon="5.22849">
        <ele>72.400001525879</ele>
        <time>2021-08-01T08:36:06.000Z</time>
      </trkpt>
      <trkpt lat="50.51903" lon="5.2287">
        <ele>72.599998474121</ele>
        <time>2021-08-01T08:36:08.000Z</time>
      </trkpt>
      <trkpt lat="50.51907" lon="5.22934">
        <ele>72.800003051758</ele>
        <time>2021-08-01T08:36:14.000Z</time>
      </trkpt>
      <trkpt lat="50.51911" lon="5.22969">
        <ele>72.800003051758</ele>
        <time>2021-08-01T08:36:17.000Z</time>
      </trkpt>
      <trkpt lat="50.51916" lon="5.22992">
        <ele>72.599998474121</ele>
        <time>2021-08-01T08:36:19.000Z</time>
      </trkpt>
      <trkpt lat="50.51928" lon="5.2305">
        <ele>71.599998474121</ele>
        <time>2021-08-01T08:36:24.000Z</time>
      </trkpt>
      <trkpt lat="50.51947" lon="5.2313">
        <ele>70</ele>
        <time>2021-08-01T08:36:31.000Z</time>
      </trkpt>
      <trkpt lat="50.5195" lon="5.23141">
        <ele>70.199996948242</ele>
        <time>2021-08-01T08:36:32.000Z</time>
      </trkpt>
      <trkpt lat="50.51953" lon="5.23152">
        <ele>70.199996948242</ele>
        <time>2021-08-01T08:36:33.000Z</time>
      </trkpt>
      <trkpt lat="50.5196" lon="5.23173">
        <ele>70</ele>
        <time>2021-08-01T08:36:35.000Z</time>
      </trkpt>
      <trkpt lat="50.51974" lon="5.23215">
        <ele>70</ele>
        <time>2021-08-01T08:36:39.000Z</time>
      </trkpt>
      <trkpt lat="50.51978" lon="5.23225">
        <ele>70</ele>
        <time>2021-08-01T08:36:40.000Z</time>
      </trkpt>
      <trkpt lat="50.51984" lon="5.23233">
        <ele>70.199996948242</ele>
        <time>2021-08-01T08:36:41.000Z</time>
      </trkpt>
      <trkpt lat="50.52007" lon="5.23264">
        <ele>71</ele>
        <time>2021-08-01T08:36:45.000Z</time>
      </trkpt>
      <trkpt lat="50.5203" lon="5.23292">
        <ele>71.599998474121</ele>
        <time>2021-08-01T08:36:49.000Z</time>
      </trkpt>
      <trkpt lat="50.52046" lon="5.23312">
        <ele>71.800003051758</ele>
        <time>2021-08-01T08:36:52.000Z</time>
      </trkpt>
      <trkpt lat="50.5208" lon="5.23355">
        <ele>73.199996948242</ele>
        <time>2021-08-01T08:36:59.000Z</time>
      </trkpt>
      <trkpt lat="50.52084" lon="5.2336">
        <ele>73.400001525879</ele>
        <time>2021-08-01T08:37:00.000Z</time>
      </trkpt>
      <trkpt lat="50.52106" lon="5.23387">
        <ele>74</ele>
        <time>2021-08-01T08:37:06.000Z</time>
      </trkpt>
      <trkpt lat="50.52114" lon="5.23398">
        <ele>74.599998474121</ele>
        <time>2021-08-01T08:37:11.000Z</time>
      </trkpt>
      <trkpt lat="50.52121" lon="5.23407">
        <ele>75</ele>
        <time>2021-08-01T08:37:18.000Z</time>
      </trkpt>
      <trkpt lat="50.5213" lon="5.23417">
        <ele>74.599998474121</ele>
        <time>2021-08-01T08:37:40.000Z</time>
      </trkpt>
      <trkpt lat="50.52137" lon="5.23433">
        <ele>74.800003051758</ele>
        <time>2021-08-01T08:37:44.000Z</time>
      </trkpt>
      <trkpt lat="50.52137" lon="5.23438">
        <ele>74.800003051758</ele>
        <time>2021-08-01T08:37:45.000Z</time>
      </trkpt>
      <trkpt lat="50.52136" lon="5.23443">
        <ele>74.599998474121</ele>
        <time>2021-08-01T08:37:46.000Z</time>
      </trkpt>
      <trkpt lat="50.52132" lon="5.23449">
        <ele>74.599998474121</ele>
        <time>2021-08-01T08:37:47.000Z</time>
      </trkpt>
      <trkpt lat="50.52123" lon="5.23462">
        <ele>74.599998474121</ele>
        <time>2021-08-01T08:37:49.000Z</time>
      </trkpt>
      <trkpt lat="50.52109" lon="5.23499">
        <ele>74</ele>
        <time>2021-08-01T08:37:53.000Z</time>
      </trkpt>
      <trkpt lat="50.52087" lon="5.23556">
        <ele>72.199996948242</ele>
        <time>2021-08-01T08:37:59.000Z</time>
      </trkpt>
      <trkpt lat="50.5207" lon="5.23594">
        <ele>71.199996948242</ele>
        <time>2021-08-01T08:38:04.000Z</time>
      </trkpt>
      <trkpt lat="50.52063" lon="5.23609">
        <ele>71.199996948242</ele>
        <time>2021-08-01T08:38:08.000Z</time>
      </trkpt>
      <trkpt lat="50.52055" lon="5.2363">
        <ele>71.400001525879</ele>
        <time>2021-08-01T08:38:15.000Z</time>
      </trkpt>
      <trkpt lat="50.52043" lon="5.23662">
        <ele>71.400001525879</ele>
        <time>2021-08-01T08:38:20.000Z</time>
      </trkpt>
      <trkpt lat="50.52035" lon="5.23677">
        <ele>71.599998474121</ele>
        <time>2021-08-01T08:38:22.000Z</time>
      </trkpt>
      <trkpt lat="50.52024" lon="5.23701">
        <ele>71.599998474121</ele>
        <time>2021-08-01T08:38:25.000Z</time>
      </trkpt>
      <trkpt lat="50.52021" lon="5.23708">
        <ele>71.599998474121</ele>
        <time>2021-08-01T08:38:26.000Z</time>
      </trkpt>
      <trkpt lat="50.52008" lon="5.23737">
        <ele>71.400001525879</ele>
        <time>2021-08-01T08:38:30.000Z</time>
      </trkpt>
      <trkpt lat="50.51996" lon="5.23764">
        <ele>72.199996948242</ele>
        <time>2021-08-01T08:38:34.000Z</time>
      </trkpt>
      <trkpt lat="50.51991" lon="5.23777">
        <ele>73</ele>
        <time>2021-08-01T08:38:36.000Z</time>
      </trkpt>
      <trkpt lat="50.51982" lon="5.23798">
        <ele>73.199996948242</ele>
        <time>2021-08-01T08:38:39.000Z</time>
      </trkpt>
      <trkpt lat="50.51977" lon="5.23811">
        <ele>73.400001525879</ele>
        <time>2021-08-01T08:38:41.000Z</time>
      </trkpt>
      <trkpt lat="50.51971" lon="5.23822">
        <ele>73.199996948242</ele>
        <time>2021-08-01T08:38:43.000Z</time>
      </trkpt>
      <trkpt lat="50.51968" lon="5.23828">
        <ele>73.199996948242</ele>
        <time>2021-08-01T08:38:44.000Z</time>
      </trkpt>
      <trkpt lat="50.51965" lon="5.23834">
        <ele>73.400001525879</ele>
        <time>2021-08-01T08:38:45.000Z</time>
      </trkpt>
      <trkpt lat="50.51961" lon="5.23839">
        <ele>73.400001525879</ele>
        <time>2021-08-01T08:38:46.000Z</time>
      </trkpt>
      <trkpt lat="50.51958" lon="5.23846">
        <ele>73.400001525879</ele>
        <time>2021-08-01T08:38:47.000Z</time>
      </trkpt>
      <trkpt lat="50.51956" lon="5.23853">
        <ele>73.199996948242</ele>
        <time>2021-08-01T08:38:48.000Z</time>
      </trkpt>
      <trkpt lat="50.51955" lon="5.2386">
        <ele>73</ele>
        <time>2021-08-01T08:38:49.000Z</time>
      </trkpt>
      <trkpt lat="50.51954" lon="5.23868">
        <ele>73</ele>
        <time>2021-08-01T08:38:50.000Z</time>
      </trkpt>
      <trkpt lat="50.51951" lon="5.23882">
        <ele>72.400001525879</ele>
        <time>2021-08-01T08:38:52.000Z</time>
      </trkpt>
      <trkpt lat="50.51946" lon="5.23895">
        <ele>71.400001525879</ele>
        <time>2021-08-01T08:38:54.000Z</time>
      </trkpt>
      <trkpt lat="50.51944" lon="5.23901">
        <ele>71.199996948242</ele>
        <time>2021-08-01T08:38:55.000Z</time>
      </trkpt>
      <trkpt lat="50.5193" lon="5.23926">
        <ele>69.599998474121</ele>
        <time>2021-08-01T08:39:00.000Z</time>
      </trkpt>
      <trkpt lat="50.51922" lon="5.23934">
        <ele>73.2</ele>
        <time>2021-08-01T08:39:06.000Z</time>
        <extensions>
          <visugpx:TrkExtension xmlns:visugpx="https://www.visugpx.com/editgpx/">
            <visugpx:node>2</visugpx:node>
            </visugpx:TrkExtension>
        </extensions>
      </trkpt>
      <trkpt lat="50.51919" lon="5.23937">
        <ele>73.1</ele>
        <extensions>
          <visugpx:TrkExtension xmlns:visugpx="https://www.visugpx.com/editgpx/">
            <visugpx:node>3</visugpx:node>
            </visugpx:TrkExtension>
        </extensions>
      </trkpt>
      <trkpt lat="50.51915" lon="5.2394">
        <ele>72.9</ele>
      </trkpt>
      <trkpt lat="50.51903" lon="5.23945">
        <ele>72.5</ele>
      </trkpt>
      <trkpt lat="50.51891" lon="5.2395">
        <ele>72.1</ele>
      </trkpt>
      <trkpt lat="50.51883" lon="5.23953">
        <ele>72.1</ele>
      </trkpt>
      <trkpt lat="50.51878" lon="5.23955">
        <ele>72.2</ele>
      </trkpt>
      <trkpt lat="50.51868" lon="5.23959">
        <ele>72.4</ele>
      </trkpt>
      <trkpt lat="50.5186" lon="5.23962">
        <ele>72.3</ele>
        <extensions>
          <visugpx:TrkExtension xmlns:visugpx="https://www.visugpx.com/editgpx/">
            <visugpx:node>4</visugpx:node>
            </visugpx:TrkExtension>
        </extensions>
      </trkpt>
      <trkpt lat="50.51853" lon="5.23965">
        <ele>72.1</ele>
      </trkpt>
      <trkpt lat="50.51827" lon="5.23977">
        <ele>72</ele>
      </trkpt>
      <trkpt lat="50.51814" lon="5.23985">
        <ele>72</ele>
      </trkpt>
      <trkpt lat="50.51812" lon="5.23986">
        <ele>72</ele>
        <extensions>
          <visugpx:TrkExtension xmlns:visugpx="https://www.visugpx.com/editgpx/">
            <visugpx:node>5</visugpx:node>
            </visugpx:TrkExtension>
        </extensions>
      </trkpt>
      <trkpt lat="50.51814" lon="5.23985">
        <ele>72</ele>
      </trkpt>
      <trkpt lat="50.51817" lon="5.24006">
        <ele>72</ele>
      </trkpt>
      <trkpt lat="50.51822" lon="5.24045">
        <ele>72</ele>
      </trkpt>
      <trkpt lat="50.51823" lon="5.24052">
        <ele>72</ele>
      </trkpt>
      <trkpt lat="50.5182" lon="5.24054">
        <ele>72</ele>
        <extensions>
          <visugpx:TrkExtension xmlns:visugpx="https://www.visugpx.com/editgpx/">
            <visugpx:node>6</visugpx:node>
            </visugpx:TrkExtension>
        </extensions>
      </trkpt>
      <trkpt lat="50.51823" lon="5.24052">
        <ele>72</ele>
      </trkpt>
      <trkpt lat="50.51834" lon="5.24091">
        <ele>73</ele>
        <extensions>
          <visugpx:TrkExtension xmlns:visugpx="https://www.visugpx.com/editgpx/">
            <visugpx:node>7</visugpx:node>
            <visugpx:etape>Le Littéraire à Huy.</visugpx:etape>
            </visugpx:TrkExtension>
        </extensions>
      </trkpt>
      <trkpt lat="50.51823" lon="5.24052">
        <ele>72</ele>
        <extensions>
          <visugpx:TrkExtension xmlns:visugpx="https://www.visugpx.com/editgpx/">
            <visugpx:node>8</visugpx:node>
            </visugpx:TrkExtension>
        </extensions>
      </trkpt>
      <trkpt lat="50.51822" lon="5.24045">
        <ele>72</ele>
      </trkpt>
      <trkpt lat="50.51817" lon="5.24006">
        <ele>72</ele>
      </trkpt>
      <trkpt lat="50.51815" lon="5.23992">
        <ele>72</ele>
        <extensions>
          <visugpx:TrkExtension xmlns:visugpx="https://www.visugpx.com/editgpx/">
            <visugpx:node>9</visugpx:node>
            </visugpx:TrkExtension>
        </extensions>
      </trkpt>
      <trkpt lat="50.51814" lon="5.23985">
        <ele>72</ele>
      </trkpt>
      <trkpt lat="50.51827" lon="5.23977">
        <ele>72</ele>
      </trkpt>
      <trkpt lat="50.51853" lon="5.23965">
        <ele>72.1</ele>
      </trkpt>
      <trkpt lat="50.51868" lon="5.23959">
        <ele>72.4</ele>
      </trkpt>
      <trkpt lat="50.51878" lon="5.23955">
        <ele>72.2</ele>
      </trkpt>
      <trkpt lat="50.51883" lon="5.23953">
        <ele>72.1</ele>
      </trkpt>
      <trkpt lat="50.51888" lon="5.23958">
        <ele>72</ele>
        <extensions>
          <visugpx:TrkExtension xmlns:visugpx="https://www.visugpx.com/editgpx/">
            <visugpx:node>10</visugpx:node>
            </visugpx:TrkExtension>
        </extensions>
      </trkpt>
      <trkpt lat="50.51892" lon="5.2396">
        <ele>72.1</ele>
      </trkpt>
      <trkpt lat="50.519" lon="5.23959">
        <ele>72.4</ele>
      </trkpt>
      <trkpt lat="50.51916" lon="5.2395">
        <ele>73</ele>
      </trkpt>
      <trkpt lat="50.51926" lon="5.23983">
        <ele>72.5</ele>
        <extensions>
          <visugpx:TrkExtension xmlns:visugpx="https://www.visugpx.com/editgpx/">
            <visugpx:node>11</visugpx:node>
            <visugpx:etape>Le Mur à Huy.</visugpx:etape>
            </visugpx:TrkExtension>
        </extensions>
      </trkpt>
      <trkpt lat="50.5192" lon="5.23946">
        <ele>73.1</ele>
      </trkpt>
      <trkpt lat="50.51931" lon="5.23942">
        <ele>69.199996948242</ele>
        <time>2021-08-01T09:08:52.000Z</time>
      </trkpt>
      <trkpt lat="50.51941" lon="5.2393">
        <ele>69</ele>
        <time>2021-08-01T09:08:56.000Z</time>
      </trkpt>
      <trkpt lat="50.51944" lon="5.23925">
        <ele>69</ele>
        <time>2021-08-01T09:08:57.000Z</time>
      </trkpt>
      <trkpt lat="50.5195" lon="5.23914">
        <ele>69</ele>
        <time>2021-08-01T09:08:59.000Z</time>
      </trkpt>
      <trkpt lat="50.51955" lon="5.23903">
        <ele>69</ele>
        <time>2021-08-01T09:09:01.000Z</time>
      </trkpt>
      <trkpt lat="50.51956" lon="5.23898">
        <ele>69</ele>
        <time>2021-08-01T09:09:02.000Z</time>
      </trkpt>
      <trkpt lat="50.51966" lon="5.23874">
        <ele>69</ele>
        <time>2021-08-01T09:09:07.000Z</time>
      </trkpt>
      <trkpt lat="50.51973" lon="5.23852">
        <ele>69.599998474121</ele>
        <time>2021-08-01T09:09:11.000Z</time>
      </trkpt>
      <trkpt lat="50.51974" lon="5.23845">
        <ele>70</ele>
        <time>2021-08-01T09:09:12.000Z</time>
      </trkpt>
      <trkpt lat="50.51977" lon="5.23828">
        <ele>70.400001525879</ele>
        <time>2021-08-01T09:09:15.000Z</time>
      </trkpt>
      <trkpt lat="50.51982" lon="5.23812">
        <ele>70.599998474121</ele>
        <time>2021-08-01T09:09:18.000Z</time>
      </trkpt>
      <trkpt lat="50.51996" lon="5.23777">
        <ele>72.599998474121</ele>
        <time>2021-08-01T09:09:25.000Z</time>
      </trkpt>
      <trkpt lat="50.52003" lon="5.23757">
        <ele>73.599998474121</ele>
        <time>2021-08-01T09:09:29.000Z</time>
      </trkpt>
      <trkpt lat="50.52012" lon="5.23737">
        <ele>73.800003051758</ele>
        <time>2021-08-01T09:09:33.000Z</time>
      </trkpt>
      <trkpt lat="50.52017" lon="5.23725">
        <ele>73.800003051758</ele>
        <time>2021-08-01T09:09:35.000Z</time>
      </trkpt>
      <trkpt lat="50.52022" lon="5.23713">
        <ele>74</ele>
        <time>2021-08-01T09:09:38.000Z</time>
      </trkpt>
      <trkpt lat="50.52029" lon="5.23697">
        <ele>74</ele>
        <time>2021-08-01T09:09:45.000Z</time>
      </trkpt>
      <trkpt lat="50.52031" lon="5.23692">
        <ele>73.199996948242</ele>
        <time>2021-08-01T09:10:07.000Z</time>
      </trkpt>
      <trkpt lat="50.52033" lon="5.23686">
        <ele>73</ele>
        <time>2021-08-01T09:10:09.000Z</time>
      </trkpt>
      <trkpt lat="50.52042" lon="5.23668">
        <ele>73.199996948242</ele>
        <time>2021-08-01T09:10:13.000Z</time>
      </trkpt>
      <trkpt lat="50.52055" lon="5.23636">
        <ele>72.599998474121</ele>
        <time>2021-08-01T09:10:18.000Z</time>
      </trkpt>
      <trkpt lat="50.52058" lon="5.23628">
        <ele>72.599998474121</ele>
        <time>2021-08-01T09:10:19.000Z</time>
      </trkpt>
      <trkpt lat="50.52088" lon="5.23559">
        <ele>71</ele>
        <time>2021-08-01T09:10:28.000Z</time>
      </trkpt>
      <trkpt lat="50.521" lon="5.23529">
        <ele>71</ele>
        <time>2021-08-01T09:10:32.000Z</time>
      </trkpt>
      <trkpt lat="50.52103" lon="5.23524">
        <ele>71</ele>
        <time>2021-08-01T09:10:33.000Z</time>
      </trkpt>
      <trkpt lat="50.52113" lon="5.23502">
        <ele>71.199996948242</ele>
        <time>2021-08-01T09:10:39.000Z</time>
      </trkpt>
      <trkpt lat="50.52118" lon="5.23488">
        <ele>71.400001525879</ele>
        <time>2021-08-01T09:10:46.000Z</time>
      </trkpt>
      <trkpt lat="50.52119" lon="5.23483">
        <ele>72</ele>
        <time>2021-08-01T09:11:05.000Z</time>
      </trkpt>
      <trkpt lat="50.52122" lon="5.23475">
        <ele>72</ele>
        <time>2021-08-01T09:11:08.000Z</time>
      </trkpt>
      <trkpt lat="50.52134" lon="5.23458">
        <ele>72</ele>
        <time>2021-08-01T09:11:13.000Z</time>
      </trkpt>
      <trkpt lat="50.52137" lon="5.23455">
        <ele>72.199996948242</ele>
        <time>2021-08-01T09:11:14.000Z</time>
      </trkpt>
      <trkpt lat="50.52156" lon="5.23434">
        <ele>72.199996948242</ele>
        <time>2021-08-01T09:11:20.000Z</time>
      </trkpt>
      <trkpt lat="50.52163" lon="5.23427">
        <ele>72.199996948242</ele>
        <time>2021-08-01T09:11:22.000Z</time>
      </trkpt>
      <trkpt lat="50.5217" lon="5.23419">
        <ele>72.800003051758</ele>
        <time>2021-08-01T09:11:24.000Z</time>
      </trkpt>
      <trkpt lat="50.52182" lon="5.23409">
        <ele>73</ele>
        <time>2021-08-01T09:11:27.000Z</time>
      </trkpt>
      <trkpt lat="50.52192" lon="5.23398">
        <ele>73.599998474121</ele>
        <time>2021-08-01T09:11:30.000Z</time>
      </trkpt>
      <trkpt lat="50.52203" lon="5.23388">
        <ele>74.599998474121</ele>
        <time>2021-08-01T09:11:33.000Z</time>
      </trkpt>
      <trkpt lat="50.52214" lon="5.23377">
        <ele>76</ele>
        <time>2021-08-01T09:11:36.000Z</time>
      </trkpt>
      <trkpt lat="50.52221" lon="5.23371">
        <ele>76.199996948242</ele>
        <time>2021-08-01T09:11:38.000Z</time>
      </trkpt>
      <trkpt lat="50.52241" lon="5.23357">
        <ele>77.400001525879</ele>
        <time>2021-08-01T09:11:43.000Z</time>
      </trkpt>
      <trkpt lat="50.52249" lon="5.23352">
        <ele>78</ele>
        <time>2021-08-01T09:11:45.000Z</time>
      </trkpt>
      <trkpt lat="50.52257" lon="5.23346">
        <ele>78.199996948242</ele>
        <time>2021-08-01T09:11:47.000Z</time>
      </trkpt>
      <trkpt lat="50.52284" lon="5.23323">
        <ele>80.199996948242</ele>
        <time>2021-08-01T09:11:54.000Z</time>
      </trkpt>
      <trkpt lat="50.52292" lon="5.23317">
        <ele>80.599998474121</ele>
        <time>2021-08-01T09:11:56.000Z</time>
      </trkpt>
      <trkpt lat="50.52325" lon="5.2329">
        <ele>82</ele>
        <time>2021-08-01T09:12:04.000Z</time>
      </trkpt>
      <trkpt lat="50.52359" lon="5.23264">
        <ele>82.800003051758</ele>
        <time>2021-08-01T09:12:12.000Z</time>
      </trkpt>
      <trkpt lat="50.5237" lon="5.23253">
        <ele>83.400001525879</ele>
        <time>2021-08-01T09:12:15.000Z</time>
      </trkpt>
      <trkpt lat="50.52386" lon="5.23236">
        <ele>84.199996948242</ele>
        <time>2021-08-01T09:12:19.000Z</time>
      </trkpt>
      <trkpt lat="50.52393" lon="5.23227">
        <ele>84.599998474121</ele>
        <time>2021-08-01T09:12:21.000Z</time>
      </trkpt>
      <trkpt lat="50.52407" lon="5.2321">
        <ele>85.800003051758</ele>
        <time>2021-08-01T09:12:25.000Z</time>
      </trkpt>
      <trkpt lat="50.5242" lon="5.23193">
        <ele>86.400001525879</ele>
        <time>2021-08-01T09:12:29.000Z</time>
      </trkpt>
      <trkpt lat="50.52433" lon="5.23172">
        <ele>87.800003051758</ele>
        <time>2021-08-01T09:12:34.000Z</time>
      </trkpt>
      <trkpt lat="50.52445" lon="5.23155">
        <ele>88.599998474121</ele>
        <time>2021-08-01T09:12:38.000Z</time>
      </trkpt>
      <trkpt lat="50.5245" lon="5.23147">
        <ele>88.800003051758</ele>
        <time>2021-08-01T09:12:40.000Z</time>
      </trkpt>
      <trkpt lat="50.52469" lon="5.23119">
        <ele>90.199996948242</ele>
        <time>2021-08-01T09:12:47.000Z</time>
      </trkpt>
      <trkpt lat="50.5248" lon="5.23103">
        <ele>91.400001525879</ele>
        <time>2021-08-01T09:12:51.000Z</time>
      </trkpt>
      <trkpt lat="50.52487" lon="5.23097">
        <ele>91.599998474121</ele>
        <time>2021-08-01T09:12:53.000Z</time>
      </trkpt>
      <trkpt lat="50.52491" lon="5.23094">
        <ele>92</ele>
        <time>2021-08-01T09:12:54.000Z</time>
      </trkpt>
      <trkpt lat="50.52507" lon="5.23076">
        <ele>92.199996948242</ele>
        <time>2021-08-01T09:12:59.000Z</time>
      </trkpt>
      <trkpt lat="50.52531" lon="5.23042">
        <ele>93</ele>
        <time>2021-08-01T09:13:07.000Z</time>
      </trkpt>
      <trkpt lat="50.52539" lon="5.23036">
        <ele>93</ele>
        <time>2021-08-01T09:13:09.000Z</time>
      </trkpt>
      <trkpt lat="50.52553" lon="5.23025">
        <ele>93</ele>
        <time>2021-08-01T09:13:12.000Z</time>
      </trkpt>
      <trkpt lat="50.52586" lon="5.22989">
        <ele>92.199996948242</ele>
        <time>2021-08-01T09:13:19.000Z</time>
      </trkpt>
      <trkpt lat="50.52613" lon="5.22965">
        <ele>91.800003051758</ele>
        <time>2021-08-01T09:13:25.000Z</time>
      </trkpt>
      <trkpt lat="50.52626" lon="5.22959">
        <ele>92</ele>
        <time>2021-08-01T09:13:28.000Z</time>
      </trkpt>
      <trkpt lat="50.52641" lon="5.22952">
        <ele>92.199996948242</ele>
        <time>2021-08-01T09:13:32.000Z</time>
      </trkpt>
      <trkpt lat="50.52645" lon="5.2295">
        <ele>92.400001525879</ele>
        <time>2021-08-01T09:13:33.000Z</time>
      </trkpt>
      <trkpt lat="50.52648" lon="5.22949">
        <ele>93</ele>
        <time>2021-08-01T09:13:34.000Z</time>
      </trkpt>
      <trkpt lat="50.52658" lon="5.22944">
        <ele>94.599998474121</ele>
        <time>2021-08-01T09:13:38.000Z</time>
      </trkpt>
      <trkpt lat="50.5266" lon="5.22943">
        <ele>94.800003051758</ele>
        <time>2021-08-01T09:13:39.000Z</time>
      </trkpt>
      <trkpt lat="50.5267" lon="5.2294">
        <ele>96.199996948242</ele>
        <time>2021-08-01T09:13:45.000Z</time>
      </trkpt>
      <trkpt lat="50.52674" lon="5.22937">
        <ele>96.800003051758</ele>
        <time>2021-08-01T09:13:48.000Z</time>
      </trkpt>
      <trkpt lat="50.52679" lon="5.22934">
        <ele>97</ele>
        <time>2021-08-01T09:13:52.000Z</time>
      </trkpt>
      <trkpt lat="50.52686" lon="5.22936">
        <ele>97.800003051758</ele>
        <time>2021-08-01T09:13:59.000Z</time>
      </trkpt>
      <trkpt lat="50.52702" lon="5.22935">
        <ele>98.199996948242</ele>
        <time>2021-08-01T09:14:05.000Z</time>
      </trkpt>
      <trkpt lat="50.52717" lon="5.22935">
        <ele>98.599998474121</ele>
        <time>2021-08-01T09:14:09.000Z</time>
      </trkpt>
      <trkpt lat="50.52725" lon="5.22938">
        <ele>98.800003051758</ele>
        <time>2021-08-01T09:14:11.000Z</time>
      </trkpt>
      <trkpt lat="50.52734" lon="5.22941">
        <ele>99</ele>
        <time>2021-08-01T09:14:13.000Z</time>
      </trkpt>
      <trkpt lat="50.52758" lon="5.22957">
        <ele>100</ele>
        <time>2021-08-01T09:14:19.000Z</time>
      </trkpt>
      <trkpt lat="50.52768" lon="5.2297">
        <ele>100.80000305176</ele>
        <time>2021-08-01T09:14:22.000Z</time>
      </trkpt>
      <trkpt lat="50.52773" lon="5.2298">
        <ele>101.19999694824</ele>
        <time>2021-08-01T09:14:24.000Z</time>
      </trkpt>
      <trkpt lat="50.52776" lon="5.22986">
        <ele>101.40000152588</ele>
        <time>2021-08-01T09:14:25.000Z</time>
      </trkpt>
      <trkpt lat="50.52783" lon="5.23007">
        <ele>102.19999694824</ele>
        <time>2021-08-01T09:14:29.000Z</time>
      </trkpt>
      <trkpt lat="50.52787" lon="5.23023">
        <ele>102.59999847412</ele>
        <time>2021-08-01T09:14:32.000Z</time>
      </trkpt>
      <trkpt lat="50.52789" lon="5.23028">
        <ele>103.19999694824</ele>
        <time>2021-08-01T09:14:33.000Z</time>
      </trkpt>
      <trkpt lat="50.52797" lon="5.23054">
        <ele>104.40000152588</ele>
        <time>2021-08-01T09:14:38.000Z</time>
      </trkpt>
      <trkpt lat="50.52805" lon="5.23083">
        <ele>105.80000305176</ele>
        <time>2021-08-01T09:14:43.000Z</time>
      </trkpt>
      <trkpt lat="50.52806" lon="5.23089">
        <ele>106.19999694824</ele>
        <time>2021-08-01T09:14:44.000Z</time>
      </trkpt>
      <trkpt lat="50.52817" lon="5.23124">
        <ele>107.19999694824</ele>
        <time>2021-08-01T09:14:50.000Z</time>
      </trkpt>
      <trkpt lat="50.5282" lon="5.23137">
        <ele>107.59999847412</ele>
        <time>2021-08-01T09:14:52.000Z</time>
      </trkpt>
      <trkpt lat="50.52826" lon="5.23155">
        <ele>108.40000152588</ele>
        <time>2021-08-01T09:14:55.000Z</time>
      </trkpt>
      <trkpt lat="50.52833" lon="5.23172">
        <ele>109</ele>
        <time>2021-08-01T09:14:58.000Z</time>
      </trkpt>
      <trkpt lat="50.52838" lon="5.23183">
        <ele>109.40000152588</ele>
        <time>2021-08-01T09:15:00.000Z</time>
      </trkpt>
      <trkpt lat="50.5284" lon="5.23188">
        <ele>109.40000152588</ele>
        <time>2021-08-01T09:15:01.000Z</time>
      </trkpt>
      <trkpt lat="50.52853" lon="5.23215">
        <ele>111</ele>
        <time>2021-08-01T09:15:06.000Z</time>
      </trkpt>
      <trkpt lat="50.5286" lon="5.23232">
        <ele>111.59999847412</ele>
        <time>2021-08-01T09:15:09.000Z</time>
      </trkpt>
      <trkpt lat="50.52868" lon="5.23247">
        <ele>112.19999694824</ele>
        <time>2021-08-01T09:15:12.000Z</time>
      </trkpt>
      <trkpt lat="50.52877" lon="5.23267">
        <ele>113.19999694824</ele>
        <time>2021-08-01T09:15:16.000Z</time>
      </trkpt>
      <trkpt lat="50.5288" lon="5.23273">
        <ele>113.19999694824</ele>
        <time>2021-08-01T09:15:17.000Z</time>
      </trkpt>
      <trkpt lat="50.52891" lon="5.23298">
        <ele>114.40000152588</ele>
        <time>2021-08-01T09:15:22.000Z</time>
      </trkpt>
      <trkpt lat="50.52905" lon="5.2333">
        <ele>115.40000152588</ele>
        <time>2021-08-01T09:15:28.000Z</time>
      </trkpt>
      <trkpt lat="50.52921" lon="5.23364">
        <ele>117</ele>
        <time>2021-08-01T09:15:34.000Z</time>
      </trkpt>
      <trkpt lat="50.52931" lon="5.23388">
        <ele>117.80000305176</ele>
        <time>2021-08-01T09:15:38.000Z</time>
      </trkpt>
      <trkpt lat="50.5294" lon="5.23406">
        <ele>118.19999694824</ele>
        <time>2021-08-01T09:15:41.000Z</time>
      </trkpt>
      <trkpt lat="50.52953" lon="5.23436">
        <ele>119</ele>
        <time>2021-08-01T09:15:46.000Z</time>
      </trkpt>
      <trkpt lat="50.52963" lon="5.2346">
        <ele>119.59999847412</ele>
        <time>2021-08-01T09:15:50.000Z</time>
      </trkpt>
      <trkpt lat="50.52974" lon="5.23484">
        <ele>120.59999847412</ele>
        <time>2021-08-01T09:15:54.000Z</time>
      </trkpt>
      <trkpt lat="50.5299" lon="5.23521">
        <ele>121.59999847412</ele>
        <time>2021-08-01T09:16:00.000Z</time>
      </trkpt>
      <trkpt lat="50.5301" lon="5.23562">
        <ele>122.59999847412</ele>
        <time>2021-08-01T09:16:07.000Z</time>
      </trkpt>
      <trkpt lat="50.53023" lon="5.23592">
        <ele>123.80000305176</ele>
        <time>2021-08-01T09:16:12.000Z</time>
      </trkpt>
      <trkpt lat="50.53031" lon="5.23611">
        <ele>124.19999694824</ele>
        <time>2021-08-01T09:16:15.000Z</time>
      </trkpt>
      <trkpt lat="50.53049" lon="5.23652">
        <ele>124.80000305176</ele>
        <time>2021-08-01T09:16:21.000Z</time>
      </trkpt>
      <trkpt lat="50.53055" lon="5.23666">
        <ele>125.19999694824</ele>
        <time>2021-08-01T09:16:23.000Z</time>
      </trkpt>
      <trkpt lat="50.53073" lon="5.23705">
        <ele>126</ele>
        <time>2021-08-01T09:16:29.000Z</time>
      </trkpt>
      <trkpt lat="50.53075" lon="5.23711">
        <ele>126.19999694824</ele>
        <time>2021-08-01T09:16:30.000Z</time>
      </trkpt>
      <trkpt lat="50.53097" lon="5.23758">
        <ele>127.40000152588</ele>
        <time>2021-08-01T09:16:37.000Z</time>
      </trkpt>
      <trkpt lat="50.53105" lon="5.23779">
        <ele>128.19999694824</ele>
        <time>2021-08-01T09:16:40.000Z</time>
      </trkpt>
      <trkpt lat="50.53111" lon="5.23792">
        <ele>128.19999694824</ele>
        <time>2021-08-01T09:16:42.000Z</time>
      </trkpt>
      <trkpt lat="50.53121" lon="5.23813">
        <ele>128.60000610352</ele>
        <time>2021-08-01T09:16:45.000Z</time>
      </trkpt>
      <trkpt lat="50.53124" lon="5.2382">
        <ele>128.80000305176</ele>
        <time>2021-08-01T09:16:46.000Z</time>
      </trkpt>
      <trkpt lat="50.53142" lon="5.2386">
        <ele>129.80000305176</ele>
        <time>2021-08-01T09:16:52.000Z</time>
      </trkpt>
      <trkpt lat="50.5315" lon="5.23879">
        <ele>130</ele>
        <time>2021-08-01T09:16:55.000Z</time>
      </trkpt>
      <trkpt lat="50.53161" lon="5.23904">
        <ele>130.39999389648</ele>
        <time>2021-08-01T09:16:59.000Z</time>
      </trkpt>
      <trkpt lat="50.53178" lon="5.23942">
        <ele>131.80000305176</ele>
        <time>2021-08-01T09:17:05.000Z</time>
      </trkpt>
      <trkpt lat="50.53182" lon="5.23948">
        <ele>131.80000305176</ele>
        <time>2021-08-01T09:17:06.000Z</time>
      </trkpt>
      <trkpt lat="50.53188" lon="5.2396">
        <ele>132.19999694824</ele>
        <time>2021-08-01T09:17:08.000Z</time>
      </trkpt>
      <trkpt lat="50.532" lon="5.23975">
        <ele>133</ele>
        <time>2021-08-01T09:17:11.000Z</time>
      </trkpt>
      <trkpt lat="50.53204" lon="5.23979">
        <ele>133</ele>
        <time>2021-08-01T09:17:12.000Z</time>
      </trkpt>
      <trkpt lat="50.53214" lon="5.23985">
        <ele>133.19999694824</ele>
        <time>2021-08-01T09:17:14.000Z</time>
      </trkpt>
      <trkpt lat="50.53219" lon="5.23986">
        <ele>133.39999389648</ele>
        <time>2021-08-01T09:17:15.000Z</time>
      </trkpt>
      <trkpt lat="50.53224" lon="5.23986">
        <ele>133.80000305176</ele>
        <time>2021-08-01T09:17:16.000Z</time>
      </trkpt>
      <trkpt lat="50.5325" lon="5.23981">
        <ele>134.60000610352</ele>
        <time>2021-08-01T09:17:21.000Z</time>
      </trkpt>
      <trkpt lat="50.53255" lon="5.23979">
        <ele>134.60000610352</ele>
        <time>2021-08-01T09:17:22.000Z</time>
      </trkpt>
      <trkpt lat="50.53289" lon="5.23967">
        <ele>135.60000610352</ele>
        <time>2021-08-01T09:17:29.000Z</time>
      </trkpt>
      <trkpt lat="50.53294" lon="5.23967">
        <ele>135.80000305176</ele>
        <time>2021-08-01T09:17:30.000Z</time>
      </trkpt>
      <trkpt lat="50.53318" lon="5.23974">
        <ele>136.60000610352</ele>
        <time>2021-08-01T09:17:35.000Z</time>
      </trkpt>
      <trkpt lat="50.53322" lon="5.23977">
        <ele>136.80000305176</ele>
        <time>2021-08-01T09:17:36.000Z</time>
      </trkpt>
      <trkpt lat="50.53344" lon="5.23999">
        <ele>137.80000305176</ele>
        <time>2021-08-01T09:17:41.000Z</time>
      </trkpt>
      <trkpt lat="50.53351" lon="5.24011">
        <ele>138.39999389648</ele>
        <time>2021-08-01T09:17:43.000Z</time>
      </trkpt>
      <trkpt lat="50.53368" lon="5.24043">
        <ele>139</ele>
        <time>2021-08-01T09:17:48.000Z</time>
      </trkpt>
      <trkpt lat="50.53378" lon="5.24063">
        <ele>139.60000610352</ele>
        <time>2021-08-01T09:17:51.000Z</time>
      </trkpt>
      <trkpt lat="50.53401" lon="5.24108">
        <ele>140.80000305176</ele>
        <time>2021-08-01T09:17:58.000Z</time>
      </trkpt>
      <trkpt lat="50.53437" lon="5.24177">
        <ele>141.39999389648</ele>
        <time>2021-08-01T09:18:08.000Z</time>
      </trkpt>
      <trkpt lat="50.5344" lon="5.24184">
        <ele>141.60000610352</ele>
        <time>2021-08-01T09:18:09.000Z</time>
      </trkpt>
      <trkpt lat="50.53466" lon="5.24245">
        <ele>142</ele>
        <time>2021-08-01T09:18:17.000Z</time>
      </trkpt>
      <trkpt lat="50.5349" lon="5.24309">
        <ele>142.39999389648</ele>
        <time>2021-08-01T09:18:25.000Z</time>
      </trkpt>
      <trkpt lat="50.53502" lon="5.2434">
        <ele>142.60000610352</ele>
        <time>2021-08-01T09:18:29.000Z</time>
      </trkpt>
      <trkpt lat="50.5353" lon="5.24414">
        <ele>143.19999694824</ele>
        <time>2021-08-01T09:18:38.000Z</time>
      </trkpt>
      <trkpt lat="50.53539" lon="5.2444">
        <ele>143.60000610352</ele>
        <time>2021-08-01T09:18:41.000Z</time>
      </trkpt>
      <trkpt lat="50.53567" lon="5.24513">
        <ele>143.60000610352</ele>
        <time>2021-08-01T09:18:49.000Z</time>
      </trkpt>
      <trkpt lat="50.53574" lon="5.24532">
        <ele>143.60000610352</ele>
        <time>2021-08-01T09:18:51.000Z</time>
      </trkpt>
      <trkpt lat="50.53599" lon="5.246">
        <ele>142.80000305176</ele>
        <time>2021-08-01T09:18:58.000Z</time>
      </trkpt>
      <trkpt lat="50.53615" lon="5.24641">
        <ele>142.80000305176</ele>
        <time>2021-08-01T09:19:02.000Z</time>
      </trkpt>
      <trkpt lat="50.53639" lon="5.24705">
        <ele>141.19999694824</ele>
        <time>2021-08-01T09:19:08.000Z</time>
      </trkpt>
      <trkpt lat="50.53663" lon="5.24771">
        <ele>140.60000610352</ele>
        <time>2021-08-01T09:19:14.000Z</time>
      </trkpt>
      <trkpt lat="50.53671" lon="5.2479">
        <ele>140.39999389648</ele>
        <time>2021-08-01T09:19:16.000Z</time>
      </trkpt>
      <trkpt lat="50.53688" lon="5.24836">
        <ele>140.19999694824</ele>
        <time>2021-08-01T09:19:21.000Z</time>
      </trkpt>
      <trkpt lat="50.53691" lon="5.24845">
        <ele>140</ele>
        <time>2021-08-01T09:19:22.000Z</time>
      </trkpt>
      <trkpt lat="50.5371" lon="5.24896">
        <ele>140.19999694824</ele>
        <time>2021-08-01T09:19:28.000Z</time>
      </trkpt>
      <trkpt lat="50.53719" lon="5.24921">
        <ele>141</ele>
        <time>2021-08-01T09:19:31.000Z</time>
      </trkpt>
      <trkpt lat="50.53729" lon="5.24945">
        <ele>141.19999694824</ele>
        <time>2021-08-01T09:19:34.000Z</time>
      </trkpt>
      <trkpt lat="50.53754" lon="5.25012">
        <ele>143.19999694824</ele>
        <time>2021-08-01T09:19:42.000Z</time>
      </trkpt>
      <trkpt lat="50.53766" lon="5.25044">
        <ele>143.80000305176</ele>
        <time>2021-08-01T09:19:46.000Z</time>
      </trkpt>
      <trkpt lat="50.53777" lon="5.25075">
        <ele>144.19999694824</ele>
        <time>2021-08-01T09:19:50.000Z</time>
      </trkpt>
      <trkpt lat="50.53783" lon="5.25091">
        <ele>144.19999694824</ele>
        <time>2021-08-01T09:19:52.000Z</time>
      </trkpt>
      <trkpt lat="50.53805" lon="5.25134">
        <ele>145.39999389648</ele>
        <time>2021-08-01T09:19:58.000Z</time>
      </trkpt>
      <trkpt lat="50.53846" lon="5.25191">
        <ele>147</ele>
        <time>2021-08-01T09:20:07.000Z</time>
      </trkpt>
      <trkpt lat="50.53851" lon="5.25197">
        <ele>147.19999694824</ele>
        <time>2021-08-01T09:20:08.000Z</time>
      </trkpt>
      <trkpt lat="50.5386" lon="5.25209">
        <ele>147.39999389648</ele>
        <time>2021-08-01T09:20:10.000Z</time>
      </trkpt>
      <trkpt lat="50.539" lon="5.25265">
        <ele>148.39999389648</ele>
        <time>2021-08-01T09:20:19.000Z</time>
      </trkpt>
      <trkpt lat="50.53941" lon="5.2532">
        <ele>148.80000305176</ele>
        <time>2021-08-01T09:20:28.000Z</time>
      </trkpt>
      <trkpt lat="50.53947" lon="5.25326">
        <ele>148.80000305176</ele>
        <time>2021-08-01T09:20:29.000Z</time>
      </trkpt>
      <trkpt lat="50.53962" lon="5.25344">
        <ele>148.80000305176</ele>
        <time>2021-08-01T09:20:32.000Z</time>
      </trkpt>
      <trkpt lat="50.53998" lon="5.25382">
        <ele>149.19999694824</ele>
        <time>2021-08-01T09:20:39.000Z</time>
      </trkpt>
      <trkpt lat="50.54007" lon="5.25393">
        <ele>149.39999389648</ele>
        <time>2021-08-01T09:20:41.000Z</time>
      </trkpt>
      <trkpt lat="50.54028" lon="5.25416">
        <ele>149.80000305176</ele>
        <time>2021-08-01T09:20:46.000Z</time>
      </trkpt>
      <trkpt lat="50.54032" lon="5.2542">
        <ele>150</ele>
        <time>2021-08-01T09:20:47.000Z</time>
      </trkpt>
      <trkpt lat="50.54041" lon="5.2543">
        <ele>150.60000610352</ele>
        <time>2021-08-01T09:20:49.000Z</time>
      </trkpt>
      <trkpt lat="50.54058" lon="5.25449">
        <ele>151.39999389648</ele>
        <time>2021-08-01T09:20:53.000Z</time>
      </trkpt>
      <trkpt lat="50.54074" lon="5.25467">
        <ele>152.80000305176</ele>
        <time>2021-08-01T09:20:57.000Z</time>
      </trkpt>
      <trkpt lat="50.5409" lon="5.25485">
        <ele>154</ele>
        <time>2021-08-01T09:21:01.000Z</time>
      </trkpt>
      <trkpt lat="50.54107" lon="5.25503">
        <ele>155.19999694824</ele>
        <time>2021-08-01T09:21:05.000Z</time>
      </trkpt>
      <trkpt lat="50.54115" lon="5.25511">
        <ele>155.60000610352</ele>
        <time>2021-08-01T09:21:07.000Z</time>
      </trkpt>
      <trkpt lat="50.54123" lon="5.2552">
        <ele>156.19999694824</ele>
        <time>2021-08-01T09:21:09.000Z</time>
      </trkpt>
      <trkpt lat="50.54134" lon="5.25532">
        <ele>157.39999389648</ele>
        <time>2021-08-01T09:21:12.000Z</time>
      </trkpt>
      <trkpt lat="50.54138" lon="5.25536">
        <ele>157.80000305176</ele>
        <time>2021-08-01T09:21:13.000Z</time>
      </trkpt>
      <trkpt lat="50.54142" lon="5.25541">
        <ele>158</ele>
        <time>2021-08-01T09:21:14.000Z</time>
      </trkpt>
      <trkpt lat="50.54171" lon="5.25574">
        <ele>159.80000305176</ele>
        <time>2021-08-01T09:21:21.000Z</time>
      </trkpt>
      <trkpt lat="50.54204" lon="5.2561">
        <ele>160.80000305176</ele>
        <time>2021-08-01T09:21:28.000Z</time>
      </trkpt>
      <trkpt lat="50.54213" lon="5.2562">
        <ele>160.60000610352</ele>
        <time>2021-08-01T09:21:30.000Z</time>
      </trkpt>
      <trkpt lat="50.5426" lon="5.25671">
        <ele>161.39999389648</ele>
        <time>2021-08-01T09:21:40.000Z</time>
      </trkpt>
      <trkpt lat="50.54284" lon="5.25698">
        <ele>161.80000305176</ele>
        <time>2021-08-01T09:21:45.000Z</time>
      </trkpt>
      <trkpt lat="50.54314" lon="5.2573">
        <ele>162</ele>
        <time>2021-08-01T09:21:51.000Z</time>
      </trkpt>
      <trkpt lat="50.54348" lon="5.25768">
        <ele>162.39999389648</ele>
        <time>2021-08-01T09:21:58.000Z</time>
      </trkpt>
      <trkpt lat="50.54366" lon="5.25789">
        <ele>162.80000305176</ele>
        <time>2021-08-01T09:22:02.000Z</time>
      </trkpt>
      <trkpt lat="50.54375" lon="5.25799">
        <ele>163</ele>
        <time>2021-08-01T09:22:04.000Z</time>
      </trkpt>
      <trkpt lat="50.54393" lon="5.25819">
        <ele>163.80000305176</ele>
        <time>2021-08-01T09:22:08.000Z</time>
      </trkpt>
      <trkpt lat="50.54402" lon="5.25829">
        <ele>164</ele>
        <time>2021-08-01T09:22:10.000Z</time>
      </trkpt>
      <trkpt lat="50.54412" lon="5.25839">
        <ele>164.39999389648</ele>
        <time>2021-08-01T09:22:12.000Z</time>
      </trkpt>
      <trkpt lat="50.54416" lon="5.25844">
        <ele>164.60000610352</ele>
        <time>2021-08-01T09:22:13.000Z</time>
      </trkpt>
      <trkpt lat="50.54449" lon="5.2588">
        <ele>165.39999389648</ele>
        <time>2021-08-01T09:22:20.000Z</time>
      </trkpt>
      <trkpt lat="50.54463" lon="5.25896">
        <ele>166</ele>
        <time>2021-08-01T09:22:23.000Z</time>
      </trkpt>
      <trkpt lat="50.54502" lon="5.25939">
        <ele>167</ele>
        <time>2021-08-01T09:22:31.000Z</time>
      </trkpt>
      <trkpt lat="50.54544" lon="5.25986">
        <ele>167.60000610352</ele>
        <time>2021-08-01T09:22:40.000Z</time>
      </trkpt>
      <trkpt lat="50.54584" lon="5.2603">
        <ele>168.39999389648</ele>
        <time>2021-08-01T09:22:48.000Z</time>
      </trkpt>
      <trkpt lat="50.546" lon="5.26047">
        <ele>168.80000305176</ele>
        <time>2021-08-01T09:22:51.000Z</time>
      </trkpt>
      <trkpt lat="50.54624" lon="5.26074">
        <ele>169</ele>
        <time>2021-08-01T09:22:56.000Z</time>
      </trkpt>
      <trkpt lat="50.54644" lon="5.26096">
        <ele>169.80000305176</ele>
        <time>2021-08-01T09:23:00.000Z</time>
      </trkpt>
      <trkpt lat="50.54683" lon="5.2614">
        <ele>171.60000610352</ele>
        <time>2021-08-01T09:23:08.000Z</time>
      </trkpt>
      <trkpt lat="50.54693" lon="5.26151">
        <ele>171.80000305176</ele>
        <time>2021-08-01T09:23:10.000Z</time>
      </trkpt>
      <trkpt lat="50.54708" lon="5.26167">
        <ele>172</ele>
        <time>2021-08-01T09:23:13.000Z</time>
      </trkpt>
      <trkpt lat="50.54743" lon="5.26207">
        <ele>173.39999389648</ele>
        <time>2021-08-01T09:23:20.000Z</time>
      </trkpt>
      <trkpt lat="50.54783" lon="5.26251">
        <ele>173.80000305176</ele>
        <time>2021-08-01T09:23:28.000Z</time>
      </trkpt>
      <trkpt lat="50.54802" lon="5.26272">
        <ele>174.19999694824</ele>
        <time>2021-08-01T09:23:32.000Z</time>
      </trkpt>
      <trkpt lat="50.54827" lon="5.26299">
        <ele>175.19999694824</ele>
        <time>2021-08-01T09:23:37.000Z</time>
      </trkpt>
      <trkpt lat="50.54848" lon="5.26319">
        <ele>175.60000610352</ele>
        <time>2021-08-01T09:23:41.000Z</time>
      </trkpt>
      <trkpt lat="50.54883" lon="5.26339">
        <ele>176.39999389648</ele>
        <time>2021-08-01T09:23:47.000Z</time>
      </trkpt>
      <trkpt lat="50.54901" lon="5.26343">
        <ele>176.60000610352</ele>
        <time>2021-08-01T09:23:50.000Z</time>
      </trkpt>
      <trkpt lat="50.54937" lon="5.26348">
        <ele>177.19999694824</ele>
        <time>2021-08-01T09:23:56.000Z</time>
      </trkpt>
      <trkpt lat="50.54961" lon="5.26352">
        <ele>177.39999389648</ele>
        <time>2021-08-01T09:24:00.000Z</time>
      </trkpt>
      <trkpt lat="50.54997" lon="5.26357">
        <ele>178.19999694824</ele>
        <time>2021-08-01T09:24:06.000Z</time>
      </trkpt>
      <trkpt lat="50.55057" lon="5.26366">
        <ele>179.60000610352</ele>
        <time>2021-08-01T09:24:16.000Z</time>
      </trkpt>
      <trkpt lat="50.55113" lon="5.26374">
        <ele>180.19999694824</ele>
        <time>2021-08-01T09:24:25.000Z</time>
      </trkpt>
      <trkpt lat="50.5512" lon="5.26374">
        <ele>180.39999389648</ele>
        <time>2021-08-01T09:24:26.000Z</time>
      </trkpt>
      <trkpt lat="50.5517" lon="5.26383">
        <ele>180.60000610352</ele>
        <time>2021-08-01T09:24:34.000Z</time>
      </trkpt>
      <trkpt lat="50.55217" lon="5.26401">
        <ele>180.39999389648</ele>
        <time>2021-08-01T09:24:41.000Z</time>
      </trkpt>
      <trkpt lat="50.55269" lon="5.26435">
        <ele>180</ele>
        <time>2021-08-01T09:24:49.000Z</time>
      </trkpt>
      <trkpt lat="50.55282" lon="5.26443">
        <ele>180</ele>
        <time>2021-08-01T09:24:51.000Z</time>
      </trkpt>
      <trkpt lat="50.55309" lon="5.26461">
        <ele>179.80000305176</ele>
        <time>2021-08-01T09:24:55.000Z</time>
      </trkpt>
      <trkpt lat="50.5533" lon="5.26472">
        <ele>179.80000305176</ele>
        <time>2021-08-01T09:24:58.000Z</time>
      </trkpt>
      <trkpt lat="50.55377" lon="5.26492">
        <ele>179.80000305176</ele>
        <time>2021-08-01T09:25:05.000Z</time>
      </trkpt>
      <trkpt lat="50.55428" lon="5.26508">
        <ele>180.19999694824</ele>
        <time>2021-08-01T09:25:13.000Z</time>
      </trkpt>
      <trkpt lat="50.55479" lon="5.26525">
        <ele>180.39999389648</ele>
        <time>2021-08-01T09:25:21.000Z</time>
      </trkpt>
      <trkpt lat="50.55486" lon="5.26527">
        <ele>180.60000610352</ele>
        <time>2021-08-01T09:25:22.000Z</time>
      </trkpt>
      <trkpt lat="50.55543" lon="5.26547">
        <ele>181</ele>
        <time>2021-08-01T09:25:31.000Z</time>
      </trkpt>
      <trkpt lat="50.55585" lon="5.26561">
        <ele>181.60000610352</ele>
        <time>2021-08-01T09:25:38.000Z</time>
      </trkpt>
      <trkpt lat="50.55602" lon="5.26566">
        <ele>182</ele>
        <time>2021-08-01T09:25:41.000Z</time>
      </trkpt>
      <trkpt lat="50.55626" lon="5.26574">
        <ele>182.80000305176</ele>
        <time>2021-08-01T09:25:45.000Z</time>
      </trkpt>
      <trkpt lat="50.55666" lon="5.26586">
        <ele>184.39999389648</ele>
        <time>2021-08-01T09:25:52.000Z</time>
      </trkpt>
      <trkpt lat="50.55671" lon="5.26588">
        <ele>184.39999389648</ele>
        <time>2021-08-01T09:25:53.000Z</time>
      </trkpt>
      <trkpt lat="50.55706" lon="5.26595">
        <ele>185.39999389648</ele>
        <time>2021-08-01T09:25:59.000Z</time>
      </trkpt>
      <trkpt lat="50.55712" lon="5.26595">
        <ele>185.39999389648</ele>
        <time>2021-08-01T09:26:00.000Z</time>
      </trkpt>
      <trkpt lat="50.5576" lon="5.26593">
        <ele>187</ele>
        <time>2021-08-01T09:26:08.000Z</time>
      </trkpt>
      <trkpt lat="50.5579" lon="5.26595">
        <ele>187.60000610352</ele>
        <time>2021-08-01T09:26:13.000Z</time>
      </trkpt>
      <trkpt lat="50.55803" lon="5.26598">
        <ele>187.80000305176</ele>
        <time>2021-08-01T09:26:15.000Z</time>
      </trkpt>
      <trkpt lat="50.55845" lon="5.26611">
        <ele>188.19999694824</ele>
        <time>2021-08-01T09:26:22.000Z</time>
      </trkpt>
      <trkpt lat="50.55851" lon="5.26612">
        <ele>188.39999389648</ele>
        <time>2021-08-01T09:26:23.000Z</time>
      </trkpt>
      <trkpt lat="50.55874" lon="5.26619">
        <ele>189.19999694824</ele>
        <time>2021-08-01T09:26:27.000Z</time>
      </trkpt>
      <trkpt lat="50.55891" lon="5.26627">
        <ele>189.39999389648</ele>
        <time>2021-08-01T09:26:30.000Z</time>
      </trkpt>
      <trkpt lat="50.55908" lon="5.26636">
        <ele>189.80000305176</ele>
        <time>2021-08-01T09:26:33.000Z</time>
      </trkpt>
      <trkpt lat="50.55931" lon="5.26649">
        <ele>190.80000305176</ele>
        <time>2021-08-01T09:26:37.000Z</time>
      </trkpt>
      <trkpt lat="50.55948" lon="5.26658">
        <ele>191.19999694824</ele>
        <time>2021-08-01T09:26:40.000Z</time>
      </trkpt>
      <trkpt lat="50.55971" lon="5.26671">
        <ele>191.80000305176</ele>
        <time>2021-08-01T09:26:44.000Z</time>
      </trkpt>
      <trkpt lat="50.55982" lon="5.26677">
        <ele>192.19999694824</ele>
        <time>2021-08-01T09:26:46.000Z</time>
      </trkpt>
      <trkpt lat="50.55994" lon="5.26683">
        <ele>192.39999389648</ele>
        <time>2021-08-01T09:26:48.000Z</time>
      </trkpt>
      <trkpt lat="50.55999" lon="5.26686">
        <ele>192.80000305176</ele>
        <time>2021-08-01T09:26:49.000Z</time>
      </trkpt>
      <trkpt lat="50.56052" lon="5.26714">
        <ele>194</ele>
        <time>2021-08-01T09:26:58.000Z</time>
      </trkpt>
      <trkpt lat="50.56064" lon="5.26719">
        <ele>194.19999694824</ele>
        <time>2021-08-01T09:27:00.000Z</time>
      </trkpt>
      <trkpt lat="50.56089" lon="5.26725">
        <ele>194.19999694824</ele>
        <time>2021-08-01T09:27:04.000Z</time>
      </trkpt>
      <trkpt lat="50.56102" lon="5.26727">
        <ele>194.19999694824</ele>
        <time>2021-08-01T09:27:06.000Z</time>
      </trkpt>
      <trkpt lat="50.56127" lon="5.26727">
        <ele>194.19999694824</ele>
        <time>2021-08-01T09:27:10.000Z</time>
      </trkpt>
      <trkpt lat="50.56186" lon="5.26727">
        <ele>195.19999694824</ele>
        <time>2021-08-01T09:27:19.000Z</time>
      </trkpt>
      <trkpt lat="50.56199" lon="5.26728">
        <ele>195.19999694824</ele>
        <time>2021-08-01T09:27:21.000Z</time>
      </trkpt>
      <trkpt lat="50.56244" lon="5.26737">
        <ele>195.39999389648</ele>
        <time>2021-08-01T09:27:28.000Z</time>
      </trkpt>
      <trkpt lat="50.56291" lon="5.26751">
        <ele>195.39999389648</ele>
        <time>2021-08-01T09:27:35.000Z</time>
      </trkpt>
      <trkpt lat="50.56327" lon="5.26762">
        <ele>195.19999694824</ele>
        <time>2021-08-01T09:27:40.000Z</time>
      </trkpt>
      <trkpt lat="50.5635" lon="5.26771">
        <ele>194.80000305176</ele>
        <time>2021-08-01T09:27:43.000Z</time>
      </trkpt>
      <trkpt lat="50.56366" lon="5.26779">
        <ele>194.60000610352</ele>
        <time>2021-08-01T09:27:45.000Z</time>
      </trkpt>
      <trkpt lat="50.56398" lon="5.26801">
        <ele>193.19999694824</ele>
        <time>2021-08-01T09:27:49.000Z</time>
      </trkpt>
      <trkpt lat="50.56423" lon="5.26818">
        <ele>192.39999389648</ele>
        <time>2021-08-01T09:27:52.000Z</time>
      </trkpt>
      <trkpt lat="50.56472" lon="5.26852">
        <ele>190.60000610352</ele>
        <time>2021-08-01T09:27:58.000Z</time>
      </trkpt>
      <trkpt lat="50.56521" lon="5.26899">
        <ele>188.80000305176</ele>
        <time>2021-08-01T09:28:05.000Z</time>
      </trkpt>
      <trkpt lat="50.56553" lon="5.2694">
        <ele>188</ele>
        <time>2021-08-01T09:28:10.000Z</time>
      </trkpt>
      <trkpt lat="50.56559" lon="5.26949">
        <ele>187.80000305176</ele>
        <time>2021-08-01T09:28:11.000Z</time>
      </trkpt>
      <trkpt lat="50.56582" lon="5.26988">
        <ele>187.60000610352</ele>
        <time>2021-08-01T09:28:15.000Z</time>
      </trkpt>
      <trkpt lat="50.566" lon="5.27015">
        <ele>187.39999389648</ele>
        <time>2021-08-01T09:28:18.000Z</time>
      </trkpt>
      <trkpt lat="50.56607" lon="5.27022">
        <ele>187.19999694824</ele>
        <time>2021-08-01T09:28:19.000Z</time>
      </trkpt>
      <trkpt lat="50.56623" lon="5.27032">
        <ele>186.60000610352</ele>
        <time>2021-08-01T09:28:21.000Z</time>
      </trkpt>
      <trkpt lat="50.56656" lon="5.27044">
        <ele>186</ele>
        <time>2021-08-01T09:28:25.000Z</time>
      </trkpt>
      <trkpt lat="50.56673" lon="5.27051">
        <ele>185.60000610352</ele>
        <time>2021-08-01T09:28:27.000Z</time>
      </trkpt>
      <trkpt lat="50.56717" lon="5.27065">
        <ele>185.19999694824</ele>
        <time>2021-08-01T09:28:33.000Z</time>
      </trkpt>
      <trkpt lat="50.5673" lon="5.27068">
        <ele>185.19999694824</ele>
        <time>2021-08-01T09:28:35.000Z</time>
      </trkpt>
      <trkpt lat="50.56743" lon="5.27065">
        <ele>185.19999694824</ele>
        <time>2021-08-01T09:28:37.000Z</time>
      </trkpt>
      <trkpt lat="50.56755" lon="5.27056">
        <ele>185.19999694824</ele>
        <time>2021-08-01T09:28:39.000Z</time>
      </trkpt>
      <trkpt lat="50.56761" lon="5.2705">
        <ele>185.19999694824</ele>
        <time>2021-08-01T09:28:40.000Z</time>
      </trkpt>
      <trkpt lat="50.56766" lon="5.27042">
        <ele>185.39999389648</ele>
        <time>2021-08-01T09:28:41.000Z</time>
      </trkpt>
      <trkpt lat="50.5678" lon="5.27017">
        <ele>186.19999694824</ele>
        <time>2021-08-01T09:28:44.000Z</time>
      </trkpt>
      <trkpt lat="50.56803" lon="5.26975">
        <ele>186.80000305176</ele>
        <time>2021-08-01T09:28:49.000Z</time>
      </trkpt>
      <trkpt lat="50.56811" lon="5.26959">
        <ele>186.80000305176</ele>
        <time>2021-08-01T09:28:51.000Z</time>
      </trkpt>
      <trkpt lat="50.5682" lon="5.26943">
        <ele>186.80000305176</ele>
        <time>2021-08-01T09:28:53.000Z</time>
      </trkpt>
      <trkpt lat="50.56834" lon="5.26921">
        <ele>187</ele>
        <time>2021-08-01T09:28:56.000Z</time>
      </trkpt>
      <trkpt lat="50.56848" lon="5.26896">
        <ele>187.19999694824</ele>
        <time>2021-08-01T09:28:59.000Z</time>
      </trkpt>
      <trkpt lat="50.56858" lon="5.2688">
        <ele>186.80000305176</ele>
        <time>2021-08-01T09:29:01.000Z</time>
      </trkpt>
      <trkpt lat="50.56887" lon="5.26827">
        <ele>186.39999389648</ele>
        <time>2021-08-01T09:29:07.000Z</time>
      </trkpt>
      <trkpt lat="50.56921" lon="5.26772">
        <ele>185.80000305176</ele>
        <time>2021-08-01T09:29:14.000Z</time>
      </trkpt>
      <trkpt lat="50.56926" lon="5.26764">
        <ele>186</ele>
        <time>2021-08-01T09:29:15.000Z</time>
      </trkpt>
      <trkpt lat="50.56946" lon="5.26735">
        <ele>185.80000305176</ele>
        <time>2021-08-01T09:29:19.000Z</time>
      </trkpt>
      <trkpt lat="50.56955" lon="5.2672">
        <ele>185.80000305176</ele>
        <time>2021-08-01T09:29:21.000Z</time>
      </trkpt>
      <trkpt lat="50.56964" lon="5.26705">
        <ele>186.19999694824</ele>
        <time>2021-08-01T09:29:23.000Z</time>
      </trkpt>
      <trkpt lat="50.56994" lon="5.26646">
        <ele>186.60000610352</ele>
        <time>2021-08-01T09:29:30.000Z</time>
      </trkpt>
      <trkpt lat="50.57017" lon="5.26606">
        <ele>187.19999694824</ele>
        <time>2021-08-01T09:29:35.000Z</time>
      </trkpt>
      <trkpt lat="50.57046" lon="5.26577">
        <ele>187.39999389648</ele>
        <time>2021-08-01T09:29:40.000Z</time>
      </trkpt>
      <trkpt lat="50.57094" lon="5.26533">
        <ele>187.39999389648</ele>
        <time>2021-08-01T09:29:48.000Z</time>
      </trkpt>
      <trkpt lat="50.57099" lon="5.26527">
        <ele>187.60000610352</ele>
        <time>2021-08-01T09:29:49.000Z</time>
      </trkpt>
      <trkpt lat="50.57105" lon="5.26521">
        <ele>187.60000610352</ele>
        <time>2021-08-01T09:29:50.000Z</time>
      </trkpt>
      <trkpt lat="50.57136" lon="5.26495">
        <ele>187.60000610352</ele>
        <time>2021-08-01T09:29:55.000Z</time>
      </trkpt>
      <trkpt lat="50.57184" lon="5.26452">
        <ele>187.80000305176</ele>
        <time>2021-08-01T09:30:03.000Z</time>
      </trkpt>
      <trkpt lat="50.57232" lon="5.2641">
        <ele>188.39999389648</ele>
        <time>2021-08-01T09:30:11.000Z</time>
      </trkpt>
      <trkpt lat="50.57238" lon="5.26404">
        <ele>188.60000610352</ele>
        <time>2021-08-01T09:30:12.000Z</time>
      </trkpt>
      <trkpt lat="50.57287" lon="5.2636">
        <ele>188.60000610352</ele>
        <time>2021-08-01T09:30:20.000Z</time>
      </trkpt>
      <trkpt lat="50.573" lon="5.26349">
        <ele>188.80000305176</ele>
        <time>2021-08-01T09:30:22.000Z</time>
      </trkpt>
      <trkpt lat="50.57319" lon="5.26331">
        <ele>188.60000610352</ele>
        <time>2021-08-01T09:30:25.000Z</time>
      </trkpt>
      <trkpt lat="50.57352" lon="5.26301">
        <ele>188.60000610352</ele>
        <time>2021-08-01T09:30:30.000Z</time>
      </trkpt>
      <trkpt lat="50.57373" lon="5.26283">
        <ele>188.39999389648</ele>
        <time>2021-08-01T09:30:33.000Z</time>
      </trkpt>
      <trkpt lat="50.57421" lon="5.26238">
        <ele>187.39999389648</ele>
        <time>2021-08-01T09:30:40.000Z</time>
      </trkpt>
      <trkpt lat="50.57452" lon="5.26207">
        <ele>187</ele>
        <time>2021-08-01T09:30:45.000Z</time>
      </trkpt>
      <trkpt lat="50.5747" lon="5.26189">
        <ele>186.80000305176</ele>
        <time>2021-08-01T09:30:48.000Z</time>
      </trkpt>
      <trkpt lat="50.57476" lon="5.26183">
        <ele>186.80000305176</ele>
        <time>2021-08-01T09:30:49.000Z</time>
      </trkpt>
      <trkpt lat="50.57523" lon="5.26137">
        <ele>188</ele>
        <time>2021-08-01T09:30:57.000Z</time>
      </trkpt>
      <trkpt lat="50.57528" lon="5.26131">
        <ele>188.19999694824</ele>
        <time>2021-08-01T09:30:58.000Z</time>
      </trkpt>
      <trkpt lat="50.57534" lon="5.26125">
        <ele>188.39999389648</ele>
        <time>2021-08-01T09:30:59.000Z</time>
      </trkpt>
      <trkpt lat="50.57577" lon="5.26085">
        <ele>189.39999389648</ele>
        <time>2021-08-01T09:31:07.000Z</time>
      </trkpt>
      <trkpt lat="50.57588" lon="5.26074">
        <ele>189.80000305176</ele>
        <time>2021-08-01T09:31:09.000Z</time>
      </trkpt>
      <trkpt lat="50.57628" lon="5.26039">
        <ele>190.39999389648</ele>
        <time>2021-08-01T09:31:16.000Z</time>
      </trkpt>
      <trkpt lat="50.57655" lon="5.26015">
        <ele>190.60000610352</ele>
        <time>2021-08-01T09:31:20.000Z</time>
      </trkpt>
      <trkpt lat="50.57668" lon="5.26003">
        <ele>190.60000610352</ele>
        <time>2021-08-01T09:31:22.000Z</time>
      </trkpt>
      <trkpt lat="50.57682" lon="5.25991">
        <ele>190.60000610352</ele>
        <time>2021-08-01T09:31:24.000Z</time>
      </trkpt>
      <trkpt lat="50.57709" lon="5.25967">
        <ele>189.80000305176</ele>
        <time>2021-08-01T09:31:28.000Z</time>
      </trkpt>
      <trkpt lat="50.57736" lon="5.25944">
        <ele>188.60000610352</ele>
        <time>2021-08-01T09:31:32.000Z</time>
      </trkpt>
      <trkpt lat="50.57756" lon="5.25926">
        <ele>188</ele>
        <time>2021-08-01T09:31:35.000Z</time>
      </trkpt>
      <trkpt lat="50.57763" lon="5.2592">
        <ele>187.39999389648</ele>
        <time>2021-08-01T09:31:36.000Z</time>
      </trkpt>
      <trkpt lat="50.57795" lon="5.25892">
        <ele>186.60000610352</ele>
        <time>2021-08-01T09:31:41.000Z</time>
      </trkpt>
      <trkpt lat="50.57838" lon="5.25867">
        <ele>186.39999389648</ele>
        <time>2021-08-01T09:31:47.000Z</time>
      </trkpt>
      <trkpt lat="50.57896" lon="5.25841">
        <ele>186.60000610352</ele>
        <time>2021-08-01T09:31:55.000Z</time>
      </trkpt>
      <trkpt lat="50.57917" lon="5.25832">
        <ele>186.80000305176</ele>
        <time>2021-08-01T09:31:58.000Z</time>
      </trkpt>
      <trkpt lat="50.57967" lon="5.25811">
        <ele>187.19999694824</ele>
        <time>2021-08-01T09:32:05.000Z</time>
      </trkpt>
      <trkpt lat="50.58011" lon="5.258">
        <ele>187.39999389648</ele>
        <time>2021-08-01T09:32:11.000Z</time>
      </trkpt>
      <trkpt lat="50.58057" lon="5.25804">
        <ele>187.39999389648</ele>
        <time>2021-08-01T09:32:17.000Z</time>
      </trkpt>
      <trkpt lat="50.58072" lon="5.25808">
        <ele>187.60000610352</ele>
        <time>2021-08-01T09:32:19.000Z</time>
      </trkpt>
      <trkpt lat="50.58109" lon="5.25823">
        <ele>187.80000305176</ele>
        <time>2021-08-01T09:32:24.000Z</time>
      </trkpt>
      <trkpt lat="50.58159" lon="5.25857">
        <ele>188.19999694824</ele>
        <time>2021-08-01T09:32:31.000Z</time>
      </trkpt>
      <trkpt lat="50.58167" lon="5.25863">
        <ele>188.19999694824</ele>
        <time>2021-08-01T09:32:32.000Z</time>
      </trkpt>
      <trkpt lat="50.58188" lon="5.2588">
        <ele>188.19999694824</ele>
        <time>2021-08-01T09:32:35.000Z</time>
      </trkpt>
      <trkpt lat="50.58203" lon="5.25891">
        <ele>188</ele>
        <time>2021-08-01T09:32:37.000Z</time>
      </trkpt>
      <trkpt lat="50.58247" lon="5.25925">
        <ele>187.39999389648</ele>
        <time>2021-08-01T09:32:43.000Z</time>
      </trkpt>
      <trkpt lat="50.58292" lon="5.2596">
        <ele>186.60000610352</ele>
        <time>2021-08-01T09:32:49.000Z</time>
      </trkpt>
      <trkpt lat="50.58314" lon="5.25978">
        <ele>186.39999389648</ele>
        <time>2021-08-01T09:32:52.000Z</time>
      </trkpt>
      <trkpt lat="50.5836" lon="5.26013">
        <ele>185.60000610352</ele>
        <time>2021-08-01T09:32:58.000Z</time>
      </trkpt>
      <trkpt lat="50.58398" lon="5.26043">
        <ele>184.80000305176</ele>
        <time>2021-08-01T09:33:03.000Z</time>
      </trkpt>
      <trkpt lat="50.58421" lon="5.26061">
        <ele>184.39999389648</ele>
        <time>2021-08-01T09:33:06.000Z</time>
      </trkpt>
      <trkpt lat="50.58443" lon="5.26078">
        <ele>184</ele>
        <time>2021-08-01T09:33:09.000Z</time>
      </trkpt>
      <trkpt lat="50.58474" lon="5.26102">
        <ele>183.80000305176</ele>
        <time>2021-08-01T09:33:13.000Z</time>
      </trkpt>
      <trkpt lat="50.58481" lon="5.26107">
        <ele>183.80000305176</ele>
        <time>2021-08-01T09:33:14.000Z</time>
      </trkpt>
      <trkpt lat="50.58533" lon="5.26147">
        <ele>183</ele>
        <time>2021-08-01T09:33:21.000Z</time>
      </trkpt>
      <trkpt lat="50.58554" lon="5.26163">
        <ele>182.80000305176</ele>
        <time>2021-08-01T09:33:24.000Z</time>
      </trkpt>
      <trkpt lat="50.58571" lon="5.26179">
        <ele>182.60000610352</ele>
        <time>2021-08-01T09:33:27.000Z</time>
      </trkpt>
      <trkpt lat="50.58576" lon="5.26184">
        <ele>182.60000610352</ele>
        <time>2021-08-01T09:33:28.000Z</time>
      </trkpt>
      <trkpt lat="50.58583" lon="5.26196">
        <ele>182.60000610352</ele>
        <time>2021-08-01T09:33:30.000Z</time>
      </trkpt>
      <trkpt lat="50.58585" lon="5.26203">
        <ele>182.60000610352</ele>
        <time>2021-08-01T09:33:31.000Z</time>
      </trkpt>
      <trkpt lat="50.58586" lon="5.2621">
        <ele>182.60000610352</ele>
        <time>2021-08-01T09:33:32.000Z</time>
      </trkpt>
      <trkpt lat="50.58585" lon="5.26226">
        <ele>183.60000610352</ele>
        <time>2021-08-01T09:33:34.000Z</time>
      </trkpt>
      <trkpt lat="50.58583" lon="5.26243">
        <ele>183.80000305176</ele>
        <time>2021-08-01T09:33:36.000Z</time>
      </trkpt>
      <trkpt lat="50.58585" lon="5.26261">
        <ele>184</ele>
        <time>2021-08-01T09:33:38.000Z</time>
      </trkpt>
      <trkpt lat="50.58594" lon="5.26275">
        <ele>184.39999389648</ele>
        <time>2021-08-01T09:33:40.000Z</time>
      </trkpt>
      <trkpt lat="50.586" lon="5.26278">
        <ele>184.39999389648</ele>
        <time>2021-08-01T09:33:41.000Z</time>
      </trkpt>
      <trkpt lat="50.58606" lon="5.26277">
        <ele>184.39999389648</ele>
        <time>2021-08-01T09:33:42.000Z</time>
      </trkpt>
      <trkpt lat="50.58612" lon="5.26273">
        <ele>184.39999389648</ele>
        <time>2021-08-01T09:33:43.000Z</time>
      </trkpt>
      <trkpt lat="50.58618" lon="5.26267">
        <ele>184.39999389648</ele>
        <time>2021-08-01T09:33:44.000Z</time>
      </trkpt>
      <trkpt lat="50.5863" lon="5.26257">
        <ele>184.39999389648</ele>
        <time>2021-08-01T09:33:46.000Z</time>
      </trkpt>
      <trkpt lat="50.58645" lon="5.26249">
        <ele>184.39999389648</ele>
        <time>2021-08-01T09:33:48.000Z</time>
      </trkpt>
      <trkpt lat="50.58677" lon="5.26241">
        <ele>183.80000305176</ele>
        <time>2021-08-01T09:33:52.000Z</time>
      </trkpt>
      <trkpt lat="50.58685" lon="5.26239">
        <ele>184</ele>
        <time>2021-08-01T09:33:53.000Z</time>
      </trkpt>
      <trkpt lat="50.58729" lon="5.26235">
        <ele>183.39999389648</ele>
        <time>2021-08-01T09:33:59.000Z</time>
      </trkpt>
      <trkpt lat="50.58767" lon="5.26234">
        <ele>183.19999694824</ele>
        <time>2021-08-01T09:34:05.000Z</time>
      </trkpt>
      <trkpt lat="50.58791" lon="5.26234">
        <ele>183.80000305176</ele>
        <time>2021-08-01T09:34:09.000Z</time>
      </trkpt>
      <trkpt lat="50.58828" lon="5.26234">
        <ele>185</ele>
        <time>2021-08-01T09:34:15.000Z</time>
      </trkpt>
      <trkpt lat="50.58859" lon="5.26234">
        <ele>185.80000305176</ele>
        <time>2021-08-01T09:34:20.000Z</time>
      </trkpt>
      <trkpt lat="50.58865" lon="5.26234">
        <ele>186</ele>
        <time>2021-08-01T09:34:21.000Z</time>
      </trkpt>
      <trkpt lat="50.58902" lon="5.26233">
        <ele>187.19999694824</ele>
        <time>2021-08-01T09:34:27.000Z</time>
      </trkpt>
      <trkpt lat="50.58921" lon="5.26233">
        <ele>187.80000305176</ele>
        <time>2021-08-01T09:34:30.000Z</time>
      </trkpt>
      <trkpt lat="50.58928" lon="5.26233">
        <ele>188.19999694824</ele>
        <time>2021-08-01T09:34:31.000Z</time>
      </trkpt>
      <trkpt lat="50.58978" lon="5.2623">
        <ele>190</ele>
        <time>2021-08-01T09:34:39.000Z</time>
      </trkpt>
      <trkpt lat="50.58985" lon="5.2623">
        <ele>190.19999694824</ele>
        <time>2021-08-01T09:34:40.000Z</time>
      </trkpt>
      <trkpt lat="50.59029" lon="5.26228">
        <ele>191.60000610352</ele>
        <time>2021-08-01T09:34:47.000Z</time>
      </trkpt>
      <trkpt lat="50.5908" lon="5.26228">
        <ele>192.39999389648</ele>
        <time>2021-08-01T09:34:55.000Z</time>
      </trkpt>
      <trkpt lat="50.59119" lon="5.26228">
        <ele>192.39999389648</ele>
        <time>2021-08-01T09:35:01.000Z</time>
      </trkpt>
      <trkpt lat="50.5914" lon="5.26228">
        <ele>192.19999694824</ele>
        <time>2021-08-01T09:35:04.000Z</time>
      </trkpt>
      <trkpt lat="50.59169" lon="5.26227">
        <ele>192</ele>
        <time>2021-08-01T09:35:08.000Z</time>
      </trkpt>
      <trkpt lat="50.59177" lon="5.26227">
        <ele>191.80000305176</ele>
        <time>2021-08-01T09:35:09.000Z</time>
      </trkpt>
      <trkpt lat="50.59235" lon="5.26231">
        <ele>190</ele>
        <time>2021-08-01T09:35:17.000Z</time>
      </trkpt>
      <trkpt lat="50.59257" lon="5.26243">
        <ele>188.60000610352</ele>
        <time>2021-08-01T09:35:20.000Z</time>
      </trkpt>
      <trkpt lat="50.59264" lon="5.26243">
        <ele>188.39999389648</ele>
        <time>2021-08-01T09:35:21.000Z</time>
      </trkpt>
      <trkpt lat="50.59272" lon="5.26239">
        <ele>188.39999389648</ele>
        <time>2021-08-01T09:35:22.000Z</time>
      </trkpt>
      <trkpt lat="50.59279" lon="5.26234">
        <ele>188</ele>
        <time>2021-08-01T09:35:23.000Z</time>
      </trkpt>
      <trkpt lat="50.59288" lon="5.2623">
        <ele>188</ele>
        <time>2021-08-01T09:35:24.000Z</time>
      </trkpt>
      <trkpt lat="50.59306" lon="5.26228">
        <ele>187.60000610352</ele>
        <time>2021-08-01T09:35:26.000Z</time>
      </trkpt>
      <trkpt lat="50.59361" lon="5.26228">
        <ele>186.19999694824</ele>
        <time>2021-08-01T09:35:32.000Z</time>
      </trkpt>
      <trkpt lat="50.59396" lon="5.26228">
        <ele>185</ele>
        <time>2021-08-01T09:35:36.000Z</time>
      </trkpt>
      <trkpt lat="50.5942" lon="5.26227">
        <ele>185</ele>
        <time>2021-08-01T09:35:39.000Z</time>
      </trkpt>
      <trkpt lat="50.59451" lon="5.26227">
        <ele>185</ele>
        <time>2021-08-01T09:35:43.000Z</time>
      </trkpt>
      <trkpt lat="50.59466" lon="5.26227">
        <ele>185.19999694824</ele>
        <time>2021-08-01T09:35:45.000Z</time>
      </trkpt>
      <trkpt lat="50.59527" lon="5.26227">
        <ele>186.39999389648</ele>
        <time>2021-08-01T09:35:53.000Z</time>
      </trkpt>
      <trkpt lat="50.59542" lon="5.26227">
        <ele>187.19999694824</ele>
        <time>2021-08-01T09:35:55.000Z</time>
      </trkpt>
      <trkpt lat="50.59558" lon="5.26226">
        <ele>187.39999389648</ele>
        <time>2021-08-01T09:35:57.000Z</time>
      </trkpt>
      <trkpt lat="50.5961" lon="5.26231">
        <ele>188</ele>
        <time>2021-08-01T09:36:04.000Z</time>
      </trkpt>
      <trkpt lat="50.59624" lon="5.26235">
        <ele>188.19999694824</ele>
        <time>2021-08-01T09:36:06.000Z</time>
      </trkpt>
      <trkpt lat="50.59659" lon="5.26253">
        <ele>189</ele>
        <time>2021-08-01T09:36:11.000Z</time>
      </trkpt>
      <trkpt lat="50.59717" lon="5.26285">
        <ele>189.19999694824</ele>
        <time>2021-08-01T09:36:19.000Z</time>
      </trkpt>
      <trkpt lat="50.59724" lon="5.26289">
        <ele>189.19999694824</ele>
        <time>2021-08-01T09:36:20.000Z</time>
      </trkpt>
      <trkpt lat="50.59754" lon="5.26305">
        <ele>189</ele>
        <time>2021-08-01T09:36:24.000Z</time>
      </trkpt>
      <trkpt lat="50.59806" lon="5.26334">
        <ele>188.60000610352</ele>
        <time>2021-08-01T09:36:31.000Z</time>
      </trkpt>
      <trkpt lat="50.59814" lon="5.26338">
        <ele>188.60000610352</ele>
        <time>2021-08-01T09:36:32.000Z</time>
      </trkpt>
      <trkpt lat="50.59867" lon="5.26367">
        <ele>188.19999694824</ele>
        <time>2021-08-01T09:36:39.000Z</time>
      </trkpt>
      <trkpt lat="50.59875" lon="5.26371">
        <ele>188.39999389648</ele>
        <time>2021-08-01T09:36:40.000Z</time>
      </trkpt>
      <trkpt lat="50.59897" lon="5.26384">
        <ele>188.19999694824</ele>
        <time>2021-08-01T09:36:43.000Z</time>
      </trkpt>
      <trkpt lat="50.59913" lon="5.26392">
        <ele>188</ele>
        <time>2021-08-01T09:36:45.000Z</time>
      </trkpt>
      <trkpt lat="50.59966" lon="5.26422">
        <ele>188.39999389648</ele>
        <time>2021-08-01T09:36:52.000Z</time>
      </trkpt>
      <trkpt lat="50.59981" lon="5.2643">
        <ele>188.19999694824</ele>
        <time>2021-08-01T09:36:54.000Z</time>
      </trkpt>
      <trkpt lat="50.60002" lon="5.26442">
        <ele>188.19999694824</ele>
        <time>2021-08-01T09:36:57.000Z</time>
      </trkpt>
      <trkpt lat="50.60016" lon="5.26449">
        <ele>188.39999389648</ele>
        <time>2021-08-01T09:36:59.000Z</time>
      </trkpt>
      <trkpt lat="50.60036" lon="5.26461">
        <ele>188.39999389648</ele>
        <time>2021-08-01T09:37:02.000Z</time>
      </trkpt>
      <trkpt lat="50.60088" lon="5.26489">
        <ele>188.80000305176</ele>
        <time>2021-08-01T09:37:09.000Z</time>
      </trkpt>
      <trkpt lat="50.60096" lon="5.26493">
        <ele>188.60000610352</ele>
        <time>2021-08-01T09:37:10.000Z</time>
      </trkpt>
      <trkpt lat="50.60148" lon="5.26521">
        <ele>188.80000305176</ele>
        <time>2021-08-01T09:37:17.000Z</time>
      </trkpt>
      <trkpt lat="50.60177" lon="5.26537">
        <ele>188.60000610352</ele>
        <time>2021-08-01T09:37:21.000Z</time>
      </trkpt>
      <trkpt lat="50.60184" lon="5.26541">
        <ele>188.60000610352</ele>
        <time>2021-08-01T09:37:22.000Z</time>
      </trkpt>
      <trkpt lat="50.60221" lon="5.26561">
        <ele>188.19999694824</ele>
        <time>2021-08-01T09:37:27.000Z</time>
      </trkpt>
      <trkpt lat="50.60251" lon="5.26577">
        <ele>187.60000610352</ele>
        <time>2021-08-01T09:37:31.000Z</time>
      </trkpt>
      <trkpt lat="50.60305" lon="5.26606">
        <ele>186.39999389648</ele>
        <time>2021-08-01T09:37:38.000Z</time>
      </trkpt>
      <trkpt lat="50.60337" lon="5.26624">
        <ele>186</ele>
        <time>2021-08-01T09:37:42.000Z</time>
      </trkpt>
      <trkpt lat="50.60369" lon="5.26641">
        <ele>185.60000610352</ele>
        <time>2021-08-01T09:37:46.000Z</time>
      </trkpt>
      <trkpt lat="50.60409" lon="5.26663">
        <ele>184.80000305176</ele>
        <time>2021-08-01T09:37:51.000Z</time>
      </trkpt>
      <trkpt lat="50.60417" lon="5.26667">
        <ele>184.80000305176</ele>
        <time>2021-08-01T09:37:52.000Z</time>
      </trkpt>
      <trkpt lat="50.60458" lon="5.26689">
        <ele>184.19999694824</ele>
        <time>2021-08-01T09:37:57.000Z</time>
      </trkpt>
      <trkpt lat="50.60491" lon="5.26704">
        <ele>183.39999389648</ele>
        <time>2021-08-01T09:38:01.000Z</time>
      </trkpt>
      <trkpt lat="50.60516" lon="5.2671">
        <ele>182.80000305176</ele>
        <time>2021-08-01T09:38:04.000Z</time>
      </trkpt>
      <trkpt lat="50.60533" lon="5.26711">
        <ele>182.19999694824</ele>
        <time>2021-08-01T09:38:06.000Z</time>
      </trkpt>
      <trkpt lat="50.60583" lon="5.26702">
        <ele>181.39999389648</ele>
        <time>2021-08-01T09:38:12.000Z</time>
      </trkpt>
      <trkpt lat="50.60632" lon="5.26684">
        <ele>180.60000610352</ele>
        <time>2021-08-01T09:38:18.000Z</time>
      </trkpt>
      <trkpt lat="50.60656" lon="5.26675">
        <ele>180.19999694824</ele>
        <time>2021-08-01T09:38:21.000Z</time>
      </trkpt>
      <trkpt lat="50.60711" lon="5.26654">
        <ele>180</ele>
        <time>2021-08-01T09:38:28.000Z</time>
      </trkpt>
      <trkpt lat="50.60758" lon="5.26636">
        <ele>179.60000610352</ele>
        <time>2021-08-01T09:38:34.000Z</time>
      </trkpt>
      <trkpt lat="50.60805" lon="5.26618">
        <ele>179.39999389648</ele>
        <time>2021-08-01T09:38:40.000Z</time>
      </trkpt>
      <trkpt lat="50.60828" lon="5.26609">
        <ele>179.19999694824</ele>
        <time>2021-08-01T09:38:43.000Z</time>
      </trkpt>
      <trkpt lat="50.60836" lon="5.26606">
        <ele>179.19999694824</ele>
        <time>2021-08-01T09:38:44.000Z</time>
      </trkpt>
      <trkpt lat="50.60878" lon="5.2659">
        <ele>178.80000305176</ele>
        <time>2021-08-01T09:38:49.000Z</time>
      </trkpt>
      <trkpt lat="50.60886" lon="5.26587">
        <ele>178.60000610352</ele>
        <time>2021-08-01T09:38:50.000Z</time>
      </trkpt>
      <trkpt lat="50.60895" lon="5.26584">
        <ele>178.39999389648</ele>
        <time>2021-08-01T09:38:51.000Z</time>
      </trkpt>
      <trkpt lat="50.60904" lon="5.26581">
        <ele>178.19999694824</ele>
        <time>2021-08-01T09:38:52.000Z</time>
      </trkpt>
      <trkpt lat="50.60946" lon="5.26567">
        <ele>176.39999389648</ele>
        <time>2021-08-01T09:38:57.000Z</time>
      </trkpt>
      <trkpt lat="50.60963" lon="5.26562">
        <ele>175.80000305176</ele>
        <time>2021-08-01T09:38:59.000Z</time>
      </trkpt>
      <trkpt lat="50.60989" lon="5.26558">
        <ele>175.39999389648</ele>
        <time>2021-08-01T09:39:02.000Z</time>
      </trkpt>
      <trkpt lat="50.61022" lon="5.26552">
        <ele>174.39999389648</ele>
        <time>2021-08-01T09:39:06.000Z</time>
      </trkpt>
      <trkpt lat="50.6108" lon="5.26545">
        <ele>173.60000610352</ele>
        <time>2021-08-01T09:39:13.000Z</time>
      </trkpt>
      <trkpt lat="50.61138" lon="5.26536">
        <ele>173.19999694824</ele>
        <time>2021-08-01T09:39:20.000Z</time>
      </trkpt>
      <trkpt lat="50.61188" lon="5.26529">
        <ele>172.80000305176</ele>
        <time>2021-08-01T09:39:26.000Z</time>
      </trkpt>
      <trkpt lat="50.61205" lon="5.26526">
        <ele>172.80000305176</ele>
        <time>2021-08-01T09:39:28.000Z</time>
      </trkpt>
      <trkpt lat="50.61213" lon="5.26525">
        <ele>172.80000305176</ele>
        <time>2021-08-01T09:39:29.000Z</time>
      </trkpt>
      <trkpt lat="50.6123" lon="5.26523">
        <ele>172.60000610352</ele>
        <time>2021-08-01T09:39:31.000Z</time>
      </trkpt>
      <trkpt lat="50.61264" lon="5.26519">
        <ele>172.39999389648</ele>
        <time>2021-08-01T09:39:35.000Z</time>
      </trkpt>
      <trkpt lat="50.61323" lon="5.2652">
        <ele>172.19999694824</ele>
        <time>2021-08-01T09:39:42.000Z</time>
      </trkpt>
      <trkpt lat="50.61339" lon="5.26521">
        <ele>172.19999694824</ele>
        <time>2021-08-01T09:39:44.000Z</time>
      </trkpt>
      <trkpt lat="50.61346" lon="5.2652">
        <ele>172.19999694824</ele>
        <time>2021-08-01T09:39:45.000Z</time>
      </trkpt>
      <trkpt lat="50.6136" lon="5.26519">
        <ele>172</ele>
        <time>2021-08-01T09:39:47.000Z</time>
      </trkpt>
      <trkpt lat="50.61367" lon="5.2652">
        <ele>172.19999694824</ele>
        <time>2021-08-01T09:39:48.000Z</time>
      </trkpt>
      <trkpt lat="50.61396" lon="5.26523">
        <ele>172.19999694824</ele>
        <time>2021-08-01T09:39:52.000Z</time>
      </trkpt>
      <trkpt lat="50.61404" lon="5.26523">
        <ele>172.19999694824</ele>
        <time>2021-08-01T09:39:53.000Z</time>
      </trkpt>
      <trkpt lat="50.61413" lon="5.26523">
        <ele>172.19999694824</ele>
        <time>2021-08-01T09:39:54.000Z</time>
      </trkpt>
      <trkpt lat="50.6143" lon="5.26524">
        <ele>172.19999694824</ele>
        <time>2021-08-01T09:39:56.000Z</time>
      </trkpt>
      <trkpt lat="50.61439" lon="5.26524">
        <ele>172.19999694824</ele>
        <time>2021-08-01T09:39:57.000Z</time>
      </trkpt>
      <trkpt lat="50.61448" lon="5.26525">
        <ele>172.19999694824</ele>
        <time>2021-08-01T09:39:58.000Z</time>
      </trkpt>
      <trkpt lat="50.6151" lon="5.26527">
        <ele>172.19999694824</ele>
        <time>2021-08-01T09:40:05.000Z</time>
      </trkpt>
      <trkpt lat="50.61544" lon="5.26529">
        <ele>172.39999389648</ele>
        <time>2021-08-01T09:40:09.000Z</time>
      </trkpt>
      <trkpt lat="50.61553" lon="5.26529">
        <ele>172.60000610352</ele>
        <time>2021-08-01T09:40:10.000Z</time>
      </trkpt>
      <trkpt lat="50.61601" lon="5.2653">
        <ele>172.80000305176</ele>
        <time>2021-08-01T09:40:16.000Z</time>
      </trkpt>
      <trkpt lat="50.6161" lon="5.2653">
        <ele>173</ele>
        <time>2021-08-01T09:40:17.000Z</time>
      </trkpt>
      <trkpt lat="50.61668" lon="5.26532">
        <ele>173.80000305176</ele>
        <time>2021-08-01T09:40:24.000Z</time>
      </trkpt>
      <trkpt lat="50.61676" lon="5.26532">
        <ele>173.80000305176</ele>
        <time>2021-08-01T09:40:25.000Z</time>
      </trkpt>
      <trkpt lat="50.61692" lon="5.26531">
        <ele>173.80000305176</ele>
        <time>2021-08-01T09:40:27.000Z</time>
      </trkpt>
      <trkpt lat="50.61716" lon="5.2653">
        <ele>174</ele>
        <time>2021-08-01T09:40:30.000Z</time>
      </trkpt>
      <trkpt lat="50.61758" lon="5.26528">
        <ele>174.80000305176</ele>
        <time>2021-08-01T09:40:35.000Z</time>
      </trkpt>
      <trkpt lat="50.61816" lon="5.26527">
        <ele>174.19999694824</ele>
        <time>2021-08-01T09:40:42.000Z</time>
      </trkpt>
      <trkpt lat="50.61833" lon="5.26526">
        <ele>174</ele>
        <time>2021-08-01T09:40:44.000Z</time>
      </trkpt>
      <trkpt lat="50.61886" lon="5.26525">
        <ele>173.80000305176</ele>
        <time>2021-08-01T09:40:50.000Z</time>
      </trkpt>
      <trkpt lat="50.61913" lon="5.26524">
        <ele>173.60000610352</ele>
        <time>2021-08-01T09:40:53.000Z</time>
      </trkpt>
      <trkpt lat="50.61923" lon="5.26524">
        <ele>173.39999389648</ele>
        <time>2021-08-01T09:40:54.000Z</time>
      </trkpt>
      <trkpt lat="50.61978" lon="5.26528">
        <ele>172.39999389648</ele>
        <time>2021-08-01T09:41:00.000Z</time>
      </trkpt>
      <trkpt lat="50.61987" lon="5.2653">
        <ele>172</ele>
        <time>2021-08-01T09:41:01.000Z</time>
      </trkpt>
      <trkpt lat="50.62042" lon="5.26542">
        <ele>171.60000610352</ele>
        <time>2021-08-01T09:41:07.000Z</time>
      </trkpt>
      <trkpt lat="50.62087" lon="5.26552">
        <ele>171.19999694824</ele>
        <time>2021-08-01T09:41:12.000Z</time>
      </trkpt>
      <trkpt lat="50.62141" lon="5.26565">
        <ele>170.80000305176</ele>
        <time>2021-08-01T09:41:18.000Z</time>
      </trkpt>
      <trkpt lat="50.62194" lon="5.26577">
        <ele>170.80000305176</ele>
        <time>2021-08-01T09:41:24.000Z</time>
      </trkpt>
      <trkpt lat="50.62212" lon="5.26581">
        <ele>170.80000305176</ele>
        <time>2021-08-01T09:41:26.000Z</time>
      </trkpt>
      <trkpt lat="50.62267" lon="5.26594">
        <ele>170.60000610352</ele>
        <time>2021-08-01T09:41:32.000Z</time>
      </trkpt>
      <trkpt lat="50.62286" lon="5.26599">
        <ele>170.39999389648</ele>
        <time>2021-08-01T09:41:34.000Z</time>
      </trkpt>
      <trkpt lat="50.62295" lon="5.26601">
        <ele>170.19999694824</ele>
        <time>2021-08-01T09:41:35.000Z</time>
      </trkpt>
      <trkpt lat="50.6235" lon="5.26614">
        <ele>169.60000610352</ele>
        <time>2021-08-01T09:41:41.000Z</time>
      </trkpt>
      <trkpt lat="50.62396" lon="5.26624">
        <ele>169</ele>
        <time>2021-08-01T09:41:46.000Z</time>
      </trkpt>
      <trkpt lat="50.6245" lon="5.26637">
        <ele>168.80000305176</ele>
        <time>2021-08-01T09:41:52.000Z</time>
      </trkpt>
      <trkpt lat="50.62484" lon="5.26644">
        <ele>168.80000305176</ele>
        <time>2021-08-01T09:41:56.000Z</time>
      </trkpt>
      <trkpt lat="50.62492" lon="5.26646">
        <ele>168.80000305176</ele>
        <time>2021-08-01T09:41:57.000Z</time>
      </trkpt>
      <trkpt lat="50.62534" lon="5.26656">
        <ele>169.39999389648</ele>
        <time>2021-08-01T09:42:02.000Z</time>
      </trkpt>
      <trkpt lat="50.62576" lon="5.26665">
        <ele>170.19999694824</ele>
        <time>2021-08-01T09:42:07.000Z</time>
      </trkpt>
      <trkpt lat="50.62593" lon="5.26669">
        <ele>170.60000610352</ele>
        <time>2021-08-01T09:42:09.000Z</time>
      </trkpt>
      <trkpt lat="50.62652" lon="5.26683">
        <ele>172.19999694824</ele>
        <time>2021-08-01T09:42:16.000Z</time>
      </trkpt>
      <trkpt lat="50.62694" lon="5.26692">
        <ele>173</ele>
        <time>2021-08-01T09:42:21.000Z</time>
      </trkpt>
      <trkpt lat="50.6273" lon="5.26701">
        <ele>172.80000305176</ele>
        <time>2021-08-01T09:42:25.000Z</time>
      </trkpt>
      <trkpt lat="50.62775" lon="5.26711">
        <ele>172.80000305176</ele>
        <time>2021-08-01T09:42:30.000Z</time>
      </trkpt>
      <trkpt lat="50.62784" lon="5.26713">
        <ele>172.39999389648</ele>
        <time>2021-08-01T09:42:31.000Z</time>
      </trkpt>
      <trkpt lat="50.62821" lon="5.26722">
        <ele>171.39999389648</ele>
        <time>2021-08-01T09:42:35.000Z</time>
      </trkpt>
      <trkpt lat="50.62877" lon="5.26735">
        <ele>170.39999389648</ele>
        <time>2021-08-01T09:42:41.000Z</time>
      </trkpt>
      <trkpt lat="50.62886" lon="5.26737">
        <ele>170.19999694824</ele>
        <time>2021-08-01T09:42:42.000Z</time>
      </trkpt>
      <trkpt lat="50.62924" lon="5.26745">
        <ele>169</ele>
        <time>2021-08-01T09:42:46.000Z</time>
      </trkpt>
      <trkpt lat="50.6298" lon="5.26759">
        <ele>168.60000610352</ele>
        <time>2021-08-01T09:42:52.000Z</time>
      </trkpt>
      <trkpt lat="50.62989" lon="5.26761">
        <ele>168.39999389648</ele>
        <time>2021-08-01T09:42:53.000Z</time>
      </trkpt>
      <trkpt lat="50.62998" lon="5.26763">
        <ele>168.19999694824</ele>
        <time>2021-08-01T09:42:54.000Z</time>
      </trkpt>
      <trkpt lat="50.63056" lon="5.26776">
        <ele>167.80000305176</ele>
        <time>2021-08-01T09:43:00.000Z</time>
      </trkpt>
      <trkpt lat="50.63093" lon="5.26785">
        <ele>167.19999694824</ele>
        <time>2021-08-01T09:43:04.000Z</time>
      </trkpt>
      <trkpt lat="50.63121" lon="5.26792">
        <ele>166.60000610352</ele>
        <time>2021-08-01T09:43:07.000Z</time>
      </trkpt>
      <trkpt lat="50.63158" lon="5.268">
        <ele>166.19999694824</ele>
        <time>2021-08-01T09:43:11.000Z</time>
      </trkpt>
      <trkpt lat="50.63176" lon="5.26804">
        <ele>166</ele>
        <time>2021-08-01T09:43:13.000Z</time>
      </trkpt>
      <trkpt lat="50.63185" lon="5.26806">
        <ele>165.80000305176</ele>
        <time>2021-08-01T09:43:14.000Z</time>
      </trkpt>
      <trkpt lat="50.63241" lon="5.2682">
        <ele>165.19999694824</ele>
        <time>2021-08-01T09:43:20.000Z</time>
      </trkpt>
      <trkpt lat="50.63259" lon="5.26824">
        <ele>165</ele>
        <time>2021-08-01T09:43:22.000Z</time>
      </trkpt>
      <trkpt lat="50.63287" lon="5.26831">
        <ele>165.19999694824</ele>
        <time>2021-08-01T09:43:25.000Z</time>
      </trkpt>
      <trkpt lat="50.63315" lon="5.26837">
        <ele>165</ele>
        <time>2021-08-01T09:43:28.000Z</time>
      </trkpt>
      <trkpt lat="50.6337" lon="5.2685">
        <ele>164</ele>
        <time>2021-08-01T09:43:34.000Z</time>
      </trkpt>
      <trkpt lat="50.63379" lon="5.26852">
        <ele>164</ele>
        <time>2021-08-01T09:43:35.000Z</time>
      </trkpt>
      <trkpt lat="50.63435" lon="5.26865">
        <ele>163.19999694824</ele>
        <time>2021-08-01T09:43:41.000Z</time>
      </trkpt>
      <trkpt lat="50.63473" lon="5.26874">
        <ele>163</ele>
        <time>2021-08-01T09:43:45.000Z</time>
      </trkpt>
      <trkpt lat="50.63483" lon="5.26876">
        <ele>163</ele>
        <time>2021-08-01T09:43:46.000Z</time>
      </trkpt>
      <trkpt lat="50.63541" lon="5.2689">
        <ele>162.80000305176</ele>
        <time>2021-08-01T09:43:52.000Z</time>
      </trkpt>
      <trkpt lat="50.63579" lon="5.26899">
        <ele>162</ele>
        <time>2021-08-01T09:43:56.000Z</time>
      </trkpt>
      <trkpt lat="50.63589" lon="5.26901">
        <ele>162</ele>
        <time>2021-08-01T09:43:57.000Z</time>
      </trkpt>
      <trkpt lat="50.63646" lon="5.26908">
        <ele>161.60000610352</ele>
        <time>2021-08-01T09:44:03.000Z</time>
      </trkpt>
      <trkpt lat="50.63656" lon="5.26908">
        <ele>161.60000610352</ele>
        <time>2021-08-01T09:44:04.000Z</time>
      </trkpt>
      <trkpt lat="50.63715" lon="5.26903">
        <ele>160.80000305176</ele>
        <time>2021-08-01T09:44:10.000Z</time>
      </trkpt>
      <trkpt lat="50.63743" lon="5.269">
        <ele>160.80000305176</ele>
        <time>2021-08-01T09:44:13.000Z</time>
      </trkpt>
      <trkpt lat="50.63753" lon="5.26899">
        <ele>160.39999389648</ele>
        <time>2021-08-01T09:44:14.000Z</time>
      </trkpt>
      <trkpt lat="50.6381" lon="5.26893">
        <ele>160.39999389648</ele>
        <time>2021-08-01T09:44:20.000Z</time>
      </trkpt>
      <trkpt lat="50.63838" lon="5.2689">
        <ele>160</ele>
        <time>2021-08-01T09:44:23.000Z</time>
      </trkpt>
      <trkpt lat="50.63857" lon="5.26888">
        <ele>159.80000305176</ele>
        <time>2021-08-01T09:44:25.000Z</time>
      </trkpt>
      <trkpt lat="50.63914" lon="5.26882">
        <ele>158.19999694824</ele>
        <time>2021-08-01T09:44:31.000Z</time>
      </trkpt>
      <trkpt lat="50.63942" lon="5.26881">
        <ele>157.39999389648</ele>
        <time>2021-08-01T09:44:34.000Z</time>
      </trkpt>
      <trkpt lat="50.63951" lon="5.26882">
        <ele>157.19999694824</ele>
        <time>2021-08-01T09:44:35.000Z</time>
      </trkpt>
      <trkpt lat="50.64007" lon="5.2689">
        <ele>156.60000610352</ele>
        <time>2021-08-01T09:44:41.000Z</time>
      </trkpt>
      <trkpt lat="50.64025" lon="5.26893">
        <ele>156</ele>
        <time>2021-08-01T09:44:43.000Z</time>
      </trkpt>
      <trkpt lat="50.64065" lon="5.26899">
        <ele>155.60000610352</ele>
        <time>2021-08-01T09:44:48.000Z</time>
      </trkpt>
      <trkpt lat="50.64101" lon="5.26903">
        <ele>155</ele>
        <time>2021-08-01T09:44:53.000Z</time>
      </trkpt>
      <trkpt lat="50.64114" lon="5.26905">
        <ele>154.80000305176</ele>
        <time>2021-08-01T09:44:55.000Z</time>
      </trkpt>
      <trkpt lat="50.64126" lon="5.26913">
        <ele>155</ele>
        <time>2021-08-01T09:44:57.000Z</time>
      </trkpt>
      <trkpt lat="50.64132" lon="5.2692">
        <ele>154.80000305176</ele>
        <time>2021-08-01T09:44:58.000Z</time>
      </trkpt>
      <trkpt lat="50.64137" lon="5.26929">
        <ele>154.80000305176</ele>
        <time>2021-08-01T09:44:59.000Z</time>
      </trkpt>
      <trkpt lat="50.64144" lon="5.26948">
        <ele>154.60000610352</ele>
        <time>2021-08-01T09:45:01.000Z</time>
      </trkpt>
      <trkpt lat="50.64147" lon="5.26958">
        <ele>154.60000610352</ele>
        <time>2021-08-01T09:45:02.000Z</time>
      </trkpt>
      <trkpt lat="50.64151" lon="5.26978">
        <ele>154.60000610352</ele>
        <time>2021-08-01T09:45:04.000Z</time>
      </trkpt>
      <trkpt lat="50.64155" lon="5.26986">
        <ele>154.39999389648</ele>
        <time>2021-08-01T09:45:05.000Z</time>
      </trkpt>
      <trkpt lat="50.6416" lon="5.26993">
        <ele>154.39999389648</ele>
        <time>2021-08-01T09:45:06.000Z</time>
      </trkpt>
      <trkpt lat="50.64165" lon="5.26995">
        <ele>154.19999694824</ele>
        <time>2021-08-01T09:45:07.000Z</time>
      </trkpt>
      <trkpt lat="50.64171" lon="5.26992">
        <ele>154.19999694824</ele>
        <time>2021-08-01T09:45:08.000Z</time>
      </trkpt>
      <trkpt lat="50.64178" lon="5.26988">
        <ele>154</ele>
        <time>2021-08-01T09:45:09.000Z</time>
      </trkpt>
      <trkpt lat="50.64197" lon="5.26978">
        <ele>154.19999694824</ele>
        <time>2021-08-01T09:45:12.000Z</time>
      </trkpt>
      <trkpt lat="50.64204" lon="5.26977">
        <ele>154.19999694824</ele>
        <time>2021-08-01T09:45:13.000Z</time>
      </trkpt>
      <trkpt lat="50.64211" lon="5.2698">
        <ele>154.19999694824</ele>
        <time>2021-08-01T09:45:14.000Z</time>
      </trkpt>
      <trkpt lat="50.64223" lon="5.26991">
        <ele>154.19999694824</ele>
        <time>2021-08-01T09:45:16.000Z</time>
      </trkpt>
      <trkpt lat="50.64274" lon="5.27036">
        <ele>154.19999694824</ele>
        <time>2021-08-01T09:45:24.000Z</time>
      </trkpt>
      <trkpt lat="50.64297" lon="5.27042">
        <ele>154.39999389648</ele>
        <time>2021-08-01T09:45:27.000Z</time>
      </trkpt>
      <trkpt lat="50.64305" lon="5.27043">
        <ele>154.19999694824</ele>
        <time>2021-08-01T09:45:28.000Z</time>
      </trkpt>
      <trkpt lat="50.64312" lon="5.27044">
        <ele>154.19999694824</ele>
        <time>2021-08-01T09:45:29.000Z</time>
      </trkpt>
      <trkpt lat="50.6432" lon="5.27045">
        <ele>154.19999694824</ele>
        <time>2021-08-01T09:45:30.000Z</time>
      </trkpt>
      <trkpt lat="50.64365" lon="5.27052">
        <ele>153.19999694824</ele>
        <time>2021-08-01T09:45:36.000Z</time>
      </trkpt>
      <trkpt lat="50.64372" lon="5.27054">
        <ele>152.80000305176</ele>
        <time>2021-08-01T09:45:37.000Z</time>
      </trkpt>
      <trkpt lat="50.64386" lon="5.27065">
        <ele>152.19999694824</ele>
        <time>2021-08-01T09:45:39.000Z</time>
      </trkpt>
      <trkpt lat="50.64393" lon="5.27073">
        <ele>152</ele>
        <time>2021-08-01T09:45:40.000Z</time>
      </trkpt>
      <trkpt lat="50.64438" lon="5.27128">
        <ele>151.19999694824</ele>
        <time>2021-08-01T09:45:47.000Z</time>
      </trkpt>
      <trkpt lat="50.64444" lon="5.27135">
        <ele>151</ele>
        <time>2021-08-01T09:45:48.000Z</time>
      </trkpt>
      <trkpt lat="50.64486" lon="5.27169">
        <ele>151</ele>
        <time>2021-08-01T09:45:54.000Z</time>
      </trkpt>
      <trkpt lat="50.645" lon="5.27177">
        <ele>151.19999694824</ele>
        <time>2021-08-01T09:45:56.000Z</time>
      </trkpt>
      <trkpt lat="50.64507" lon="5.27181">
        <ele>151.19999694824</ele>
        <time>2021-08-01T09:45:57.000Z</time>
      </trkpt>
      <trkpt lat="50.64549" lon="5.27206">
        <ele>151.39999389648</ele>
        <time>2021-08-01T09:46:03.000Z</time>
      </trkpt>
      <trkpt lat="50.64555" lon="5.2721">
        <ele>151.60000610352</ele>
        <time>2021-08-01T09:46:04.000Z</time>
      </trkpt>
      <trkpt lat="50.64603" lon="5.2724">
        <ele>152</ele>
        <time>2021-08-01T09:46:12.000Z</time>
      </trkpt>
      <trkpt lat="50.64615" lon="5.27246">
        <ele>152</ele>
        <time>2021-08-01T09:46:14.000Z</time>
      </trkpt>
      <trkpt lat="50.64622" lon="5.27247">
        <ele>152</ele>
        <time>2021-08-01T09:46:15.000Z</time>
      </trkpt>
      <trkpt lat="50.64629" lon="5.27246">
        <ele>152</ele>
        <time>2021-08-01T09:46:16.000Z</time>
      </trkpt>
      <trkpt lat="50.6467" lon="5.27232">
        <ele>151.80000305176</ele>
        <time>2021-08-01T09:46:22.000Z</time>
      </trkpt>
      <trkpt lat="50.64676" lon="5.27232">
        <ele>151.80000305176</ele>
        <time>2021-08-01T09:46:23.000Z</time>
      </trkpt>
      <trkpt lat="50.64688" lon="5.27241">
        <ele>151.60000610352</ele>
        <time>2021-08-01T09:46:25.000Z</time>
      </trkpt>
      <trkpt lat="50.64699" lon="5.27253">
        <ele>151.60000610352</ele>
        <time>2021-08-01T09:46:27.000Z</time>
      </trkpt>
      <trkpt lat="50.64706" lon="5.27258">
        <ele>151.60000610352</ele>
        <time>2021-08-01T09:46:28.000Z</time>
      </trkpt>
      <trkpt lat="50.64719" lon="5.27265">
        <ele>151.39999389648</ele>
        <time>2021-08-01T09:46:30.000Z</time>
      </trkpt>
      <trkpt lat="50.64733" lon="5.27269">
        <ele>151.19999694824</ele>
        <time>2021-08-01T09:46:32.000Z</time>
      </trkpt>
      <trkpt lat="50.64747" lon="5.27273">
        <ele>151.39999389648</ele>
        <time>2021-08-01T09:46:34.000Z</time>
      </trkpt>
      <trkpt lat="50.64768" lon="5.27278">
        <ele>151.80000305176</ele>
        <time>2021-08-01T09:46:37.000Z</time>
      </trkpt>
      <trkpt lat="50.64826" lon="5.27294">
        <ele>152.39999389648</ele>
        <time>2021-08-01T09:46:45.000Z</time>
      </trkpt>
      <trkpt lat="50.64841" lon="5.273">
        <ele>152.39999389648</ele>
        <time>2021-08-01T09:46:47.000Z</time>
      </trkpt>
      <trkpt lat="50.64873" lon="5.27312">
        <ele>152.19999694824</ele>
        <time>2021-08-01T09:46:51.000Z</time>
      </trkpt>
      <trkpt lat="50.64881" lon="5.27315">
        <ele>152.19999694824</ele>
        <time>2021-08-01T09:46:52.000Z</time>
      </trkpt>
      <trkpt lat="50.64915" lon="5.27328">
        <ele>151.19999694824</ele>
        <time>2021-08-01T09:46:56.000Z</time>
      </trkpt>
      <trkpt lat="50.64941" lon="5.27336">
        <ele>150.39999389648</ele>
        <time>2021-08-01T09:46:59.000Z</time>
      </trkpt>
      <trkpt lat="50.6495" lon="5.27339">
        <ele>150.19999694824</ele>
        <time>2021-08-01T09:47:00.000Z</time>
      </trkpt>
      <trkpt lat="50.6501" lon="5.27361">
        <ele>146.60000610352</ele>
        <time>2021-08-01T09:47:07.000Z</time>
      </trkpt>
      <trkpt lat="50.65027" lon="5.27368">
        <ele>146.19999694824</ele>
        <time>2021-08-01T09:47:09.000Z</time>
      </trkpt>
      <trkpt lat="50.65036" lon="5.27371">
        <ele>146</ele>
        <time>2021-08-01T09:47:10.000Z</time>
      </trkpt>
      <trkpt lat="50.65089" lon="5.27391">
        <ele>145.39999389648</ele>
        <time>2021-08-01T09:47:16.000Z</time>
      </trkpt>
      <trkpt lat="50.65106" lon="5.27397">
        <ele>145.19999694824</ele>
        <time>2021-08-01T09:47:18.000Z</time>
      </trkpt>
      <trkpt lat="50.65115" lon="5.27401">
        <ele>144.80000305176</ele>
        <time>2021-08-01T09:47:19.000Z</time>
      </trkpt>
      <trkpt lat="50.65158" lon="5.2743">
        <ele>143.60000610352</ele>
        <time>2021-08-01T09:47:24.000Z</time>
      </trkpt>
      <trkpt lat="50.65205" lon="5.27474">
        <ele>143</ele>
        <time>2021-08-01T09:47:30.000Z</time>
      </trkpt>
      <trkpt lat="50.65221" lon="5.27486">
        <ele>142.60000610352</ele>
        <time>2021-08-01T09:47:32.000Z</time>
      </trkpt>
      <trkpt lat="50.65261" lon="5.27511">
        <ele>142.39999389648</ele>
        <time>2021-08-01T09:47:37.000Z</time>
      </trkpt>
      <trkpt lat="50.65269" lon="5.27515">
        <ele>142.39999389648</ele>
        <time>2021-08-01T09:47:38.000Z</time>
      </trkpt>
      <trkpt lat="50.65301" lon="5.27528">
        <ele>142.39999389648</ele>
        <time>2021-08-01T09:47:42.000Z</time>
      </trkpt>
      <trkpt lat="50.65309" lon="5.27531">
        <ele>142.19999694824</ele>
        <time>2021-08-01T09:47:43.000Z</time>
      </trkpt>
      <trkpt lat="50.65333" lon="5.27538">
        <ele>142</ele>
        <time>2021-08-01T09:47:46.000Z</time>
      </trkpt>
      <trkpt lat="50.6535" lon="5.27544">
        <ele>142</ele>
        <time>2021-08-01T09:47:48.000Z</time>
      </trkpt>
      <trkpt lat="50.65375" lon="5.27552">
        <ele>141.80000305176</ele>
        <time>2021-08-01T09:47:51.000Z</time>
      </trkpt>
      <trkpt lat="50.65434" lon="5.2757">
        <ele>141</ele>
        <time>2021-08-01T09:47:58.000Z</time>
      </trkpt>
      <trkpt lat="50.6546" lon="5.27576">
        <ele>140.19999694824</ele>
        <time>2021-08-01T09:48:01.000Z</time>
      </trkpt>
      <trkpt lat="50.65503" lon="5.27583">
        <ele>139.39999389648</ele>
        <time>2021-08-01T09:48:06.000Z</time>
      </trkpt>
      <trkpt lat="50.65561" lon="5.27596">
        <ele>138.19999694824</ele>
        <time>2021-08-01T09:48:13.000Z</time>
      </trkpt>
      <trkpt lat="50.65577" lon="5.27603">
        <ele>138</ele>
        <time>2021-08-01T09:48:15.000Z</time>
      </trkpt>
      <trkpt lat="50.65634" lon="5.27625">
        <ele>137.60000610352</ele>
        <time>2021-08-01T09:48:22.000Z</time>
      </trkpt>
      <trkpt lat="50.65666" lon="5.27637">
        <ele>136.80000305176</ele>
        <time>2021-08-01T09:48:26.000Z</time>
      </trkpt>
      <trkpt lat="50.65725" lon="5.2766">
        <ele>136.19999694824</ele>
        <time>2021-08-01T09:48:33.000Z</time>
      </trkpt>
      <trkpt lat="50.65733" lon="5.27664">
        <ele>136.39999389648</ele>
        <time>2021-08-01T09:48:34.000Z</time>
      </trkpt>
      <trkpt lat="50.65789" lon="5.27686">
        <ele>136.19999694824</ele>
        <time>2021-08-01T09:48:42.000Z</time>
      </trkpt>
      <trkpt lat="50.65809" lon="5.27694">
        <ele>136</ele>
        <time>2021-08-01T09:48:45.000Z</time>
      </trkpt>
      <trkpt lat="50.65837" lon="5.27704">
        <ele>136.19999694824</ele>
        <time>2021-08-01T09:48:49.000Z</time>
      </trkpt>
      <trkpt lat="50.65892" lon="5.27727">
        <ele>135.80000305176</ele>
        <time>2021-08-01T09:48:56.000Z</time>
      </trkpt>
      <trkpt lat="50.65908" lon="5.27733">
        <ele>135.60000610352</ele>
        <time>2021-08-01T09:48:58.000Z</time>
      </trkpt>
      <trkpt lat="50.65967" lon="5.27758">
        <ele>135.39999389648</ele>
        <time>2021-08-01T09:49:05.000Z</time>
      </trkpt>
      <trkpt lat="50.66018" lon="5.27787">
        <ele>135</ele>
        <time>2021-08-01T09:49:11.000Z</time>
      </trkpt>
      <trkpt lat="50.66035" lon="5.27798">
        <ele>134.60000610352</ele>
        <time>2021-08-01T09:49:13.000Z</time>
      </trkpt>
      <trkpt lat="50.66064" lon="5.27819">
        <ele>134.60000610352</ele>
        <time>2021-08-01T09:49:17.000Z</time>
      </trkpt>
      <trkpt lat="50.66096" lon="5.27841">
        <ele>134.39999389648</ele>
        <time>2021-08-01T09:49:23.000Z</time>
      </trkpt>
      <trkpt lat="50.6611" lon="5.27851">
        <ele>135</ele>
        <time>2021-08-01T09:49:26.000Z</time>
      </trkpt>
      <trkpt lat="50.6613" lon="5.27865">
        <ele>135.39999389648</ele>
        <time>2021-08-01T09:49:31.000Z</time>
      </trkpt>
      <trkpt lat="50.66142" lon="5.27874">
        <ele>135.60000610352</ele>
        <time>2021-08-01T09:49:36.000Z</time>
      </trkpt>
      <trkpt lat="50.66147" lon="5.27873">
        <ele>135.80000305176</ele>
        <time>2021-08-01T09:51:08.000Z</time>
      </trkpt>
      <trkpt lat="50.66148" lon="5.27873">
        <ele>135.80000305176</ele>
        <time>2021-08-01T09:51:09.000Z</time>
      </trkpt>
      <trkpt lat="50.66158" lon="5.27879">
        <ele>135.80000305176</ele>
        <time>2021-08-01T09:51:14.000Z</time>
      </trkpt>
      <trkpt lat="50.66173" lon="5.27895">
        <ele>135.80000305176</ele>
        <time>2021-08-01T09:51:19.000Z</time>
      </trkpt>
      <trkpt lat="50.66202" lon="5.27915">
        <ele>135.60000610352</ele>
        <time>2021-08-01T09:51:25.000Z</time>
      </trkpt>
      <trkpt lat="50.66235" lon="5.27938">
        <ele>135.39999389648</ele>
        <time>2021-08-01T09:51:32.000Z</time>
      </trkpt>
      <trkpt lat="50.66244" lon="5.27945">
        <ele>135.39999389648</ele>
        <time>2021-08-01T09:51:36.000Z</time>
      </trkpt>
      <trkpt lat="50.66247" lon="5.27947">
        <ele>136.19999694824</ele>
        <time>2021-08-01T09:52:21.000Z</time>
      </trkpt>
      <trkpt lat="50.66252" lon="5.27949">
        <ele>136.19999694824</ele>
        <time>2021-08-01T09:52:23.000Z</time>
      </trkpt>
      <trkpt lat="50.66269" lon="5.27959">
        <ele>136</ele>
        <time>2021-08-01T09:52:29.000Z</time>
      </trkpt>
      <trkpt lat="50.66272" lon="5.27962">
        <ele>136</ele>
        <time>2021-08-01T09:52:32.000Z</time>
      </trkpt>
      <trkpt lat="50.66277" lon="5.27967">
        <ele>136.19999694824</ele>
        <time>2021-08-01T09:52:40.000Z</time>
      </trkpt>
      <trkpt lat="50.6628" lon="5.27969">
        <ele>136.19999694824</ele>
        <time>2021-08-01T09:52:42.000Z</time>
      </trkpt>
      <trkpt lat="50.66291" lon="5.27978">
        <ele>136.19999694824</ele>
        <time>2021-08-01T09:52:47.000Z</time>
      </trkpt>
      <trkpt lat="50.66311" lon="5.27993">
        <ele>136.19999694824</ele>
        <time>2021-08-01T09:52:52.000Z</time>
      </trkpt>
      <trkpt lat="50.66321" lon="5.28">
        <ele>136.39999389648</ele>
        <time>2021-08-01T09:52:54.000Z</time>
      </trkpt>
      <trkpt lat="50.66326" lon="5.28004">
        <ele>136.39999389648</ele>
        <time>2021-08-01T09:52:55.000Z</time>
      </trkpt>
      <trkpt lat="50.66352" lon="5.28022">
        <ele>136.19999694824</ele>
        <time>2021-08-01T09:53:00.000Z</time>
      </trkpt>
      <trkpt lat="50.66386" lon="5.28047">
        <ele>135.80000305176</ele>
        <time>2021-08-01T09:53:07.000Z</time>
      </trkpt>
      <trkpt lat="50.66416" lon="5.28068">
        <ele>135.60000610352</ele>
        <time>2021-08-01T09:53:14.000Z</time>
      </trkpt>
      <trkpt lat="50.66419" lon="5.2807">
        <ele>135.60000610352</ele>
        <time>2021-08-01T09:53:15.000Z</time>
      </trkpt>
      <trkpt lat="50.66426" lon="5.28075">
        <ele>135.60000610352</ele>
        <time>2021-08-01T09:53:17.000Z</time>
      </trkpt>
      <trkpt lat="50.66435" lon="5.2808">
        <ele>135.80000305176</ele>
        <time>2021-08-01T09:53:19.000Z</time>
      </trkpt>
      <trkpt lat="50.66455" lon="5.28096">
        <ele>136.39999389648</ele>
        <time>2021-08-01T09:53:23.000Z</time>
      </trkpt>
      <trkpt lat="50.66471" lon="5.28112">
        <ele>136.39999389648</ele>
        <time>2021-08-01T09:53:26.000Z</time>
      </trkpt>
      <trkpt lat="50.66487" lon="5.28131">
        <ele>136.60000610352</ele>
        <time>2021-08-01T09:53:29.000Z</time>
      </trkpt>
      <trkpt lat="50.66493" lon="5.28138">
        <ele>136.39999389648</ele>
        <time>2021-08-01T09:53:30.000Z</time>
      </trkpt>
      <trkpt lat="50.66502" lon="5.28154">
        <ele>136.19999694824</ele>
        <time>2021-08-01T09:53:32.000Z</time>
      </trkpt>
      <trkpt lat="50.66516" lon="5.28179">
        <ele>135.80000305176</ele>
        <time>2021-08-01T09:53:35.000Z</time>
      </trkpt>
      <trkpt lat="50.66536" lon="5.28224">
        <ele>135.19999694824</ele>
        <time>2021-08-01T09:53:40.000Z</time>
      </trkpt>
      <trkpt lat="50.66562" lon="5.28288">
        <ele>135</ele>
        <time>2021-08-01T09:53:47.000Z</time>
      </trkpt>
      <trkpt lat="50.66566" lon="5.28296">
        <ele>135</ele>
        <time>2021-08-01T09:53:48.000Z</time>
      </trkpt>
      <trkpt lat="50.66577" lon="5.28311">
        <ele>135.19999694824</ele>
        <time>2021-08-01T09:53:50.000Z</time>
      </trkpt>
      <trkpt lat="50.66582" lon="5.28317">
        <ele>135.19999694824</ele>
        <time>2021-08-01T09:53:51.000Z</time>
      </trkpt>
      <trkpt lat="50.66594" lon="5.28328">
        <ele>135.60000610352</ele>
        <time>2021-08-01T09:53:53.000Z</time>
      </trkpt>
      <trkpt lat="50.66634" lon="5.28353">
        <ele>135.80000305176</ele>
        <time>2021-08-01T09:53:59.000Z</time>
      </trkpt>
      <trkpt lat="50.66648" lon="5.28361">
        <ele>136</ele>
        <time>2021-08-01T09:54:01.000Z</time>
      </trkpt>
      <trkpt lat="50.66687" lon="5.28384">
        <ele>135.80000305176</ele>
        <time>2021-08-01T09:54:07.000Z</time>
      </trkpt>
      <trkpt lat="50.66731" lon="5.28412">
        <ele>135.60000610352</ele>
        <time>2021-08-01T09:54:14.000Z</time>
      </trkpt>
      <trkpt lat="50.66736" lon="5.28419">
        <ele>135.39999389648</ele>
        <time>2021-08-01T09:54:15.000Z</time>
      </trkpt>
      <trkpt lat="50.66741" lon="5.28427">
        <ele>135.39999389648</ele>
        <time>2021-08-01T09:54:16.000Z</time>
      </trkpt>
      <trkpt lat="50.66746" lon="5.28448">
        <ele>135.39999389648</ele>
        <time>2021-08-01T09:54:18.000Z</time>
      </trkpt>
      <trkpt lat="50.66747" lon="5.28459">
        <ele>135.19999694824</ele>
        <time>2021-08-01T09:54:19.000Z</time>
      </trkpt>
      <trkpt lat="50.66751" lon="5.28516">
        <ele>135.19999694824</ele>
        <time>2021-08-01T09:54:24.000Z</time>
      </trkpt>
      <trkpt lat="50.66752" lon="5.28537">
        <ele>135.19999694824</ele>
        <time>2021-08-01T09:54:26.000Z</time>
      </trkpt>
      <trkpt lat="50.66755" lon="5.28569">
        <ele>135.19999694824</ele>
        <time>2021-08-01T09:54:29.000Z</time>
      </trkpt>
      <trkpt lat="50.66755" lon="5.2858">
        <ele>135.39999389648</ele>
        <time>2021-08-01T09:54:30.000Z</time>
      </trkpt>
      <trkpt lat="50.66754" lon="5.28602">
        <ele>135.60000610352</ele>
        <time>2021-08-01T09:54:32.000Z</time>
      </trkpt>
      <trkpt lat="50.6675" lon="5.28676">
        <ele>136.60000610352</ele>
        <time>2021-08-01T09:54:39.000Z</time>
      </trkpt>
      <trkpt lat="50.66747" lon="5.28697">
        <ele>137</ele>
        <time>2021-08-01T09:54:41.000Z</time>
      </trkpt>
      <trkpt lat="50.6674" lon="5.28741">
        <ele>137.39999389648</ele>
        <time>2021-08-01T09:54:45.000Z</time>
      </trkpt>
      <trkpt lat="50.66736" lon="5.28764">
        <ele>137.19999694824</ele>
        <time>2021-08-01T09:54:47.000Z</time>
      </trkpt>
      <trkpt lat="50.66733" lon="5.28788">
        <ele>137.39999389648</ele>
        <time>2021-08-01T09:54:49.000Z</time>
      </trkpt>
      <trkpt lat="50.66736" lon="5.28812">
        <ele>137.19999694824</ele>
        <time>2021-08-01T09:54:51.000Z</time>
      </trkpt>
      <trkpt lat="50.66744" lon="5.28833">
        <ele>137.39999389648</ele>
        <time>2021-08-01T09:54:53.000Z</time>
      </trkpt>
      <trkpt lat="50.6675" lon="5.28841">
        <ele>137</ele>
        <time>2021-08-01T09:54:54.000Z</time>
      </trkpt>
      <trkpt lat="50.66756" lon="5.2885">
        <ele>136.60000610352</ele>
        <time>2021-08-01T09:54:55.000Z</time>
      </trkpt>
      <trkpt lat="50.6677" lon="5.28867">
        <ele>136</ele>
        <time>2021-08-01T09:54:57.000Z</time>
      </trkpt>
      <trkpt lat="50.66791" lon="5.28894">
        <ele>135.19999694824</ele>
        <time>2021-08-01T09:55:00.000Z</time>
      </trkpt>
      <trkpt lat="50.66833" lon="5.28951">
        <ele>133.19999694824</ele>
        <time>2021-08-01T09:55:06.000Z</time>
      </trkpt>
      <trkpt lat="50.66839" lon="5.28962">
        <ele>132.80000305176</ele>
        <time>2021-08-01T09:55:07.000Z</time>
      </trkpt>
      <trkpt lat="50.66868" lon="5.29036">
        <ele>132</ele>
        <time>2021-08-01T09:55:13.000Z</time>
      </trkpt>
      <trkpt lat="50.6689" lon="5.29096">
        <ele>132</ele>
        <time>2021-08-01T09:55:18.000Z</time>
      </trkpt>
      <trkpt lat="50.66899" lon="5.2912">
        <ele>131.80000305176</ele>
        <time>2021-08-01T09:55:20.000Z</time>
      </trkpt>
      <trkpt lat="50.66904" lon="5.29131">
        <ele>131.60000610352</ele>
        <time>2021-08-01T09:55:21.000Z</time>
      </trkpt>
      <trkpt lat="50.66936" lon="5.29216">
        <ele>131.19999694824</ele>
        <time>2021-08-01T09:55:28.000Z</time>
      </trkpt>
      <trkpt lat="50.6694" lon="5.29229">
        <ele>130.80000305176</ele>
        <time>2021-08-01T09:55:29.000Z</time>
      </trkpt>
      <trkpt lat="50.66968" lon="5.29306">
        <ele>129.39999389648</ele>
        <time>2021-08-01T09:55:35.000Z</time>
      </trkpt>
      <trkpt lat="50.66997" lon="5.29384">
        <ele>128.19999694824</ele>
        <time>2021-08-01T09:55:41.000Z</time>
      </trkpt>
      <trkpt lat="50.67002" lon="5.29397">
        <ele>128.19999694824</ele>
        <time>2021-08-01T09:55:42.000Z</time>
      </trkpt>
      <trkpt lat="50.67016" lon="5.29435">
        <ele>128</ele>
        <time>2021-08-01T09:55:45.000Z</time>
      </trkpt>
      <trkpt lat="50.67021" lon="5.29447">
        <ele>128</ele>
        <time>2021-08-01T09:55:46.000Z</time>
      </trkpt>
      <trkpt lat="50.67052" lon="5.29531">
        <ele>128.19999694824</ele>
        <time>2021-08-01T09:55:53.000Z</time>
      </trkpt>
      <trkpt lat="50.67056" lon="5.29543">
        <ele>128</ele>
        <time>2021-08-01T09:55:54.000Z</time>
      </trkpt>
      <trkpt lat="50.6706" lon="5.29554">
        <ele>128.19999694824</ele>
        <time>2021-08-01T09:55:55.000Z</time>
      </trkpt>
      <trkpt lat="50.67085" lon="5.29621">
        <ele>128.60000610352</ele>
        <time>2021-08-01T09:56:01.000Z</time>
      </trkpt>
      <trkpt lat="50.67101" lon="5.29664">
        <ele>128.80000305176</ele>
        <time>2021-08-01T09:56:05.000Z</time>
      </trkpt>
      <trkpt lat="50.67129" lon="5.29738">
        <ele>130.19999694824</ele>
        <time>2021-08-01T09:56:12.000Z</time>
      </trkpt>
      <trkpt lat="50.67137" lon="5.29759">
        <ele>130.60000610352</ele>
        <time>2021-08-01T09:56:14.000Z</time>
      </trkpt>
      <trkpt lat="50.67141" lon="5.2977">
        <ele>130.39999389648</ele>
        <time>2021-08-01T09:56:15.000Z</time>
      </trkpt>
      <trkpt lat="50.67169" lon="5.29847">
        <ele>131.19999694824</ele>
        <time>2021-08-01T09:56:22.000Z</time>
      </trkpt>
      <trkpt lat="50.67182" lon="5.29881">
        <ele>131.19999694824</ele>
        <time>2021-08-01T09:56:25.000Z</time>
      </trkpt>
      <trkpt lat="50.67195" lon="5.29916">
        <ele>131.60000610352</ele>
        <time>2021-08-01T09:56:28.000Z</time>
      </trkpt>
      <trkpt lat="50.67224" lon="5.29993">
        <ele>132</ele>
        <time>2021-08-01T09:56:35.000Z</time>
      </trkpt>
      <trkpt lat="50.67254" lon="5.30077">
        <ele>133.39999389648</ele>
        <time>2021-08-01T09:56:43.000Z</time>
      </trkpt>
      <trkpt lat="50.67274" lon="5.30131">
        <ele>133.60000610352</ele>
        <time>2021-08-01T09:56:48.000Z</time>
      </trkpt>
      <trkpt lat="50.67286" lon="5.30164">
        <ele>133.80000305176</ele>
        <time>2021-08-01T09:56:51.000Z</time>
      </trkpt>
      <trkpt lat="50.67315" lon="5.30242">
        <ele>134.19999694824</ele>
        <time>2021-08-01T09:56:58.000Z</time>
      </trkpt>
      <trkpt lat="50.67327" lon="5.30275">
        <ele>134.80000305176</ele>
        <time>2021-08-01T09:57:01.000Z</time>
      </trkpt>
      <trkpt lat="50.67348" lon="5.3033">
        <ele>135.39999389648</ele>
        <time>2021-08-01T09:57:06.000Z</time>
      </trkpt>
      <trkpt lat="50.67372" lon="5.30395">
        <ele>135.80000305176</ele>
        <time>2021-08-01T09:57:12.000Z</time>
      </trkpt>
      <trkpt lat="50.674" lon="5.3047">
        <ele>136.80000305176</ele>
        <time>2021-08-01T09:57:19.000Z</time>
      </trkpt>
      <trkpt lat="50.67408" lon="5.30492">
        <ele>137</ele>
        <time>2021-08-01T09:57:21.000Z</time>
      </trkpt>
      <trkpt lat="50.6742" lon="5.30524">
        <ele>137.39999389648</ele>
        <time>2021-08-01T09:57:24.000Z</time>
      </trkpt>
      <trkpt lat="50.67449" lon="5.30601">
        <ele>138</ele>
        <time>2021-08-01T09:57:31.000Z</time>
      </trkpt>
      <trkpt lat="50.67457" lon="5.30623">
        <ele>138</ele>
        <time>2021-08-01T09:57:33.000Z</time>
      </trkpt>
      <trkpt lat="50.67465" lon="5.30645">
        <ele>138.19999694824</ele>
        <time>2021-08-01T09:57:35.000Z</time>
      </trkpt>
      <trkpt lat="50.67496" lon="5.30722">
        <ele>137.80000305176</ele>
        <time>2021-08-01T09:57:42.000Z</time>
      </trkpt>
      <trkpt lat="50.67522" lon="5.30788">
        <ele>137.39999389648</ele>
        <time>2021-08-01T09:57:48.000Z</time>
      </trkpt>
      <trkpt lat="50.67548" lon="5.30852">
        <ele>137</ele>
        <time>2021-08-01T09:57:54.000Z</time>
      </trkpt>
      <trkpt lat="50.67573" lon="5.30916">
        <ele>136.60000610352</ele>
        <time>2021-08-01T09:58:00.000Z</time>
      </trkpt>
      <trkpt lat="50.67591" lon="5.3096">
        <ele>136.39999389648</ele>
        <time>2021-08-01T09:58:04.000Z</time>
      </trkpt>
      <trkpt lat="50.67618" lon="5.31028">
        <ele>135.80000305176</ele>
        <time>2021-08-01T09:58:10.000Z</time>
      </trkpt>
      <trkpt lat="50.67636" lon="5.31073">
        <ele>135.39999389648</ele>
        <time>2021-08-01T09:58:14.000Z</time>
      </trkpt>
      <trkpt lat="50.67658" lon="5.3113">
        <ele>135</ele>
        <time>2021-08-01T09:58:19.000Z</time>
      </trkpt>
      <trkpt lat="50.67672" lon="5.31165">
        <ele>134.60000610352</ele>
        <time>2021-08-01T09:58:22.000Z</time>
      </trkpt>
      <trkpt lat="50.67681" lon="5.31188">
        <ele>134.39999389648</ele>
        <time>2021-08-01T09:58:24.000Z</time>
      </trkpt>
      <trkpt lat="50.67699" lon="5.31232">
        <ele>133.39999389648</ele>
        <time>2021-08-01T09:58:28.000Z</time>
      </trkpt>
      <trkpt lat="50.67703" lon="5.31243">
        <ele>133.19999694824</ele>
        <time>2021-08-01T09:58:29.000Z</time>
      </trkpt>
      <trkpt lat="50.67735" lon="5.31325">
        <ele>131</ele>
        <time>2021-08-01T09:58:36.000Z</time>
      </trkpt>
      <trkpt lat="50.6776" lon="5.31389">
        <ele>129.80000305176</ele>
        <time>2021-08-01T09:58:41.000Z</time>
      </trkpt>
      <trkpt lat="50.67776" lon="5.3143">
        <ele>129</ele>
        <time>2021-08-01T09:58:44.000Z</time>
      </trkpt>
      <trkpt lat="50.67782" lon="5.31444">
        <ele>128.39999389648</ele>
        <time>2021-08-01T09:58:45.000Z</time>
      </trkpt>
      <trkpt lat="50.67814" lon="5.31523">
        <ele>126.80000305176</ele>
        <time>2021-08-01T09:58:51.000Z</time>
      </trkpt>
      <trkpt lat="50.67819" lon="5.31536">
        <ele>126.19999694824</ele>
        <time>2021-08-01T09:58:52.000Z</time>
      </trkpt>
      <trkpt lat="50.67823" lon="5.31549">
        <ele>126.19999694824</ele>
        <time>2021-08-01T09:58:53.000Z</time>
      </trkpt>
      <trkpt lat="50.67853" lon="5.31625">
        <ele>125.59999847412</ele>
        <time>2021-08-01T09:58:59.000Z</time>
      </trkpt>
      <trkpt lat="50.67862" lon="5.31649">
        <ele>125.40000152588</ele>
        <time>2021-08-01T09:59:01.000Z</time>
      </trkpt>
      <trkpt lat="50.67887" lon="5.31721">
        <ele>124.80000305176</ele>
        <time>2021-08-01T09:59:07.000Z</time>
      </trkpt>
      <trkpt lat="50.67897" lon="5.31764">
        <ele>124.80000305176</ele>
        <time>2021-08-01T09:59:11.000Z</time>
      </trkpt>
      <trkpt lat="50.679" lon="5.31782">
        <ele>124.80000305176</ele>
        <time>2021-08-01T09:59:13.000Z</time>
      </trkpt>
      <trkpt lat="50.67903" lon="5.31799">
        <ele>124.80000305176</ele>
        <time>2021-08-01T09:59:15.000Z</time>
      </trkpt>
      <trkpt lat="50.67906" lon="5.31807">
        <ele>124.80000305176</ele>
        <time>2021-08-01T09:59:16.000Z</time>
      </trkpt>
      <trkpt lat="50.67937" lon="5.31827">
        <ele>125</ele>
        <time>2021-08-01T09:59:21.000Z</time>
      </trkpt>
      <trkpt lat="50.67943" lon="5.31833">
        <ele>125</ele>
        <time>2021-08-01T09:59:22.000Z</time>
      </trkpt>
      <trkpt lat="50.67973" lon="5.3187">
        <ele>125</ele>
        <time>2021-08-01T09:59:27.000Z</time>
      </trkpt>
      <trkpt lat="50.67999" lon="5.31916">
        <ele>124.80000305176</ele>
        <time>2021-08-01T09:59:32.000Z</time>
      </trkpt>
      <trkpt lat="50.68004" lon="5.31926">
        <ele>124.59999847412</ele>
        <time>2021-08-01T09:59:33.000Z</time>
      </trkpt>
      <trkpt lat="50.68008" lon="5.31937">
        <ele>124.59999847412</ele>
        <time>2021-08-01T09:59:34.000Z</time>
      </trkpt>
      <trkpt lat="50.68023" lon="5.31981">
        <ele>124.59999847412</ele>
        <time>2021-08-01T09:59:38.000Z</time>
      </trkpt>
      <trkpt lat="50.68026" lon="5.31993">
        <ele>124.59999847412</ele>
        <time>2021-08-01T09:59:39.000Z</time>
      </trkpt>
      <trkpt lat="50.68047" lon="5.3207">
        <ele>125.40000152588</ele>
        <time>2021-08-01T09:59:46.000Z</time>
      </trkpt>
      <trkpt lat="50.68052" lon="5.32092">
        <ele>125.80000305176</ele>
        <time>2021-08-01T09:59:48.000Z</time>
      </trkpt>
      <trkpt lat="50.68065" lon="5.32148">
        <ele>126.80000305176</ele>
        <time>2021-08-01T09:59:54.000Z</time>
      </trkpt>
      <trkpt lat="50.68075" lon="5.32185">
        <ele>127.19999694824</ele>
        <time>2021-08-01T09:59:59.000Z</time>
      </trkpt>
      <trkpt lat="50.68077" lon="5.32193">
        <ele>127.40000152588</ele>
        <time>2021-08-01T10:00:00.000Z</time>
      </trkpt>
      <trkpt lat="50.68083" lon="5.32215">
        <ele>128.39999389648</ele>
        <time>2021-08-01T10:00:04.000Z</time>
      </trkpt>
      <trkpt lat="50.68085" lon="5.32233">
        <ele>129.19999694824</ele>
        <time>2021-08-01T10:00:07.000Z</time>
      </trkpt>
      <trkpt lat="50.68087" lon="5.3224">
        <ele>129.39999389648</ele>
        <time>2021-08-01T10:00:08.000Z</time>
      </trkpt>
      <trkpt lat="50.6809" lon="5.32247">
        <ele>129.60000610352</ele>
        <time>2021-08-01T10:00:09.000Z</time>
      </trkpt>
      <trkpt lat="50.68104" lon="5.32264">
        <ele>129.80000305176</ele>
        <time>2021-08-01T10:00:12.000Z</time>
      </trkpt>
      <trkpt lat="50.68151" lon="5.32313">
        <ele>129.80000305176</ele>
        <time>2021-08-01T10:00:21.000Z</time>
      </trkpt>
      <trkpt lat="50.68175" lon="5.32337">
        <ele>129.60000610352</ele>
        <time>2021-08-01T10:00:26.000Z</time>
      </trkpt>
      <trkpt lat="50.6818" lon="5.32342">
        <ele>129.60000610352</ele>
        <time>2021-08-01T10:00:27.000Z</time>
      </trkpt>
      <trkpt lat="50.68202" lon="5.32364">
        <ele>129</ele>
        <time>2021-08-01T10:00:32.000Z</time>
      </trkpt>
      <trkpt lat="50.68209" lon="5.32376">
        <ele>129</ele>
        <time>2021-08-01T10:00:34.000Z</time>
      </trkpt>
      <trkpt lat="50.68215" lon="5.32389">
        <ele>128.80000305176</ele>
        <time>2021-08-01T10:00:36.000Z</time>
      </trkpt>
      <trkpt lat="50.68217" lon="5.32403">
        <ele>128.60000610352</ele>
        <time>2021-08-01T10:00:38.000Z</time>
      </trkpt>
      <trkpt lat="50.68209" lon="5.32437">
        <ele>128.39999389648</ele>
        <time>2021-08-01T10:00:42.000Z</time>
      </trkpt>
      <trkpt lat="50.68199" lon="5.32466">
        <ele>128</ele>
        <time>2021-08-01T10:00:45.000Z</time>
      </trkpt>
      <trkpt lat="50.68192" lon="5.32488">
        <ele>127.59999847412</ele>
        <time>2021-08-01T10:00:47.000Z</time>
      </trkpt>
      <trkpt lat="50.68189" lon="5.325">
        <ele>127.40000152588</ele>
        <time>2021-08-01T10:00:48.000Z</time>
      </trkpt>
      <trkpt lat="50.68183" lon="5.32525">
        <ele>127.19999694824</ele>
        <time>2021-08-01T10:00:50.000Z</time>
      </trkpt>
      <trkpt lat="50.68176" lon="5.32564">
        <ele>126.59999847412</ele>
        <time>2021-08-01T10:00:53.000Z</time>
      </trkpt>
      <trkpt lat="50.68175" lon="5.32577">
        <ele>126</ele>
        <time>2021-08-01T10:00:54.000Z</time>
      </trkpt>
      <trkpt lat="50.68167" lon="5.32646">
        <ele>123.80000305176</ele>
        <time>2021-08-01T10:00:59.000Z</time>
      </trkpt>
      <trkpt lat="50.68165" lon="5.3266">
        <ele>123.19999694824</ele>
        <time>2021-08-01T10:01:00.000Z</time>
      </trkpt>
      <trkpt lat="50.68164" lon="5.32673">
        <ele>122.80000305176</ele>
        <time>2021-08-01T10:01:01.000Z</time>
      </trkpt>
      <trkpt lat="50.68162" lon="5.32687">
        <ele>122.59999847412</ele>
        <time>2021-08-01T10:01:02.000Z</time>
      </trkpt>
      <trkpt lat="50.6816" lon="5.327">
        <ele>122.40000152588</ele>
        <time>2021-08-01T10:01:03.000Z</time>
      </trkpt>
      <trkpt lat="50.68156" lon="5.32726">
        <ele>122.40000152588</ele>
        <time>2021-08-01T10:01:05.000Z</time>
      </trkpt>
      <trkpt lat="50.68152" lon="5.32738">
        <ele>122.19999694824</ele>
        <time>2021-08-01T10:01:06.000Z</time>
      </trkpt>
      <trkpt lat="50.68127" lon="5.32803">
        <ele>120.40000152588</ele>
        <time>2021-08-01T10:01:12.000Z</time>
      </trkpt>
      <trkpt lat="50.6812" lon="5.3282">
        <ele>120.19999694824</ele>
        <time>2021-08-01T10:01:14.000Z</time>
      </trkpt>
      <trkpt lat="50.6812" lon="5.32841">
        <ele>120.19999694824</ele>
        <time>2021-08-01T10:01:16.000Z</time>
      </trkpt>
      <trkpt lat="50.68128" lon="5.32857">
        <ele>120.19999694824</ele>
        <time>2021-08-01T10:01:18.000Z</time>
      </trkpt>
      <trkpt lat="50.68134" lon="5.32864">
        <ele>120</ele>
        <time>2021-08-01T10:01:19.000Z</time>
      </trkpt>
      <trkpt lat="50.68138" lon="5.32872">
        <ele>120.19999694824</ele>
        <time>2021-08-01T10:01:20.000Z</time>
      </trkpt>
      <trkpt lat="50.68143" lon="5.32892">
        <ele>120</ele>
        <time>2021-08-01T10:01:22.000Z</time>
      </trkpt>
      <trkpt lat="50.6814" lon="5.3291">
        <ele>120</ele>
        <time>2021-08-01T10:01:24.000Z</time>
      </trkpt>
      <trkpt lat="50.68138" lon="5.32917">
        <ele>120</ele>
        <time>2021-08-01T10:01:25.000Z</time>
      </trkpt>
      <trkpt lat="50.68136" lon="5.32923">
        <ele>120</ele>
        <time>2021-08-01T10:01:26.000Z</time>
      </trkpt>
      <trkpt lat="50.68131" lon="5.32936">
        <ele>119.80000305176</ele>
        <time>2021-08-01T10:01:28.000Z</time>
      </trkpt>
      <trkpt lat="50.68127" lon="5.32951">
        <ele>119.80000305176</ele>
        <time>2021-08-01T10:01:30.000Z</time>
      </trkpt>
      <trkpt lat="50.68113" lon="5.33002">
        <ele>120</ele>
        <time>2021-08-01T10:01:35.000Z</time>
      </trkpt>
      <trkpt lat="50.6809" lon="5.3309">
        <ele>120.19999694824</ele>
        <time>2021-08-01T10:01:43.000Z</time>
      </trkpt>
      <trkpt lat="50.68084" lon="5.33112">
        <ele>120.19999694824</ele>
        <time>2021-08-01T10:01:45.000Z</time>
      </trkpt>
      <trkpt lat="50.68081" lon="5.33122">
        <ele>120.40000152588</ele>
        <time>2021-08-01T10:01:46.000Z</time>
      </trkpt>
      <trkpt lat="50.68068" lon="5.33175">
        <ele>120.80000305176</ele>
        <time>2021-08-01T10:01:51.000Z</time>
      </trkpt>
      <trkpt lat="50.68069" lon="5.33195">
        <ele>120.80000305176</ele>
        <time>2021-08-01T10:01:53.000Z</time>
      </trkpt>
      <trkpt lat="50.68072" lon="5.33203">
        <ele>121.19999694824</ele>
        <time>2021-08-01T10:01:54.000Z</time>
      </trkpt>
      <trkpt lat="50.68085" lon="5.33226">
        <ele>121.59999847412</ele>
        <time>2021-08-01T10:01:57.000Z</time>
      </trkpt>
      <trkpt lat="50.68097" lon="5.3325">
        <ele>122.19999694824</ele>
        <time>2021-08-01T10:02:00.000Z</time>
      </trkpt>
      <trkpt lat="50.68118" lon="5.33298">
        <ele>123.40000152588</ele>
        <time>2021-08-01T10:02:06.000Z</time>
      </trkpt>
      <trkpt lat="50.6813" lon="5.33348">
        <ele>124.40000152588</ele>
        <time>2021-08-01T10:02:12.000Z</time>
      </trkpt>
      <trkpt lat="50.68131" lon="5.33357">
        <ele>124.59999847412</ele>
        <time>2021-08-01T10:02:13.000Z</time>
      </trkpt>
      <trkpt lat="50.68137" lon="5.33416">
        <ele>125.59999847412</ele>
        <time>2021-08-01T10:02:19.000Z</time>
      </trkpt>
      <trkpt lat="50.68135" lon="5.3347">
        <ele>126.19999694824</ele>
        <time>2021-08-01T10:02:24.000Z</time>
      </trkpt>
      <trkpt lat="50.68134" lon="5.3348">
        <ele>126.19999694824</ele>
        <time>2021-08-01T10:02:25.000Z</time>
      </trkpt>
      <trkpt lat="50.68122" lon="5.33542">
        <ele>127</ele>
        <time>2021-08-01T10:02:31.000Z</time>
      </trkpt>
      <trkpt lat="50.68103" lon="5.33611">
        <ele>127.40000152588</ele>
        <time>2021-08-01T10:02:38.000Z</time>
      </trkpt>
      <trkpt lat="50.68095" lon="5.33641">
        <ele>127.80000305176</ele>
        <time>2021-08-01T10:02:41.000Z</time>
      </trkpt>
      <trkpt lat="50.68088" lon="5.33668">
        <ele>128</ele>
        <time>2021-08-01T10:02:44.000Z</time>
      </trkpt>
      <trkpt lat="50.68081" lon="5.33692">
        <ele>128.60000610352</ele>
        <time>2021-08-01T10:02:47.000Z</time>
      </trkpt>
      <trkpt lat="50.68079" lon="5.3371">
        <ele>129.19999694824</ele>
        <time>2021-08-01T10:02:49.000Z</time>
      </trkpt>
      <trkpt lat="50.6808" lon="5.3373">
        <ele>129.80000305176</ele>
        <time>2021-08-01T10:02:51.000Z</time>
      </trkpt>
      <trkpt lat="50.68084" lon="5.33782">
        <ele>130.60000610352</ele>
        <time>2021-08-01T10:02:56.000Z</time>
      </trkpt>
      <trkpt lat="50.68086" lon="5.33803">
        <ele>130.80000305176</ele>
        <time>2021-08-01T10:02:58.000Z</time>
      </trkpt>
      <trkpt lat="50.68087" lon="5.33813">
        <ele>130.60000610352</ele>
        <time>2021-08-01T10:02:59.000Z</time>
      </trkpt>
      <trkpt lat="50.68087" lon="5.33824">
        <ele>130.80000305176</ele>
        <time>2021-08-01T10:03:00.000Z</time>
      </trkpt>
      <trkpt lat="50.68089" lon="5.33844">
        <ele>131</ele>
        <time>2021-08-01T10:03:02.000Z</time>
      </trkpt>
      <trkpt lat="50.68093" lon="5.33907">
        <ele>132.19999694824</ele>
        <time>2021-08-01T10:03:08.000Z</time>
      </trkpt>
      <trkpt lat="50.68098" lon="5.33976">
        <ele>132.80000305176</ele>
        <time>2021-08-01T10:03:14.000Z</time>
      </trkpt>
      <trkpt lat="50.681" lon="5.34001">
        <ele>133</ele>
        <time>2021-08-01T10:03:16.000Z</time>
      </trkpt>
      <trkpt lat="50.68101" lon="5.34039">
        <ele>133</ele>
        <time>2021-08-01T10:03:19.000Z</time>
      </trkpt>
      <trkpt lat="50.68099" lon="5.34065">
        <ele>132.80000305176</ele>
        <time>2021-08-01T10:03:21.000Z</time>
      </trkpt>
      <trkpt lat="50.68087" lon="5.34112">
        <ele>131.80000305176</ele>
        <time>2021-08-01T10:03:25.000Z</time>
      </trkpt>
      <trkpt lat="50.68074" lon="5.34144">
        <ele>131.60000610352</ele>
        <time>2021-08-01T10:03:28.000Z</time>
      </trkpt>
      <trkpt lat="50.68047" lon="5.34207">
        <ele>130.39999389648</ele>
        <time>2021-08-01T10:03:34.000Z</time>
      </trkpt>
      <trkpt lat="50.68018" lon="5.3428">
        <ele>129.19999694824</ele>
        <time>2021-08-01T10:03:41.000Z</time>
      </trkpt>
      <trkpt lat="50.67997" lon="5.34331">
        <ele>128.60000610352</ele>
        <time>2021-08-01T10:03:46.000Z</time>
      </trkpt>
      <trkpt lat="50.67993" lon="5.34341">
        <ele>128.60000610352</ele>
        <time>2021-08-01T10:03:47.000Z</time>
      </trkpt>
      <trkpt lat="50.67961" lon="5.34421">
        <ele>128.80000305176</ele>
        <time>2021-08-01T10:03:55.000Z</time>
      </trkpt>
      <trkpt lat="50.67957" lon="5.34431">
        <ele>128.80000305176</ele>
        <time>2021-08-01T10:03:56.000Z</time>
      </trkpt>
      <trkpt lat="50.67928" lon="5.34514">
        <ele>129.39999389648</ele>
        <time>2021-08-01T10:04:04.000Z</time>
      </trkpt>
      <trkpt lat="50.67909" lon="5.34596">
        <ele>129.80000305176</ele>
        <time>2021-08-01T10:04:11.000Z</time>
      </trkpt>
      <trkpt lat="50.67907" lon="5.34608">
        <ele>129.80000305176</ele>
        <time>2021-08-01T10:04:12.000Z</time>
      </trkpt>
      <trkpt lat="50.67893" lon="5.34683">
        <ele>129.60000610352</ele>
        <time>2021-08-01T10:04:18.000Z</time>
      </trkpt>
      <trkpt lat="50.67882" lon="5.34747">
        <ele>129</ele>
        <time>2021-08-01T10:04:23.000Z</time>
      </trkpt>
      <trkpt lat="50.6787" lon="5.34808">
        <ele>128.60000610352</ele>
        <time>2021-08-01T10:04:28.000Z</time>
      </trkpt>
      <trkpt lat="50.67858" lon="5.34869">
        <ele>128.60000610352</ele>
        <time>2021-08-01T10:04:33.000Z</time>
      </trkpt>
      <trkpt lat="50.67855" lon="5.34881">
        <ele>128.60000610352</ele>
        <time>2021-08-01T10:04:34.000Z</time>
      </trkpt>
      <trkpt lat="50.67843" lon="5.34928">
        <ele>129</ele>
        <time>2021-08-01T10:04:38.000Z</time>
      </trkpt>
      <trkpt lat="50.67831" lon="5.34975">
        <ele>129.19999694824</ele>
        <time>2021-08-01T10:04:42.000Z</time>
      </trkpt>
      <trkpt lat="50.67829" lon="5.34987">
        <ele>129.19999694824</ele>
        <time>2021-08-01T10:04:43.000Z</time>
      </trkpt>
      <trkpt lat="50.67823" lon="5.3501">
        <ele>129.39999389648</ele>
        <time>2021-08-01T10:04:45.000Z</time>
      </trkpt>
      <trkpt lat="50.67805" lon="5.3508">
        <ele>130.39999389648</ele>
        <time>2021-08-01T10:04:51.000Z</time>
      </trkpt>
      <trkpt lat="50.67802" lon="5.35091">
        <ele>130.39999389648</ele>
        <time>2021-08-01T10:04:52.000Z</time>
      </trkpt>
      <trkpt lat="50.67796" lon="5.35114">
        <ele>131.19999694824</ele>
        <time>2021-08-01T10:04:54.000Z</time>
      </trkpt>
      <trkpt lat="50.6778" lon="5.3518">
        <ele>132.39999389648</ele>
        <time>2021-08-01T10:05:00.000Z</time>
      </trkpt>
      <trkpt lat="50.67769" lon="5.35221">
        <ele>132.80000305176</ele>
        <time>2021-08-01T10:05:04.000Z</time>
      </trkpt>
      <trkpt lat="50.67766" lon="5.35231">
        <ele>133</ele>
        <time>2021-08-01T10:05:05.000Z</time>
      </trkpt>
      <trkpt lat="50.67745" lon="5.353">
        <ele>134.19999694824</ele>
        <time>2021-08-01T10:05:12.000Z</time>
      </trkpt>
      <trkpt lat="50.67737" lon="5.35319">
        <ele>134.39999389648</ele>
        <time>2021-08-01T10:05:14.000Z</time>
      </trkpt>
      <trkpt lat="50.67729" lon="5.35338">
        <ele>134.80000305176</ele>
        <time>2021-08-01T10:05:16.000Z</time>
      </trkpt>
      <trkpt lat="50.67708" lon="5.35388">
        <ele>134.80000305176</ele>
        <time>2021-08-01T10:05:21.000Z</time>
      </trkpt>
      <trkpt lat="50.677" lon="5.3541">
        <ele>134.80000305176</ele>
        <time>2021-08-01T10:05:23.000Z</time>
      </trkpt>
      <trkpt lat="50.67673" lon="5.35489">
        <ele>134.60000610352</ele>
        <time>2021-08-01T10:05:30.000Z</time>
      </trkpt>
      <trkpt lat="50.6767" lon="5.355">
        <ele>134.60000610352</ele>
        <time>2021-08-01T10:05:31.000Z</time>
      </trkpt>
      <trkpt lat="50.67644" lon="5.35578">
        <ele>134.60000610352</ele>
        <time>2021-08-01T10:05:38.000Z</time>
      </trkpt>
      <trkpt lat="50.67629" lon="5.35621">
        <ele>134.60000610352</ele>
        <time>2021-08-01T10:05:42.000Z</time>
      </trkpt>
      <trkpt lat="50.67622" lon="5.35643">
        <ele>134.80000305176</ele>
        <time>2021-08-01T10:05:44.000Z</time>
      </trkpt>
      <trkpt lat="50.67615" lon="5.35664">
        <ele>134.80000305176</ele>
        <time>2021-08-01T10:05:46.000Z</time>
      </trkpt>
      <trkpt lat="50.67587" lon="5.35746">
        <ele>136.60000610352</ele>
        <time>2021-08-01T10:05:54.000Z</time>
      </trkpt>
      <trkpt lat="50.67574" lon="5.35787">
        <ele>137.39999389648</ele>
        <time>2021-08-01T10:05:58.000Z</time>
      </trkpt>
      <trkpt lat="50.6756" lon="5.35828">
        <ele>138</ele>
        <time>2021-08-01T10:06:02.000Z</time>
      </trkpt>
      <trkpt lat="50.67532" lon="5.35912">
        <ele>138.39999389648</ele>
        <time>2021-08-01T10:06:10.000Z</time>
      </trkpt>
      <trkpt lat="50.67525" lon="5.35934">
        <ele>138.39999389648</ele>
        <time>2021-08-01T10:06:12.000Z</time>
      </trkpt>
      <trkpt lat="50.6751" lon="5.35978">
        <ele>138.39999389648</ele>
        <time>2021-08-01T10:06:16.000Z</time>
      </trkpt>
      <trkpt lat="50.67484" lon="5.36056">
        <ele>137</ele>
        <time>2021-08-01T10:06:23.000Z</time>
      </trkpt>
      <trkpt lat="50.6748" lon="5.36068">
        <ele>137</ele>
        <time>2021-08-01T10:06:24.000Z</time>
      </trkpt>
      <trkpt lat="50.67476" lon="5.36079">
        <ele>136.80000305176</ele>
        <time>2021-08-01T10:06:25.000Z</time>
      </trkpt>
      <trkpt lat="50.6745" lon="5.36159">
        <ele>135.80000305176</ele>
        <time>2021-08-01T10:06:32.000Z</time>
      </trkpt>
      <trkpt lat="50.67438" lon="5.36195">
        <ele>135.80000305176</ele>
        <time>2021-08-01T10:06:35.000Z</time>
      </trkpt>
      <trkpt lat="50.6743" lon="5.3622">
        <ele>135.39999389648</ele>
        <time>2021-08-01T10:06:37.000Z</time>
      </trkpt>
      <trkpt lat="50.67417" lon="5.36258">
        <ele>135</ele>
        <time>2021-08-01T10:06:40.000Z</time>
      </trkpt>
      <trkpt lat="50.67395" lon="5.36323">
        <ele>133.39999389648</ele>
        <time>2021-08-01T10:06:45.000Z</time>
      </trkpt>
      <trkpt lat="50.67383" lon="5.36359">
        <ele>133.19999694824</ele>
        <time>2021-08-01T10:06:48.000Z</time>
      </trkpt>
      <trkpt lat="50.67376" lon="5.36381">
        <ele>133</ele>
        <time>2021-08-01T10:06:50.000Z</time>
      </trkpt>
      <trkpt lat="50.67372" lon="5.36392">
        <ele>133.19999694824</ele>
        <time>2021-08-01T10:06:51.000Z</time>
      </trkpt>
      <trkpt lat="50.67369" lon="5.36402">
        <ele>133.19999694824</ele>
        <time>2021-08-01T10:06:52.000Z</time>
      </trkpt>
      <trkpt lat="50.67356" lon="5.36439">
        <ele>133.19999694824</ele>
        <time>2021-08-01T10:06:56.000Z</time>
      </trkpt>
      <trkpt lat="50.6735" lon="5.36457">
        <ele>134.60000610352</ele>
        <time>2021-08-01T10:06:58.000Z</time>
      </trkpt>
      <trkpt lat="50.67341" lon="5.36485">
        <ele>136.80000305176</ele>
        <time>2021-08-01T10:07:01.000Z</time>
      </trkpt>
      <trkpt lat="50.67317" lon="5.36555">
        <ele>139.60000610352</ele>
        <time>2021-08-01T10:07:08.000Z</time>
      </trkpt>
      <trkpt lat="50.67294" lon="5.36624">
        <ele>140.60000610352</ele>
        <time>2021-08-01T10:07:15.000Z</time>
      </trkpt>
      <trkpt lat="50.67288" lon="5.36643">
        <ele>141</ele>
        <time>2021-08-01T10:07:17.000Z</time>
      </trkpt>
      <trkpt lat="50.67276" lon="5.36679">
        <ele>141</ele>
        <time>2021-08-01T10:07:21.000Z</time>
      </trkpt>
      <trkpt lat="50.6726" lon="5.36724">
        <ele>141.19999694824</ele>
        <time>2021-08-01T10:07:26.000Z</time>
      </trkpt>
      <trkpt lat="50.67257" lon="5.36734">
        <ele>141</ele>
        <time>2021-08-01T10:07:27.000Z</time>
      </trkpt>
      <trkpt lat="50.67254" lon="5.36744">
        <ele>141</ele>
        <time>2021-08-01T10:07:28.000Z</time>
      </trkpt>
      <trkpt lat="50.6724" lon="5.36786">
        <ele>140.39999389648</ele>
        <time>2021-08-01T10:07:33.000Z</time>
      </trkpt>
      <trkpt lat="50.67237" lon="5.36794">
        <ele>140.19999694824</ele>
        <time>2021-08-01T10:07:34.000Z</time>
      </trkpt>
      <trkpt lat="50.6723" lon="5.3681">
        <ele>139.19999694824</ele>
        <time>2021-08-01T10:07:36.000Z</time>
      </trkpt>
      <trkpt lat="50.67228" lon="5.36819">
        <ele>139</ele>
        <time>2021-08-01T10:07:37.000Z</time>
      </trkpt>
      <trkpt lat="50.67214" lon="5.36879">
        <ele>137.80000305176</ele>
        <time>2021-08-01T10:07:43.000Z</time>
      </trkpt>
      <trkpt lat="50.67203" lon="5.36934">
        <ele>136.60000610352</ele>
        <time>2021-08-01T10:07:48.000Z</time>
      </trkpt>
      <trkpt lat="50.67198" lon="5.36958">
        <ele>136.80000305176</ele>
        <time>2021-08-01T10:07:50.000Z</time>
      </trkpt>
      <trkpt lat="50.67196" lon="5.3697">
        <ele>136.39999389648</ele>
        <time>2021-08-01T10:07:51.000Z</time>
      </trkpt>
      <trkpt lat="50.67185" lon="5.37049">
        <ele>136</ele>
        <time>2021-08-01T10:07:58.000Z</time>
      </trkpt>
      <trkpt lat="50.67182" lon="5.37072">
        <ele>136</ele>
        <time>2021-08-01T10:08:00.000Z</time>
      </trkpt>
      <trkpt lat="50.67176" lon="5.37114">
        <ele>136.60000610352</ele>
        <time>2021-08-01T10:08:04.000Z</time>
      </trkpt>
      <trkpt lat="50.67172" lon="5.37142">
        <ele>136.80000305176</ele>
        <time>2021-08-01T10:08:07.000Z</time>
      </trkpt>
      <trkpt lat="50.67169" lon="5.3716">
        <ele>137</ele>
        <time>2021-08-01T10:08:09.000Z</time>
      </trkpt>
      <trkpt lat="50.67167" lon="5.37179">
        <ele>137.60000610352</ele>
        <time>2021-08-01T10:08:11.000Z</time>
      </trkpt>
      <trkpt lat="50.67163" lon="5.37208">
        <ele>138.39999389648</ele>
        <time>2021-08-01T10:08:14.000Z</time>
      </trkpt>
      <trkpt lat="50.67157" lon="5.37246">
        <ele>139.60000610352</ele>
        <time>2021-08-01T10:08:18.000Z</time>
      </trkpt>
      <trkpt lat="50.67155" lon="5.37264">
        <ele>140.39999389648</ele>
        <time>2021-08-01T10:08:20.000Z</time>
      </trkpt>
      <trkpt lat="50.67146" lon="5.37327">
        <ele>142.60000610352</ele>
        <time>2021-08-01T10:08:27.000Z</time>
      </trkpt>
      <trkpt lat="50.67143" lon="5.37346">
        <ele>142.80000305176</ele>
        <time>2021-08-01T10:08:29.000Z</time>
      </trkpt>
      <trkpt lat="50.67134" lon="5.37409">
        <ele>143.80000305176</ele>
        <time>2021-08-01T10:08:36.000Z</time>
      </trkpt>
      <trkpt lat="50.67131" lon="5.37428">
        <ele>144.39999389648</ele>
        <time>2021-08-01T10:08:38.000Z</time>
      </trkpt>
      <trkpt lat="50.6713" lon="5.37437">
        <ele>144.60000610352</ele>
        <time>2021-08-01T10:08:39.000Z</time>
      </trkpt>
      <trkpt lat="50.67129" lon="5.37447">
        <ele>144.80000305176</ele>
        <time>2021-08-01T10:08:40.000Z</time>
      </trkpt>
      <trkpt lat="50.67125" lon="5.37474">
        <ele>145</ele>
        <time>2021-08-01T10:08:43.000Z</time>
      </trkpt>
      <trkpt lat="50.67122" lon="5.37491">
        <ele>145.60000610352</ele>
        <time>2021-08-01T10:08:45.000Z</time>
      </trkpt>
      <trkpt lat="50.67111" lon="5.37571">
        <ele>147.80000305176</ele>
        <time>2021-08-01T10:08:54.000Z</time>
      </trkpt>
      <trkpt lat="50.67106" lon="5.37608">
        <ele>148.60000610352</ele>
        <time>2021-08-01T10:08:58.000Z</time>
      </trkpt>
      <trkpt lat="50.671" lon="5.37652">
        <ele>149.60000610352</ele>
        <time>2021-08-01T10:09:03.000Z</time>
      </trkpt>
      <trkpt lat="50.67092" lon="5.37705">
        <ele>150.60000610352</ele>
        <time>2021-08-01T10:09:09.000Z</time>
      </trkpt>
      <trkpt lat="50.67091" lon="5.37714">
        <ele>150.80000305176</ele>
        <time>2021-08-01T10:09:10.000Z</time>
      </trkpt>
      <trkpt lat="50.6709" lon="5.37724">
        <ele>150.80000305176</ele>
        <time>2021-08-01T10:09:11.000Z</time>
      </trkpt>
      <trkpt lat="50.67085" lon="5.37757">
        <ele>150.80000305176</ele>
        <time>2021-08-01T10:09:14.000Z</time>
      </trkpt>
      <trkpt lat="50.67084" lon="5.37769">
        <ele>150.80000305176</ele>
        <time>2021-08-01T10:09:15.000Z</time>
      </trkpt>
      <trkpt lat="50.67082" lon="5.37782">
        <ele>151</ele>
        <time>2021-08-01T10:09:16.000Z</time>
      </trkpt>
      <trkpt lat="50.67074" lon="5.37836">
        <ele>150.19999694824</ele>
        <time>2021-08-01T10:09:20.000Z</time>
      </trkpt>
      <trkpt lat="50.6707" lon="5.37864">
        <ele>149.39999389648</ele>
        <time>2021-08-01T10:09:22.000Z</time>
      </trkpt>
      <trkpt lat="50.67068" lon="5.37878">
        <ele>149.19999694824</ele>
        <time>2021-08-01T10:09:23.000Z</time>
      </trkpt>
      <trkpt lat="50.67056" lon="5.37961">
        <ele>146.19999694824</ele>
        <time>2021-08-01T10:09:29.000Z</time>
      </trkpt>
      <trkpt lat="50.67055" lon="5.37974">
        <ele>145.80000305176</ele>
        <time>2021-08-01T10:09:30.000Z</time>
      </trkpt>
      <trkpt lat="50.67049" lon="5.38014">
        <ele>144.60000610352</ele>
        <time>2021-08-01T10:09:33.000Z</time>
      </trkpt>
      <trkpt lat="50.67047" lon="5.38027">
        <ele>144.19999694824</ele>
        <time>2021-08-01T10:09:34.000Z</time>
      </trkpt>
      <trkpt lat="50.67037" lon="5.38101">
        <ele>143.39999389648</ele>
        <time>2021-08-01T10:09:40.000Z</time>
      </trkpt>
      <trkpt lat="50.67025" lon="5.38184">
        <ele>142.80000305176</ele>
        <time>2021-08-01T10:09:47.000Z</time>
      </trkpt>
      <trkpt lat="50.67023" lon="5.38196">
        <ele>142.80000305176</ele>
        <time>2021-08-01T10:09:48.000Z</time>
      </trkpt>
      <trkpt lat="50.67014" lon="5.38255">
        <ele>142.39999389648</ele>
        <time>2021-08-01T10:09:53.000Z</time>
      </trkpt>
      <trkpt lat="50.67008" lon="5.383">
        <ele>142.19999694824</ele>
        <time>2021-08-01T10:09:57.000Z</time>
      </trkpt>
      <trkpt lat="50.67004" lon="5.3833">
        <ele>141.80000305176</ele>
        <time>2021-08-01T10:10:00.000Z</time>
      </trkpt>
      <trkpt lat="50.67" lon="5.38356">
        <ele>141.39999389648</ele>
        <time>2021-08-01T10:10:03.000Z</time>
      </trkpt>
      <trkpt lat="50.66997" lon="5.38378">
        <ele>141.80000305176</ele>
        <time>2021-08-01T10:10:07.000Z</time>
      </trkpt>
      <trkpt lat="50.66994" lon="5.38394">
        <ele>142.39999389648</ele>
        <time>2021-08-01T10:10:12.000Z</time>
      </trkpt>
      <trkpt lat="50.66994" lon="5.38396">
        <ele>142.39999389648</ele>
        <time>2021-08-01T10:10:13.000Z</time>
      </trkpt>
      <trkpt lat="50.66993" lon="5.38401">
        <ele>143.39999389648</ele>
        <time>2021-08-01T10:10:22.000Z</time>
      </trkpt>
      <trkpt lat="50.66992" lon="5.38407">
        <ele>143.60000610352</ele>
        <time>2021-08-01T10:10:24.000Z</time>
      </trkpt>
      <trkpt lat="50.66992" lon="5.38415">
        <ele>143.39999389648</ele>
        <time>2021-08-01T10:10:26.000Z</time>
      </trkpt>
      <trkpt lat="50.66991" lon="5.38425">
        <ele>143.39999389648</ele>
        <time>2021-08-01T10:10:28.000Z</time>
      </trkpt>
      <trkpt lat="50.6699" lon="5.38431">
        <ele>143.39999389648</ele>
        <time>2021-08-01T10:10:29.000Z</time>
      </trkpt>
      <trkpt lat="50.66989" lon="5.38439">
        <ele>143.39999389648</ele>
        <time>2021-08-01T10:10:30.000Z</time>
      </trkpt>
      <trkpt lat="50.66984" lon="5.38464">
        <ele>143.39999389648</ele>
        <time>2021-08-01T10:10:33.000Z</time>
      </trkpt>
      <trkpt lat="50.66982" lon="5.38474">
        <ele>143.60000610352</ele>
        <time>2021-08-01T10:10:34.000Z</time>
      </trkpt>
      <trkpt lat="50.66969" lon="5.38538">
        <ele>141.60000610352</ele>
        <time>2021-08-01T10:10:40.000Z</time>
      </trkpt>
      <trkpt lat="50.66959" lon="5.38595">
        <ele>140.19999694824</ele>
        <time>2021-08-01T10:10:45.000Z</time>
      </trkpt>
      <trkpt lat="50.66954" lon="5.38618">
        <ele>139.80000305176</ele>
        <time>2021-08-01T10:10:47.000Z</time>
      </trkpt>
      <trkpt lat="50.66952" lon="5.3863">
        <ele>139.80000305176</ele>
        <time>2021-08-01T10:10:48.000Z</time>
      </trkpt>
      <trkpt lat="50.66948" lon="5.38652">
        <ele>139.80000305176</ele>
        <time>2021-08-01T10:10:50.000Z</time>
      </trkpt>
      <trkpt lat="50.6694" lon="5.3869">
        <ele>139.60000610352</ele>
        <time>2021-08-01T10:10:54.000Z</time>
      </trkpt>
      <trkpt lat="50.66931" lon="5.38738">
        <ele>140.60000610352</ele>
        <time>2021-08-01T10:10:59.000Z</time>
      </trkpt>
      <trkpt lat="50.66926" lon="5.38767">
        <ele>141.60000610352</ele>
        <time>2021-08-01T10:11:02.000Z</time>
      </trkpt>
      <trkpt lat="50.66918" lon="5.38806">
        <ele>142.19999694824</ele>
        <time>2021-08-01T10:11:06.000Z</time>
      </trkpt>
      <trkpt lat="50.66912" lon="5.38837">
        <ele>142.39999389648</ele>
        <time>2021-08-01T10:11:09.000Z</time>
      </trkpt>
      <trkpt lat="50.66904" lon="5.38879">
        <ele>142.39999389648</ele>
        <time>2021-08-01T10:11:13.000Z</time>
      </trkpt>
      <trkpt lat="50.66903" lon="5.3889">
        <ele>142.39999389648</ele>
        <time>2021-08-01T10:11:14.000Z</time>
      </trkpt>
      <trkpt lat="50.66899" lon="5.38911">
        <ele>142.19999694824</ele>
        <time>2021-08-01T10:11:16.000Z</time>
      </trkpt>
      <trkpt lat="50.6689" lon="5.38953">
        <ele>142</ele>
        <time>2021-08-01T10:11:20.000Z</time>
      </trkpt>
      <trkpt lat="50.66874" lon="5.39039">
        <ele>141</ele>
        <time>2021-08-01T10:11:28.000Z</time>
      </trkpt>
      <trkpt lat="50.66872" lon="5.3905">
        <ele>140.80000305176</ele>
        <time>2021-08-01T10:11:29.000Z</time>
      </trkpt>
      <trkpt lat="50.6686" lon="5.39119">
        <ele>140.19999694824</ele>
        <time>2021-08-01T10:11:35.000Z</time>
      </trkpt>
      <trkpt lat="50.66849" lon="5.39177">
        <ele>139.39999389648</ele>
        <time>2021-08-01T10:11:40.000Z</time>
      </trkpt>
      <trkpt lat="50.6684" lon="5.39222">
        <ele>139</ele>
        <time>2021-08-01T10:11:44.000Z</time>
      </trkpt>
      <trkpt lat="50.66828" lon="5.39285">
        <ele>139.19999694824</ele>
        <time>2021-08-01T10:11:50.000Z</time>
      </trkpt>
      <trkpt lat="50.66816" lon="5.39352">
        <ele>139.39999389648</ele>
        <time>2021-08-01T10:11:57.000Z</time>
      </trkpt>
      <trkpt lat="50.66815" lon="5.39361">
        <ele>139.39999389648</ele>
        <time>2021-08-01T10:11:58.000Z</time>
      </trkpt>
      <trkpt lat="50.66811" lon="5.39379">
        <ele>139.80000305176</ele>
        <time>2021-08-01T10:12:00.000Z</time>
      </trkpt>
      <trkpt lat="50.66804" lon="5.39397">
        <ele>139.80000305176</ele>
        <time>2021-08-01T10:12:02.000Z</time>
      </trkpt>
      <trkpt lat="50.668" lon="5.39404">
        <ele>140</ele>
        <time>2021-08-01T10:12:03.000Z</time>
      </trkpt>
      <trkpt lat="50.66791" lon="5.39417">
        <ele>140.60000610352</ele>
        <time>2021-08-01T10:12:05.000Z</time>
      </trkpt>
      <trkpt lat="50.66785" lon="5.39423">
        <ele>140.39999389648</ele>
        <time>2021-08-01T10:12:06.000Z</time>
      </trkpt>
      <trkpt lat="50.66765" lon="5.39446">
        <ele>140.80000305176</ele>
        <time>2021-08-01T10:12:10.000Z</time>
      </trkpt>
      <trkpt lat="50.6675" lon="5.39464">
        <ele>141.60000610352</ele>
        <time>2021-08-01T10:12:13.000Z</time>
      </trkpt>
      <trkpt lat="50.66741" lon="5.39476">
        <ele>142.19999694824</ele>
        <time>2021-08-01T10:12:15.000Z</time>
      </trkpt>
      <trkpt lat="50.66718" lon="5.39502">
        <ele>143.60000610352</ele>
        <time>2021-08-01T10:12:20.000Z</time>
      </trkpt>
      <trkpt lat="50.66709" lon="5.39513">
        <ele>144</ele>
        <time>2021-08-01T10:12:22.000Z</time>
      </trkpt>
      <trkpt lat="50.66686" lon="5.39541">
        <ele>145.19999694824</ele>
        <time>2021-08-01T10:12:27.000Z</time>
      </trkpt>
      <trkpt lat="50.66677" lon="5.39552">
        <ele>145.60000610352</ele>
        <time>2021-08-01T10:12:29.000Z</time>
      </trkpt>
      <trkpt lat="50.6666" lon="5.39577">
        <ele>146.19999694824</ele>
        <time>2021-08-01T10:12:33.000Z</time>
      </trkpt>
      <trkpt lat="50.66654" lon="5.39592">
        <ele>146.60000610352</ele>
        <time>2021-08-01T10:12:35.000Z</time>
      </trkpt>
      <trkpt lat="50.6664" lon="5.39643">
        <ele>147.80000305176</ele>
        <time>2021-08-01T10:12:41.000Z</time>
      </trkpt>
      <trkpt lat="50.66633" lon="5.39668">
        <ele>148.60000610352</ele>
        <time>2021-08-01T10:12:44.000Z</time>
      </trkpt>
      <trkpt lat="50.66623" lon="5.39717">
        <ele>149.39999389648</ele>
        <time>2021-08-01T10:12:50.000Z</time>
      </trkpt>
      <trkpt lat="50.66622" lon="5.39726">
        <ele>149.80000305176</ele>
        <time>2021-08-01T10:12:51.000Z</time>
      </trkpt>
      <trkpt lat="50.66623" lon="5.39735">
        <ele>150</ele>
        <time>2021-08-01T10:12:52.000Z</time>
      </trkpt>
      <trkpt lat="50.66626" lon="5.39753">
        <ele>150.19999694824</ele>
        <time>2021-08-01T10:12:54.000Z</time>
      </trkpt>
      <trkpt lat="50.66628" lon="5.39761">
        <ele>150.19999694824</ele>
        <time>2021-08-01T10:12:55.000Z</time>
      </trkpt>
      <trkpt lat="50.66637" lon="5.39797">
        <ele>150.39999389648</ele>
        <time>2021-08-01T10:12:59.000Z</time>
      </trkpt>
      <trkpt lat="50.66639" lon="5.39815">
        <ele>150.39999389648</ele>
        <time>2021-08-01T10:13:01.000Z</time>
      </trkpt>
      <trkpt lat="50.66636" lon="5.39832">
        <ele>150.39999389648</ele>
        <time>2021-08-01T10:13:03.000Z</time>
      </trkpt>
      <trkpt lat="50.66631" lon="5.39846">
        <ele>150.39999389648</ele>
        <time>2021-08-01T10:13:05.000Z</time>
      </trkpt>
      <trkpt lat="50.66623" lon="5.39857">
        <ele>150.39999389648</ele>
        <time>2021-08-01T10:13:07.000Z</time>
      </trkpt>
      <trkpt lat="50.66613" lon="5.39862">
        <ele>150</ele>
        <time>2021-08-01T10:13:09.000Z</time>
      </trkpt>
      <trkpt lat="50.66596" lon="5.39863">
        <ele>150</ele>
        <time>2021-08-01T10:13:12.000Z</time>
      </trkpt>
      <trkpt lat="50.66591" lon="5.39864">
        <ele>150</ele>
        <time>2021-08-01T10:13:13.000Z</time>
      </trkpt>
      <trkpt lat="50.66585" lon="5.39865">
        <ele>150</ele>
        <time>2021-08-01T10:13:14.000Z</time>
      </trkpt>
      <trkpt lat="50.6658" lon="5.39867">
        <ele>150</ele>
        <time>2021-08-01T10:13:15.000Z</time>
      </trkpt>
      <trkpt lat="50.66569" lon="5.39875">
        <ele>150</ele>
        <time>2021-08-01T10:13:17.000Z</time>
      </trkpt>
      <trkpt lat="50.66564" lon="5.3988">
        <ele>150</ele>
        <time>2021-08-01T10:13:18.000Z</time>
      </trkpt>
      <trkpt lat="50.6656" lon="5.39885">
        <ele>150.39999389648</ele>
        <time>2021-08-01T10:13:19.000Z</time>
      </trkpt>
      <trkpt lat="50.66546" lon="5.3991">
        <ele>151</ele>
        <time>2021-08-01T10:13:23.000Z</time>
      </trkpt>
      <trkpt lat="50.66532" lon="5.39934">
        <ele>151.60000610352</ele>
        <time>2021-08-01T10:13:27.000Z</time>
      </trkpt>
      <trkpt lat="50.66527" lon="5.39939">
        <ele>151.60000610352</ele>
        <time>2021-08-01T10:13:28.000Z</time>
      </trkpt>
      <trkpt lat="50.66521" lon="5.3994">
        <ele>151.60000610352</ele>
        <time>2021-08-01T10:13:29.000Z</time>
      </trkpt>
      <trkpt lat="50.6651" lon="5.39936">
        <ele>151.60000610352</ele>
        <time>2021-08-01T10:13:31.000Z</time>
      </trkpt>
      <trkpt lat="50.66504" lon="5.39931">
        <ele>151.60000610352</ele>
        <time>2021-08-01T10:13:32.000Z</time>
      </trkpt>
      <trkpt lat="50.66463" lon="5.39899">
        <ele>151.19999694824</ele>
        <time>2021-08-01T10:13:39.000Z</time>
      </trkpt>
      <trkpt lat="50.66421" lon="5.39874">
        <ele>150.80000305176</ele>
        <time>2021-08-01T10:13:46.000Z</time>
      </trkpt>
      <trkpt lat="50.66416" lon="5.39871">
        <ele>150.80000305176</ele>
        <time>2021-08-01T10:13:47.000Z</time>
      </trkpt>
      <trkpt lat="50.66389" lon="5.39858">
        <ele>151</ele>
        <time>2021-08-01T10:13:52.000Z</time>
      </trkpt>
      <trkpt lat="50.66351" lon="5.39852">
        <ele>151</ele>
        <time>2021-08-01T10:13:58.000Z</time>
      </trkpt>
      <trkpt lat="50.66345" lon="5.39852">
        <ele>151.19999694824</ele>
        <time>2021-08-01T10:13:59.000Z</time>
      </trkpt>
      <trkpt lat="50.66327" lon="5.39855">
        <ele>151.19999694824</ele>
        <time>2021-08-01T10:14:02.000Z</time>
      </trkpt>
      <trkpt lat="50.66315" lon="5.3986">
        <ele>151.19999694824</ele>
        <time>2021-08-01T10:14:04.000Z</time>
      </trkpt>
      <trkpt lat="50.66279" lon="5.3987">
        <ele>151.60000610352</ele>
        <time>2021-08-01T10:14:10.000Z</time>
      </trkpt>
      <trkpt lat="50.66245" lon="5.39874">
        <ele>152.19999694824</ele>
        <time>2021-08-01T10:14:16.000Z</time>
      </trkpt>
      <trkpt lat="50.66218" lon="5.39878">
        <ele>152.39999389648</ele>
        <time>2021-08-01T10:14:21.000Z</time>
      </trkpt>
      <trkpt lat="50.66212" lon="5.39878">
        <ele>152.60000610352</ele>
        <time>2021-08-01T10:14:22.000Z</time>
      </trkpt>
      <trkpt lat="50.66173" lon="5.39874">
        <ele>152.80000305176</ele>
        <time>2021-08-01T10:14:28.000Z</time>
      </trkpt>
      <trkpt lat="50.66154" lon="5.39875">
        <ele>153</ele>
        <time>2021-08-01T10:14:31.000Z</time>
      </trkpt>
      <trkpt lat="50.66142" lon="5.39878">
        <ele>153.60000610352</ele>
        <time>2021-08-01T10:14:33.000Z</time>
      </trkpt>
      <trkpt lat="50.661" lon="5.39889">
        <ele>154.19999694824</ele>
        <time>2021-08-01T10:14:40.000Z</time>
      </trkpt>
      <trkpt lat="50.66074" lon="5.39893">
        <ele>154.80000305176</ele>
        <time>2021-08-01T10:14:44.000Z</time>
      </trkpt>
      <trkpt lat="50.66048" lon="5.399">
        <ele>155</ele>
        <time>2021-08-01T10:14:48.000Z</time>
      </trkpt>
      <trkpt lat="50.66042" lon="5.39902">
        <ele>155.19999694824</ele>
        <time>2021-08-01T10:14:49.000Z</time>
      </trkpt>
      <trkpt lat="50.6603" lon="5.39906">
        <ele>155.19999694824</ele>
        <time>2021-08-01T10:14:51.000Z</time>
      </trkpt>
      <trkpt lat="50.66006" lon="5.39911">
        <ele>155.39999389648</ele>
        <time>2021-08-01T10:14:55.000Z</time>
      </trkpt>
      <trkpt lat="50.65999" lon="5.39912">
        <ele>155.39999389648</ele>
        <time>2021-08-01T10:14:56.000Z</time>
      </trkpt>
      <trkpt lat="50.65975" lon="5.39918">
        <ele>155.80000305176</ele>
        <time>2021-08-01T10:15:00.000Z</time>
      </trkpt>
      <trkpt lat="50.65962" lon="5.39922">
        <ele>156.19999694824</ele>
        <time>2021-08-01T10:15:02.000Z</time>
      </trkpt>
      <trkpt lat="50.65922" lon="5.39933">
        <ele>156.60000610352</ele>
        <time>2021-08-01T10:15:08.000Z</time>
      </trkpt>
      <trkpt lat="50.65894" lon="5.3994">
        <ele>157</ele>
        <time>2021-08-01T10:15:12.000Z</time>
      </trkpt>
      <trkpt lat="50.65853" lon="5.39948">
        <ele>157.80000305176</ele>
        <time>2021-08-01T10:15:18.000Z</time>
      </trkpt>
      <trkpt lat="50.65814" lon="5.39953">
        <ele>158.39999389648</ele>
        <time>2021-08-01T10:15:24.000Z</time>
      </trkpt>
      <trkpt lat="50.65808" lon="5.39955">
        <ele>158.60000610352</ele>
        <time>2021-08-01T10:15:25.000Z</time>
      </trkpt>
      <trkpt lat="50.65795" lon="5.39956">
        <ele>158.60000610352</ele>
        <time>2021-08-01T10:15:27.000Z</time>
      </trkpt>
      <trkpt lat="50.65782" lon="5.39957">
        <ele>158.80000305176</ele>
        <time>2021-08-01T10:15:29.000Z</time>
      </trkpt>
      <trkpt lat="50.65733" lon="5.39968">
        <ele>159.60000610352</ele>
        <time>2021-08-01T10:15:37.000Z</time>
      </trkpt>
      <trkpt lat="50.65691" lon="5.39973">
        <ele>160</ele>
        <time>2021-08-01T10:15:44.000Z</time>
      </trkpt>
      <trkpt lat="50.65672" lon="5.39976">
        <ele>160.80000305176</ele>
        <time>2021-08-01T10:15:49.000Z</time>
      </trkpt>
      <trkpt lat="50.6566" lon="5.39978">
        <ele>161.19999694824</ele>
        <time>2021-08-01T10:15:55.000Z</time>
      </trkpt>
      <trkpt lat="50.65653" lon="5.39978">
        <ele>161.80000305176</ele>
        <time>2021-08-01T10:16:01.000Z</time>
      </trkpt>
      <trkpt lat="50.65638" lon="5.3998">
        <ele>161.80000305176</ele>
        <time>2021-08-01T10:16:06.000Z</time>
      </trkpt>
      <trkpt lat="50.65635" lon="5.3998">
        <ele>161.80000305176</ele>
        <time>2021-08-01T10:16:07.000Z</time>
      </trkpt>
      <trkpt lat="50.6562" lon="5.39981">
        <ele>161.80000305176</ele>
        <time>2021-08-01T10:16:10.000Z</time>
      </trkpt>
      <trkpt lat="50.65615" lon="5.39982">
        <ele>161.80000305176</ele>
        <time>2021-08-01T10:16:11.000Z</time>
      </trkpt>
      <trkpt lat="50.65583" lon="5.39988">
        <ele>161.80000305176</ele>
        <time>2021-08-01T10:16:16.000Z</time>
      </trkpt>
      <trkpt lat="50.65524" lon="5.39995">
        <ele>161.60000610352</ele>
        <time>2021-08-01T10:16:25.000Z</time>
      </trkpt>
      <trkpt lat="50.65467" lon="5.40002">
        <ele>162.39999389648</ele>
        <time>2021-08-01T10:16:34.000Z</time>
      </trkpt>
      <trkpt lat="50.6546" lon="5.40004">
        <ele>162.39999389648</ele>
        <time>2021-08-01T10:16:35.000Z</time>
      </trkpt>
      <trkpt lat="50.65454" lon="5.40006">
        <ele>162.19999694824</ele>
        <time>2021-08-01T10:16:36.000Z</time>
      </trkpt>
      <trkpt lat="50.65395" lon="5.40023">
        <ele>162.39999389648</ele>
        <time>2021-08-01T10:16:45.000Z</time>
      </trkpt>
      <trkpt lat="50.65382" lon="5.40028">
        <ele>162.60000610352</ele>
        <time>2021-08-01T10:16:47.000Z</time>
      </trkpt>
      <trkpt lat="50.65361" lon="5.40035">
        <ele>162.80000305176</ele>
        <time>2021-08-01T10:16:50.000Z</time>
      </trkpt>
      <trkpt lat="50.65304" lon="5.40052">
        <ele>163</ele>
        <time>2021-08-01T10:16:58.000Z</time>
      </trkpt>
      <trkpt lat="50.65297" lon="5.40054">
        <ele>163.19999694824</ele>
        <time>2021-08-01T10:16:59.000Z</time>
      </trkpt>
      <trkpt lat="50.65246" lon="5.40074">
        <ele>163.19999694824</ele>
        <time>2021-08-01T10:17:06.000Z</time>
      </trkpt>
      <trkpt lat="50.65213" lon="5.40096">
        <ele>163.19999694824</ele>
        <time>2021-08-01T10:17:11.000Z</time>
      </trkpt>
      <trkpt lat="50.65193" lon="5.40109">
        <ele>163</ele>
        <time>2021-08-01T10:17:14.000Z</time>
      </trkpt>
      <trkpt lat="50.65186" lon="5.40113">
        <ele>163</ele>
        <time>2021-08-01T10:17:15.000Z</time>
      </trkpt>
      <trkpt lat="50.65173" lon="5.40121">
        <ele>162.80000305176</ele>
        <time>2021-08-01T10:17:17.000Z</time>
      </trkpt>
      <trkpt lat="50.65119" lon="5.40152">
        <ele>162.80000305176</ele>
        <time>2021-08-01T10:17:25.000Z</time>
      </trkpt>
      <trkpt lat="50.6507" lon="5.40172">
        <ele>162.80000305176</ele>
        <time>2021-08-01T10:17:32.000Z</time>
      </trkpt>
      <trkpt lat="50.65063" lon="5.40173">
        <ele>163</ele>
        <time>2021-08-01T10:17:33.000Z</time>
      </trkpt>
      <trkpt lat="50.65035" lon="5.4018">
        <ele>163.39999389648</ele>
        <time>2021-08-01T10:17:37.000Z</time>
      </trkpt>
      <trkpt lat="50.65028" lon="5.40184">
        <ele>163.39999389648</ele>
        <time>2021-08-01T10:17:38.000Z</time>
      </trkpt>
      <trkpt lat="50.64989" lon="5.40214">
        <ele>163.60000610352</ele>
        <time>2021-08-01T10:17:44.000Z</time>
      </trkpt>
      <trkpt lat="50.64977" lon="5.40225">
        <ele>163.80000305176</ele>
        <time>2021-08-01T10:17:46.000Z</time>
      </trkpt>
      <trkpt lat="50.64928" lon="5.40265">
        <ele>164.19999694824</ele>
        <time>2021-08-01T10:17:54.000Z</time>
      </trkpt>
      <trkpt lat="50.64922" lon="5.40271">
        <ele>164.39999389648</ele>
        <time>2021-08-01T10:17:55.000Z</time>
      </trkpt>
      <trkpt lat="50.64903" lon="5.40287">
        <ele>164.60000610352</ele>
        <time>2021-08-01T10:17:58.000Z</time>
      </trkpt>
      <trkpt lat="50.64877" lon="5.40304">
        <ele>165.19999694824</ele>
        <time>2021-08-01T10:18:02.000Z</time>
      </trkpt>
      <trkpt lat="50.6487" lon="5.40307">
        <ele>165.60000610352</ele>
        <time>2021-08-01T10:18:03.000Z</time>
      </trkpt>
      <trkpt lat="50.64863" lon="5.40307">
        <ele>165.60000610352</ele>
        <time>2021-08-01T10:18:04.000Z</time>
      </trkpt>
      <trkpt lat="50.64856" lon="5.40306">
        <ele>165.60000610352</ele>
        <time>2021-08-01T10:18:05.000Z</time>
      </trkpt>
      <trkpt lat="50.64849" lon="5.40303">
        <ele>165.60000610352</ele>
        <time>2021-08-01T10:18:06.000Z</time>
      </trkpt>
      <trkpt lat="50.64803" lon="5.40277">
        <ele>166</ele>
        <time>2021-08-01T10:18:13.000Z</time>
      </trkpt>
      <trkpt lat="50.6479" lon="5.4027">
        <ele>166.39999389648</ele>
        <time>2021-08-01T10:18:15.000Z</time>
      </trkpt>
      <trkpt lat="50.64783" lon="5.40267">
        <ele>166.19999694824</ele>
        <time>2021-08-01T10:18:16.000Z</time>
      </trkpt>
      <trkpt lat="50.6473" lon="5.40238">
        <ele>166.39999389648</ele>
        <time>2021-08-01T10:18:24.000Z</time>
      </trkpt>
      <trkpt lat="50.64723" lon="5.40234">
        <ele>166.60000610352</ele>
        <time>2021-08-01T10:18:25.000Z</time>
      </trkpt>
      <trkpt lat="50.6471" lon="5.40227">
        <ele>166.60000610352</ele>
        <time>2021-08-01T10:18:27.000Z</time>
      </trkpt>
      <trkpt lat="50.64671" lon="5.40207">
        <ele>166.39999389648</ele>
        <time>2021-08-01T10:18:33.000Z</time>
      </trkpt>
      <trkpt lat="50.64658" lon="5.40201">
        <ele>166.60000610352</ele>
        <time>2021-08-01T10:18:35.000Z</time>
      </trkpt>
      <trkpt lat="50.64602" lon="5.40171">
        <ele>167.39999389648</ele>
        <time>2021-08-01T10:18:44.000Z</time>
      </trkpt>
      <trkpt lat="50.64589" lon="5.40165">
        <ele>167.60000610352</ele>
        <time>2021-08-01T10:18:46.000Z</time>
      </trkpt>
      <trkpt lat="50.64551" lon="5.40145">
        <ele>168</ele>
        <time>2021-08-01T10:18:52.000Z</time>
      </trkpt>
      <trkpt lat="50.64507" lon="5.40123">
        <ele>168.19999694824</ele>
        <time>2021-08-01T10:18:59.000Z</time>
      </trkpt>
      <trkpt lat="50.64461" lon="5.40099">
        <ele>168.19999694824</ele>
        <time>2021-08-01T10:19:06.000Z</time>
      </trkpt>
      <trkpt lat="50.64428" lon="5.40082">
        <ele>168.19999694824</ele>
        <time>2021-08-01T10:19:11.000Z</time>
      </trkpt>
      <trkpt lat="50.64415" lon="5.40075">
        <ele>168.19999694824</ele>
        <time>2021-08-01T10:19:13.000Z</time>
      </trkpt>
      <trkpt lat="50.64394" lon="5.40065">
        <ele>168</ele>
        <time>2021-08-01T10:19:16.000Z</time>
      </trkpt>
      <trkpt lat="50.64374" lon="5.40053">
        <ele>168.19999694824</ele>
        <time>2021-08-01T10:19:19.000Z</time>
      </trkpt>
      <trkpt lat="50.64353" lon="5.40042">
        <ele>168.39999389648</ele>
        <time>2021-08-01T10:19:22.000Z</time>
      </trkpt>
      <trkpt lat="50.64332" lon="5.40032">
        <ele>168.60000610352</ele>
        <time>2021-08-01T10:19:25.000Z</time>
      </trkpt>
      <trkpt lat="50.64284" lon="5.40006">
        <ele>167.80000305176</ele>
        <time>2021-08-01T10:19:32.000Z</time>
      </trkpt>
      <trkpt lat="50.64263" lon="5.39995">
        <ele>167.39999389648</ele>
        <time>2021-08-01T10:19:35.000Z</time>
      </trkpt>
      <trkpt lat="50.64242" lon="5.39984">
        <ele>167</ele>
        <time>2021-08-01T10:19:38.000Z</time>
      </trkpt>
      <trkpt lat="50.64185" lon="5.39955">
        <ele>165.80000305176</ele>
        <time>2021-08-01T10:19:46.000Z</time>
      </trkpt>
      <trkpt lat="50.64178" lon="5.39951">
        <ele>165.39999389648</ele>
        <time>2021-08-01T10:19:47.000Z</time>
      </trkpt>
      <trkpt lat="50.64148" lon="5.39936">
        <ele>164.80000305176</ele>
        <time>2021-08-01T10:19:51.000Z</time>
      </trkpt>
      <trkpt lat="50.64141" lon="5.39932">
        <ele>164.80000305176</ele>
        <time>2021-08-01T10:19:52.000Z</time>
      </trkpt>
      <trkpt lat="50.64112" lon="5.39917">
        <ele>164.60000610352</ele>
        <time>2021-08-01T10:19:56.000Z</time>
      </trkpt>
      <trkpt lat="50.64105" lon="5.39914">
        <ele>164.80000305176</ele>
        <time>2021-08-01T10:19:57.000Z</time>
      </trkpt>
      <trkpt lat="50.64084" lon="5.39903">
        <ele>164.60000610352</ele>
        <time>2021-08-01T10:20:00.000Z</time>
      </trkpt>
      <trkpt lat="50.64028" lon="5.39874">
        <ele>164.60000610352</ele>
        <time>2021-08-01T10:20:08.000Z</time>
      </trkpt>
      <trkpt lat="50.64013" lon="5.39867">
        <ele>164.80000305176</ele>
        <time>2021-08-01T10:20:10.000Z</time>
      </trkpt>
      <trkpt lat="50.63955" lon="5.39836">
        <ele>164.39999389648</ele>
        <time>2021-08-01T10:20:18.000Z</time>
      </trkpt>
      <trkpt lat="50.63941" lon="5.39828">
        <ele>164.39999389648</ele>
        <time>2021-08-01T10:20:20.000Z</time>
      </trkpt>
      <trkpt lat="50.63933" lon="5.39825">
        <ele>164.39999389648</ele>
        <time>2021-08-01T10:20:21.000Z</time>
      </trkpt>
      <trkpt lat="50.63881" lon="5.39798">
        <ele>164</ele>
        <time>2021-08-01T10:20:28.000Z</time>
      </trkpt>
      <trkpt lat="50.63852" lon="5.39782">
        <ele>163.60000610352</ele>
        <time>2021-08-01T10:20:32.000Z</time>
      </trkpt>
      <trkpt lat="50.63822" lon="5.39767">
        <ele>163.39999389648</ele>
        <time>2021-08-01T10:20:36.000Z</time>
      </trkpt>
      <trkpt lat="50.63777" lon="5.39744">
        <ele>163.19999694824</ele>
        <time>2021-08-01T10:20:42.000Z</time>
      </trkpt>
      <trkpt lat="50.63725" lon="5.39717">
        <ele>162.60000610352</ele>
        <time>2021-08-01T10:20:49.000Z</time>
      </trkpt>
      <trkpt lat="50.63694" lon="5.39701">
        <ele>162.19999694824</ele>
        <time>2021-08-01T10:20:53.000Z</time>
      </trkpt>
      <trkpt lat="50.63641" lon="5.39673">
        <ele>161.19999694824</ele>
        <time>2021-08-01T10:21:00.000Z</time>
      </trkpt>
      <trkpt lat="50.63627" lon="5.39665">
        <ele>161.19999694824</ele>
        <time>2021-08-01T10:21:02.000Z</time>
      </trkpt>
      <trkpt lat="50.6362" lon="5.39661">
        <ele>161</ele>
        <time>2021-08-01T10:21:03.000Z</time>
      </trkpt>
      <trkpt lat="50.63583" lon="5.39643">
        <ele>160.19999694824</ele>
        <time>2021-08-01T10:21:08.000Z</time>
      </trkpt>
      <trkpt lat="50.63575" lon="5.3964">
        <ele>160.19999694824</ele>
        <time>2021-08-01T10:21:09.000Z</time>
      </trkpt>
      <trkpt lat="50.63561" lon="5.39633">
        <ele>160.19999694824</ele>
        <time>2021-08-01T10:21:11.000Z</time>
      </trkpt>
      <trkpt lat="50.63554" lon="5.39629">
        <ele>160</ele>
        <time>2021-08-01T10:21:12.000Z</time>
      </trkpt>
      <trkpt lat="50.63529" lon="5.39615">
        <ele>159.39999389648</ele>
        <time>2021-08-01T10:21:16.000Z</time>
      </trkpt>
      <trkpt lat="50.63524" lon="5.39611">
        <ele>159.19999694824</ele>
        <time>2021-08-01T10:21:17.000Z</time>
      </trkpt>
      <trkpt lat="50.63517" lon="5.39603">
        <ele>158.60000610352</ele>
        <time>2021-08-01T10:21:19.000Z</time>
      </trkpt>
      <trkpt lat="50.63509" lon="5.39606">
        <ele>158.19999694824</ele>
        <time>2021-08-01T10:21:21.000Z</time>
      </trkpt>
      <trkpt lat="50.63502" lon="5.3962">
        <ele>158.19999694824</ele>
        <time>2021-08-01T10:21:23.000Z</time>
      </trkpt>
      <trkpt lat="50.63499" lon="5.39629">
        <ele>158</ele>
        <time>2021-08-01T10:21:24.000Z</time>
      </trkpt>
      <trkpt lat="50.63494" lon="5.39637">
        <ele>158</ele>
        <time>2021-08-01T10:21:25.000Z</time>
      </trkpt>
      <trkpt lat="50.63485" lon="5.3965">
        <ele>157.80000305176</ele>
        <time>2021-08-01T10:21:27.000Z</time>
      </trkpt>
      <trkpt lat="50.6348" lon="5.39657">
        <ele>157.80000305176</ele>
        <time>2021-08-01T10:21:28.000Z</time>
      </trkpt>
      <trkpt lat="50.63443" lon="5.39704">
        <ele>157.39999389648</ele>
        <time>2021-08-01T10:21:35.000Z</time>
      </trkpt>
      <trkpt lat="50.63432" lon="5.39719">
        <ele>156.80000305176</ele>
        <time>2021-08-01T10:21:37.000Z</time>
      </trkpt>
      <trkpt lat="50.63398" lon="5.39764">
        <ele>156.39999389648</ele>
        <time>2021-08-01T10:21:43.000Z</time>
      </trkpt>
      <trkpt lat="50.63353" lon="5.39823">
        <ele>155.39999389648</ele>
        <time>2021-08-01T10:21:51.000Z</time>
      </trkpt>
      <trkpt lat="50.63342" lon="5.39838">
        <ele>155.19999694824</ele>
        <time>2021-08-01T10:21:53.000Z</time>
      </trkpt>
      <trkpt lat="50.63325" lon="5.39861">
        <ele>155</ele>
        <time>2021-08-01T10:21:56.000Z</time>
      </trkpt>
      <trkpt lat="50.63297" lon="5.399">
        <ele>154.80000305176</ele>
        <time>2021-08-01T10:22:01.000Z</time>
      </trkpt>
      <trkpt lat="50.63249" lon="5.39962">
        <ele>153.80000305176</ele>
        <time>2021-08-01T10:22:09.000Z</time>
      </trkpt>
      <trkpt lat="50.63243" lon="5.3997">
        <ele>153.80000305176</ele>
        <time>2021-08-01T10:22:10.000Z</time>
      </trkpt>
      <trkpt lat="50.63196" lon="5.40031">
        <ele>153</ele>
        <time>2021-08-01T10:22:18.000Z</time>
      </trkpt>
      <trkpt lat="50.6319" lon="5.40039">
        <ele>153</ele>
        <time>2021-08-01T10:22:19.000Z</time>
      </trkpt>
      <trkpt lat="50.63184" lon="5.40046">
        <ele>152.80000305176</ele>
        <time>2021-08-01T10:22:20.000Z</time>
      </trkpt>
      <trkpt lat="50.63137" lon="5.40107">
        <ele>152</ele>
        <time>2021-08-01T10:22:28.000Z</time>
      </trkpt>
      <trkpt lat="50.6312" lon="5.4013">
        <ele>151.60000610352</ele>
        <time>2021-08-01T10:22:31.000Z</time>
      </trkpt>
      <trkpt lat="50.63108" lon="5.40146">
        <ele>151.60000610352</ele>
        <time>2021-08-01T10:22:33.000Z</time>
      </trkpt>
      <trkpt lat="50.63066" lon="5.402">
        <ele>151</ele>
        <time>2021-08-01T10:22:40.000Z</time>
      </trkpt>
      <trkpt lat="50.63042" lon="5.40231">
        <ele>150.60000610352</ele>
        <time>2021-08-01T10:22:44.000Z</time>
      </trkpt>
      <trkpt lat="50.63018" lon="5.40261">
        <ele>150</ele>
        <time>2021-08-01T10:22:48.000Z</time>
      </trkpt>
      <trkpt lat="50.62973" lon="5.40319">
        <ele>149.39999389648</ele>
        <time>2021-08-01T10:22:56.000Z</time>
      </trkpt>
      <trkpt lat="50.62968" lon="5.40326">
        <ele>149.19999694824</ele>
        <time>2021-08-01T10:22:57.000Z</time>
      </trkpt>
      <trkpt lat="50.62956" lon="5.40341">
        <ele>149</ele>
        <time>2021-08-01T10:22:59.000Z</time>
      </trkpt>
      <trkpt lat="50.62928" lon="5.40379">
        <ele>148.39999389648</ele>
        <time>2021-08-01T10:23:04.000Z</time>
      </trkpt>
      <trkpt lat="50.62882" lon="5.40439">
        <ele>148.19999694824</ele>
        <time>2021-08-01T10:23:12.000Z</time>
      </trkpt>
      <trkpt lat="50.62848" lon="5.40485">
        <ele>148</ele>
        <time>2021-08-01T10:23:18.000Z</time>
      </trkpt>
      <trkpt lat="50.62821" lon="5.40519">
        <ele>147.80000305176</ele>
        <time>2021-08-01T10:23:23.000Z</time>
      </trkpt>
      <trkpt lat="50.62796" lon="5.40551">
        <ele>148</ele>
        <time>2021-08-01T10:23:28.000Z</time>
      </trkpt>
      <trkpt lat="50.62786" lon="5.40564">
        <ele>148.19999694824</ele>
        <time>2021-08-01T10:23:30.000Z</time>
      </trkpt>
      <trkpt lat="50.62772" lon="5.40582">
        <ele>148.80000305176</ele>
        <time>2021-08-01T10:23:33.000Z</time>
        <extensions>
          <visugpx:TrkExtension xmlns:visugpx="https://www.visugpx.com/editgpx/">
            <visugpx:node>12</visugpx:node>
            </visugpx:TrkExtension>
        </extensions>
      </trkpt>
      <trkpt lat="50.62766" lon="5.4059">
        <ele>158.5</ele>
      </trkpt>
      <trkpt lat="50.62309" lon="5.4119">
        <ele>176.9</ele>
      </trkpt>
      <trkpt lat="50.62225" lon="5.41082">
        <ele>178</ele>
      </trkpt>
      <trkpt lat="50.62103" lon="5.41123">
        <ele>180.6</ele>
      </trkpt>
      <trkpt lat="50.61921" lon="5.41234">
        <ele>183</ele>
      </trkpt>
      <trkpt lat="50.62015" lon="5.41559">
        <ele>185.8</ele>
      </trkpt>
      <trkpt lat="50.61915" lon="5.41698">
        <ele>187</ele>
      </trkpt>
      <trkpt lat="50.61891" lon="5.41958">
        <ele>187.5</ele>
      </trkpt>
      <trkpt lat="50.61904" lon="5.42267">
        <ele>189.8</ele>
      </trkpt>
      <trkpt lat="50.61819" lon="5.42468">
        <ele>193.4</ele>
      </trkpt>
      <trkpt lat="50.61808" lon="5.42587">
        <ele>190.2</ele>
      </trkpt>
      <trkpt lat="50.61822" lon="5.42679">
        <ele>187.1</ele>
      </trkpt>
      <trkpt lat="50.61798" lon="5.42767">
        <ele>185.4</ele>
      </trkpt>
      <trkpt lat="50.61769" lon="5.42886">
        <ele>190</ele>
      </trkpt>
      <trkpt lat="50.61847" lon="5.4298">
        <ele>192.9</ele>
      </trkpt>
      <trkpt lat="50.61949" lon="5.43126">
        <ele>192.2</ele>
      </trkpt>
      <trkpt lat="50.62065" lon="5.43214">
        <ele>192.3</ele>
      </trkpt>
      <trkpt lat="50.62154" lon="5.43313">
        <ele>194.1</ele>
      </trkpt>
      <trkpt lat="50.62212" lon="5.43477">
        <ele>191.4</ele>
      </trkpt>
      <trkpt lat="50.62207" lon="5.43485">
        <ele>190.7</ele>
      </trkpt>
      <trkpt lat="50.62206" lon="5.4349">
        <ele>190.4</ele>
      </trkpt>
      <trkpt lat="50.62207" lon="5.43502">
        <ele>189.9</ele>
      </trkpt>
      <trkpt lat="50.6221" lon="5.43508">
        <ele>190</ele>
      </trkpt>
      <trkpt lat="50.62218" lon="5.43512">
        <ele>190.3</ele>
      </trkpt>
      <trkpt lat="50.62226" lon="5.43508">
        <ele>190.8</ele>
      </trkpt>
      <trkpt lat="50.62237" lon="5.43532">
        <ele>190.5</ele>
      </trkpt>
      <trkpt lat="50.6232" lon="5.43752">
        <ele>183.4</ele>
      </trkpt>
      <trkpt lat="50.62332" lon="5.43791">
        <ele>182.9</ele>
      </trkpt>
      <trkpt lat="50.62343" lon="5.43836">
        <ele>184.3</ele>
      </trkpt>
      <trkpt lat="50.62373" lon="5.44003">
        <ele>186.4</ele>
      </trkpt>
      <trkpt lat="50.62312" lon="5.44116">
        <ele>186.4</ele>
      </trkpt>
      <trkpt lat="50.62303" lon="5.44148">
        <ele>186.9</ele>
      </trkpt>
      <trkpt lat="50.62302" lon="5.44165">
        <ele>187</ele>
      </trkpt>
      <trkpt lat="50.62307" lon="5.44209">
        <ele>187.6</ele>
      </trkpt>
      <trkpt lat="50.6232" lon="5.4426">
        <ele>188.8</ele>
      </trkpt>
      <trkpt lat="50.62335" lon="5.44335">
        <ele>189.1</ele>
      </trkpt>
      <trkpt lat="50.62346" lon="5.44416">
        <ele>190.4</ele>
      </trkpt>
      <trkpt lat="50.62351" lon="5.44473">
        <ele>191.6</ele>
      </trkpt>
      <trkpt lat="50.62353" lon="5.44583">
        <ele>192.3</ele>
      </trkpt>
      <trkpt lat="50.62349" lon="5.44637">
        <ele>192</ele>
      </trkpt>
      <trkpt lat="50.62324" lon="5.44871">
        <ele>189.9</ele>
        <extensions>
          <visugpx:TrkExtension xmlns:visugpx="https://www.visugpx.com/editgpx/">
            <visugpx:node>13</visugpx:node>
            </visugpx:TrkExtension>
        </extensions>
      </trkpt>
    </trkseg>
  </trk>
</gpx>